<?xml version='1.0' encoding='UTF-8'?><gpx version="1.1" creator="JPX - https://github.com/jenetics/jpx" xmlns="http://www.topografix.com/GPX/1/1"><trk><trkseg><trkpt lat="43.1422972" lon="12.2249151"><ele>237.0</ele><time>2026-04-19T06:25:49.269Z</time></trkpt><trkpt lat="43.1425412" lon="12.2249958"><ele>237.0</ele><time>2026-04-19T06:25:53.254Z</time></trkpt><trkpt lat="43.1426248" lon="12.2249936"><ele>237.0</ele><time>2026-04-19T06:25:54.247Z</time></trkpt><trkpt lat="43.1426877" lon="12.2249666"><ele>237.0</ele><time>2026-04-19T06:25:55.245Z</time></trkpt><trkpt lat="43.1427411" lon="12.2249142"><ele>237.0</ele><time>2026-04-19T06:25:56.253Z</time></trkpt><trkpt lat="43.1428179" lon="12.2248574"><ele>237.0</ele><time>2026-04-19T06:25:58.267Z</time></trkpt><trkpt lat="43.1428876" lon="12.2248298"><ele>237.0</ele><time>2026-04-19T06:26:00.269Z</time></trkpt><trkpt lat="43.1429875" lon="12.2247063"><ele>237.0</ele><time>2026-04-19T06:26:02.261Z</time></trkpt><trkpt lat="43.1430357" lon="12.224616"><ele>237.0</ele><time>2026-04-19T06:26:03.259Z</time></trkpt><trkpt lat="43.1430818" lon="12.2245256"><ele>237.0</ele><time>2026-04-19T06:26:04.269Z</time></trkpt><trkpt lat="43.1431275" lon="12.2244355"><ele>237.0</ele><time>2026-04-19T06:26:05.259Z</time></trkpt><trkpt lat="43.1431774" lon="12.2243479"><ele>237.0</ele><time>2026-04-19T06:26:06.259Z</time></trkpt><trkpt lat="43.1432299" lon="12.2242649"><ele>237.0</ele><time>2026-04-19T06:26:07.257Z</time></trkpt><trkpt lat="43.1432835" lon="12.2241822"><ele>237.0</ele><time>2026-04-19T06:26:08.255Z</time></trkpt><trkpt lat="43.1433433" lon="12.2240964"><ele>237.0</ele><time>2026-04-19T06:26:09.257Z</time></trkpt><trkpt lat="43.1434128" lon="12.2239982"><ele>238.0</ele><time>2026-04-19T06:26:10.259Z</time></trkpt><trkpt lat="43.143493" lon="12.2238971"><ele>239.0</ele><time>2026-04-19T06:26:11.259Z</time></trkpt><trkpt lat="43.1435781" lon="12.2237977"><ele>240.0</ele><time>2026-04-19T06:26:12.256Z</time></trkpt><trkpt lat="43.143672" lon="12.223695"><ele>241.0</ele><time>2026-04-19T06:26:13.253Z</time></trkpt><trkpt lat="43.1437773" lon="12.2235803"><ele>241.0</ele><time>2026-04-19T06:26:14.259Z</time></trkpt><trkpt lat="43.1438865" lon="12.2234577"><ele>241.0</ele><time>2026-04-19T06:26:15.261Z</time></trkpt><trkpt lat="43.1439943" lon="12.223334"><ele>241.0</ele><time>2026-04-19T06:26:16.26Z</time></trkpt><trkpt lat="43.1441022" lon="12.2232081"><ele>241.0</ele><time>2026-04-19T06:26:17.264Z</time></trkpt><trkpt lat="43.1442076" lon="12.2230825"><ele>241.33333333333331</ele><time>2026-04-19T06:26:18.257Z</time></trkpt><trkpt lat="43.1443147" lon="12.2229561"><ele>241.66666666666669</ele><time>2026-04-19T06:26:19.259Z</time></trkpt><trkpt lat="43.1444408" lon="12.2228275"><ele>242.0</ele><time>2026-04-19T06:26:20.253Z</time></trkpt><trkpt lat="43.1445929" lon="12.2227033"><ele>242.0</ele><time>2026-04-19T06:26:21.252Z</time></trkpt><trkpt lat="43.1447582" lon="12.2225815"><ele>242.0</ele><time>2026-04-19T06:26:22.26Z</time></trkpt><trkpt lat="43.1449112" lon="12.2224739"><ele>242.0</ele><time>2026-04-19T06:26:23.253Z</time></trkpt><trkpt lat="43.1450525" lon="12.2223843"><ele>242.0</ele><time>2026-04-19T06:26:24.255Z</time></trkpt><trkpt lat="43.145187" lon="12.2222935"><ele>242.0</ele><time>2026-04-19T06:26:25.254Z</time></trkpt><trkpt lat="43.1453217" lon="12.2222095"><ele>242.0</ele><time>2026-04-19T06:26:26.248Z</time></trkpt><trkpt lat="43.1454634" lon="12.2221261"><ele>242.0</ele><time>2026-04-19T06:26:27.255Z</time></trkpt><trkpt lat="43.1456133" lon="12.2220388"><ele>242.0</ele><time>2026-04-19T06:26:28.25Z</time></trkpt><trkpt lat="43.14578" lon="12.221937"><ele>242.0</ele><time>2026-04-19T06:26:29.266Z</time></trkpt><trkpt lat="43.1459566" lon="12.2218247"><ele>242.0</ele><time>2026-04-19T06:26:30.254Z</time></trkpt><trkpt lat="43.1461353" lon="12.2217059"><ele>242.0</ele><time>2026-04-19T06:26:31.254Z</time></trkpt><trkpt lat="43.1463013" lon="12.221595"><ele>242.0</ele><time>2026-04-19T06:26:32.261Z</time></trkpt><trkpt lat="43.1464552" lon="12.2214922"><ele>242.66666666666669</ele><time>2026-04-19T06:26:33.261Z</time></trkpt><trkpt lat="43.1465977" lon="12.2213867"><ele>243.33333333333331</ele><time>2026-04-19T06:26:34.25Z</time></trkpt><trkpt lat="43.1467483" lon="12.2212847"><ele>244.0</ele><time>2026-04-19T06:26:35.257Z</time></trkpt><trkpt lat="43.1469075" lon="12.2211746"><ele>244.0</ele><time>2026-04-19T06:26:36.252Z</time></trkpt><trkpt lat="43.1470717" lon="12.2210656"><ele>244.0</ele><time>2026-04-19T06:26:37.255Z</time></trkpt><trkpt lat="43.1472278" lon="12.2209581"><ele>244.0</ele><time>2026-04-19T06:26:38.249Z</time></trkpt><trkpt lat="43.1473696" lon="12.2208666"><ele>244.0</ele><time>2026-04-19T06:26:39.25Z</time></trkpt><trkpt lat="43.1475015" lon="12.2207783"><ele>244.0</ele><time>2026-04-19T06:26:40.257Z</time></trkpt><trkpt lat="43.1476354" lon="12.2206891"><ele>244.0</ele><time>2026-04-19T06:26:41.26Z</time></trkpt><trkpt lat="43.1477695" lon="12.2206024"><ele>244.0</ele><time>2026-04-19T06:26:42.254Z</time></trkpt><trkpt lat="43.1478909" lon="12.2205238"><ele>243.83333333333331</ele><time>2026-04-19T06:26:43.252Z</time></trkpt><trkpt lat="43.1480002" lon="12.2204571"><ele>243.66666666666666</ele><time>2026-04-19T06:26:44.254Z</time></trkpt><trkpt lat="43.1480975" lon="12.2204066"><ele>243.5</ele><time>2026-04-19T06:26:45.257Z</time></trkpt><trkpt lat="43.1481765" lon="12.220383"><ele>243.33333333333331</ele><time>2026-04-19T06:26:46.252Z</time></trkpt><trkpt lat="43.1482405" lon="12.2203811"><ele>243.16666666666666</ele><time>2026-04-19T06:26:47.256Z</time></trkpt><trkpt lat="43.1482918" lon="12.220432"><ele>243.0</ele><time>2026-04-19T06:26:48.253Z</time></trkpt><trkpt lat="43.148332" lon="12.2205078"><ele>243.0</ele><time>2026-04-19T06:26:49.258Z</time></trkpt><trkpt lat="43.1483744" lon="12.2206087"><ele>243.0</ele><time>2026-04-19T06:26:50.243Z</time></trkpt><trkpt lat="43.1484207" lon="12.2207477"><ele>243.0</ele><time>2026-04-19T06:26:51.247Z</time></trkpt><trkpt lat="43.1484634" lon="12.220897"><ele>243.0</ele><time>2026-04-19T06:26:52.25Z</time></trkpt><trkpt lat="43.1485068" lon="12.2210249"><ele>243.0</ele><time>2026-04-19T06:26:53.25Z</time></trkpt><trkpt lat="43.1485665" lon="12.221098"><ele>243.75</ele><time>2026-04-19T06:26:54.247Z</time></trkpt><trkpt lat="43.148652" lon="12.2211195"><ele>244.5</ele><time>2026-04-19T06:26:55.24Z</time></trkpt><trkpt lat="43.1487619" lon="12.2211213"><ele>245.25</ele><time>2026-04-19T06:26:56.242Z</time></trkpt><trkpt lat="43.1488857" lon="12.2211203"><ele>246.0</ele><time>2026-04-19T06:26:57.24Z</time></trkpt><trkpt lat="43.1490154" lon="12.2211331"><ele>246.0</ele><time>2026-04-19T06:26:58.244Z</time></trkpt><trkpt lat="43.1491371" lon="12.2211671"><ele>246.0</ele><time>2026-04-19T06:26:59.238Z</time></trkpt><trkpt lat="43.1492617" lon="12.2212125"><ele>246.0</ele><time>2026-04-19T06:27:00.245Z</time></trkpt><trkpt lat="43.1493888" lon="12.2212659"><ele>246.0</ele><time>2026-04-19T06:27:01.249Z</time></trkpt><trkpt lat="43.1495232" lon="12.2213206"><ele>246.0</ele><time>2026-04-19T06:27:02.252Z</time></trkpt><trkpt lat="43.1496724" lon="12.2213696"><ele>246.0</ele><time>2026-04-19T06:27:03.262Z</time></trkpt><trkpt lat="43.1498232" lon="12.2214022"><ele>246.0</ele><time>2026-04-19T06:27:04.25Z</time></trkpt><trkpt lat="43.1499616" lon="12.2214366"><ele>246.0</ele><time>2026-04-19T06:27:05.249Z</time></trkpt><trkpt lat="43.1500926" lon="12.2214675"><ele>246.25</ele><time>2026-04-19T06:27:06.249Z</time></trkpt><trkpt lat="43.1502224" lon="12.2214937"><ele>246.5</ele><time>2026-04-19T06:27:07.25Z</time></trkpt><trkpt lat="43.1503495" lon="12.2215214"><ele>246.75</ele><time>2026-04-19T06:27:08.248Z</time></trkpt><trkpt lat="43.1504765" lon="12.2215584"><ele>247.0</ele><time>2026-04-19T06:27:09.249Z</time></trkpt><trkpt lat="43.1506149" lon="12.221597"><ele>247.0</ele><time>2026-04-19T06:27:10.25Z</time></trkpt><trkpt lat="43.1507535" lon="12.2216376"><ele>247.0</ele><time>2026-04-19T06:27:11.249Z</time></trkpt><trkpt lat="43.1509" lon="12.2216766"><ele>247.0</ele><time>2026-04-19T06:27:12.248Z</time></trkpt><trkpt lat="43.1510475" lon="12.2217143"><ele>247.0</ele><time>2026-04-19T06:27:13.247Z</time></trkpt><trkpt lat="43.1511902" lon="12.2217619"><ele>247.0</ele><time>2026-04-19T06:27:14.246Z</time></trkpt><trkpt lat="43.1513181" lon="12.2218038"><ele>247.0</ele><time>2026-04-19T06:27:15.245Z</time></trkpt><trkpt lat="43.1514447" lon="12.2218446"><ele>247.0</ele><time>2026-04-19T06:27:16.244Z</time></trkpt><trkpt lat="43.1515691" lon="12.2218901"><ele>247.0</ele><time>2026-04-19T06:27:17.257Z</time></trkpt><trkpt lat="43.1517029" lon="12.2219236"><ele>247.25</ele><time>2026-04-19T06:27:18.247Z</time></trkpt><trkpt lat="43.151837" lon="12.2219661"><ele>247.5</ele><time>2026-04-19T06:27:19.249Z</time></trkpt><trkpt lat="43.1519754" lon="12.2220084"><ele>247.75</ele><time>2026-04-19T06:27:20.249Z</time></trkpt><trkpt lat="43.1521134" lon="12.2220539"><ele>248.0</ele><time>2026-04-19T06:27:21.252Z</time></trkpt><trkpt lat="43.1522572" lon="12.2221003"><ele>248.0</ele><time>2026-04-19T06:27:22.251Z</time></trkpt><trkpt lat="43.1524091" lon="12.2221377"><ele>248.0</ele><time>2026-04-19T06:27:23.249Z</time></trkpt><trkpt lat="43.1525668" lon="12.222172"><ele>248.0</ele><time>2026-04-19T06:27:24.251Z</time></trkpt><trkpt lat="43.1527171" lon="12.2222011"><ele>248.0</ele><time>2026-04-19T06:27:25.25Z</time></trkpt><trkpt lat="43.1528592" lon="12.2222382"><ele>248.0</ele><time>2026-04-19T06:27:26.244Z</time></trkpt><trkpt lat="43.1529989" lon="12.2222805"><ele>248.0</ele><time>2026-04-19T06:27:27.251Z</time></trkpt><trkpt lat="43.1531316" lon="12.222315"><ele>248.0</ele><time>2026-04-19T06:27:28.251Z</time></trkpt><trkpt lat="43.1532605" lon="12.2223565"><ele>249.0</ele><time>2026-04-19T06:27:29.252Z</time></trkpt><trkpt lat="43.1533898" lon="12.2224055"><ele>250.0</ele><time>2026-04-19T06:27:30.255Z</time></trkpt><trkpt lat="43.1535205" lon="12.2224787"><ele>251.0</ele><time>2026-04-19T06:27:31.258Z</time></trkpt><trkpt lat="43.1536481" lon="12.2225597"><ele>252.0</ele><time>2026-04-19T06:27:32.256Z</time></trkpt><trkpt lat="43.1537674" lon="12.2226702"><ele>252.0</ele><time>2026-04-19T06:27:33.257Z</time></trkpt><trkpt lat="43.1538893" lon="12.2228108"><ele>252.0</ele><time>2026-04-19T06:27:34.288Z</time></trkpt><trkpt lat="43.1540072" lon="12.2229524"><ele>252.0</ele><time>2026-04-19T06:27:35.254Z</time></trkpt><trkpt lat="43.1541184" lon="12.2230656"><ele>251.5</ele><time>2026-04-19T06:27:36.255Z</time></trkpt><trkpt lat="43.1542073" lon="12.2231437"><ele>251.0</ele><time>2026-04-19T06:27:37.252Z</time></trkpt><trkpt lat="43.1543055" lon="12.2231925"><ele>250.5</ele><time>2026-04-19T06:27:38.253Z</time></trkpt><trkpt lat="43.1544222" lon="12.2232108"><ele>250.0</ele><time>2026-04-19T06:27:39.249Z</time></trkpt><trkpt lat="43.1545445" lon="12.2232011"><ele>251.25</ele><time>2026-04-19T06:27:40.249Z</time></trkpt><trkpt lat="43.1546678" lon="12.2231968"><ele>252.5</ele><time>2026-04-19T06:27:41.25Z</time></trkpt><trkpt lat="43.154795" lon="12.2231992"><ele>253.75</ele><time>2026-04-19T06:27:42.253Z</time></trkpt><trkpt lat="43.1549225" lon="12.2232121"><ele>255.0</ele><time>2026-04-19T06:27:43.251Z</time></trkpt><trkpt lat="43.1550494" lon="12.2232299"><ele>255.5</ele><time>2026-04-19T06:27:44.254Z</time></trkpt><trkpt lat="43.1551757" lon="12.2232484"><ele>256.0</ele><time>2026-04-19T06:27:45.256Z</time></trkpt><trkpt lat="43.1553013" lon="12.2232689"><ele>256.5</ele><time>2026-04-19T06:27:46.254Z</time></trkpt><trkpt lat="43.1554209" lon="12.2232909"><ele>257.0</ele><time>2026-04-19T06:27:47.254Z</time></trkpt><trkpt lat="43.1555356" lon="12.223311"><ele>257.0</ele><time>2026-04-19T06:27:48.254Z</time></trkpt><trkpt lat="43.1556504" lon="12.2233333"><ele>257.0</ele><time>2026-04-19T06:27:49.255Z</time></trkpt><trkpt lat="43.1557648" lon="12.2233629"><ele>257.0</ele><time>2026-04-19T06:27:50.252Z</time></trkpt><trkpt lat="43.155881" lon="12.2234032"><ele>257.0</ele><time>2026-04-19T06:27:51.253Z</time></trkpt><trkpt lat="43.1559966" lon="12.2234555"><ele>256.75</ele><time>2026-04-19T06:27:52.254Z</time></trkpt><trkpt lat="43.1561097" lon="12.2235116"><ele>256.5</ele><time>2026-04-19T06:27:53.251Z</time></trkpt><trkpt lat="43.1562173" lon="12.2235635"><ele>256.25</ele><time>2026-04-19T06:27:54.255Z</time></trkpt><trkpt lat="43.1563222" lon="12.2235994"><ele>256.0</ele><time>2026-04-19T06:27:55.253Z</time></trkpt><trkpt lat="43.1564301" lon="12.223622"><ele>255.4</ele><time>2026-04-19T06:27:56.252Z</time></trkpt><trkpt lat="43.1565391" lon="12.2236336"><ele>254.8</ele><time>2026-04-19T06:27:57.251Z</time></trkpt><trkpt lat="43.1566496" lon="12.2236418"><ele>254.20000000000002</ele><time>2026-04-19T06:27:58.251Z</time></trkpt><trkpt lat="43.1567608" lon="12.2236472"><ele>253.60000000000002</ele><time>2026-04-19T06:27:59.252Z</time></trkpt><trkpt lat="43.1568643" lon="12.2236518"><ele>253.0</ele><time>2026-04-19T06:28:00.25Z</time></trkpt><trkpt lat="43.1569617" lon="12.2236537"><ele>253.0</ele><time>2026-04-19T06:28:01.248Z</time></trkpt><trkpt lat="43.1570585" lon="12.2236597"><ele>253.0</ele><time>2026-04-19T06:28:02.253Z</time></trkpt><trkpt lat="43.1571557" lon="12.2236646"><ele>253.0</ele><time>2026-04-19T06:28:03.251Z</time></trkpt><trkpt lat="43.1572599" lon="12.2236781"><ele>253.0</ele><time>2026-04-19T06:28:04.263Z</time></trkpt><trkpt lat="43.1573549" lon="12.223692"><ele>253.0</ele><time>2026-04-19T06:28:05.246Z</time></trkpt><trkpt lat="43.1574427" lon="12.2237056"><ele>253.16666666666666</ele><time>2026-04-19T06:28:06.247Z</time></trkpt><trkpt lat="43.1575281" lon="12.2237197"><ele>253.33333333333331</ele><time>2026-04-19T06:28:07.252Z</time></trkpt><trkpt lat="43.1576052" lon="12.2237424"><ele>253.5</ele><time>2026-04-19T06:28:08.252Z</time></trkpt><trkpt lat="43.1576768" lon="12.2237658"><ele>253.66666666666669</ele><time>2026-04-19T06:28:09.245Z</time></trkpt><trkpt lat="43.1577399" lon="12.2237858"><ele>253.83333333333334</ele><time>2026-04-19T06:28:10.248Z</time></trkpt><trkpt lat="43.1578427" lon="12.2238276"><ele>254.0</ele><time>2026-04-19T06:28:12.252Z</time></trkpt><trkpt lat="43.1579486" lon="12.2238758"><ele>254.0</ele><time>2026-04-19T06:28:14.257Z</time></trkpt><trkpt lat="43.1580052" lon="12.223915"><ele>254.0</ele><time>2026-04-19T06:28:15.258Z</time></trkpt><trkpt lat="43.1580641" lon="12.2239652"><ele>254.0</ele><time>2026-04-19T06:28:16.258Z</time></trkpt><trkpt lat="43.1581232" lon="12.2240231"><ele>254.0</ele><time>2026-04-19T06:28:17.266Z</time></trkpt><trkpt lat="43.1581786" lon="12.2240814"><ele>254.0</ele><time>2026-04-19T06:28:18.258Z</time></trkpt><trkpt lat="43.1582354" lon="12.2241426"><ele>254.0</ele><time>2026-04-19T06:28:19.259Z</time></trkpt><trkpt lat="43.1582867" lon="12.2242043"><ele>254.0</ele><time>2026-04-19T06:28:20.262Z</time></trkpt><trkpt lat="43.1583392" lon="12.2242652"><ele>254.2</ele><time>2026-04-19T06:28:21.257Z</time></trkpt><trkpt lat="43.1583891" lon="12.2243255"><ele>254.39999999999998</ele><time>2026-04-19T06:28:22.262Z</time></trkpt><trkpt lat="43.1584779" lon="12.2244136"><ele>254.6</ele><time>2026-04-19T06:28:24.263Z</time></trkpt><trkpt lat="43.1585661" lon="12.2244836"><ele>254.8</ele><time>2026-04-19T06:28:26.263Z</time></trkpt><trkpt lat="43.1586452" lon="12.2245511"><ele>255.0</ele><time>2026-04-19T06:28:28.259Z</time></trkpt><trkpt lat="43.1587359" lon="12.224624"><ele>255.0</ele><time>2026-04-19T06:28:30.255Z</time></trkpt><trkpt lat="43.1587973" lon="12.2246614"><ele>255.00000000000003</ele><time>2026-04-19T06:28:31.261Z</time></trkpt><trkpt lat="43.1588647" lon="12.2246913"><ele>255.0</ele><time>2026-04-19T06:28:32.263Z</time></trkpt><trkpt lat="43.1589403" lon="12.2247213"><ele>255.0</ele><time>2026-04-19T06:28:33.259Z</time></trkpt><trkpt lat="43.1590181" lon="12.2247492"><ele>255.00000000000003</ele><time>2026-04-19T06:28:34.262Z</time></trkpt><trkpt lat="43.1590926" lon="12.2247701"><ele>255.0</ele><time>2026-04-19T06:28:35.274Z</time></trkpt><trkpt lat="43.1591593" lon="12.2247944"><ele>255.0</ele><time>2026-04-19T06:28:36.258Z</time></trkpt><trkpt lat="43.159224" lon="12.2248296"><ele>255.33333333333334</ele><time>2026-04-19T06:28:37.26Z</time></trkpt><trkpt lat="43.1592933" lon="12.224876"><ele>255.66666666666669</ele><time>2026-04-19T06:28:38.255Z</time></trkpt><trkpt lat="43.1593654" lon="12.224922"><ele>256.0</ele><time>2026-04-19T06:28:39.26Z</time></trkpt><trkpt lat="43.159435" lon="12.224951"><ele>256.33333333333337</ele><time>2026-04-19T06:28:40.255Z</time></trkpt><trkpt lat="43.1594982" lon="12.2249525"><ele>256.6666666666667</ele><time>2026-04-19T06:28:41.26Z</time></trkpt><trkpt lat="43.1595953" lon="12.2248737"><ele>257.0</ele><time>2026-04-19T06:28:43.257Z</time></trkpt><trkpt lat="43.1596795" lon="12.2247497"><ele>256.5</ele><time>2026-04-19T06:28:45.259Z</time></trkpt><trkpt lat="43.1597299" lon="12.2246282"><ele>256.0</ele><time>2026-04-19T06:28:46.259Z</time></trkpt><trkpt lat="43.1598023" lon="12.2244783"><ele>255.5</ele><time>2026-04-19T06:28:47.26Z</time></trkpt><trkpt lat="43.1598802" lon="12.22434"><ele>255.0</ele><time>2026-04-19T06:28:48.255Z</time></trkpt><trkpt lat="43.159951" lon="12.2242164"><ele>255.0</ele><time>2026-04-19T06:28:49.263Z</time></trkpt><trkpt lat="43.1600103" lon="12.2241117"><ele>255.0</ele><time>2026-04-19T06:28:50.256Z</time></trkpt><trkpt lat="43.1600631" lon="12.2240216"><ele>255.0</ele><time>2026-04-19T06:28:51.26Z</time></trkpt><trkpt lat="43.1601084" lon="12.2239488"><ele>255.0</ele><time>2026-04-19T06:28:52.264Z</time></trkpt><trkpt lat="43.1601826" lon="12.2238519"><ele>255.0</ele><time>2026-04-19T06:28:54.264Z</time></trkpt><trkpt lat="43.1602234" lon="12.2237599"><ele>255.0</ele><time>2026-04-19T06:28:57.274Z</time></trkpt><trkpt lat="43.1602724" lon="12.2236237"><ele>255.0</ele><time>2026-04-19T06:29:03.274Z</time></trkpt><trkpt lat="43.1603427" lon="12.2234986"><ele>255.0</ele><time>2026-04-19T06:29:05.265Z</time></trkpt><trkpt lat="43.1604209" lon="12.2233752"><ele>255.0</ele><time>2026-04-19T06:29:07.26Z</time></trkpt><trkpt lat="43.1604767" lon="12.2233011"><ele>255.0</ele><time>2026-04-19T06:29:08.267Z</time></trkpt><trkpt lat="43.1605504" lon="12.2232131"><ele>255.0</ele><time>2026-04-19T06:29:09.26Z</time></trkpt><trkpt lat="43.1606379" lon="12.2231103"><ele>255.0</ele><time>2026-04-19T06:29:10.264Z</time></trkpt><trkpt lat="43.1607298" lon="12.2230054"><ele>255.0</ele><time>2026-04-19T06:29:11.257Z</time></trkpt><trkpt lat="43.1608258" lon="12.2229011"><ele>255.0</ele><time>2026-04-19T06:29:12.264Z</time></trkpt><trkpt lat="43.1609247" lon="12.2228089"><ele>255.0</ele><time>2026-04-19T06:29:13.264Z</time></trkpt><trkpt lat="43.1610296" lon="12.2227522"><ele>255.0</ele><time>2026-04-19T06:29:14.26Z</time></trkpt><trkpt lat="43.161136" lon="12.2227283"><ele>255.0</ele><time>2026-04-19T06:29:15.263Z</time></trkpt><trkpt lat="43.1612426" lon="12.222736"><ele>255.0</ele><time>2026-04-19T06:29:16.259Z</time></trkpt><trkpt lat="43.1613424" lon="12.222751"><ele>255.0</ele><time>2026-04-19T06:29:17.258Z</time></trkpt><trkpt lat="43.161425" lon="12.2227559"><ele>255.0</ele><time>2026-04-19T06:29:18.261Z</time></trkpt><trkpt lat="43.1615098" lon="12.2226548"><ele>255.0</ele><time>2026-04-19T06:29:20.26Z</time></trkpt><trkpt lat="43.1615122" lon="12.2225479"><ele>255.0</ele><time>2026-04-19T06:29:21.261Z</time></trkpt><trkpt lat="43.1615251" lon="12.2224535"><ele>255.0</ele><time>2026-04-19T06:29:22.251Z</time></trkpt><trkpt lat="43.1615574" lon="12.2223686"><ele>255.0</ele><time>2026-04-19T06:29:23.254Z</time></trkpt><trkpt lat="43.1616102" lon="12.2223134"><ele>255.0</ele><time>2026-04-19T06:29:24.254Z</time></trkpt><trkpt lat="43.1616879" lon="12.222311"><ele>255.0</ele><time>2026-04-19T06:29:25.256Z</time></trkpt><trkpt lat="43.161787" lon="12.2223589"><ele>255.5</ele><time>2026-04-19T06:29:26.254Z</time></trkpt><trkpt lat="43.1619059" lon="12.2224168"><ele>256.0</ele><time>2026-04-19T06:29:27.244Z</time></trkpt><trkpt lat="43.1620303" lon="12.2224584"><ele>256.5</ele><time>2026-04-19T06:29:28.247Z</time></trkpt><trkpt lat="43.1621635" lon="12.2224613"><ele>257.0</ele><time>2026-04-19T06:29:29.26Z</time></trkpt><trkpt lat="43.1623086" lon="12.2224272"><ele>257.0</ele><time>2026-04-19T06:29:30.255Z</time></trkpt><trkpt lat="43.1624498" lon="12.222384"><ele>257.0</ele><time>2026-04-19T06:29:31.257Z</time></trkpt><trkpt lat="43.1625962" lon="12.2223336"><ele>257.0</ele><time>2026-04-19T06:29:32.256Z</time></trkpt><trkpt lat="43.1627417" lon="12.222284"><ele>257.0</ele><time>2026-04-19T06:29:33.255Z</time></trkpt><trkpt lat="43.1628774" lon="12.2222413"><ele>256.5</ele><time>2026-04-19T06:29:34.262Z</time></trkpt><trkpt lat="43.1630025" lon="12.2221923"><ele>256.0</ele><time>2026-04-19T06:29:35.257Z</time></trkpt><trkpt lat="43.1631196" lon="12.2221366"><ele>255.5</ele><time>2026-04-19T06:29:36.261Z</time></trkpt><trkpt lat="43.1632323" lon="12.2220845"><ele>255.0</ele><time>2026-04-19T06:29:37.273Z</time></trkpt><trkpt lat="43.1633352" lon="12.2220391"><ele>255.0</ele><time>2026-04-19T06:29:38.26Z</time></trkpt><trkpt lat="43.1634279" lon="12.2220062"><ele>255.0</ele><time>2026-04-19T06:29:39.259Z</time></trkpt><trkpt lat="43.1635003" lon="12.2219802"><ele>255.0</ele><time>2026-04-19T06:29:40.259Z</time></trkpt><trkpt lat="43.1636186" lon="12.2219519"><ele>255.0</ele><time>2026-04-19T06:29:42.259Z</time></trkpt><trkpt lat="43.1637436" lon="12.2218883"><ele>255.0</ele><time>2026-04-19T06:29:44.258Z</time></trkpt><trkpt lat="43.163818" lon="12.2218263"><ele>255.0</ele><time>2026-04-19T06:29:45.259Z</time></trkpt><trkpt lat="43.1638986" lon="12.2217598"><ele>255.0</ele><time>2026-04-19T06:29:46.255Z</time></trkpt><trkpt lat="43.1639852" lon="12.2216894"><ele>255.0</ele><time>2026-04-19T06:29:47.256Z</time></trkpt><trkpt lat="43.1640784" lon="12.2216111"><ele>255.0</ele><time>2026-04-19T06:29:48.251Z</time></trkpt><trkpt lat="43.1641772" lon="12.221522"><ele>255.0</ele><time>2026-04-19T06:29:49.257Z</time></trkpt><trkpt lat="43.164281" lon="12.2214275"><ele>255.4</ele><time>2026-04-19T06:29:50.26Z</time></trkpt><trkpt lat="43.1643806" lon="12.2213366"><ele>255.8</ele><time>2026-04-19T06:29:51.257Z</time></trkpt><trkpt lat="43.1644733" lon="12.2212555"><ele>256.2</ele><time>2026-04-19T06:29:52.255Z</time></trkpt><trkpt lat="43.1645547" lon="12.221193"><ele>256.6</ele><time>2026-04-19T06:29:53.257Z</time></trkpt><trkpt lat="43.1646266" lon="12.2211446"><ele>257.0</ele><time>2026-04-19T06:29:54.258Z</time></trkpt><trkpt lat="43.1646929" lon="12.2210992"><ele>257.0</ele><time>2026-04-19T06:29:55.255Z</time></trkpt><trkpt lat="43.1647633" lon="12.2210469"><ele>257.0</ele><time>2026-04-19T06:29:56.254Z</time></trkpt><trkpt lat="43.1648439" lon="12.2209824"><ele>257.0</ele><time>2026-04-19T06:29:57.257Z</time></trkpt><trkpt lat="43.1649305" lon="12.220906"><ele>257.0</ele><time>2026-04-19T06:29:58.259Z</time></trkpt><trkpt lat="43.1650198" lon="12.2208319"><ele>257.0</ele><time>2026-04-19T06:29:59.259Z</time></trkpt><trkpt lat="43.165109" lon="12.2207669"><ele>257.1666666666667</ele><time>2026-04-19T06:30:00.256Z</time></trkpt><trkpt lat="43.1651965" lon="12.2207112"><ele>257.33333333333337</ele><time>2026-04-19T06:30:01.262Z</time></trkpt><trkpt lat="43.1652775" lon="12.2206631"><ele>257.5</ele><time>2026-04-19T06:30:02.266Z</time></trkpt><trkpt lat="43.1653548" lon="12.2206171"><ele>257.6666666666667</ele><time>2026-04-19T06:30:03.262Z</time></trkpt><trkpt lat="43.1654297" lon="12.2205763"><ele>257.8333333333333</ele><time>2026-04-19T06:30:04.256Z</time></trkpt><trkpt lat="43.1655035" lon="12.2205474"><ele>258.0</ele><time>2026-04-19T06:30:05.26Z</time></trkpt><trkpt lat="43.1655724" lon="12.2205277"><ele>258.1666666666667</ele><time>2026-04-19T06:30:06.258Z</time></trkpt><trkpt lat="43.1656765" lon="12.2204894"><ele>258.3333333333333</ele><time>2026-04-19T06:30:08.275Z</time></trkpt><trkpt lat="43.1657573" lon="12.2204456"><ele>258.5</ele><time>2026-04-19T06:30:10.272Z</time></trkpt><trkpt lat="43.1658248" lon="12.2204072"><ele>258.66666666666663</ele><time>2026-04-19T06:30:12.273Z</time></trkpt><trkpt lat="43.1658868" lon="12.2203769"><ele>258.8333333333333</ele><time>2026-04-19T06:30:15.28Z</time></trkpt><trkpt lat="43.1659585" lon="12.2203309"><ele>259.0</ele><time>2026-04-19T06:30:18.271Z</time></trkpt><trkpt lat="43.1660747" lon="12.2202709"><ele>259.0</ele><time>2026-04-19T06:30:20.263Z</time></trkpt><trkpt lat="43.1661495" lon="12.2202288"><ele>259.0</ele><time>2026-04-19T06:30:21.259Z</time></trkpt><trkpt lat="43.1662369" lon="12.2201857"><ele>259.0</ele><time>2026-04-19T06:30:22.261Z</time></trkpt><trkpt lat="43.1663369" lon="12.2201358"><ele>259.0</ele><time>2026-04-19T06:30:23.262Z</time></trkpt><trkpt lat="43.1664473" lon="12.2200742"><ele>259.0</ele><time>2026-04-19T06:30:24.263Z</time></trkpt><trkpt lat="43.1665643" lon="12.2200098"><ele>259.25</ele><time>2026-04-19T06:30:25.256Z</time></trkpt><trkpt lat="43.1666871" lon="12.2199403"><ele>259.5</ele><time>2026-04-19T06:30:26.263Z</time></trkpt><trkpt lat="43.1668217" lon="12.2198633"><ele>259.75</ele><time>2026-04-19T06:30:27.26Z</time></trkpt><trkpt lat="43.16697" lon="12.2197799"><ele>260.0</ele><time>2026-04-19T06:30:28.261Z</time></trkpt><trkpt lat="43.1671394" lon="12.2196881"><ele>260.0</ele><time>2026-04-19T06:30:29.258Z</time></trkpt><trkpt lat="43.1673246" lon="12.2195795"><ele>260.0</ele><time>2026-04-19T06:30:30.264Z</time></trkpt><trkpt lat="43.1675019" lon="12.219482"><ele>260.0</ele><time>2026-04-19T06:30:31.27Z</time></trkpt><trkpt lat="43.1676576" lon="12.219398"><ele>260.25</ele><time>2026-04-19T06:30:32.262Z</time></trkpt><trkpt lat="43.1678004" lon="12.2193212"><ele>260.5</ele><time>2026-04-19T06:30:33.263Z</time></trkpt><trkpt lat="43.1679345" lon="12.2192513"><ele>260.75</ele><time>2026-04-19T06:30:34.263Z</time></trkpt><trkpt lat="43.1680674" lon="12.2191776"><ele>261.0</ele><time>2026-04-19T06:30:35.265Z</time></trkpt><trkpt lat="43.1682013" lon="12.2191063"><ele>261.6666666666667</ele><time>2026-04-19T06:30:36.267Z</time></trkpt><trkpt lat="43.1683444" lon="12.2190431"><ele>262.33333333333337</ele><time>2026-04-19T06:30:37.266Z</time></trkpt><trkpt lat="43.1684841" lon="12.2189726"><ele>263.0</ele><time>2026-04-19T06:30:38.264Z</time></trkpt><trkpt lat="43.1686253" lon="12.2188968"><ele>263.0</ele><time>2026-04-19T06:30:39.28Z</time></trkpt><trkpt lat="43.1687591" lon="12.2188279"><ele>263.0</ele><time>2026-04-19T06:30:40.264Z</time></trkpt><trkpt lat="43.1688933" lon="12.218757"><ele>263.0</ele><time>2026-04-19T06:30:41.264Z</time></trkpt><trkpt lat="43.1690284" lon="12.2186812"><ele>263.0</ele><time>2026-04-19T06:30:42.26Z</time></trkpt><trkpt lat="43.1691519" lon="12.2186071"><ele>264.0</ele><time>2026-04-19T06:30:43.256Z</time></trkpt><trkpt lat="43.1692777" lon="12.2185389"><ele>265.0</ele><time>2026-04-19T06:30:44.268Z</time></trkpt><trkpt lat="43.1694026" lon="12.2184638"><ele>266.0</ele><time>2026-04-19T06:30:45.258Z</time></trkpt><trkpt lat="43.1695282" lon="12.2183922"><ele>267.0</ele><time>2026-04-19T06:30:46.255Z</time></trkpt><trkpt lat="43.1696362" lon="12.2183307"><ele>267.0</ele><time>2026-04-19T06:30:47.255Z</time></trkpt><trkpt lat="43.169731" lon="12.2182809"><ele>267.0</ele><time>2026-04-19T06:30:48.258Z</time></trkpt><trkpt lat="43.1698088" lon="12.2182272"><ele>267.0</ele><time>2026-04-19T06:30:49.252Z</time></trkpt><trkpt lat="43.1698693" lon="12.2181742"><ele>267.0</ele><time>2026-04-19T06:30:50.253Z</time></trkpt><trkpt lat="43.169956" lon="12.2181376"><ele>267.0</ele><time>2026-04-19T06:30:52.265Z</time></trkpt><trkpt lat="43.1700562" lon="12.2181507"><ele>267.4</ele><time>2026-04-19T06:30:54.265Z</time></trkpt><trkpt lat="43.1701813" lon="12.2181058"><ele>267.79999999999995</ele><time>2026-04-19T06:30:56.263Z</time></trkpt><trkpt lat="43.1702767" lon="12.2180714"><ele>268.2</ele><time>2026-04-19T06:30:57.263Z</time></trkpt><trkpt lat="43.1703763" lon="12.2180354"><ele>268.59999999999997</ele><time>2026-04-19T06:30:58.259Z</time></trkpt><trkpt lat="43.1704809" lon="12.2179932"><ele>269.0</ele><time>2026-04-19T06:30:59.26Z</time></trkpt><trkpt lat="43.1705874" lon="12.2179493"><ele>269.0</ele><time>2026-04-19T06:31:00.263Z</time></trkpt><trkpt lat="43.170689" lon="12.2179059"><ele>269.0</ele><time>2026-04-19T06:31:01.26Z</time></trkpt><trkpt lat="43.1707855" lon="12.2178643"><ele>269.0</ele><time>2026-04-19T06:31:02.261Z</time></trkpt><trkpt lat="43.1708793" lon="12.2178209"><ele>269.0</ele><time>2026-04-19T06:31:03.261Z</time></trkpt><trkpt lat="43.170974" lon="12.2177881"><ele>269.0</ele><time>2026-04-19T06:31:04.254Z</time></trkpt><trkpt lat="43.1710735" lon="12.2177644"><ele>270.2</ele><time>2026-04-19T06:31:05.256Z</time></trkpt><trkpt lat="43.1711705" lon="12.2177367"><ele>271.4</ele><time>2026-04-19T06:31:06.259Z</time></trkpt><trkpt lat="43.1712676" lon="12.2177022"><ele>272.6</ele><time>2026-04-19T06:31:07.266Z</time></trkpt><trkpt lat="43.1713699" lon="12.2176632"><ele>273.8</ele><time>2026-04-19T06:31:08.255Z</time></trkpt><trkpt lat="43.1714784" lon="12.2176187"><ele>275.0</ele><time>2026-04-19T06:31:09.262Z</time></trkpt><trkpt lat="43.1715956" lon="12.2175696"><ele>276.2</ele><time>2026-04-19T06:31:10.268Z</time></trkpt><trkpt lat="43.1717126" lon="12.2175221"><ele>277.4</ele><time>2026-04-19T06:31:11.261Z</time></trkpt><trkpt lat="43.1718234" lon="12.2174984"><ele>278.6</ele><time>2026-04-19T06:31:12.264Z</time></trkpt><trkpt lat="43.1719238" lon="12.2175177"><ele>279.8</ele><time>2026-04-19T06:31:13.266Z</time></trkpt><trkpt lat="43.1720119" lon="12.2175749"><ele>281.0</ele><time>2026-04-19T06:31:14.259Z</time></trkpt><trkpt lat="43.1721002" lon="12.2176386"><ele>281.0</ele><time>2026-04-19T06:31:15.261Z</time></trkpt><trkpt lat="43.172189" lon="12.2177016"><ele>281.0</ele><time>2026-04-19T06:31:16.255Z</time></trkpt><trkpt lat="43.1722846" lon="12.2177612"><ele>281.0</ele><time>2026-04-19T06:31:17.249Z</time></trkpt><trkpt lat="43.172387" lon="12.2178126"><ele>281.0</ele><time>2026-04-19T06:31:18.258Z</time></trkpt><trkpt lat="43.1725027" lon="12.2178586"><ele>281.0</ele><time>2026-04-19T06:31:19.254Z</time></trkpt><trkpt lat="43.1726089" lon="12.2178975"><ele>282.2</ele><time>2026-04-19T06:31:20.262Z</time></trkpt><trkpt lat="43.1727057" lon="12.2179297"><ele>283.40000000000003</ele><time>2026-04-19T06:31:21.256Z</time></trkpt><trkpt lat="43.1727976" lon="12.2179667"><ele>284.6</ele><time>2026-04-19T06:31:22.254Z</time></trkpt><trkpt lat="43.1728874" lon="12.2180045"><ele>285.8</ele><time>2026-04-19T06:31:23.261Z</time></trkpt><trkpt lat="43.1729852" lon="12.2180416"><ele>287.0</ele><time>2026-04-19T06:31:24.256Z</time></trkpt><trkpt lat="43.1730898" lon="12.218076"><ele>288.0</ele><time>2026-04-19T06:31:25.267Z</time></trkpt><trkpt lat="43.1731932" lon="12.2181134"><ele>289.0</ele><time>2026-04-19T06:31:26.257Z</time></trkpt><trkpt lat="43.1732882" lon="12.2181558"><ele>290.0</ele><time>2026-04-19T06:31:27.254Z</time></trkpt><trkpt lat="43.1733704" lon="12.2181971"><ele>291.0</ele><time>2026-04-19T06:31:28.25Z</time></trkpt><trkpt lat="43.1734366" lon="12.2182204"><ele>292.0</ele><time>2026-04-19T06:31:29.261Z</time></trkpt><trkpt lat="43.1734541" lon="12.2180774"><ele>292.0</ele><time>2026-04-19T06:31:32.265Z</time></trkpt><trkpt lat="43.1734285" lon="12.2179077"><ele>292.0</ele><time>2026-04-19T06:31:34.252Z</time></trkpt><trkpt lat="43.1734191" lon="12.2178074"><ele>292.0</ele><time>2026-04-19T06:31:35.253Z</time></trkpt><trkpt lat="43.1734173" lon="12.2176964"><ele>292.0</ele><time>2026-04-19T06:31:36.255Z</time></trkpt><trkpt lat="43.1734261" lon="12.2175814"><ele>292.0</ele><time>2026-04-19T06:31:37.257Z</time></trkpt><trkpt lat="43.1734419" lon="12.217461"><ele>292.0</ele><time>2026-04-19T06:31:38.256Z</time></trkpt><trkpt lat="43.1734578" lon="12.2173345"><ele>292.0</ele><time>2026-04-19T06:31:39.258Z</time></trkpt><trkpt lat="43.1734698" lon="12.2172049"><ele>292.0</ele><time>2026-04-19T06:31:40.267Z</time></trkpt><trkpt lat="43.1734836" lon="12.2170685"><ele>292.0</ele><time>2026-04-19T06:31:41.272Z</time></trkpt><trkpt lat="43.1735027" lon="12.2169203"><ele>292.0</ele><time>2026-04-19T06:31:42.252Z</time></trkpt><trkpt lat="43.173525" lon="12.2167623"><ele>290.75</ele><time>2026-04-19T06:31:43.258Z</time></trkpt><trkpt lat="43.173549" lon="12.2166085"><ele>289.5</ele><time>2026-04-19T06:31:44.259Z</time></trkpt><trkpt lat="43.1735752" lon="12.2164562"><ele>288.25</ele><time>2026-04-19T06:31:45.257Z</time></trkpt><trkpt lat="43.173605" lon="12.2162993"><ele>287.0</ele><time>2026-04-19T06:31:46.255Z</time></trkpt><trkpt lat="43.1736321" lon="12.2161401"><ele>286.6</ele><time>2026-04-19T06:31:47.254Z</time></trkpt><trkpt lat="43.173652" lon="12.2159915"><ele>286.2</ele><time>2026-04-19T06:31:48.255Z</time></trkpt><trkpt lat="43.1736669" lon="12.2158557"><ele>285.8</ele><time>2026-04-19T06:31:49.258Z</time></trkpt><trkpt lat="43.1736834" lon="12.2157265"><ele>285.4</ele><time>2026-04-19T06:31:50.254Z</time></trkpt><trkpt lat="43.1737014" lon="12.215593"><ele>285.0</ele><time>2026-04-19T06:31:51.256Z</time></trkpt><trkpt lat="43.1737197" lon="12.2154524"><ele>284.8333333333333</ele><time>2026-04-19T06:31:52.257Z</time></trkpt><trkpt lat="43.1737325" lon="12.215315"><ele>284.6666666666667</ele><time>2026-04-19T06:31:53.25Z</time></trkpt><trkpt lat="43.1737384" lon="12.2151905"><ele>284.5</ele><time>2026-04-19T06:31:54.257Z</time></trkpt><trkpt lat="43.1737397" lon="12.2150907"><ele>284.33333333333337</ele><time>2026-04-19T06:31:55.258Z</time></trkpt><trkpt lat="43.1737468" lon="12.2150002"><ele>284.1666666666667</ele><time>2026-04-19T06:31:56.258Z</time></trkpt><trkpt lat="43.1737831" lon="12.2148583"><ele>284.0</ele><time>2026-04-19T06:31:58.254Z</time></trkpt><trkpt lat="43.1738674" lon="12.2148125"><ele>284.0</ele><time>2026-04-19T06:32:00.257Z</time></trkpt><trkpt lat="43.1739286" lon="12.2148489"><ele>284.0</ele><time>2026-04-19T06:32:01.256Z</time></trkpt><trkpt lat="43.1739952" lon="12.2149046"><ele>284.0</ele><time>2026-04-19T06:32:02.255Z</time></trkpt><trkpt lat="43.1740756" lon="12.2149539"><ele>284.0</ele><time>2026-04-19T06:32:03.258Z</time></trkpt><trkpt lat="43.1741691" lon="12.214978"><ele>284.0</ele><time>2026-04-19T06:32:04.255Z</time></trkpt><trkpt lat="43.1742766" lon="12.2149654"><ele>284.0</ele><time>2026-04-19T06:32:05.255Z</time></trkpt><trkpt lat="43.1743932" lon="12.2149244"><ele>285.25</ele><time>2026-04-19T06:32:06.253Z</time></trkpt><trkpt lat="43.1745103" lon="12.214892"><ele>286.5</ele><time>2026-04-19T06:32:07.254Z</time></trkpt><trkpt lat="43.1746202" lon="12.2148832"><ele>287.75</ele><time>2026-04-19T06:32:08.244Z</time></trkpt><trkpt lat="43.1747301" lon="12.2148917"><ele>289.0</ele><time>2026-04-19T06:32:09.259Z</time></trkpt><trkpt lat="43.1748613" lon="12.2149095"><ele>290.0</ele><time>2026-04-19T06:32:10.249Z</time></trkpt><trkpt lat="43.1749946" lon="12.2149181"><ele>291.0</ele><time>2026-04-19T06:32:11.249Z</time></trkpt><trkpt lat="43.1751179" lon="12.2149091"><ele>292.0</ele><time>2026-04-19T06:32:12.263Z</time></trkpt><trkpt lat="43.1752332" lon="12.2148706"><ele>293.0</ele><time>2026-04-19T06:32:13.254Z</time></trkpt><trkpt lat="43.1753505" lon="12.2147929"><ele>293.5</ele><time>2026-04-19T06:32:14.246Z</time></trkpt><trkpt lat="43.1754595" lon="12.2147026"><ele>294.0</ele><time>2026-04-19T06:32:15.25Z</time></trkpt><trkpt lat="43.1755597" lon="12.2146015"><ele>294.5</ele><time>2026-04-19T06:32:16.249Z</time></trkpt><trkpt lat="43.1756496" lon="12.2144997"><ele>295.0</ele><time>2026-04-19T06:32:17.249Z</time></trkpt><trkpt lat="43.1757385" lon="12.2144165"><ele>297.2</ele><time>2026-04-19T06:32:18.254Z</time></trkpt><trkpt lat="43.1758251" lon="12.2143556"><ele>299.4</ele><time>2026-04-19T06:32:19.256Z</time></trkpt><trkpt lat="43.1759156" lon="12.2143044"><ele>301.6</ele><time>2026-04-19T06:32:20.257Z</time></trkpt><trkpt lat="43.1760042" lon="12.2142631"><ele>303.8</ele><time>2026-04-19T06:32:21.256Z</time></trkpt><trkpt lat="43.1760896" lon="12.2142281"><ele>306.0</ele><time>2026-04-19T06:32:22.253Z</time></trkpt><trkpt lat="43.1761622" lon="12.2142014"><ele>306.0</ele><time>2026-04-19T06:32:23.252Z</time></trkpt><trkpt lat="43.1762786" lon="12.2141543"><ele>306.0</ele><time>2026-04-19T06:32:25.255Z</time></trkpt><trkpt lat="43.1763885" lon="12.2141005"><ele>306.0</ele><time>2026-04-19T06:32:27.254Z</time></trkpt><trkpt lat="43.1764723" lon="12.2139724"><ele>306.0</ele><time>2026-04-19T06:32:29.261Z</time></trkpt><trkpt lat="43.1765012" lon="12.2138839"><ele>306.0</ele><time>2026-04-19T06:32:30.263Z</time></trkpt><trkpt lat="43.1765306" lon="12.2137968"><ele>308.1666666666667</ele><time>2026-04-19T06:32:31.263Z</time></trkpt><trkpt lat="43.1765586" lon="12.2137126"><ele>310.3333333333333</ele><time>2026-04-19T06:32:32.272Z</time></trkpt><trkpt lat="43.1765943" lon="12.2136287"><ele>312.5</ele><time>2026-04-19T06:32:33.268Z</time></trkpt><trkpt lat="43.1766378" lon="12.2135416"><ele>314.66666666666663</ele><time>2026-04-19T06:32:34.266Z</time></trkpt><trkpt lat="43.1766886" lon="12.2134515"><ele>316.8333333333333</ele><time>2026-04-19T06:32:35.269Z</time></trkpt><trkpt lat="43.1767453" lon="12.2133479"><ele>319.0</ele><time>2026-04-19T06:32:36.265Z</time></trkpt><trkpt lat="43.1768073" lon="12.2132237"><ele>318.0</ele><time>2026-04-19T06:32:37.276Z</time></trkpt><trkpt lat="43.1768756" lon="12.2131063"><ele>317.0</ele><time>2026-04-19T06:32:38.265Z</time></trkpt><trkpt lat="43.176952" lon="12.2129954"><ele>316.0</ele><time>2026-04-19T06:32:39.265Z</time></trkpt><trkpt lat="43.1770365" lon="12.2128924"><ele>315.0</ele><time>2026-04-19T06:32:40.266Z</time></trkpt><trkpt lat="43.1771213" lon="12.2127838"><ele>315.0</ele><time>2026-04-19T06:32:41.267Z</time></trkpt><trkpt lat="43.1772051" lon="12.2126599"><ele>315.0</ele><time>2026-04-19T06:32:42.266Z</time></trkpt><trkpt lat="43.1772751" lon="12.2125389"><ele>315.0</ele><time>2026-04-19T06:32:43.282Z</time></trkpt><trkpt lat="43.1773385" lon="12.2124422"><ele>315.0</ele><time>2026-04-19T06:32:44.265Z</time></trkpt><trkpt lat="43.1774092" lon="12.2123697"><ele>315.0</ele><time>2026-04-19T06:32:45.264Z</time></trkpt><trkpt lat="43.1774857" lon="12.2123312"><ele>316.6</ele><time>2026-04-19T06:32:46.266Z</time></trkpt><trkpt lat="43.1775707" lon="12.212324"><ele>318.2</ele><time>2026-04-19T06:32:47.263Z</time></trkpt><trkpt lat="43.1776662" lon="12.2123295"><ele>319.79999999999995</ele><time>2026-04-19T06:32:48.267Z</time></trkpt><trkpt lat="43.1777668" lon="12.2123427"><ele>321.4</ele><time>2026-04-19T06:32:49.267Z</time></trkpt><trkpt lat="43.1778716" lon="12.2123673"><ele>323.0</ele><time>2026-04-19T06:32:50.267Z</time></trkpt><trkpt lat="43.177986" lon="12.2124033"><ele>323.0</ele><time>2026-04-19T06:32:51.268Z</time></trkpt><trkpt lat="43.1781133" lon="12.2124505"><ele>323.0</ele><time>2026-04-19T06:32:52.269Z</time></trkpt><trkpt lat="43.1782624" lon="12.2125059"><ele>323.0</ele><time>2026-04-19T06:32:53.266Z</time></trkpt><trkpt lat="43.1784284" lon="12.2125704"><ele>325.6666666666667</ele><time>2026-04-19T06:32:54.271Z</time></trkpt><trkpt lat="43.1785958" lon="12.2126511"><ele>328.3333333333333</ele><time>2026-04-19T06:32:55.268Z</time></trkpt><trkpt lat="43.1787515" lon="12.2127388"><ele>331.0</ele><time>2026-04-19T06:32:56.268Z</time></trkpt><trkpt lat="43.1788904" lon="12.2128317"><ele>331.0</ele><time>2026-04-19T06:32:57.264Z</time></trkpt><trkpt lat="43.1790013" lon="12.2129026"><ele>331.0</ele><time>2026-04-19T06:32:58.265Z</time></trkpt><trkpt lat="43.1790947" lon="12.2129495"><ele>331.0</ele><time>2026-04-19T06:32:59.27Z</time></trkpt><trkpt lat="43.17918" lon="12.2130065"><ele>331.0</ele><time>2026-04-19T06:33:00.264Z</time></trkpt><trkpt lat="43.1792698" lon="12.2130762"><ele>331.0</ele><time>2026-04-19T06:33:01.274Z</time></trkpt><trkpt lat="43.1793673" lon="12.2131363"><ele>332.8</ele><time>2026-04-19T06:33:02.265Z</time></trkpt><trkpt lat="43.179468" lon="12.2131765"><ele>334.6</ele><time>2026-04-19T06:33:03.27Z</time></trkpt><trkpt lat="43.1795697" lon="12.213182"><ele>336.4</ele><time>2026-04-19T06:33:04.263Z</time></trkpt><trkpt lat="43.1796702" lon="12.2131473"><ele>338.2</ele><time>2026-04-19T06:33:05.272Z</time></trkpt><trkpt lat="43.1797698" lon="12.2130631"><ele>340.0</ele><time>2026-04-19T06:33:06.261Z</time></trkpt><trkpt lat="43.1798667" lon="12.212952"><ele>342.4</ele><time>2026-04-19T06:33:07.264Z</time></trkpt><trkpt lat="43.1799568" lon="12.2128412"><ele>344.8</ele><time>2026-04-19T06:33:08.262Z</time></trkpt><trkpt lat="43.1800282" lon="12.2127499"><ele>347.20000000000005</ele><time>2026-04-19T06:33:09.271Z</time></trkpt><trkpt lat="43.1800845" lon="12.2127033"><ele>349.6</ele><time>2026-04-19T06:33:10.259Z</time></trkpt><trkpt lat="43.1802079" lon="12.2127135"><ele>352.0</ele><time>2026-04-19T06:33:12.255Z</time></trkpt><trkpt lat="43.1802937" lon="12.2127315"><ele>352.0</ele><time>2026-04-19T06:33:13.258Z</time></trkpt><trkpt lat="43.1803994" lon="12.2127457"><ele>352.0</ele><time>2026-04-19T06:33:14.277Z</time></trkpt><trkpt lat="43.1805207" lon="12.2127477"><ele>352.0</ele><time>2026-04-19T06:33:15.251Z</time></trkpt><trkpt lat="43.1806541" lon="12.2127493"><ele>352.0</ele><time>2026-04-19T06:33:16.261Z</time></trkpt><trkpt lat="43.1807904" lon="12.2127471"><ele>354.75</ele><time>2026-04-19T06:33:17.267Z</time></trkpt><trkpt lat="43.1809266" lon="12.2127406"><ele>357.5</ele><time>2026-04-19T06:33:18.261Z</time></trkpt><trkpt lat="43.1810718" lon="12.2127314"><ele>360.25</ele><time>2026-04-19T06:33:19.254Z</time></trkpt><trkpt lat="43.1812256" lon="12.2127267"><ele>363.0</ele><time>2026-04-19T06:33:20.251Z</time></trkpt><trkpt lat="43.1813925" lon="12.2127314"><ele>366.25</ele><time>2026-04-19T06:33:21.254Z</time></trkpt><trkpt lat="43.1815609" lon="12.2127471"><ele>369.5</ele><time>2026-04-19T06:33:22.26Z</time></trkpt><trkpt lat="43.1817112" lon="12.2127517"><ele>372.75</ele><time>2026-04-19T06:33:23.255Z</time></trkpt><trkpt lat="43.1818377" lon="12.2127191"><ele>376.0</ele><time>2026-04-19T06:33:24.257Z</time></trkpt><trkpt lat="43.1819564" lon="12.2126725"><ele>376.0</ele><time>2026-04-19T06:33:25.251Z</time></trkpt><trkpt lat="43.1820723" lon="12.2126174"><ele>376.0</ele><time>2026-04-19T06:33:26.255Z</time></trkpt><trkpt lat="43.1821715" lon="12.2125602"><ele>376.0</ele><time>2026-04-19T06:33:27.256Z</time></trkpt><trkpt lat="43.1822473" lon="12.2124872"><ele>376.0</ele><time>2026-04-19T06:33:28.263Z</time></trkpt><trkpt lat="43.1822925" lon="12.2123821"><ele>376.0</ele><time>2026-04-19T06:33:29.255Z</time></trkpt><trkpt lat="43.1823355" lon="12.2122635"><ele>377.0</ele><time>2026-04-19T06:33:30.26Z</time></trkpt><trkpt lat="43.1823783" lon="12.2121342"><ele>378.0</ele><time>2026-04-19T06:33:31.264Z</time></trkpt><trkpt lat="43.1824273" lon="12.2120274"><ele>379.0</ele><time>2026-04-19T06:33:32.263Z</time></trkpt><trkpt lat="43.1824765" lon="12.2119466"><ele>380.0</ele><time>2026-04-19T06:33:33.26Z</time></trkpt><trkpt lat="43.1825772" lon="12.2119285"><ele>381.0</ele><time>2026-04-19T06:33:35.268Z</time></trkpt><trkpt lat="43.1826191" lon="12.2119959"><ele>382.0</ele><time>2026-04-19T06:33:36.266Z</time></trkpt><trkpt lat="43.1826481" lon="12.2120919"><ele>382.0</ele><time>2026-04-19T06:33:37.259Z</time></trkpt><trkpt lat="43.1826695" lon="12.2122082"><ele>382.0</ele><time>2026-04-19T06:33:38.265Z</time></trkpt><trkpt lat="43.1826883" lon="12.2123511"><ele>382.0</ele><time>2026-04-19T06:33:39.259Z</time></trkpt><trkpt lat="43.1827015" lon="12.2125356"><ele>382.0</ele><time>2026-04-19T06:33:40.251Z</time></trkpt><trkpt lat="43.1827173" lon="12.2127401"><ele>382.25</ele><time>2026-04-19T06:33:41.259Z</time></trkpt><trkpt lat="43.1827414" lon="12.2129458"><ele>382.5</ele><time>2026-04-19T06:33:42.253Z</time></trkpt><trkpt lat="43.1827733" lon="12.213143"><ele>382.75</ele><time>2026-04-19T06:33:43.252Z</time></trkpt><trkpt lat="43.1828119" lon="12.2133126"><ele>383.0</ele><time>2026-04-19T06:33:44.253Z</time></trkpt><trkpt lat="43.1828673" lon="12.2134546"><ele>381.79999999999995</ele><time>2026-04-19T06:33:45.267Z</time></trkpt><trkpt lat="43.1829436" lon="12.213579"><ele>380.6</ele><time>2026-04-19T06:33:46.258Z</time></trkpt><trkpt lat="43.1830335" lon="12.2136914"><ele>379.4</ele><time>2026-04-19T06:33:47.259Z</time></trkpt><trkpt lat="43.183125" lon="12.2137864"><ele>378.20000000000005</ele><time>2026-04-19T06:33:48.254Z</time></trkpt><trkpt lat="43.1832037" lon="12.2138511"><ele>377.0</ele><time>2026-04-19T06:33:49.258Z</time></trkpt><trkpt lat="43.1832777" lon="12.2138875"><ele>379.6666666666667</ele><time>2026-04-19T06:33:50.257Z</time></trkpt><trkpt lat="43.1833506" lon="12.2139083"><ele>382.33333333333337</ele><time>2026-04-19T06:33:51.26Z</time></trkpt><trkpt lat="43.183425" lon="12.2139124"><ele>385.0</ele><time>2026-04-19T06:33:52.262Z</time></trkpt><trkpt lat="43.1834981" lon="12.2138923"><ele>387.6666666666667</ele><time>2026-04-19T06:33:53.264Z</time></trkpt><trkpt lat="43.183575" lon="12.2138429"><ele>390.3333333333333</ele><time>2026-04-19T06:33:54.265Z</time></trkpt><trkpt lat="43.183657" lon="12.2137698"><ele>393.0</ele><time>2026-04-19T06:33:55.266Z</time></trkpt><trkpt lat="43.1837427" lon="12.2136916"><ele>393.0</ele><time>2026-04-19T06:33:56.268Z</time></trkpt><trkpt lat="43.1838306" lon="12.2136124"><ele>393.0</ele><time>2026-04-19T06:33:57.264Z</time></trkpt><trkpt lat="43.1839093" lon="12.2135311"><ele>393.0</ele><time>2026-04-19T06:33:58.264Z</time></trkpt><trkpt lat="43.1839734" lon="12.2134468"><ele>393.0</ele><time>2026-04-19T06:33:59.263Z</time></trkpt><trkpt lat="43.1840273" lon="12.21335"><ele>393.0</ele><time>2026-04-19T06:34:00.263Z</time></trkpt><trkpt lat="43.1840675" lon="12.2132567"><ele>393.6666666666667</ele><time>2026-04-19T06:34:01.267Z</time></trkpt><trkpt lat="43.1841115" lon="12.2131834"><ele>394.33333333333337</ele><time>2026-04-19T06:34:02.26Z</time></trkpt><trkpt lat="43.184169" lon="12.2131284"><ele>395.0</ele><time>2026-04-19T06:34:03.267Z</time></trkpt><trkpt lat="43.1842462" lon="12.2130959"><ele>395.6666666666667</ele><time>2026-04-19T06:34:04.26Z</time></trkpt><trkpt lat="43.1843421" lon="12.2130616"><ele>396.33333333333337</ele><time>2026-04-19T06:34:05.261Z</time></trkpt><trkpt lat="43.1844401" lon="12.2130243"><ele>397.0</ele><time>2026-04-19T06:34:06.264Z</time></trkpt><trkpt lat="43.1845267" lon="12.2129784"><ele>397.6666666666667</ele><time>2026-04-19T06:34:07.267Z</time></trkpt><trkpt lat="43.1846003" lon="12.2129317"><ele>398.33333333333337</ele><time>2026-04-19T06:34:08.263Z</time></trkpt><trkpt lat="43.1846543" lon="12.2128843"><ele>399.0</ele><time>2026-04-19T06:34:09.269Z</time></trkpt><trkpt lat="43.1846853" lon="12.2127251"><ele>399.66666666666663</ele><time>2026-04-19T06:34:11.266Z</time></trkpt><trkpt lat="43.184663" lon="12.2126264"><ele>400.3333333333333</ele><time>2026-04-19T06:34:12.263Z</time></trkpt><trkpt lat="43.1846225" lon="12.2125137"><ele>401.0</ele><time>2026-04-19T06:34:13.264Z</time></trkpt><trkpt lat="43.1845858" lon="12.2123883"><ele>400.66666666666663</ele><time>2026-04-19T06:34:14.262Z</time></trkpt><trkpt lat="43.1845668" lon="12.2122669"><ele>400.3333333333333</ele><time>2026-04-19T06:34:15.262Z</time></trkpt><trkpt lat="43.1845723" lon="12.2121529"><ele>400.0</ele><time>2026-04-19T06:34:16.279Z</time></trkpt><trkpt lat="43.1846054" lon="12.2120565"><ele>399.66666666666663</ele><time>2026-04-19T06:34:17.262Z</time></trkpt><trkpt lat="43.1846578" lon="12.2119734"><ele>399.3333333333333</ele><time>2026-04-19T06:34:18.267Z</time></trkpt><trkpt lat="43.1847288" lon="12.211917"><ele>399.0</ele><time>2026-04-19T06:34:19.26Z</time></trkpt><trkpt lat="43.184813" lon="12.2118814"><ele>401.0</ele><time>2026-04-19T06:34:20.264Z</time></trkpt><trkpt lat="43.1849018" lon="12.2118541"><ele>403.0</ele><time>2026-04-19T06:34:21.265Z</time></trkpt><trkpt lat="43.1849968" lon="12.2118188"><ele>405.0</ele><time>2026-04-19T06:34:22.266Z</time></trkpt><trkpt lat="43.1851006" lon="12.2117784"><ele>407.0</ele><time>2026-04-19T06:34:23.26Z</time></trkpt><trkpt lat="43.1852151" lon="12.211734"><ele>409.0</ele><time>2026-04-19T06:34:24.265Z</time></trkpt><trkpt lat="43.1853318" lon="12.2117005"><ele>409.0</ele><time>2026-04-19T06:34:25.265Z</time></trkpt><trkpt lat="43.1854516" lon="12.211688"><ele>409.0</ele><time>2026-04-19T06:34:26.265Z</time></trkpt><trkpt lat="43.185573" lon="12.2116675"><ele>409.0</ele><time>2026-04-19T06:34:27.264Z</time></trkpt><trkpt lat="43.1856908" lon="12.2116367"><ele>409.0</ele><time>2026-04-19T06:34:28.265Z</time></trkpt><trkpt lat="43.1858038" lon="12.2115959"><ele>410.50000000000006</ele><time>2026-04-19T06:34:29.257Z</time></trkpt><trkpt lat="43.1859051" lon="12.2115552"><ele>412.0</ele><time>2026-04-19T06:34:30.26Z</time></trkpt><trkpt lat="43.1859898" lon="12.2115255"><ele>413.5</ele><time>2026-04-19T06:34:31.26Z</time></trkpt><trkpt lat="43.1860682" lon="12.211524"><ele>415.0</ele><time>2026-04-19T06:34:32.266Z</time></trkpt><trkpt lat="43.1861332" lon="12.2115692"><ele>416.50000000000006</ele><time>2026-04-19T06:34:33.256Z</time></trkpt><trkpt lat="43.1862011" lon="12.2116454"><ele>418.0</ele><time>2026-04-19T06:34:34.259Z</time></trkpt><trkpt lat="43.1862709" lon="12.2117335"><ele>418.0</ele><time>2026-04-19T06:34:35.258Z</time></trkpt><trkpt lat="43.1863435" lon="12.2118225"><ele>418.0</ele><time>2026-04-19T06:34:36.255Z</time></trkpt><trkpt lat="43.1864243" lon="12.2119161"><ele>418.0</ele><time>2026-04-19T06:34:37.263Z</time></trkpt><trkpt lat="43.1865083" lon="12.2120031"><ele>418.0</ele><time>2026-04-19T06:34:38.257Z</time></trkpt><trkpt lat="43.1865875" lon="12.2120601"><ele>418.0</ele><time>2026-04-19T06:34:39.258Z</time></trkpt><trkpt lat="43.1866614" lon="12.2120699"><ele>420.33333333333337</ele><time>2026-04-19T06:34:40.258Z</time></trkpt><trkpt lat="43.1867218" lon="12.2120267"><ele>422.6666666666667</ele><time>2026-04-19T06:34:41.25Z</time></trkpt><trkpt lat="43.186769" lon="12.2119534"><ele>425.0</ele><time>2026-04-19T06:34:42.261Z</time></trkpt><trkpt lat="43.1867902" lon="12.2118431"><ele>427.33333333333337</ele><time>2026-04-19T06:34:43.259Z</time></trkpt><trkpt lat="43.1867867" lon="12.2116984"><ele>429.6666666666667</ele><time>2026-04-19T06:34:44.251Z</time></trkpt><trkpt lat="43.1867624" lon="12.2115525"><ele>432.0</ele><time>2026-04-19T06:34:45.252Z</time></trkpt><trkpt lat="43.1867441" lon="12.211417"><ele>432.3333333333333</ele><time>2026-04-19T06:34:46.252Z</time></trkpt><trkpt lat="43.1867441" lon="12.2112972"><ele>432.66666666666663</ele><time>2026-04-19T06:34:47.265Z</time></trkpt><trkpt lat="43.1867689" lon="12.2112057"><ele>433.0</ele><time>2026-04-19T06:34:48.257Z</time></trkpt><trkpt lat="43.1868284" lon="12.2111672"><ele>433.3333333333333</ele><time>2026-04-19T06:34:49.258Z</time></trkpt><trkpt lat="43.1869119" lon="12.2111741"><ele>433.66666666666663</ele><time>2026-04-19T06:34:50.258Z</time></trkpt><trkpt lat="43.1870042" lon="12.2111867"><ele>434.0</ele><time>2026-04-19T06:34:51.257Z</time></trkpt><trkpt lat="43.1870964" lon="12.2111722"><ele>434.0</ele><time>2026-04-19T06:34:52.256Z</time></trkpt><trkpt lat="43.1871944" lon="12.2111451"><ele>434.0</ele><time>2026-04-19T06:34:53.257Z</time></trkpt><trkpt lat="43.1872936" lon="12.2111346"><ele>434.0</ele><time>2026-04-19T06:34:54.258Z</time></trkpt><trkpt lat="43.1873987" lon="12.2111365"><ele>434.0</ele><time>2026-04-19T06:34:55.257Z</time></trkpt><trkpt lat="43.1875005" lon="12.2111482"><ele>434.0</ele><time>2026-04-19T06:34:56.255Z</time></trkpt><trkpt lat="43.1875942" lon="12.2111463"><ele>436.16666666666663</ele><time>2026-04-19T06:34:57.257Z</time></trkpt><trkpt lat="43.1876584" lon="12.2111234"><ele>438.3333333333333</ele><time>2026-04-19T06:34:58.261Z</time></trkpt><trkpt lat="43.1877129" lon="12.2110005"><ele>440.5</ele><time>2026-04-19T06:35:00.26Z</time></trkpt><trkpt lat="43.1877054" lon="12.2108967"><ele>442.66666666666663</ele><time>2026-04-19T06:35:01.254Z</time></trkpt><trkpt lat="43.1876833" lon="12.2107755"><ele>444.8333333333333</ele><time>2026-04-19T06:35:02.256Z</time></trkpt><trkpt lat="43.1876395" lon="12.2106412"><ele>447.0</ele><time>2026-04-19T06:35:03.252Z</time></trkpt><trkpt lat="43.1875867" lon="12.2105007"><ele>447.5</ele><time>2026-04-19T06:35:04.253Z</time></trkpt><trkpt lat="43.1875397" lon="12.2103514"><ele>448.0</ele><time>2026-04-19T06:35:05.255Z</time></trkpt><trkpt lat="43.1875146" lon="12.2101907"><ele>448.5</ele><time>2026-04-19T06:35:06.259Z</time></trkpt><trkpt lat="43.1875104" lon="12.2100344"><ele>449.0</ele><time>2026-04-19T06:35:07.258Z</time></trkpt><trkpt lat="43.1875202" lon="12.2098988"><ele>449.0</ele><time>2026-04-19T06:35:08.261Z</time></trkpt><trkpt lat="43.1875534" lon="12.2098018"><ele>449.0</ele><time>2026-04-19T06:35:09.262Z</time></trkpt><trkpt lat="43.1876699" lon="12.2097498"><ele>449.0</ele><time>2026-04-19T06:35:11.263Z</time></trkpt><trkpt lat="43.1877417" lon="12.2097893"><ele>449.0</ele><time>2026-04-19T06:35:12.259Z</time></trkpt><trkpt lat="43.1878165" lon="12.2098588"><ele>449.0</ele><time>2026-04-19T06:35:13.26Z</time></trkpt><trkpt lat="43.1878929" lon="12.2099499"><ele>449.0</ele><time>2026-04-19T06:35:14.261Z</time></trkpt><trkpt lat="43.1879702" lon="12.210057"><ele>449.0</ele><time>2026-04-19T06:35:15.26Z</time></trkpt><trkpt lat="43.1880376" lon="12.210174"><ele>449.0</ele><time>2026-04-19T06:35:16.257Z</time></trkpt><trkpt lat="43.1880842" lon="12.2102815"><ele>449.0</ele><time>2026-04-19T06:35:17.262Z</time></trkpt><trkpt lat="43.1881358" lon="12.210356"><ele>449.0</ele><time>2026-04-19T06:35:18.273Z</time></trkpt><trkpt lat="43.1882031" lon="12.2104097"><ele>451.0</ele><time>2026-04-19T06:35:19.263Z</time></trkpt><trkpt lat="43.1883029" lon="12.210447"><ele>453.0</ele><time>2026-04-19T06:35:20.257Z</time></trkpt><trkpt lat="43.1884233" lon="12.2104872"><ele>455.0</ele><time>2026-04-19T06:35:21.257Z</time></trkpt><trkpt lat="43.1885575" lon="12.2105043"><ele>457.0</ele><time>2026-04-19T06:35:22.262Z</time></trkpt><trkpt lat="43.1886984" lon="12.2104907"><ele>457.0</ele><time>2026-04-19T06:35:23.258Z</time></trkpt><trkpt lat="43.1888341" lon="12.2104558"><ele>457.0</ele><time>2026-04-19T06:35:24.256Z</time></trkpt><trkpt lat="43.1889614" lon="12.2104039"><ele>457.0</ele><time>2026-04-19T06:35:25.259Z</time></trkpt><trkpt lat="43.1890764" lon="12.2103156"><ele>457.0</ele><time>2026-04-19T06:35:26.256Z</time></trkpt><trkpt lat="43.1891717" lon="12.2102398"><ele>457.6666666666667</ele><time>2026-04-19T06:35:27.25Z</time></trkpt><trkpt lat="43.1892532" lon="12.2101888"><ele>458.33333333333337</ele><time>2026-04-19T06:35:28.252Z</time></trkpt><trkpt lat="43.1893256" lon="12.2101677"><ele>459.0</ele><time>2026-04-19T06:35:29.256Z</time></trkpt><trkpt lat="43.1893993" lon="12.2101983"><ele>459.66666666666663</ele><time>2026-04-19T06:35:30.249Z</time></trkpt><trkpt lat="43.1894844" lon="12.2102584"><ele>460.3333333333333</ele><time>2026-04-19T06:35:31.255Z</time></trkpt><trkpt lat="43.1895816" lon="12.2103134"><ele>461.0</ele><time>2026-04-19T06:35:32.253Z</time></trkpt><trkpt lat="43.1896803" lon="12.2103585"><ele>461.0</ele><time>2026-04-19T06:35:33.25Z</time></trkpt><trkpt lat="43.1897719" lon="12.2103934"><ele>461.0</ele><time>2026-04-19T06:35:34.258Z</time></trkpt><trkpt lat="43.1898501" lon="12.2104031"><ele>461.0</ele><time>2026-04-19T06:35:35.257Z</time></trkpt><trkpt lat="43.1899111" lon="12.2103148"><ele>461.0</ele><time>2026-04-19T06:35:37.256Z</time></trkpt><trkpt lat="43.1898883" lon="12.210154"><ele>461.0</ele><time>2026-04-19T06:35:39.251Z</time></trkpt><trkpt lat="43.1898498" lon="12.2100438"><ele>461.0</ele><time>2026-04-19T06:35:40.249Z</time></trkpt><trkpt lat="43.1898046" lon="12.2099052"><ele>461.0</ele><time>2026-04-19T06:35:41.252Z</time></trkpt><trkpt lat="43.1897693" lon="12.2097469"><ele>461.0</ele><time>2026-04-19T06:35:42.255Z</time></trkpt><trkpt lat="43.1897425" lon="12.20959"><ele>461.0</ele><time>2026-04-19T06:35:43.255Z</time></trkpt><trkpt lat="43.1897174" lon="12.2094593"><ele>461.0</ele><time>2026-04-19T06:35:44.26Z</time></trkpt><trkpt lat="43.1896744" lon="12.2093713"><ele>460.3333333333333</ele><time>2026-04-19T06:35:45.259Z</time></trkpt><trkpt lat="43.1896121" lon="12.209312"><ele>459.66666666666663</ele><time>2026-04-19T06:35:46.253Z</time></trkpt><trkpt lat="43.1895526" lon="12.2092446"><ele>459.0</ele><time>2026-04-19T06:35:47.254Z</time></trkpt><trkpt lat="43.1895051" lon="12.2091516"><ele>458.33333333333337</ele><time>2026-04-19T06:35:48.252Z</time></trkpt><trkpt lat="43.1894701" lon="12.2090276"><ele>457.6666666666667</ele><time>2026-04-19T06:35:49.27Z</time></trkpt><trkpt lat="43.1894476" lon="12.2088719"><ele>457.0</ele><time>2026-04-19T06:35:50.257Z</time></trkpt><trkpt lat="43.1894356" lon="12.2086774"><ele>456.5</ele><time>2026-04-19T06:35:51.252Z</time></trkpt><trkpt lat="43.18943" lon="12.2084801"><ele>456.0</ele><time>2026-04-19T06:35:52.256Z</time></trkpt><trkpt lat="43.1894313" lon="12.2082898"><ele>455.5</ele><time>2026-04-19T06:35:53.246Z</time></trkpt><trkpt lat="43.1894354" lon="12.2081168"><ele>455.0</ele><time>2026-04-19T06:35:54.246Z</time></trkpt><trkpt lat="43.1894335" lon="12.2079638"><ele>455.0</ele><time>2026-04-19T06:35:55.252Z</time></trkpt><trkpt lat="43.1894225" lon="12.2078286"><ele>455.0</ele><time>2026-04-19T06:35:56.257Z</time></trkpt><trkpt lat="43.1894055" lon="12.2076932"><ele>455.0</ele><time>2026-04-19T06:35:57.254Z</time></trkpt><trkpt lat="43.1893963" lon="12.207552"><ele>455.0</ele><time>2026-04-19T06:35:58.258Z</time></trkpt><trkpt lat="43.189388" lon="12.2074097"><ele>455.0</ele><time>2026-04-19T06:35:59.256Z</time></trkpt><trkpt lat="43.1893773" lon="12.2072557"><ele>455.75</ele><time>2026-04-19T06:36:00.256Z</time></trkpt><trkpt lat="43.1893636" lon="12.207099"><ele>456.5</ele><time>2026-04-19T06:36:01.252Z</time></trkpt><trkpt lat="43.1893462" lon="12.2069387"><ele>457.25</ele><time>2026-04-19T06:36:02.258Z</time></trkpt><trkpt lat="43.1893225" lon="12.2067814"><ele>458.0</ele><time>2026-04-19T06:36:03.256Z</time></trkpt><trkpt lat="43.189302" lon="12.2066257"><ele>458.0</ele><time>2026-04-19T06:36:04.255Z</time></trkpt><trkpt lat="43.1892826" lon="12.2064761"><ele>457.99999999999994</ele><time>2026-04-19T06:36:05.259Z</time></trkpt><trkpt lat="43.1892647" lon="12.2063315"><ele>457.99999999999994</ele><time>2026-04-19T06:36:06.261Z</time></trkpt><trkpt lat="43.189249" lon="12.2061963"><ele>458.0</ele><time>2026-04-19T06:36:07.269Z</time></trkpt><trkpt lat="43.1892324" lon="12.2060812"><ele>458.0</ele><time>2026-04-19T06:36:08.26Z</time></trkpt><trkpt lat="43.1892223" lon="12.205982"><ele>458.0</ele><time>2026-04-19T06:36:09.255Z</time></trkpt><trkpt lat="43.1892576" lon="12.2058372"><ele>457.99999999999994</ele><time>2026-04-19T06:36:11.251Z</time></trkpt><trkpt lat="43.1893791" lon="12.2057564"><ele>457.99999999999994</ele><time>2026-04-19T06:36:13.252Z</time></trkpt><trkpt lat="43.1894672" lon="12.2057308"><ele>458.0</ele><time>2026-04-19T06:36:14.259Z</time></trkpt><trkpt lat="43.1895574" lon="12.2056962"><ele>458.0</ele><time>2026-04-19T06:36:15.258Z</time></trkpt><trkpt lat="43.189648" lon="12.2056521"><ele>456.4</ele><time>2026-04-19T06:36:16.256Z</time></trkpt><trkpt lat="43.1897368" lon="12.2055927"><ele>454.79999999999995</ele><time>2026-04-19T06:36:17.263Z</time></trkpt><trkpt lat="43.1898275" lon="12.205527"><ele>453.2</ele><time>2026-04-19T06:36:18.256Z</time></trkpt><trkpt lat="43.1899247" lon="12.205453"><ele>451.6</ele><time>2026-04-19T06:36:19.263Z</time></trkpt><trkpt lat="43.1900283" lon="12.2053623"><ele>450.0</ele><time>2026-04-19T06:36:20.274Z</time></trkpt><trkpt lat="43.1901481" lon="12.2052596"><ele>454.25</ele><time>2026-04-19T06:36:21.266Z</time></trkpt><trkpt lat="43.1902812" lon="12.2051513"><ele>458.5</ele><time>2026-04-19T06:36:22.262Z</time></trkpt><trkpt lat="43.1904047" lon="12.2050523"><ele>462.75</ele><time>2026-04-19T06:36:23.263Z</time></trkpt><trkpt lat="43.1905068" lon="12.2049515"><ele>467.0</ele><time>2026-04-19T06:36:24.264Z</time></trkpt><trkpt lat="43.1905994" lon="12.2048529"><ele>468.0</ele><time>2026-04-19T06:36:25.267Z</time></trkpt><trkpt lat="43.1906985" lon="12.2047744"><ele>469.00000000000006</ele><time>2026-04-19T06:36:26.26Z</time></trkpt><trkpt lat="43.1907916" lon="12.2047037"><ele>470.00000000000006</ele><time>2026-04-19T06:36:27.261Z</time></trkpt><trkpt lat="43.1908745" lon="12.2046394"><ele>471.0</ele><time>2026-04-19T06:36:28.255Z</time></trkpt><trkpt lat="43.1909568" lon="12.2045958"><ele>472.0</ele><time>2026-04-19T06:36:29.258Z</time></trkpt><trkpt lat="43.191044" lon="12.204575"><ele>472.0</ele><time>2026-04-19T06:36:30.259Z</time></trkpt><trkpt lat="43.1911377" lon="12.2045739"><ele>472.00000000000006</ele><time>2026-04-19T06:36:31.26Z</time></trkpt><trkpt lat="43.1912326" lon="12.2045846"><ele>472.00000000000006</ele><time>2026-04-19T06:36:32.254Z</time></trkpt><trkpt lat="43.1913404" lon="12.2046157"><ele>472.0</ele><time>2026-04-19T06:36:33.254Z</time></trkpt><trkpt lat="43.1914668" lon="12.2046518"><ele>472.0</ele><time>2026-04-19T06:36:34.257Z</time></trkpt><trkpt lat="43.1916006" lon="12.20469"><ele>474.0</ele><time>2026-04-19T06:36:35.253Z</time></trkpt><trkpt lat="43.1917361" lon="12.2047293"><ele>476.00000000000006</ele><time>2026-04-19T06:36:36.263Z</time></trkpt><trkpt lat="43.1918597" lon="12.2047657"><ele>478.00000000000006</ele><time>2026-04-19T06:36:37.255Z</time></trkpt><trkpt lat="43.1919612" lon="12.2047938"><ele>480.0</ele><time>2026-04-19T06:36:38.259Z</time></trkpt><trkpt lat="43.1920404" lon="12.2047979"><ele>482.0</ele><time>2026-04-19T06:36:39.257Z</time></trkpt><trkpt lat="43.1921025" lon="12.20476"><ele>482.0</ele><time>2026-04-19T06:36:40.258Z</time></trkpt><trkpt lat="43.1921483" lon="12.204675"><ele>482.00000000000006</ele><time>2026-04-19T06:36:41.262Z</time></trkpt><trkpt lat="43.1921848" lon="12.2045606"><ele>482.00000000000006</ele><time>2026-04-19T06:36:42.256Z</time></trkpt><trkpt lat="43.1922268" lon="12.2044293"><ele>482.0</ele><time>2026-04-19T06:36:43.254Z</time></trkpt><trkpt lat="43.1922734" lon="12.2043084"><ele>482.0</ele><time>2026-04-19T06:36:44.26Z</time></trkpt><trkpt lat="43.1923299" lon="12.204199"><ele>485.20000000000005</ele><time>2026-04-19T06:36:45.263Z</time></trkpt><trkpt lat="43.1923925" lon="12.2041016"><ele>488.40000000000003</ele><time>2026-04-19T06:36:46.264Z</time></trkpt><trkpt lat="43.1924577" lon="12.2040049"><ele>491.59999999999997</ele><time>2026-04-19T06:36:47.258Z</time></trkpt><trkpt lat="43.1925221" lon="12.2039022"><ele>494.79999999999995</ele><time>2026-04-19T06:36:48.262Z</time></trkpt><trkpt lat="43.1925872" lon="12.203803"><ele>498.0</ele><time>2026-04-19T06:36:49.263Z</time></trkpt><trkpt lat="43.192654" lon="12.2037097"><ele>498.0</ele><time>2026-04-19T06:36:50.267Z</time></trkpt><trkpt lat="43.1927273" lon="12.20362"><ele>498.0</ele><time>2026-04-19T06:36:51.301Z</time></trkpt><trkpt lat="43.1927985" lon="12.2035417"><ele>498.0</ele><time>2026-04-19T06:36:52.265Z</time></trkpt><trkpt lat="43.1928699" lon="12.203469"><ele>498.0</ele><time>2026-04-19T06:36:53.268Z</time></trkpt><trkpt lat="43.1929375" lon="12.2034089"><ele>498.0</ele><time>2026-04-19T06:36:54.27Z</time></trkpt><trkpt lat="43.193001" lon="12.203385"><ele>498.0</ele><time>2026-04-19T06:36:55.268Z</time></trkpt><trkpt lat="43.1931194" lon="12.2034155"><ele>499.5</ele><time>2026-04-19T06:36:57.262Z</time></trkpt><trkpt lat="43.1931988" lon="12.2035003"><ele>501.0</ele><time>2026-04-19T06:36:59.261Z</time></trkpt><trkpt lat="43.1932114" lon="12.2036272"><ele>502.5</ele><time>2026-04-19T06:37:01.278Z</time></trkpt><trkpt lat="43.1932118" lon="12.2037399"><ele>504.0</ele><time>2026-04-19T06:37:03.276Z</time></trkpt><trkpt lat="43.1932097" lon="12.2038531"><ele>505.5</ele><time>2026-04-19T06:37:05.28Z</time></trkpt><trkpt lat="43.1932066" lon="12.2039587"><ele>507.0</ele><time>2026-04-19T06:37:07.274Z</time></trkpt><trkpt lat="43.1932261" lon="12.2041219"><ele>507.8333333333333</ele><time>2026-04-19T06:37:09.265Z</time></trkpt><trkpt lat="43.1932523" lon="12.2042844"><ele>508.66666666666663</ele><time>2026-04-19T06:37:11.264Z</time></trkpt><trkpt lat="43.1932681" lon="12.20437"><ele>509.5</ele><time>2026-04-19T06:37:12.258Z</time></trkpt><trkpt lat="43.1932841" lon="12.2044605"><ele>510.3333333333333</ele><time>2026-04-19T06:37:13.26Z</time></trkpt><trkpt lat="43.1933122" lon="12.204567"><ele>511.16666666666663</ele><time>2026-04-19T06:37:14.261Z</time></trkpt><trkpt lat="43.1933424" lon="12.2046698"><ele>512.0</ele><time>2026-04-19T06:37:15.273Z</time></trkpt><trkpt lat="43.1933759" lon="12.2047781"><ele>512.5</ele><time>2026-04-19T06:37:16.263Z</time></trkpt><trkpt lat="43.1934129" lon="12.2049029"><ele>513.0</ele><time>2026-04-19T06:37:17.263Z</time></trkpt><trkpt lat="43.1934582" lon="12.2050519"><ele>513.5</ele><time>2026-04-19T06:37:18.269Z</time></trkpt><trkpt lat="43.193509" lon="12.2051999"><ele>514.0</ele><time>2026-04-19T06:37:19.267Z</time></trkpt><trkpt lat="43.1935639" lon="12.2053468"><ele>514.0</ele><time>2026-04-19T06:37:20.266Z</time></trkpt><trkpt lat="43.1936264" lon="12.2054981"><ele>514.0</ele><time>2026-04-19T06:37:21.277Z</time></trkpt><trkpt lat="43.1936994" lon="12.2056491"><ele>514.0</ele><time>2026-04-19T06:37:22.268Z</time></trkpt><trkpt lat="43.193795" lon="12.2057914"><ele>514.0</ele><time>2026-04-19T06:37:23.263Z</time></trkpt><trkpt lat="43.1939041" lon="12.2059109"><ele>517.5</ele><time>2026-04-19T06:37:24.27Z</time></trkpt><trkpt lat="43.194031" lon="12.2060165"><ele>521.0</ele><time>2026-04-19T06:37:25.265Z</time></trkpt><trkpt lat="43.1941522" lon="12.2061353"><ele>524.5</ele><time>2026-04-19T06:37:26.265Z</time></trkpt><trkpt lat="43.1942498" lon="12.2062587"><ele>528.0</ele><time>2026-04-19T06:37:27.263Z</time></trkpt><trkpt lat="43.1943059" lon="12.2064028"><ele>530.0</ele><time>2026-04-19T06:37:28.264Z</time></trkpt><trkpt lat="43.1943331" lon="12.2065713"><ele>532.0</ele><time>2026-04-19T06:37:29.258Z</time></trkpt><trkpt lat="43.1943494" lon="12.2067548"><ele>534.0</ele><time>2026-04-19T06:37:30.259Z</time></trkpt><trkpt lat="43.1943609" lon="12.2069399"><ele>536.0</ele><time>2026-04-19T06:37:31.259Z</time></trkpt><trkpt lat="43.1943592" lon="12.2071314"><ele>538.3333333333333</ele><time>2026-04-19T06:37:32.259Z</time></trkpt><trkpt lat="43.1943569" lon="12.2073333"><ele>540.6666666666666</ele><time>2026-04-19T06:37:33.253Z</time></trkpt><trkpt lat="43.1943446" lon="12.2075387"><ele>543.0</ele><time>2026-04-19T06:37:34.255Z</time></trkpt><trkpt lat="43.1943197" lon="12.2077522"><ele>543.0</ele><time>2026-04-19T06:37:35.258Z</time></trkpt><trkpt lat="43.194293" lon="12.2079604"><ele>543.0</ele><time>2026-04-19T06:37:36.251Z</time></trkpt><trkpt lat="43.194276" lon="12.2081623"><ele>543.0</ele><time>2026-04-19T06:37:37.252Z</time></trkpt><trkpt lat="43.1942744" lon="12.208346"><ele>543.0</ele><time>2026-04-19T06:37:38.253Z</time></trkpt><trkpt lat="43.1943038" lon="12.20852"><ele>543.5</ele><time>2026-04-19T06:37:39.252Z</time></trkpt><trkpt lat="43.1943525" lon="12.2086725"><ele>544.0</ele><time>2026-04-19T06:37:40.258Z</time></trkpt><trkpt lat="43.1944267" lon="12.2087886"><ele>544.5</ele><time>2026-04-19T06:37:41.256Z</time></trkpt><trkpt lat="43.1945135" lon="12.2089233"><ele>545.0</ele><time>2026-04-19T06:37:42.261Z</time></trkpt><trkpt lat="43.1945959" lon="12.2090795"><ele>545.0</ele><time>2026-04-19T06:37:43.26Z</time></trkpt><trkpt lat="43.1946938" lon="12.2092645"><ele>545.0</ele><time>2026-04-19T06:37:44.256Z</time></trkpt><trkpt lat="43.1948024" lon="12.2094817"><ele>545.0</ele><time>2026-04-19T06:37:45.261Z</time></trkpt><trkpt lat="43.1949227" lon="12.2097248"><ele>549.6666666666666</ele><time>2026-04-19T06:37:46.255Z</time></trkpt><trkpt lat="43.1950392" lon="12.2099592"><ele>554.3333333333334</ele><time>2026-04-19T06:37:47.263Z</time></trkpt><trkpt lat="43.1951504" lon="12.2101919"><ele>559.0</ele><time>2026-04-19T06:37:48.26Z</time></trkpt><trkpt lat="43.1952579" lon="12.2104305"><ele>559.3333333333334</ele><time>2026-04-19T06:37:49.263Z</time></trkpt><trkpt lat="43.1953587" lon="12.2106708"><ele>559.6666666666666</ele><time>2026-04-19T06:37:50.263Z</time></trkpt><trkpt lat="43.1954521" lon="12.2108874"><ele>560.0</ele><time>2026-04-19T06:37:51.258Z</time></trkpt><trkpt lat="43.1955424" lon="12.2110806"><ele>560.0</ele><time>2026-04-19T06:37:52.282Z</time></trkpt><trkpt lat="43.1956142" lon="12.2112548"><ele>560.0</ele><time>2026-04-19T06:37:53.262Z</time></trkpt><trkpt lat="43.1956785" lon="12.2114323"><ele>560.0</ele><time>2026-04-19T06:37:54.264Z</time></trkpt><trkpt lat="43.1957358" lon="12.2116277"><ele>560.0</ele><time>2026-04-19T06:37:55.263Z</time></trkpt><trkpt lat="43.1957903" lon="12.2118347"><ele>563.0</ele><time>2026-04-19T06:37:56.269Z</time></trkpt><trkpt lat="43.1958416" lon="12.212047"><ele>566.0</ele><time>2026-04-19T06:37:57.263Z</time></trkpt><trkpt lat="43.195899" lon="12.2122728"><ele>569.0</ele><time>2026-04-19T06:37:58.262Z</time></trkpt><trkpt lat="43.1959685" lon="12.2125109"><ele>570.0</ele><time>2026-04-19T06:37:59.266Z</time></trkpt><trkpt lat="43.1960447" lon="12.2127428"><ele>571.0</ele><time>2026-04-19T06:38:00.262Z</time></trkpt><trkpt lat="43.1961203" lon="12.212955"><ele>572.0</ele><time>2026-04-19T06:38:01.264Z</time></trkpt><trkpt lat="43.1961764" lon="12.2131639"><ele>573.3333333333333</ele><time>2026-04-19T06:38:02.268Z</time></trkpt><trkpt lat="43.1962308" lon="12.2133769"><ele>574.6666666666666</ele><time>2026-04-19T06:38:03.267Z</time></trkpt><trkpt lat="43.1962864" lon="12.2135866"><ele>576.0</ele><time>2026-04-19T06:38:04.26Z</time></trkpt><trkpt lat="43.196345" lon="12.2137776"><ele>576.0</ele><time>2026-04-19T06:38:05.263Z</time></trkpt><trkpt lat="43.1964145" lon="12.2139571"><ele>576.0</ele><time>2026-04-19T06:38:06.265Z</time></trkpt><trkpt lat="43.1965025" lon="12.2141361"><ele>576.0</ele><time>2026-04-19T06:38:07.264Z</time></trkpt><trkpt lat="43.1965847" lon="12.2143158"><ele>576.0</ele><time>2026-04-19T06:38:08.26Z</time></trkpt><trkpt lat="43.1966606" lon="12.2144929"><ele>576.0</ele><time>2026-04-19T06:38:09.255Z</time></trkpt><trkpt lat="43.1967199" lon="12.2146833"><ele>576.0</ele><time>2026-04-19T06:38:10.262Z</time></trkpt><trkpt lat="43.1967617" lon="12.2148912"><ele>577.6666666666666</ele><time>2026-04-19T06:38:11.26Z</time></trkpt><trkpt lat="43.1968038" lon="12.2151075"><ele>579.3333333333333</ele><time>2026-04-19T06:38:12.255Z</time></trkpt><trkpt lat="43.1968352" lon="12.2153301"><ele>581.0</ele><time>2026-04-19T06:38:13.274Z</time></trkpt><trkpt lat="43.1968721" lon="12.215552"><ele>582.3333333333333</ele><time>2026-04-19T06:38:14.261Z</time></trkpt><trkpt lat="43.1968928" lon="12.2157695"><ele>583.6666666666666</ele><time>2026-04-19T06:38:15.26Z</time></trkpt><trkpt lat="43.1968976" lon="12.215983"><ele>585.0</ele><time>2026-04-19T06:38:16.261Z</time></trkpt><trkpt lat="43.1968757" lon="12.2161974"><ele>585.0</ele><time>2026-04-19T06:38:17.256Z</time></trkpt><trkpt lat="43.196861" lon="12.2164117"><ele>585.0</ele><time>2026-04-19T06:38:18.26Z</time></trkpt><trkpt lat="43.1968636" lon="12.2166075"><ele>585.0</ele><time>2026-04-19T06:38:19.263Z</time></trkpt><trkpt lat="43.1969226" lon="12.2167821"><ele>585.0</ele><time>2026-04-19T06:38:20.261Z</time></trkpt><trkpt lat="43.1970083" lon="12.2169438"><ele>584.0</ele><time>2026-04-19T06:38:21.258Z</time></trkpt><trkpt lat="43.1970898" lon="12.2171138"><ele>583.0</ele><time>2026-04-19T06:38:22.26Z</time></trkpt><trkpt lat="43.1971628" lon="12.2172752"><ele>582.0</ele><time>2026-04-19T06:38:23.27Z</time></trkpt><trkpt lat="43.1972239" lon="12.2174148"><ele>581.0</ele><time>2026-04-19T06:38:24.26Z</time></trkpt><trkpt lat="43.1972697" lon="12.2175556"><ele>581.0</ele><time>2026-04-19T06:38:25.258Z</time></trkpt><trkpt lat="43.1973108" lon="12.2176779"><ele>581.0</ele><time>2026-04-19T06:38:26.259Z</time></trkpt><trkpt lat="43.1973478" lon="12.2177643"><ele>581.0</ele><time>2026-04-19T06:38:27.258Z</time></trkpt><trkpt lat="43.1974151" lon="12.2178041"><ele>581.0</ele><time>2026-04-19T06:38:29.26Z</time></trkpt><trkpt lat="43.1975148" lon="12.2177467"><ele>581.0</ele><time>2026-04-19T06:38:31.256Z</time></trkpt><trkpt lat="43.1975815" lon="12.2177233"><ele>581.0</ele><time>2026-04-19T06:38:32.256Z</time></trkpt><trkpt lat="43.1976565" lon="12.2177163"><ele>582.6666666666666</ele><time>2026-04-19T06:38:33.254Z</time></trkpt><trkpt lat="43.1977359" lon="12.2177248"><ele>584.3333333333333</ele><time>2026-04-19T06:38:34.252Z</time></trkpt><trkpt lat="43.197825" lon="12.2177455"><ele>586.0</ele><time>2026-04-19T06:38:35.254Z</time></trkpt><trkpt lat="43.1979142" lon="12.2177601"><ele>587.6666666666666</ele><time>2026-04-19T06:38:36.252Z</time></trkpt><trkpt lat="43.1980038" lon="12.2177591"><ele>589.3333333333334</ele><time>2026-04-19T06:38:37.253Z</time></trkpt><trkpt lat="43.198088" lon="12.2177306"><ele>591.0</ele><time>2026-04-19T06:38:38.253Z</time></trkpt><trkpt lat="43.1981525" lon="12.2176741"><ele>591.6</ele><time>2026-04-19T06:38:39.253Z</time></trkpt><trkpt lat="43.1982019" lon="12.2175879"><ele>592.2</ele><time>2026-04-19T06:38:40.251Z</time></trkpt><trkpt lat="43.1982475" lon="12.2174738"><ele>592.8</ele><time>2026-04-19T06:38:41.25Z</time></trkpt><trkpt lat="43.1982944" lon="12.2173517"><ele>593.4</ele><time>2026-04-19T06:38:42.256Z</time></trkpt><trkpt lat="43.1983362" lon="12.2172412"><ele>594.0</ele><time>2026-04-19T06:38:43.255Z</time></trkpt><trkpt lat="43.1983759" lon="12.2171372"><ele>591.6666666666666</ele><time>2026-04-19T06:38:44.253Z</time></trkpt><trkpt lat="43.1984216" lon="12.2170395"><ele>589.3333333333334</ele><time>2026-04-19T06:38:45.255Z</time></trkpt><trkpt lat="43.1984719" lon="12.2169462"><ele>587.0</ele><time>2026-04-19T06:38:46.256Z</time></trkpt><trkpt lat="43.198527" lon="12.2168604"><ele>584.6666666666667</ele><time>2026-04-19T06:38:47.257Z</time></trkpt><trkpt lat="43.198587" lon="12.2167857"><ele>582.3333333333334</ele><time>2026-04-19T06:38:48.259Z</time></trkpt><trkpt lat="43.1986633" lon="12.2167451"><ele>580.0</ele><time>2026-04-19T06:38:49.258Z</time></trkpt><trkpt lat="43.1987658" lon="12.2167302"><ele>580.0</ele><time>2026-04-19T06:38:50.257Z</time></trkpt><trkpt lat="43.1989017" lon="12.2167231"><ele>580.0</ele><time>2026-04-19T06:38:51.25Z</time></trkpt><trkpt lat="43.1990442" lon="12.2167048"><ele>580.0</ele><time>2026-04-19T06:38:52.248Z</time></trkpt><trkpt lat="43.1991762" lon="12.2166669"><ele>580.0</ele><time>2026-04-19T06:38:53.255Z</time></trkpt><trkpt lat="43.199289" lon="12.2166017"><ele>581.0</ele><time>2026-04-19T06:38:54.276Z</time></trkpt><trkpt lat="43.1993862" lon="12.2165195"><ele>582.0</ele><time>2026-04-19T06:38:55.257Z</time></trkpt><trkpt lat="43.1994743" lon="12.2164412"><ele>583.0</ele><time>2026-04-19T06:38:56.258Z</time></trkpt><trkpt lat="43.1995555" lon="12.2163731"><ele>584.0</ele><time>2026-04-19T06:38:57.256Z</time></trkpt><trkpt lat="43.1996329" lon="12.2163257"><ele>585.0</ele><time>2026-04-19T06:38:58.266Z</time></trkpt><trkpt lat="43.1997102" lon="12.2163108"><ele>581.6</ele><time>2026-04-19T06:38:59.263Z</time></trkpt><trkpt lat="43.1998008" lon="12.2163131"><ele>578.2</ele><time>2026-04-19T06:39:00.261Z</time></trkpt><trkpt lat="43.1998943" lon="12.2163237"><ele>574.8</ele><time>2026-04-19T06:39:01.265Z</time></trkpt><trkpt lat="43.1999863" lon="12.2163431"><ele>571.4</ele><time>2026-04-19T06:39:02.269Z</time></trkpt><trkpt lat="43.2000744" lon="12.2163511"><ele>568.0</ele><time>2026-04-19T06:39:03.262Z</time></trkpt><trkpt lat="43.2001586" lon="12.2163515"><ele>567.8333333333334</ele><time>2026-04-19T06:39:04.26Z</time></trkpt><trkpt lat="43.2002308" lon="12.2163326"><ele>567.6666666666667</ele><time>2026-04-19T06:39:05.253Z</time></trkpt><trkpt lat="43.2003003" lon="12.2162951"><ele>567.5</ele><time>2026-04-19T06:39:06.262Z</time></trkpt><trkpt lat="43.2003724" lon="12.2162368"><ele>567.3333333333334</ele><time>2026-04-19T06:39:07.259Z</time></trkpt><trkpt lat="43.2004524" lon="12.2161721"><ele>567.1666666666666</ele><time>2026-04-19T06:39:08.263Z</time></trkpt><trkpt lat="43.2005393" lon="12.2161022"><ele>567.0</ele><time>2026-04-19T06:39:09.259Z</time></trkpt><trkpt lat="43.200626" lon="12.2160306"><ele>568.1666666666666</ele><time>2026-04-19T06:39:10.257Z</time></trkpt><trkpt lat="43.2006989" lon="12.2159528"><ele>569.3333333333334</ele><time>2026-04-19T06:39:11.254Z</time></trkpt><trkpt lat="43.2007621" lon="12.2158702"><ele>570.5</ele><time>2026-04-19T06:39:12.257Z</time></trkpt><trkpt lat="43.2008144" lon="12.2157873"><ele>571.6666666666667</ele><time>2026-04-19T06:39:13.257Z</time></trkpt><trkpt lat="43.2008651" lon="12.2157113"><ele>572.8333333333334</ele><time>2026-04-19T06:39:14.255Z</time></trkpt><trkpt lat="43.2009318" lon="12.2156381"><ele>574.0</ele><time>2026-04-19T06:39:15.26Z</time></trkpt><trkpt lat="43.2010174" lon="12.2155774"><ele>571.2</ele><time>2026-04-19T06:39:16.254Z</time></trkpt><trkpt lat="43.2011166" lon="12.2155293"><ele>568.4</ele><time>2026-04-19T06:39:17.261Z</time></trkpt><trkpt lat="43.2012143" lon="12.215487"><ele>565.6</ele><time>2026-04-19T06:39:18.268Z</time></trkpt><trkpt lat="43.201307" lon="12.2154535"><ele>562.8</ele><time>2026-04-19T06:39:19.268Z</time></trkpt><trkpt lat="43.2013947" lon="12.2154216"><ele>560.0</ele><time>2026-04-19T06:39:20.268Z</time></trkpt><trkpt lat="43.2014802" lon="12.215393"><ele>558.5</ele><time>2026-04-19T06:39:21.261Z</time></trkpt><trkpt lat="43.2015631" lon="12.2153617"><ele>557.0</ele><time>2026-04-19T06:39:22.265Z</time></trkpt><trkpt lat="43.201642" lon="12.2153316"><ele>555.5</ele><time>2026-04-19T06:39:23.262Z</time></trkpt><trkpt lat="43.2017191" lon="12.215303"><ele>554.0</ele><time>2026-04-19T06:39:24.269Z</time></trkpt><trkpt lat="43.2017944" lon="12.2152654"><ele>552.5</ele><time>2026-04-19T06:39:25.285Z</time></trkpt><trkpt lat="43.2018608" lon="12.2152099"><ele>551.0</ele><time>2026-04-19T06:39:26.268Z</time></trkpt><trkpt lat="43.2019216" lon="12.21515"><ele>551.0</ele><time>2026-04-19T06:39:27.267Z</time></trkpt><trkpt lat="43.2019843" lon="12.2150967"><ele>551.0</ele><time>2026-04-19T06:39:28.266Z</time></trkpt><trkpt lat="43.2020532" lon="12.2150541"><ele>551.0</ele><time>2026-04-19T06:39:29.262Z</time></trkpt><trkpt lat="43.2021296" lon="12.2150242"><ele>551.0</ele><time>2026-04-19T06:39:30.262Z</time></trkpt><trkpt lat="43.2022121" lon="12.2149999"><ele>551.0</ele><time>2026-04-19T06:39:31.264Z</time></trkpt><trkpt lat="43.2022998" lon="12.2149782"><ele>551.0</ele><time>2026-04-19T06:39:32.27Z</time></trkpt><trkpt lat="43.2023923" lon="12.2149509"><ele>549.5</ele><time>2026-04-19T06:39:33.263Z</time></trkpt><trkpt lat="43.2024846" lon="12.2149257"><ele>548.0</ele><time>2026-04-19T06:39:34.267Z</time></trkpt><trkpt lat="43.2025779" lon="12.2149036"><ele>546.5</ele><time>2026-04-19T06:39:35.269Z</time></trkpt><trkpt lat="43.2026681" lon="12.2148842"><ele>545.0</ele><time>2026-04-19T06:39:36.27Z</time></trkpt><trkpt lat="43.2027533" lon="12.2148654"><ele>543.5</ele><time>2026-04-19T06:39:37.269Z</time></trkpt><trkpt lat="43.2028311" lon="12.2148461"><ele>542.0</ele><time>2026-04-19T06:39:38.27Z</time></trkpt><trkpt lat="43.2029079" lon="12.2148318"><ele>542.0</ele><time>2026-04-19T06:39:39.269Z</time></trkpt><trkpt lat="43.2029856" lon="12.2148294"><ele>542.0</ele><time>2026-04-19T06:39:40.268Z</time></trkpt><trkpt lat="43.203063" lon="12.2148356"><ele>542.0</ele><time>2026-04-19T06:39:41.269Z</time></trkpt><trkpt lat="43.2031405" lon="12.2148508"><ele>542.0</ele><time>2026-04-19T06:39:42.267Z</time></trkpt><trkpt lat="43.2032106" lon="12.2148611"><ele>542.0</ele><time>2026-04-19T06:39:43.263Z</time></trkpt><trkpt lat="43.2032758" lon="12.2148449"><ele>542.0</ele><time>2026-04-19T06:39:44.265Z</time></trkpt><trkpt lat="43.2033327" lon="12.2148044"><ele>542.0</ele><time>2026-04-19T06:39:45.269Z</time></trkpt><trkpt lat="43.2033755" lon="12.214727"><ele>537.5</ele><time>2026-04-19T06:39:46.266Z</time></trkpt><trkpt lat="43.2034066" lon="12.2146275"><ele>533.0</ele><time>2026-04-19T06:39:47.269Z</time></trkpt><trkpt lat="43.2034298" lon="12.2145101"><ele>528.5</ele><time>2026-04-19T06:39:48.263Z</time></trkpt><trkpt lat="43.2034535" lon="12.2143888"><ele>524.0</ele><time>2026-04-19T06:39:49.27Z</time></trkpt><trkpt lat="43.2034686" lon="12.2142607"><ele>519.5</ele><time>2026-04-19T06:39:50.264Z</time></trkpt><trkpt lat="43.2034786" lon="12.2141342"><ele>515.0</ele><time>2026-04-19T06:39:51.27Z</time></trkpt><trkpt lat="43.2034955" lon="12.2140231"><ele>511.99999999999994</ele><time>2026-04-19T06:39:52.27Z</time></trkpt><trkpt lat="43.2035253" lon="12.2139251"><ele>509.0</ele><time>2026-04-19T06:39:53.266Z</time></trkpt><trkpt lat="43.2035701" lon="12.2138484"><ele>506.0</ele><time>2026-04-19T06:39:54.27Z</time></trkpt><trkpt lat="43.2036357" lon="12.2138107"><ele>503.0</ele><time>2026-04-19T06:39:55.271Z</time></trkpt><trkpt lat="43.2037211" lon="12.2138185"><ele>499.99999999999994</ele><time>2026-04-19T06:39:56.285Z</time></trkpt><trkpt lat="43.2038009" lon="12.2138396"><ele>497.0</ele><time>2026-04-19T06:39:57.261Z</time></trkpt><trkpt lat="43.2038671" lon="12.2138463"><ele>496.99999999999994</ele><time>2026-04-19T06:39:58.263Z</time></trkpt><trkpt lat="43.2039388" lon="12.2137902"><ele>497.0</ele><time>2026-04-19T06:40:00.272Z</time></trkpt><trkpt lat="43.2039214" lon="12.2136349"><ele>497.0</ele><time>2026-04-19T06:40:02.27Z</time></trkpt><trkpt lat="43.2038957" lon="12.2135419"><ele>497.0</ele><time>2026-04-19T06:40:03.262Z</time></trkpt><trkpt lat="43.2038701" lon="12.213458"><ele>496.99999999999994</ele><time>2026-04-19T06:40:04.273Z</time></trkpt><trkpt lat="43.2038773" lon="12.2133226"><ele>497.0</ele><time>2026-04-19T06:40:06.268Z</time></trkpt><trkpt lat="43.2039758" lon="12.2132591"><ele>496.2857142857143</ele><time>2026-04-19T06:40:08.28Z</time></trkpt><trkpt lat="43.2040411" lon="12.2132352"><ele>495.57142857142856</ele><time>2026-04-19T06:40:09.262Z</time></trkpt><trkpt lat="43.2041101" lon="12.2132059"><ele>494.8571428571429</ele><time>2026-04-19T06:40:10.263Z</time></trkpt><trkpt lat="43.204184" lon="12.2131642"><ele>494.14285714285717</ele><time>2026-04-19T06:40:11.268Z</time></trkpt><trkpt lat="43.2042553" lon="12.2131126"><ele>493.42857142857144</ele><time>2026-04-19T06:40:12.266Z</time></trkpt><trkpt lat="43.2043213" lon="12.2130624"><ele>492.7142857142858</ele><time>2026-04-19T06:40:13.267Z</time></trkpt><trkpt lat="43.2043893" lon="12.2130282"><ele>492.00000000000006</ele><time>2026-04-19T06:40:14.268Z</time></trkpt><trkpt lat="43.2044593" lon="12.213009"><ele>489.6666666666667</ele><time>2026-04-19T06:40:15.267Z</time></trkpt><trkpt lat="43.2045283" lon="12.2129879"><ele>487.33333333333337</ele><time>2026-04-19T06:40:16.268Z</time></trkpt><trkpt lat="43.2045966" lon="12.2129655"><ele>485.0</ele><time>2026-04-19T06:40:17.268Z</time></trkpt><trkpt lat="43.2046607" lon="12.2129406"><ele>482.6666666666667</ele><time>2026-04-19T06:40:18.269Z</time></trkpt><trkpt lat="43.204775" lon="12.2128883"><ele>480.33333333333337</ele><time>2026-04-19T06:40:20.268Z</time></trkpt><trkpt lat="43.2048807" lon="12.2128109"><ele>478.0</ele><time>2026-04-19T06:40:22.266Z</time></trkpt><trkpt lat="43.2049418" lon="12.2127664"><ele>477.50000000000006</ele><time>2026-04-19T06:40:23.264Z</time></trkpt><trkpt lat="43.2050119" lon="12.2127219"><ele>477.0</ele><time>2026-04-19T06:40:24.271Z</time></trkpt><trkpt lat="43.2050871" lon="12.2126776"><ele>476.5</ele><time>2026-04-19T06:40:25.27Z</time></trkpt><trkpt lat="43.2051588" lon="12.2126277"><ele>476.0</ele><time>2026-04-19T06:40:26.27Z</time></trkpt><trkpt lat="43.205216" lon="12.2125666"><ele>475.50000000000006</ele><time>2026-04-19T06:40:27.286Z</time></trkpt><trkpt lat="43.205267" lon="12.2125099"><ele>475.0</ele><time>2026-04-19T06:40:28.267Z</time></trkpt><trkpt lat="43.2053485" lon="12.2123961"><ele>472.0</ele><time>2026-04-19T06:40:30.27Z</time></trkpt><trkpt lat="43.2054279" lon="12.2123074"><ele>469.0</ele><time>2026-04-19T06:40:32.269Z</time></trkpt><trkpt lat="43.2055327" lon="12.2122746"><ele>466.0</ele><time>2026-04-19T06:40:34.268Z</time></trkpt><trkpt lat="43.2056349" lon="12.2121959"><ele>463.0</ele><time>2026-04-19T06:40:36.267Z</time></trkpt><trkpt lat="43.2056866" lon="12.2121458"><ele>460.0</ele><time>2026-04-19T06:40:37.269Z</time></trkpt><trkpt lat="43.2057808" lon="12.2120545"><ele>459.6</ele><time>2026-04-19T06:40:39.267Z</time></trkpt><trkpt lat="43.2058664" lon="12.2119761"><ele>459.2</ele><time>2026-04-19T06:40:41.27Z</time></trkpt><trkpt lat="43.2059514" lon="12.2119046"><ele>458.79999999999995</ele><time>2026-04-19T06:40:43.269Z</time></trkpt><trkpt lat="43.2060409" lon="12.2118358"><ele>458.4</ele><time>2026-04-19T06:40:45.273Z</time></trkpt><trkpt lat="43.2060936" lon="12.2117582"><ele>458.0</ele><time>2026-04-19T06:40:47.284Z</time></trkpt><trkpt lat="43.2061473" lon="12.2116603"><ele>458.0</ele><time>2026-04-19T06:40:49.283Z</time></trkpt><trkpt lat="43.2062465" lon="12.2115775"><ele>457.99999999999994</ele><time>2026-04-19T06:40:51.27Z</time></trkpt><trkpt lat="43.2063456" lon="12.2115023"><ele>457.99999999999994</ele><time>2026-04-19T06:40:53.269Z</time></trkpt><trkpt lat="43.2064372" lon="12.2114332"><ele>458.0</ele><time>2026-04-19T06:40:55.272Z</time></trkpt><trkpt lat="43.2065409" lon="12.2113931"><ele>458.0</ele><time>2026-04-19T06:40:57.273Z</time></trkpt><trkpt lat="43.206646" lon="12.2113513"><ele>454.8333333333333</ele><time>2026-04-19T06:40:59.267Z</time></trkpt><trkpt lat="43.2066991" lon="12.2112657"><ele>451.66666666666663</ele><time>2026-04-19T06:41:01.262Z</time></trkpt><trkpt lat="43.2067164" lon="12.2111367"><ele>448.5</ele><time>2026-04-19T06:41:03.28Z</time></trkpt><trkpt lat="43.2067535" lon="12.2109713"><ele>445.33333333333337</ele><time>2026-04-19T06:41:05.27Z</time></trkpt><trkpt lat="43.2067871" lon="12.210898"><ele>442.1666666666667</ele><time>2026-04-19T06:41:06.266Z</time></trkpt><trkpt lat="43.2068277" lon="12.2108281"><ele>439.0</ele><time>2026-04-19T06:41:07.268Z</time></trkpt><trkpt lat="43.2068688" lon="12.2107605"><ele>439.0</ele><time>2026-04-19T06:41:08.264Z</time></trkpt><trkpt lat="43.2069112" lon="12.2106829"><ele>439.0</ele><time>2026-04-19T06:41:09.272Z</time></trkpt><trkpt lat="43.2069536" lon="12.210604"><ele>439.0</ele><time>2026-04-19T06:41:10.271Z</time></trkpt><trkpt lat="43.2069957" lon="12.2105215"><ele>439.0</ele><time>2026-04-19T06:41:11.268Z</time></trkpt><trkpt lat="43.2070361" lon="12.2104322"><ele>439.0</ele><time>2026-04-19T06:41:12.268Z</time></trkpt><trkpt lat="43.2070766" lon="12.2103499"><ele>439.0</ele><time>2026-04-19T06:41:13.273Z</time></trkpt><trkpt lat="43.2071141" lon="12.2102653"><ele>439.0</ele><time>2026-04-19T06:41:14.271Z</time></trkpt><trkpt lat="43.2071498" lon="12.2101741"><ele>437.50000000000006</ele><time>2026-04-19T06:41:15.27Z</time></trkpt><trkpt lat="43.207185" lon="12.2100817"><ele>436.0</ele><time>2026-04-19T06:41:16.269Z</time></trkpt><trkpt lat="43.2072195" lon="12.2099917"><ele>434.5</ele><time>2026-04-19T06:41:17.264Z</time></trkpt><trkpt lat="43.2072547" lon="12.209912"><ele>433.0</ele><time>2026-04-19T06:41:18.265Z</time></trkpt><trkpt lat="43.2072846" lon="12.2098335"><ele>431.50000000000006</ele><time>2026-04-19T06:41:19.267Z</time></trkpt><trkpt lat="43.2073027" lon="12.2096783"><ele>430.0</ele><time>2026-04-19T06:41:21.271Z</time></trkpt><trkpt lat="43.2072287" lon="12.2095608"><ele>428.2</ele><time>2026-04-19T06:41:23.268Z</time></trkpt><trkpt lat="43.207169" lon="12.2094521"><ele>426.4</ele><time>2026-04-19T06:41:25.261Z</time></trkpt><trkpt lat="43.207187" lon="12.2093097"><ele>424.6</ele><time>2026-04-19T06:41:27.263Z</time></trkpt><trkpt lat="43.2072236" lon="12.2092251"><ele>422.8</ele><time>2026-04-19T06:41:28.263Z</time></trkpt><trkpt lat="43.2072777" lon="12.2091307"><ele>421.0</ele><time>2026-04-19T06:41:29.3Z</time></trkpt><trkpt lat="43.2073519" lon="12.2090428"><ele>418.0</ele><time>2026-04-19T06:41:30.266Z</time></trkpt><trkpt lat="43.2074405" lon="12.2089656"><ele>415.0</ele><time>2026-04-19T06:41:31.269Z</time></trkpt><trkpt lat="43.2075377" lon="12.2089009"><ele>412.0</ele><time>2026-04-19T06:41:32.273Z</time></trkpt><trkpt lat="43.2076277" lon="12.208843"><ele>409.0</ele><time>2026-04-19T06:41:33.269Z</time></trkpt><trkpt lat="43.207708" lon="12.2087745"><ele>406.0</ele><time>2026-04-19T06:41:34.264Z</time></trkpt><trkpt lat="43.2077765" lon="12.2087018"><ele>406.0</ele><time>2026-04-19T06:41:35.261Z</time></trkpt><trkpt lat="43.207828" lon="12.2086276"><ele>406.0</ele><time>2026-04-19T06:41:36.265Z</time></trkpt><trkpt lat="43.2078552" lon="12.2085452"><ele>406.0</ele><time>2026-04-19T06:41:37.264Z</time></trkpt><trkpt lat="43.2078641" lon="12.2084553"><ele>406.0</ele><time>2026-04-19T06:41:38.266Z</time></trkpt><trkpt lat="43.2078606" lon="12.2083577"><ele>406.0</ele><time>2026-04-19T06:41:39.269Z</time></trkpt><trkpt lat="43.2078675" lon="12.2082517"><ele>406.0</ele><time>2026-04-19T06:41:40.268Z</time></trkpt><trkpt lat="43.2078846" lon="12.2081522"><ele>406.0</ele><time>2026-04-19T06:41:41.261Z</time></trkpt><trkpt lat="43.2079164" lon="12.2080576"><ele>405.0</ele><time>2026-04-19T06:41:42.265Z</time></trkpt><trkpt lat="43.2080056" lon="12.2079037"><ele>404.0</ele><time>2026-04-19T06:41:44.264Z</time></trkpt><trkpt lat="43.2081115" lon="12.2078486"><ele>403.0</ele><time>2026-04-19T06:41:46.274Z</time></trkpt><trkpt lat="43.2081725" lon="12.2078717"><ele>402.0</ele><time>2026-04-19T06:41:47.27Z</time></trkpt><trkpt lat="43.2082981" lon="12.2079122"><ele>401.0</ele><time>2026-04-19T06:41:49.265Z</time></trkpt><trkpt lat="43.2083684" lon="12.2078962"><ele>400.99999999999994</ele><time>2026-04-19T06:41:50.265Z</time></trkpt><trkpt lat="43.208435" lon="12.2078511"><ele>401.0</ele><time>2026-04-19T06:41:51.27Z</time></trkpt><trkpt lat="43.2085022" lon="12.2077926"><ele>401.0</ele><time>2026-04-19T06:41:52.272Z</time></trkpt><trkpt lat="43.2085696" lon="12.2077117"><ele>401.0</ele><time>2026-04-19T06:41:53.278Z</time></trkpt><trkpt lat="43.2086264" lon="12.2076043"><ele>400.99999999999994</ele><time>2026-04-19T06:41:54.269Z</time></trkpt><trkpt lat="43.2086801" lon="12.2074979"><ele>401.0</ele><time>2026-04-19T06:41:55.264Z</time></trkpt><trkpt lat="43.2087421" lon="12.2074015"><ele>398.4</ele><time>2026-04-19T06:41:56.264Z</time></trkpt><trkpt lat="43.2088103" lon="12.2073191"><ele>395.8</ele><time>2026-04-19T06:41:57.265Z</time></trkpt><trkpt lat="43.2088794" lon="12.2072501"><ele>393.2</ele><time>2026-04-19T06:41:58.267Z</time></trkpt><trkpt lat="43.2089503" lon="12.2071779"><ele>390.59999999999997</ele><time>2026-04-19T06:41:59.281Z</time></trkpt><trkpt lat="43.2090273" lon="12.2070992"><ele>388.0</ele><time>2026-04-19T06:42:00.265Z</time></trkpt><trkpt lat="43.2091164" lon="12.2070128"><ele>388.0</ele><time>2026-04-19T06:42:01.266Z</time></trkpt><trkpt lat="43.2092149" lon="12.2069241"><ele>388.0</ele><time>2026-04-19T06:42:02.266Z</time></trkpt><trkpt lat="43.2093111" lon="12.206839"><ele>388.0</ele><time>2026-04-19T06:42:03.272Z</time></trkpt><trkpt lat="43.209405" lon="12.2067586"><ele>388.0</ele><time>2026-04-19T06:42:04.262Z</time></trkpt><trkpt lat="43.2094981" lon="12.2066833"><ele>388.0</ele><time>2026-04-19T06:42:05.266Z</time></trkpt><trkpt lat="43.2095836" lon="12.2066154"><ele>388.0</ele><time>2026-04-19T06:42:06.262Z</time></trkpt><trkpt lat="43.2096614" lon="12.2065482"><ele>388.0</ele><time>2026-04-19T06:42:07.261Z</time></trkpt><trkpt lat="43.2097376" lon="12.2064805"><ele>388.0</ele><time>2026-04-19T06:42:08.263Z</time></trkpt><trkpt lat="43.2098102" lon="12.2064125"><ele>388.0</ele><time>2026-04-19T06:42:09.26Z</time></trkpt><trkpt lat="43.2098767" lon="12.2063405"><ele>387.2857142857143</ele><time>2026-04-19T06:42:10.263Z</time></trkpt><trkpt lat="43.2099445" lon="12.2062763"><ele>386.5714285714286</ele><time>2026-04-19T06:42:11.266Z</time></trkpt><trkpt lat="43.2100055" lon="12.2062145"><ele>385.8571428571429</ele><time>2026-04-19T06:42:12.265Z</time></trkpt><trkpt lat="43.2100601" lon="12.206156"><ele>385.1428571428571</ele><time>2026-04-19T06:42:13.269Z</time></trkpt><trkpt lat="43.210109" lon="12.2061016"><ele>384.42857142857144</ele><time>2026-04-19T06:42:14.267Z</time></trkpt><trkpt lat="43.2101538" lon="12.2060357"><ele>383.7142857142857</ele><time>2026-04-19T06:42:15.265Z</time></trkpt><trkpt lat="43.2101958" lon="12.2059645"><ele>383.0</ele><time>2026-04-19T06:42:16.267Z</time></trkpt><trkpt lat="43.2102376" lon="12.2058949"><ele>383.0</ele><time>2026-04-19T06:42:17.267Z</time></trkpt><trkpt lat="43.2102832" lon="12.2058226"><ele>383.0</ele><time>2026-04-19T06:42:18.272Z</time></trkpt><trkpt lat="43.2103286" lon="12.2057554"><ele>383.0</ele><time>2026-04-19T06:42:19.264Z</time></trkpt><trkpt lat="43.2104068" lon="12.2056244"><ele>383.0</ele><time>2026-04-19T06:42:21.264Z</time></trkpt><trkpt lat="43.210473" lon="12.2055019"><ele>383.0</ele><time>2026-04-19T06:42:23.268Z</time></trkpt><trkpt lat="43.2105408" lon="12.2054084"><ele>381.59999999999997</ele><time>2026-04-19T06:42:25.27Z</time></trkpt><trkpt lat="43.210602" lon="12.2053269"><ele>380.2</ele><time>2026-04-19T06:42:27.282Z</time></trkpt><trkpt lat="43.2106663" lon="12.2052484"><ele>378.8</ele><time>2026-04-19T06:42:29.281Z</time></trkpt><trkpt lat="43.2107444" lon="12.2051814"><ele>377.4</ele><time>2026-04-19T06:42:31.28Z</time></trkpt><trkpt lat="43.2108509" lon="12.2050965"><ele>376.0</ele><time>2026-04-19T06:42:33.268Z</time></trkpt><trkpt lat="43.2109227" lon="12.2050264"><ele>376.0</ele><time>2026-04-19T06:42:34.264Z</time></trkpt><trkpt lat="43.2110079" lon="12.2049346"><ele>376.0</ele><time>2026-04-19T06:42:35.265Z</time></trkpt><trkpt lat="43.2110958" lon="12.2048128"><ele>376.0</ele><time>2026-04-19T06:42:36.27Z</time></trkpt><trkpt lat="43.2111824" lon="12.2046878"><ele>376.0</ele><time>2026-04-19T06:42:37.27Z</time></trkpt><trkpt lat="43.2112603" lon="12.2045801"><ele>374.6</ele><time>2026-04-19T06:42:38.269Z</time></trkpt><trkpt lat="43.2113298" lon="12.2044938"><ele>373.20000000000005</ele><time>2026-04-19T06:42:39.266Z</time></trkpt><trkpt lat="43.2113876" lon="12.2044007"><ele>371.79999999999995</ele><time>2026-04-19T06:42:40.267Z</time></trkpt><trkpt lat="43.2114351" lon="12.2042877"><ele>370.4</ele><time>2026-04-19T06:42:41.27Z</time></trkpt><trkpt lat="43.2114659" lon="12.2041535"><ele>369.0</ele><time>2026-04-19T06:42:42.263Z</time></trkpt><trkpt lat="43.2114865" lon="12.2040037"><ele>369.6</ele><time>2026-04-19T06:42:43.268Z</time></trkpt><trkpt lat="43.2115041" lon="12.2038528"><ele>370.2</ele><time>2026-04-19T06:42:44.268Z</time></trkpt><trkpt lat="43.211518" lon="12.203703"><ele>370.8</ele><time>2026-04-19T06:42:45.261Z</time></trkpt><trkpt lat="43.2115366" lon="12.2035594"><ele>371.40000000000003</ele><time>2026-04-19T06:42:46.262Z</time></trkpt><trkpt lat="43.2115648" lon="12.2034165"><ele>372.0</ele><time>2026-04-19T06:42:47.266Z</time></trkpt><trkpt lat="43.211603" lon="12.2032766"><ele>369.6</ele><time>2026-04-19T06:42:48.267Z</time></trkpt><trkpt lat="43.2116473" lon="12.2031443"><ele>367.20000000000005</ele><time>2026-04-19T06:42:49.264Z</time></trkpt><trkpt lat="43.2116991" lon="12.2030195"><ele>364.8</ele><time>2026-04-19T06:42:50.263Z</time></trkpt><trkpt lat="43.2117661" lon="12.2028964"><ele>362.4</ele><time>2026-04-19T06:42:51.266Z</time></trkpt><trkpt lat="43.2118398" lon="12.2027643"><ele>360.0</ele><time>2026-04-19T06:42:52.269Z</time></trkpt><trkpt lat="43.2119196" lon="12.2026329"><ele>360.0</ele><time>2026-04-19T06:42:53.273Z</time></trkpt><trkpt lat="43.2119978" lon="12.2025012"><ele>360.0</ele><time>2026-04-19T06:42:54.268Z</time></trkpt><trkpt lat="43.2120764" lon="12.2023702"><ele>360.0</ele><time>2026-04-19T06:42:55.265Z</time></trkpt><trkpt lat="43.2121549" lon="12.2022412"><ele>360.0</ele><time>2026-04-19T06:42:56.266Z</time></trkpt><trkpt lat="43.2122324" lon="12.202115"><ele>359.6</ele><time>2026-04-19T06:42:57.269Z</time></trkpt><trkpt lat="43.2123065" lon="12.2019924"><ele>359.2</ele><time>2026-04-19T06:42:58.27Z</time></trkpt><trkpt lat="43.2123798" lon="12.2018755"><ele>358.79999999999995</ele><time>2026-04-19T06:42:59.27Z</time></trkpt><trkpt lat="43.2124509" lon="12.2017591"><ele>358.4</ele><time>2026-04-19T06:43:00.269Z</time></trkpt><trkpt lat="43.2125229" lon="12.2016465"><ele>358.0</ele><time>2026-04-19T06:43:01.295Z</time></trkpt><trkpt lat="43.2125951" lon="12.2015396"><ele>356.2</ele><time>2026-04-19T06:43:02.272Z</time></trkpt><trkpt lat="43.2126648" lon="12.201431"><ele>354.4</ele><time>2026-04-19T06:43:03.268Z</time></trkpt><trkpt lat="43.2127294" lon="12.2013302"><ele>352.59999999999997</ele><time>2026-04-19T06:43:04.265Z</time></trkpt><trkpt lat="43.2127852" lon="12.201239"><ele>350.79999999999995</ele><time>2026-04-19T06:43:05.265Z</time></trkpt><trkpt lat="43.2128308" lon="12.2011641"><ele>349.0</ele><time>2026-04-19T06:43:06.267Z</time></trkpt><trkpt lat="43.2128822" lon="12.2010513"><ele>349.0</ele><time>2026-04-19T06:43:08.268Z</time></trkpt><trkpt lat="43.2128126" lon="12.2010023"><ele>349.0</ele><time>2026-04-19T06:43:11.275Z</time></trkpt><trkpt lat="43.2126809" lon="12.201019"><ele>349.0</ele><time>2026-04-19T06:43:13.264Z</time></trkpt><trkpt lat="43.2126048" lon="12.2010089"><ele>349.0</ele><time>2026-04-19T06:43:14.266Z</time></trkpt><trkpt lat="43.2125337" lon="12.2009797"><ele>349.0</ele><time>2026-04-19T06:43:15.261Z</time></trkpt><trkpt lat="43.2124783" lon="12.2009222"><ele>349.0</ele><time>2026-04-19T06:43:16.26Z</time></trkpt><trkpt lat="43.2124402" lon="12.2008389"><ele>349.0</ele><time>2026-04-19T06:43:17.259Z</time></trkpt><trkpt lat="43.2124204" lon="12.200732"><ele>349.0</ele><time>2026-04-19T06:43:18.267Z</time></trkpt><trkpt lat="43.2124202" lon="12.2005985"><ele>349.0</ele><time>2026-04-19T06:43:19.26Z</time></trkpt><trkpt lat="43.2124257" lon="12.2004554"><ele>349.0</ele><time>2026-04-19T06:43:20.268Z</time></trkpt><trkpt lat="43.2124358" lon="12.2002975"><ele>349.0</ele><time>2026-04-19T06:43:21.269Z</time></trkpt><trkpt lat="43.212448" lon="12.200125"><ele>347.25</ele><time>2026-04-19T06:43:22.265Z</time></trkpt><trkpt lat="43.2124623" lon="12.1999445"><ele>345.5</ele><time>2026-04-19T06:43:23.27Z</time></trkpt><trkpt lat="43.2124789" lon="12.1997672"><ele>343.75</ele><time>2026-04-19T06:43:24.281Z</time></trkpt><trkpt lat="43.2124946" lon="12.199591"><ele>342.0</ele><time>2026-04-19T06:43:25.271Z</time></trkpt><trkpt lat="43.2125079" lon="12.1994126"><ele>340.25</ele><time>2026-04-19T06:43:26.279Z</time></trkpt><trkpt lat="43.2125186" lon="12.1992366"><ele>338.5</ele><time>2026-04-19T06:43:27.278Z</time></trkpt><trkpt lat="43.212529" lon="12.1990687"><ele>336.75</ele><time>2026-04-19T06:43:28.269Z</time></trkpt><trkpt lat="43.2125372" lon="12.1989066"><ele>335.0</ele><time>2026-04-19T06:43:29.27Z</time></trkpt><trkpt lat="43.2125517" lon="12.1987482"><ele>334.0</ele><time>2026-04-19T06:43:30.261Z</time></trkpt><trkpt lat="43.212569" lon="12.1986025"><ele>333.0</ele><time>2026-04-19T06:43:31.266Z</time></trkpt><trkpt lat="43.2125984" lon="12.1984678"><ele>332.0</ele><time>2026-04-19T06:43:32.28Z</time></trkpt><trkpt lat="43.2126437" lon="12.1983313"><ele>331.0</ele><time>2026-04-19T06:43:33.268Z</time></trkpt><trkpt lat="43.212706" lon="12.1981784"><ele>330.0</ele><time>2026-04-19T06:43:34.272Z</time></trkpt><trkpt lat="43.2127849" lon="12.198009"><ele>328.3333333333333</ele><time>2026-04-19T06:43:35.267Z</time></trkpt><trkpt lat="43.2128801" lon="12.197824"><ele>326.66666666666663</ele><time>2026-04-19T06:43:36.263Z</time></trkpt><trkpt lat="43.2129961" lon="12.1976175"><ele>325.0</ele><time>2026-04-19T06:43:37.261Z</time></trkpt><trkpt lat="43.2131117" lon="12.197414"><ele>324.3333333333333</ele><time>2026-04-19T06:43:38.267Z</time></trkpt><trkpt lat="43.2132197" lon="12.197213"><ele>323.6666666666667</ele><time>2026-04-19T06:43:39.263Z</time></trkpt><trkpt lat="43.2133264" lon="12.197009"><ele>323.0</ele><time>2026-04-19T06:43:40.28Z</time></trkpt><trkpt lat="43.2134277" lon="12.1968101"><ele>323.0</ele><time>2026-04-19T06:43:41.263Z</time></trkpt><trkpt lat="43.2135273" lon="12.1966297"><ele>323.0</ele><time>2026-04-19T06:43:42.264Z</time></trkpt><trkpt lat="43.213627" lon="12.1964643"><ele>323.0</ele><time>2026-04-19T06:43:43.269Z</time></trkpt><trkpt lat="43.2137188" lon="12.1963077"><ele>322.75</ele><time>2026-04-19T06:43:44.266Z</time></trkpt><trkpt lat="43.2137984" lon="12.1961511"><ele>322.5</ele><time>2026-04-19T06:43:45.266Z</time></trkpt><trkpt lat="43.2138698" lon="12.1960166"><ele>322.25</ele><time>2026-04-19T06:43:46.26Z</time></trkpt><trkpt lat="43.2139368" lon="12.1959053"><ele>322.0</ele><time>2026-04-19T06:43:47.261Z</time></trkpt><trkpt lat="43.2139931" lon="12.1958075"><ele>322.0</ele><time>2026-04-19T06:43:48.261Z</time></trkpt><trkpt lat="43.2140272" lon="12.1956896"><ele>322.0</ele><time>2026-04-19T06:43:50.27Z</time></trkpt><trkpt lat="43.2139498" lon="12.1955981"><ele>322.0</ele><time>2026-04-19T06:43:52.267Z</time></trkpt><trkpt lat="43.2138914" lon="12.1955561"><ele>322.0</ele><time>2026-04-19T06:43:53.262Z</time></trkpt><trkpt lat="43.2138122" lon="12.195509"><ele>322.0</ele><time>2026-04-19T06:43:54.266Z</time></trkpt><trkpt lat="43.213716" lon="12.1954493"><ele>321.0</ele><time>2026-04-19T06:43:55.259Z</time></trkpt><trkpt lat="43.2136061" lon="12.1953798"><ele>320.0</ele><time>2026-04-19T06:43:56.263Z</time></trkpt><trkpt lat="43.2135061" lon="12.1953179"><ele>319.0</ele><time>2026-04-19T06:43:57.267Z</time></trkpt><trkpt lat="43.2134227" lon="12.1952605"><ele>318.0</ele><time>2026-04-19T06:43:58.273Z</time></trkpt><trkpt lat="43.2133784" lon="12.1951244"><ele>317.0</ele><time>2026-04-19T06:44:00.258Z</time></trkpt><trkpt lat="43.2134073" lon="12.1950351"><ele>317.0</ele><time>2026-04-19T06:44:01.261Z</time></trkpt><trkpt lat="43.2134606" lon="12.1949316"><ele>317.0</ele><time>2026-04-19T06:44:02.266Z</time></trkpt><trkpt lat="43.2135326" lon="12.1948127"><ele>317.0</ele><time>2026-04-19T06:44:03.277Z</time></trkpt><trkpt lat="43.2136148" lon="12.1946794"><ele>317.0</ele><time>2026-04-19T06:44:04.26Z</time></trkpt><trkpt lat="43.2137036" lon="12.1945191"><ele>316.75</ele><time>2026-04-19T06:44:05.263Z</time></trkpt><trkpt lat="43.2137874" lon="12.1943518"><ele>316.5</ele><time>2026-04-19T06:44:06.261Z</time></trkpt><trkpt lat="43.2138591" lon="12.1941715"><ele>316.25</ele><time>2026-04-19T06:44:07.26Z</time></trkpt><trkpt lat="43.2139151" lon="12.1939856"><ele>316.0</ele><time>2026-04-19T06:44:08.263Z</time></trkpt><trkpt lat="43.2139509" lon="12.1938154"><ele>316.0</ele><time>2026-04-19T06:44:09.266Z</time></trkpt><trkpt lat="43.2139593" lon="12.1936669"><ele>316.0</ele><time>2026-04-19T06:44:10.269Z</time></trkpt><trkpt lat="43.213937" lon="12.1935544"><ele>316.0</ele><time>2026-04-19T06:44:11.251Z</time></trkpt><trkpt lat="43.2138909" lon="12.193452"><ele>316.0</ele><time>2026-04-19T06:44:12.267Z</time></trkpt><trkpt lat="43.2138203" lon="12.1933572"><ele>316.0</ele><time>2026-04-19T06:44:13.264Z</time></trkpt><trkpt lat="43.2137296" lon="12.1932804"><ele>316.0</ele><time>2026-04-19T06:44:14.257Z</time></trkpt><trkpt lat="43.2136367" lon="12.1932051"><ele>316.0</ele><time>2026-04-19T06:44:15.263Z</time></trkpt><trkpt lat="43.2135553" lon="12.1931455"><ele>316.0</ele><time>2026-04-19T06:44:16.264Z</time></trkpt><trkpt lat="43.2134913" lon="12.1930964"><ele>316.0</ele><time>2026-04-19T06:44:17.265Z</time></trkpt><trkpt lat="43.2134541" lon="12.1930106"><ele>316.0</ele><time>2026-04-19T06:44:19.265Z</time></trkpt><trkpt lat="43.2135185" lon="12.1928777"><ele>315.8</ele><time>2026-04-19T06:44:21.263Z</time></trkpt><trkpt lat="43.2135603" lon="12.1927803"><ele>315.6</ele><time>2026-04-19T06:44:22.27Z</time></trkpt><trkpt lat="43.2135958" lon="12.1926652"><ele>315.4</ele><time>2026-04-19T06:44:23.26Z</time></trkpt><trkpt lat="43.213628" lon="12.1925203"><ele>315.2</ele><time>2026-04-19T06:44:24.261Z</time></trkpt><trkpt lat="43.2136635" lon="12.1923697"><ele>315.0</ele><time>2026-04-19T06:44:25.262Z</time></trkpt><trkpt lat="43.2137036" lon="12.1922199"><ele>314.5</ele><time>2026-04-19T06:44:26.265Z</time></trkpt><trkpt lat="43.2137568" lon="12.1920817"><ele>314.0</ele><time>2026-04-19T06:44:27.267Z</time></trkpt><trkpt lat="43.2138376" lon="12.1919764"><ele>313.5</ele><time>2026-04-19T06:44:28.269Z</time></trkpt><trkpt lat="43.2139519" lon="12.1919183"><ele>313.0</ele><time>2026-04-19T06:44:29.267Z</time></trkpt><trkpt lat="43.2141" lon="12.1919052"><ele>312.66666666666663</ele><time>2026-04-19T06:44:30.269Z</time></trkpt><trkpt lat="43.2142709" lon="12.1919168"><ele>312.3333333333333</ele><time>2026-04-19T06:44:31.265Z</time></trkpt><trkpt lat="43.2144609" lon="12.1919354"><ele>312.0</ele><time>2026-04-19T06:44:32.275Z</time></trkpt><trkpt lat="43.2146522" lon="12.1919433"><ele>312.0</ele><time>2026-04-19T06:44:33.264Z</time></trkpt><trkpt lat="43.2148295" lon="12.1919379"><ele>312.0</ele><time>2026-04-19T06:44:34.279Z</time></trkpt><trkpt lat="43.2149915" lon="12.1919287"><ele>312.0</ele><time>2026-04-19T06:44:35.26Z</time></trkpt><trkpt lat="43.2151595" lon="12.1919239"><ele>312.0</ele><time>2026-04-19T06:44:36.268Z</time></trkpt><trkpt lat="43.2153333" lon="12.1919208"><ele>312.0</ele><time>2026-04-19T06:44:37.267Z</time></trkpt><trkpt lat="43.2155171" lon="12.1919159"><ele>312.0</ele><time>2026-04-19T06:44:38.258Z</time></trkpt><trkpt lat="43.2157037" lon="12.1919062"><ele>313.0</ele><time>2026-04-19T06:44:39.268Z</time></trkpt><trkpt lat="43.2158875" lon="12.1918875"><ele>314.0</ele><time>2026-04-19T06:44:40.261Z</time></trkpt><trkpt lat="43.2160539" lon="12.1918608"><ele>315.0</ele><time>2026-04-19T06:44:41.272Z</time></trkpt><trkpt lat="43.2161993" lon="12.1918306"><ele>315.0</ele><time>2026-04-19T06:44:42.266Z</time></trkpt><trkpt lat="43.2163401" lon="12.1918102"><ele>315.0</ele><time>2026-04-19T06:44:43.266Z</time></trkpt><trkpt lat="43.2164762" lon="12.1918066"><ele>315.0</ele><time>2026-04-19T06:44:44.263Z</time></trkpt><trkpt lat="43.2166118" lon="12.1917999"><ele>315.0</ele><time>2026-04-19T06:44:45.262Z</time></trkpt><trkpt lat="43.2167571" lon="12.1917876"><ele>314.3333333333333</ele><time>2026-04-19T06:44:46.267Z</time></trkpt><trkpt lat="43.2169172" lon="12.191772"><ele>313.66666666666663</ele><time>2026-04-19T06:44:47.266Z</time></trkpt><trkpt lat="43.2170914" lon="12.1917618"><ele>313.0</ele><time>2026-04-19T06:44:48.266Z</time></trkpt><trkpt lat="43.2172837" lon="12.191748"><ele>312.66666666666663</ele><time>2026-04-19T06:44:49.267Z</time></trkpt><trkpt lat="43.2174839" lon="12.1917313"><ele>312.3333333333333</ele><time>2026-04-19T06:44:50.265Z</time></trkpt><trkpt lat="43.2176893" lon="12.1917118"><ele>312.0</ele><time>2026-04-19T06:44:51.276Z</time></trkpt><trkpt lat="43.2178879" lon="12.1916935"><ele>312.0</ele><time>2026-04-19T06:44:52.265Z</time></trkpt><trkpt lat="43.2180833" lon="12.1916773"><ele>312.0</ele><time>2026-04-19T06:44:53.263Z</time></trkpt><trkpt lat="43.2182688" lon="12.1916701"><ele>312.0</ele><time>2026-04-19T06:44:54.262Z</time></trkpt><trkpt lat="43.2184436" lon="12.1916506"><ele>312.0</ele><time>2026-04-19T06:44:55.263Z</time></trkpt><trkpt lat="43.2186124" lon="12.1916209"><ele>312.0</ele><time>2026-04-19T06:44:56.28Z</time></trkpt><trkpt lat="43.2187794" lon="12.1915712"><ele>312.0</ele><time>2026-04-19T06:44:57.268Z</time></trkpt><trkpt lat="43.2189369" lon="12.1915075"><ele>313.0</ele><time>2026-04-19T06:44:58.266Z</time></trkpt><trkpt lat="43.2190668" lon="12.1914439"><ele>314.0</ele><time>2026-04-19T06:44:59.267Z</time></trkpt><trkpt lat="43.2191621" lon="12.1913803"><ele>315.0</ele><time>2026-04-19T06:45:00.27Z</time></trkpt><trkpt lat="43.2192348" lon="12.1912805"><ele>316.0</ele><time>2026-04-19T06:45:01.271Z</time></trkpt><trkpt lat="43.2192904" lon="12.1911515"><ele>316.0</ele><time>2026-04-19T06:45:02.25Z</time></trkpt><trkpt lat="43.2193531" lon="12.1909959"><ele>316.0</ele><time>2026-04-19T06:45:03.244Z</time></trkpt><trkpt lat="43.2194282" lon="12.1908245"><ele>316.0</ele><time>2026-04-19T06:45:04.241Z</time></trkpt><trkpt lat="43.219521" lon="12.1906435"><ele>316.0</ele><time>2026-04-19T06:45:05.259Z</time></trkpt><trkpt lat="43.2196179" lon="12.190472"><ele>315.75</ele><time>2026-04-19T06:45:06.246Z</time></trkpt><trkpt lat="43.2197138" lon="12.1903095"><ele>315.5</ele><time>2026-04-19T06:45:07.247Z</time></trkpt><trkpt lat="43.2197989" lon="12.1901529"><ele>315.25</ele><time>2026-04-19T06:45:08.247Z</time></trkpt><trkpt lat="43.2198866" lon="12.1900107"><ele>315.0</ele><time>2026-04-19T06:45:09.249Z</time></trkpt><trkpt lat="43.219975" lon="12.189865"><ele>315.5</ele><time>2026-04-19T06:45:10.249Z</time></trkpt><trkpt lat="43.220065" lon="12.1897178"><ele>316.0</ele><time>2026-04-19T06:45:11.249Z</time></trkpt><trkpt lat="43.2201638" lon="12.1895631"><ele>316.5</ele><time>2026-04-19T06:45:12.25Z</time></trkpt><trkpt lat="43.2202666" lon="12.1894074"><ele>317.0</ele><time>2026-04-19T06:45:13.249Z</time></trkpt><trkpt lat="43.2203632" lon="12.1892673"><ele>317.0</ele><time>2026-04-19T06:45:14.247Z</time></trkpt><trkpt lat="43.2204505" lon="12.1891367"><ele>317.0</ele><time>2026-04-19T06:45:15.243Z</time></trkpt><trkpt lat="43.2205354" lon="12.1890136"><ele>317.0</ele><time>2026-04-19T06:45:16.253Z</time></trkpt><trkpt lat="43.2206114" lon="12.1888746"><ele>317.0</ele><time>2026-04-19T06:45:17.246Z</time></trkpt><trkpt lat="43.2206811" lon="12.1887218"><ele>316.6666666666667</ele><time>2026-04-19T06:45:18.244Z</time></trkpt><trkpt lat="43.2207376" lon="12.1885459"><ele>316.3333333333333</ele><time>2026-04-19T06:45:19.246Z</time></trkpt><trkpt lat="43.2207795" lon="12.1883366"><ele>316.0</ele><time>2026-04-19T06:45:20.242Z</time></trkpt><trkpt lat="43.220813" lon="12.1881054"><ele>317.3333333333333</ele><time>2026-04-19T06:45:21.243Z</time></trkpt><trkpt lat="43.2208389" lon="12.1878562"><ele>318.6666666666667</ele><time>2026-04-19T06:45:22.246Z</time></trkpt><trkpt lat="43.2208641" lon="12.1875945"><ele>320.0</ele><time>2026-04-19T06:45:23.247Z</time></trkpt><trkpt lat="43.2208823" lon="12.1873192"><ele>321.33333333333337</ele><time>2026-04-19T06:45:24.25Z</time></trkpt><trkpt lat="43.2208889" lon="12.1870578"><ele>322.6666666666667</ele><time>2026-04-19T06:45:25.244Z</time></trkpt><trkpt lat="43.2209011" lon="12.1868297"><ele>324.0</ele><time>2026-04-19T06:45:26.24Z</time></trkpt><trkpt lat="43.220907" lon="12.1866342"><ele>323.79999999999995</ele><time>2026-04-19T06:45:27.241Z</time></trkpt><trkpt lat="43.2209195" lon="12.1864588"><ele>323.59999999999997</ele><time>2026-04-19T06:45:28.239Z</time></trkpt><trkpt lat="43.2209488" lon="12.1863217"><ele>323.4</ele><time>2026-04-19T06:45:29.246Z</time></trkpt><trkpt lat="43.2209889" lon="12.1861944"><ele>323.2</ele><time>2026-04-19T06:45:30.241Z</time></trkpt><trkpt lat="43.2210396" lon="12.1860632"><ele>323.0</ele><time>2026-04-19T06:45:31.24Z</time></trkpt><trkpt lat="43.2211071" lon="12.1859481"><ele>323.0</ele><time>2026-04-19T06:45:32.243Z</time></trkpt><trkpt lat="43.221187" lon="12.1858552"><ele>323.0</ele><time>2026-04-19T06:45:33.238Z</time></trkpt><trkpt lat="43.2212715" lon="12.1857631"><ele>323.0</ele><time>2026-04-19T06:45:34.248Z</time></trkpt><trkpt lat="43.2213683" lon="12.1856747"><ele>323.0</ele><time>2026-04-19T06:45:35.243Z</time></trkpt><trkpt lat="43.2214806" lon="12.1855838"><ele>325.5</ele><time>2026-04-19T06:45:36.264Z</time></trkpt><trkpt lat="43.2216037" lon="12.1854923"><ele>328.0</ele><time>2026-04-19T06:45:37.247Z</time></trkpt><trkpt lat="43.2217349" lon="12.1854023"><ele>330.5</ele><time>2026-04-19T06:45:38.248Z</time></trkpt><trkpt lat="43.2218529" lon="12.1853387"><ele>333.0</ele><time>2026-04-19T06:45:39.238Z</time></trkpt><trkpt lat="43.2219564" lon="12.1853149"><ele>333.0</ele><time>2026-04-19T06:45:40.246Z</time></trkpt><trkpt lat="43.2220323" lon="12.1853594"><ele>333.0</ele><time>2026-04-19T06:45:41.248Z</time></trkpt><trkpt lat="43.2221031" lon="12.1854517"><ele>333.0</ele><time>2026-04-19T06:45:42.243Z</time></trkpt><trkpt lat="43.2221763" lon="12.1855766"><ele>333.0</ele><time>2026-04-19T06:45:43.24Z</time></trkpt><trkpt lat="43.2222557" lon="12.1857169"><ele>333.0</ele><time>2026-04-19T06:45:44.242Z</time></trkpt><trkpt lat="43.2223472" lon="12.1858755"><ele>337.25</ele><time>2026-04-19T06:45:45.237Z</time></trkpt><trkpt lat="43.2224403" lon="12.1860365"><ele>341.5</ele><time>2026-04-19T06:45:46.236Z</time></trkpt><trkpt lat="43.2225219" lon="12.1861964"><ele>345.75</ele><time>2026-04-19T06:45:47.237Z</time></trkpt><trkpt lat="43.2225828" lon="12.1863646"><ele>350.0</ele><time>2026-04-19T06:45:48.24Z</time></trkpt><trkpt lat="43.2226259" lon="12.1865291"><ele>350.0</ele><time>2026-04-19T06:45:49.242Z</time></trkpt><trkpt lat="43.2226673" lon="12.186669"><ele>350.0</ele><time>2026-04-19T06:45:50.239Z</time></trkpt><trkpt lat="43.2227121" lon="12.1867552"><ele>350.0</ele><time>2026-04-19T06:45:51.241Z</time></trkpt><trkpt lat="43.2227855" lon="12.1867839"><ele>350.0</ele><time>2026-04-19T06:45:52.242Z</time></trkpt><trkpt lat="43.2228645" lon="12.1867907"><ele>350.0</ele><time>2026-04-19T06:45:53.242Z</time></trkpt><trkpt lat="43.2229484" lon="12.1868079"><ele>350.0</ele><time>2026-04-19T06:45:54.246Z</time></trkpt><trkpt lat="43.2230369" lon="12.1868342"><ele>350.0</ele><time>2026-04-19T06:45:55.24Z</time></trkpt><trkpt lat="43.2231346" lon="12.1868653"><ele>350.0</ele><time>2026-04-19T06:45:56.24Z</time></trkpt><trkpt lat="43.2232391" lon="12.1868907"><ele>350.0</ele><time>2026-04-19T06:45:57.237Z</time></trkpt><trkpt lat="43.2233363" lon="12.1868981"><ele>350.0</ele><time>2026-04-19T06:45:58.242Z</time></trkpt><trkpt lat="43.2234255" lon="12.1868648"><ele>350.0</ele><time>2026-04-19T06:45:59.238Z</time></trkpt><trkpt lat="43.2235033" lon="12.1868041"><ele>353.0</ele><time>2026-04-19T06:46:00.238Z</time></trkpt><trkpt lat="43.223575" lon="12.1867453"><ele>356.0</ele><time>2026-04-19T06:46:01.239Z</time></trkpt><trkpt lat="43.2236496" lon="12.1866972"><ele>359.0</ele><time>2026-04-19T06:46:02.24Z</time></trkpt><trkpt lat="43.2237306" lon="12.1866522"><ele>362.0</ele><time>2026-04-19T06:46:03.24Z</time></trkpt><trkpt lat="43.2238199" lon="12.1866066"><ele>365.0</ele><time>2026-04-19T06:46:04.238Z</time></trkpt><trkpt lat="43.2239126" lon="12.1865515"><ele>367.2</ele><time>2026-04-19T06:46:05.242Z</time></trkpt><trkpt lat="43.2240071" lon="12.1864991"><ele>369.4</ele><time>2026-04-19T06:46:06.244Z</time></trkpt><trkpt lat="43.224108" lon="12.186441"><ele>371.6</ele><time>2026-04-19T06:46:07.28Z</time></trkpt><trkpt lat="43.2242097" lon="12.1863778"><ele>373.8</ele><time>2026-04-19T06:46:08.244Z</time></trkpt><trkpt lat="43.2243108" lon="12.1863175"><ele>376.0</ele><time>2026-04-19T06:46:09.25Z</time></trkpt><trkpt lat="43.2244039" lon="12.18626"><ele>376.0</ele><time>2026-04-19T06:46:10.243Z</time></trkpt><trkpt lat="43.2244832" lon="12.1862025"><ele>376.0</ele><time>2026-04-19T06:46:11.242Z</time></trkpt><trkpt lat="43.2245437" lon="12.1861431"><ele>376.0</ele><time>2026-04-19T06:46:12.241Z</time></trkpt><trkpt lat="43.224586" lon="12.1860783"><ele>376.0</ele><time>2026-04-19T06:46:13.244Z</time></trkpt><trkpt lat="43.2245646" lon="12.1859254"><ele>376.0</ele><time>2026-04-19T06:46:15.243Z</time></trkpt><trkpt lat="43.2244953" lon="12.1858473"><ele>376.0</ele><time>2026-04-19T06:46:16.242Z</time></trkpt><trkpt lat="43.2244212" lon="12.1857542"><ele>375.6</ele><time>2026-04-19T06:46:17.239Z</time></trkpt><trkpt lat="43.2243466" lon="12.1856557"><ele>375.20000000000005</ele><time>2026-04-19T06:46:18.244Z</time></trkpt><trkpt lat="43.2242709" lon="12.1855558"><ele>374.79999999999995</ele><time>2026-04-19T06:46:19.246Z</time></trkpt><trkpt lat="43.2242045" lon="12.1854608"><ele>374.4</ele><time>2026-04-19T06:46:20.243Z</time></trkpt><trkpt lat="43.2241569" lon="12.185363"><ele>374.0</ele><time>2026-04-19T06:46:21.251Z</time></trkpt><trkpt lat="43.2241448" lon="12.1852554"><ele>374.0</ele><time>2026-04-19T06:46:22.246Z</time></trkpt><trkpt lat="43.224161" lon="12.1851222"><ele>374.0</ele><time>2026-04-19T06:46:23.24Z</time></trkpt><trkpt lat="43.2241897" lon="12.1849635"><ele>374.0</ele><time>2026-04-19T06:46:24.246Z</time></trkpt><trkpt lat="43.224222" lon="12.1847927"><ele>374.0</ele><time>2026-04-19T06:46:25.242Z</time></trkpt><trkpt lat="43.224259" lon="12.1846172"><ele>373.75</ele><time>2026-04-19T06:46:26.245Z</time></trkpt><trkpt lat="43.2242961" lon="12.1844395"><ele>373.5</ele><time>2026-04-19T06:46:27.238Z</time></trkpt><trkpt lat="43.2243229" lon="12.1842647"><ele>373.25</ele><time>2026-04-19T06:46:28.238Z</time></trkpt><trkpt lat="43.2243362" lon="12.1841023"><ele>373.0</ele><time>2026-04-19T06:46:29.239Z</time></trkpt><trkpt lat="43.2243322" lon="12.1839651"><ele>373.59999999999997</ele><time>2026-04-19T06:46:30.238Z</time></trkpt><trkpt lat="43.2243121" lon="12.1838401"><ele>374.2</ele><time>2026-04-19T06:46:31.242Z</time></trkpt><trkpt lat="43.2242847" lon="12.1837175"><ele>374.8</ele><time>2026-04-19T06:46:32.241Z</time></trkpt><trkpt lat="43.2242591" lon="12.183581"><ele>375.4</ele><time>2026-04-19T06:46:33.239Z</time></trkpt><trkpt lat="43.2242388" lon="12.1834388"><ele>376.0</ele><time>2026-04-19T06:46:34.239Z</time></trkpt><trkpt lat="43.2242231" lon="12.1833035"><ele>377.0</ele><time>2026-04-19T06:46:35.236Z</time></trkpt><trkpt lat="43.2242031" lon="12.1831754"><ele>378.0</ele><time>2026-04-19T06:46:36.238Z</time></trkpt><trkpt lat="43.2241676" lon="12.1830631"><ele>379.0</ele><time>2026-04-19T06:46:37.255Z</time></trkpt><trkpt lat="43.2241184" lon="12.1829743"><ele>380.0</ele><time>2026-04-19T06:46:38.236Z</time></trkpt><trkpt lat="43.2240528" lon="12.1828996"><ele>381.0</ele><time>2026-04-19T06:46:39.239Z</time></trkpt><trkpt lat="43.2239798" lon="12.1828367"><ele>382.0</ele><time>2026-04-19T06:46:40.238Z</time></trkpt><trkpt lat="43.2239039" lon="12.1827851"><ele>382.0</ele><time>2026-04-19T06:46:41.239Z</time></trkpt><trkpt lat="43.2238261" lon="12.1827393"><ele>382.0</ele><time>2026-04-19T06:46:42.232Z</time></trkpt><trkpt lat="43.2237479" lon="12.1826913"><ele>382.0</ele><time>2026-04-19T06:46:43.234Z</time></trkpt><trkpt lat="43.2236715" lon="12.1826505"><ele>382.0</ele><time>2026-04-19T06:46:44.234Z</time></trkpt><trkpt lat="43.223595" lon="12.1826181"><ele>382.0</ele><time>2026-04-19T06:46:45.233Z</time></trkpt><trkpt lat="43.2235146" lon="12.1825789"><ele>382.0</ele><time>2026-04-19T06:46:46.231Z</time></trkpt><trkpt lat="43.2234293" lon="12.1825264"><ele>382.0</ele><time>2026-04-19T06:46:47.235Z</time></trkpt><trkpt lat="43.2233509" lon="12.1824496"><ele>382.0</ele><time>2026-04-19T06:46:48.236Z</time></trkpt><trkpt lat="43.2232754" lon="12.1823473"><ele>382.0</ele><time>2026-04-19T06:46:49.234Z</time></trkpt><trkpt lat="43.2232065" lon="12.182225"><ele>382.0</ele><time>2026-04-19T06:46:50.238Z</time></trkpt><trkpt lat="43.2231384" lon="12.1820786"><ele>382.0</ele><time>2026-04-19T06:46:51.235Z</time></trkpt><trkpt lat="43.2230678" lon="12.1819098"><ele>382.75</ele><time>2026-04-19T06:46:52.248Z</time></trkpt><trkpt lat="43.2229953" lon="12.1817599"><ele>383.5</ele><time>2026-04-19T06:46:53.238Z</time></trkpt><trkpt lat="43.2229218" lon="12.1816346"><ele>384.25</ele><time>2026-04-19T06:46:54.24Z</time></trkpt><trkpt lat="43.2228458" lon="12.1815266"><ele>385.0</ele><time>2026-04-19T06:46:55.24Z</time></trkpt><trkpt lat="43.2227731" lon="12.181432"><ele>386.33333333333337</ele><time>2026-04-19T06:46:56.237Z</time></trkpt><trkpt lat="43.2227081" lon="12.1813452"><ele>387.6666666666667</ele><time>2026-04-19T06:46:57.249Z</time></trkpt><trkpt lat="43.22266" lon="12.1812584"><ele>389.0</ele><time>2026-04-19T06:46:58.239Z</time></trkpt><trkpt lat="43.2226291" lon="12.1811651"><ele>390.33333333333337</ele><time>2026-04-19T06:46:59.245Z</time></trkpt><trkpt lat="43.222626" lon="12.1810771"><ele>391.6666666666667</ele><time>2026-04-19T06:47:00.239Z</time></trkpt><trkpt lat="43.2226504" lon="12.1809897"><ele>393.0</ele><time>2026-04-19T06:47:01.242Z</time></trkpt><trkpt lat="43.2226854" lon="12.1809028"><ele>393.00000000000006</ele><time>2026-04-19T06:47:02.241Z</time></trkpt><trkpt lat="43.222728" lon="12.180829"><ele>393.0</ele><time>2026-04-19T06:47:03.244Z</time></trkpt><trkpt lat="43.2227858" lon="12.1807762"><ele>393.0</ele><time>2026-04-19T06:47:04.242Z</time></trkpt><trkpt lat="43.2228553" lon="12.1807579"><ele>393.0</ele><time>2026-04-19T06:47:05.243Z</time></trkpt><trkpt lat="43.2229268" lon="12.1807766"><ele>393.0</ele><time>2026-04-19T06:47:06.235Z</time></trkpt><trkpt lat="43.2229956" lon="12.1808246"><ele>393.00000000000006</ele><time>2026-04-19T06:47:07.241Z</time></trkpt><trkpt lat="43.2230497" lon="12.1808924"><ele>393.0</ele><time>2026-04-19T06:47:08.26Z</time></trkpt><trkpt lat="43.2230883" lon="12.1809678"><ele>396.4</ele><time>2026-04-19T06:47:09.242Z</time></trkpt><trkpt lat="43.2231713" lon="12.1810686"><ele>399.79999999999995</ele><time>2026-04-19T06:47:11.249Z</time></trkpt><trkpt lat="43.2232645" lon="12.1810469"><ele>403.2</ele><time>2026-04-19T06:47:13.256Z</time></trkpt><trkpt lat="43.2233881" lon="12.181011"><ele>406.6</ele><time>2026-04-19T06:47:15.255Z</time></trkpt><trkpt lat="43.223468" lon="12.181015"><ele>410.0</ele><time>2026-04-19T06:47:16.247Z</time></trkpt><trkpt lat="43.2235547" lon="12.1810215"><ele>410.0</ele><time>2026-04-19T06:47:17.242Z</time></trkpt><trkpt lat="43.2236471" lon="12.1810432"><ele>410.0</ele><time>2026-04-19T06:47:18.249Z</time></trkpt><trkpt lat="43.2237413" lon="12.1810811"><ele>410.0</ele><time>2026-04-19T06:47:19.251Z</time></trkpt><trkpt lat="43.2238391" lon="12.1811404"><ele>410.0</ele><time>2026-04-19T06:47:20.249Z</time></trkpt><trkpt lat="43.2239408" lon="12.1811886"><ele>410.0</ele><time>2026-04-19T06:47:21.252Z</time></trkpt><trkpt lat="43.2240452" lon="12.1812086"><ele>412.8</ele><time>2026-04-19T06:47:22.251Z</time></trkpt><trkpt lat="43.2241457" lon="12.1812003"><ele>415.6</ele><time>2026-04-19T06:47:23.247Z</time></trkpt><trkpt lat="43.2242382" lon="12.1811758"><ele>418.4</ele><time>2026-04-19T06:47:24.254Z</time></trkpt><trkpt lat="43.2243307" lon="12.1811518"><ele>421.2</ele><time>2026-04-19T06:47:25.251Z</time></trkpt><trkpt lat="43.2244233" lon="12.1811318"><ele>424.0</ele><time>2026-04-19T06:47:26.253Z</time></trkpt><trkpt lat="43.2245126" lon="12.1811119"><ele>424.00000000000006</ele><time>2026-04-19T06:47:27.251Z</time></trkpt><trkpt lat="43.2245952" lon="12.1810986"><ele>424.0</ele><time>2026-04-19T06:47:28.239Z</time></trkpt><trkpt lat="43.224664" lon="12.1810937"><ele>424.0</ele><time>2026-04-19T06:47:29.241Z</time></trkpt><trkpt lat="43.2247684" lon="12.1810918"><ele>424.0</ele><time>2026-04-19T06:47:31.242Z</time></trkpt><trkpt lat="43.2248631" lon="12.1810892"><ele>424.00000000000006</ele><time>2026-04-19T06:47:33.243Z</time></trkpt><trkpt lat="43.2249458" lon="12.1811137"><ele>424.0</ele><time>2026-04-19T06:47:35.239Z</time></trkpt><trkpt lat="43.2250332" lon="12.181137"><ele>425.6</ele><time>2026-04-19T06:47:37.239Z</time></trkpt><trkpt lat="43.2251426" lon="12.1811307"><ele>427.2</ele><time>2026-04-19T06:47:39.251Z</time></trkpt><trkpt lat="43.2252326" lon="12.1811123"><ele>428.80000000000007</ele><time>2026-04-19T06:47:41.239Z</time></trkpt><trkpt lat="43.2252057" lon="12.1810273"><ele>430.40000000000003</ele><time>2026-04-19T06:47:44.244Z</time></trkpt><trkpt lat="43.2250711" lon="12.1809493"><ele>432.0</ele><time>2026-04-19T06:47:46.234Z</time></trkpt><trkpt lat="43.2249846" lon="12.1809082"><ele>432.0</ele><time>2026-04-19T06:47:47.235Z</time></trkpt><trkpt lat="43.2249118" lon="12.1808735"><ele>432.00000000000006</ele><time>2026-04-19T06:47:48.236Z</time></trkpt><trkpt lat="43.2248538" lon="12.1807814"><ele>432.00000000000006</ele><time>2026-04-19T06:47:50.247Z</time></trkpt><trkpt lat="43.2248641" lon="12.1806669"><ele>432.0</ele><time>2026-04-19T06:47:52.251Z</time></trkpt><trkpt lat="43.2249386" lon="12.1805804"><ele>432.0</ele><time>2026-04-19T06:47:54.25Z</time></trkpt><trkpt lat="43.224862" lon="12.1803983"><ele>431.3333333333333</ele><time>2026-04-19T06:47:56.246Z</time></trkpt><trkpt lat="43.224807" lon="12.1803244"><ele>430.66666666666663</ele><time>2026-04-19T06:47:57.243Z</time></trkpt><trkpt lat="43.2247588" lon="12.1802522"><ele>430.0</ele><time>2026-04-19T06:47:58.242Z</time></trkpt><trkpt lat="43.2247206" lon="12.1801776"><ele>429.3333333333333</ele><time>2026-04-19T06:47:59.243Z</time></trkpt><trkpt lat="43.2246997" lon="12.1800402"><ele>428.66666666666663</ele><time>2026-04-19T06:48:01.242Z</time></trkpt><trkpt lat="43.2247426" lon="12.1799397"><ele>428.0</ele><time>2026-04-19T06:48:03.255Z</time></trkpt><trkpt lat="43.2247884" lon="12.1798127"><ele>431.2</ele><time>2026-04-19T06:48:05.244Z</time></trkpt><trkpt lat="43.2248465" lon="12.1796863"><ele>434.4</ele><time>2026-04-19T06:48:07.24Z</time></trkpt><trkpt lat="43.2249039" lon="12.1796234"><ele>437.59999999999997</ele><time>2026-04-19T06:48:09.252Z</time></trkpt><trkpt lat="43.2249686" lon="12.1795934"><ele>440.79999999999995</ele><time>2026-04-19T06:48:11.252Z</time></trkpt><trkpt lat="43.2250938" lon="12.1795776"><ele>444.0</ele><time>2026-04-19T06:48:13.24Z</time></trkpt><trkpt lat="43.2251637" lon="12.1795478"><ele>444.0</ele><time>2026-04-19T06:48:14.242Z</time></trkpt><trkpt lat="43.2252385" lon="12.1795031"><ele>444.0</ele><time>2026-04-19T06:48:15.239Z</time></trkpt><trkpt lat="43.2253122" lon="12.1794485"><ele>444.0</ele><time>2026-04-19T06:48:16.24Z</time></trkpt><trkpt lat="43.2253756" lon="12.1794019"><ele>444.0</ele><time>2026-04-19T06:48:17.241Z</time></trkpt><trkpt lat="43.225454" lon="12.1793049"><ele>444.0</ele><time>2026-04-19T06:48:19.242Z</time></trkpt><trkpt lat="43.2254815" lon="12.17919"><ele>444.0</ele><time>2026-04-19T06:48:21.24Z</time></trkpt><trkpt lat="43.2255178" lon="12.1790844"><ele>445.4</ele><time>2026-04-19T06:48:23.247Z</time></trkpt><trkpt lat="43.2255938" lon="12.178995"><ele>446.79999999999995</ele><time>2026-04-19T06:48:25.237Z</time></trkpt><trkpt lat="43.2256224" lon="12.1789107"><ele>448.20000000000005</ele><time>2026-04-19T06:48:27.247Z</time></trkpt><trkpt lat="43.2255813" lon="12.1788109"><ele>449.6</ele><time>2026-04-19T06:48:29.239Z</time></trkpt><trkpt lat="43.2255566" lon="12.1786662"><ele>451.0</ele><time>2026-04-19T06:48:31.249Z</time></trkpt><trkpt lat="43.2255871" lon="12.1785337"><ele>452.4</ele><time>2026-04-19T06:48:33.251Z</time></trkpt><trkpt lat="43.2256838" lon="12.1784295"><ele>453.8</ele><time>2026-04-19T06:48:35.243Z</time></trkpt><trkpt lat="43.2257531" lon="12.1783288"><ele>455.19999999999993</ele><time>2026-04-19T06:48:37.243Z</time></trkpt><trkpt lat="43.2257611" lon="12.1782422"><ele>456.59999999999997</ele><time>2026-04-19T06:48:38.243Z</time></trkpt><trkpt lat="43.2257633" lon="12.1781286"><ele>458.0</ele><time>2026-04-19T06:48:39.244Z</time></trkpt><trkpt lat="43.2257621" lon="12.1780096"><ele>458.49999999999994</ele><time>2026-04-19T06:48:40.243Z</time></trkpt><trkpt lat="43.225749" lon="12.1778987"><ele>459.0</ele><time>2026-04-19T06:48:41.259Z</time></trkpt><trkpt lat="43.2257239" lon="12.1777824"><ele>459.5</ele><time>2026-04-19T06:48:42.243Z</time></trkpt><trkpt lat="43.2257011" lon="12.1776712"><ele>460.0</ele><time>2026-04-19T06:48:43.255Z</time></trkpt><trkpt lat="43.2256878" lon="12.1775638"><ele>460.49999999999994</ele><time>2026-04-19T06:48:44.244Z</time></trkpt><trkpt lat="43.2256815" lon="12.1774665"><ele>461.0</ele><time>2026-04-19T06:48:45.241Z</time></trkpt><trkpt lat="43.2256824" lon="12.1773193"><ele>461.8</ele><time>2026-04-19T06:48:47.247Z</time></trkpt><trkpt lat="43.2257001" lon="12.1771412"><ele>462.6</ele><time>2026-04-19T06:48:49.246Z</time></trkpt><trkpt lat="43.2257165" lon="12.1770358"><ele>463.4</ele><time>2026-04-19T06:48:50.246Z</time></trkpt><trkpt lat="43.22573" lon="12.1769358"><ele>464.2</ele><time>2026-04-19T06:48:51.248Z</time></trkpt><trkpt lat="43.2257425" lon="12.1768506"><ele>465.0</ele><time>2026-04-19T06:48:52.246Z</time></trkpt><trkpt lat="43.2257825" lon="12.1767121"><ele>465.0</ele><time>2026-04-19T06:48:54.248Z</time></trkpt><trkpt lat="43.2258646" lon="12.1766137"><ele>465.0</ele><time>2026-04-19T06:48:56.245Z</time></trkpt><trkpt lat="43.2259565" lon="12.1765057"><ele>465.0</ele><time>2026-04-19T06:48:58.25Z</time></trkpt><trkpt lat="43.2260382" lon="12.176372"><ele>465.0</ele><time>2026-04-19T06:49:00.249Z</time></trkpt><trkpt lat="43.2260737" lon="12.1762867"><ele>465.0</ele><time>2026-04-19T06:49:01.253Z</time></trkpt><trkpt lat="43.2261055" lon="12.1761978"><ele>466.6</ele><time>2026-04-19T06:49:02.251Z</time></trkpt><trkpt lat="43.2261344" lon="12.176111"><ele>468.2</ele><time>2026-04-19T06:49:03.251Z</time></trkpt><trkpt lat="43.2261936" lon="12.1759804"><ele>469.79999999999995</ele><time>2026-04-19T06:49:05.233Z</time></trkpt><trkpt lat="43.2262088" lon="12.1758573"><ele>471.4</ele><time>2026-04-19T06:49:07.243Z</time></trkpt><trkpt lat="43.2262015" lon="12.1757261"><ele>473.0</ele><time>2026-04-19T06:49:09.244Z</time></trkpt><trkpt lat="43.2262343" lon="12.1756089"><ele>474.8571428571429</ele><time>2026-04-19T06:49:11.245Z</time></trkpt><trkpt lat="43.2262559" lon="12.1755056"><ele>476.71428571428567</ele><time>2026-04-19T06:49:13.254Z</time></trkpt><trkpt lat="43.2262464" lon="12.175407"><ele>478.57142857142856</ele><time>2026-04-19T06:49:15.254Z</time></trkpt><trkpt lat="43.2262284" lon="12.1753217"><ele>480.42857142857144</ele><time>2026-04-19T06:49:17.253Z</time></trkpt><trkpt lat="43.2262394" lon="12.1752298"><ele>482.28571428571433</ele><time>2026-04-19T06:49:20.255Z</time></trkpt><trkpt lat="43.2262495" lon="12.1751422"><ele>484.1428571428571</ele><time>2026-04-19T06:49:22.251Z</time></trkpt><trkpt lat="43.2262438" lon="12.1750459"><ele>486.0</ele><time>2026-04-19T06:49:24.256Z</time></trkpt><trkpt lat="43.2261966" lon="12.1749603"><ele>486.0</ele><time>2026-04-19T06:49:26.257Z</time></trkpt><trkpt lat="43.2261515" lon="12.1748664"><ele>486.0</ele><time>2026-04-19T06:49:28.134Z</time></trkpt><trkpt lat="43.2260884" lon="12.1747605"><ele>486.0</ele><time>2026-04-19T06:49:30.248Z</time></trkpt><trkpt lat="43.2260252" lon="12.1746992"><ele>486.0</ele><time>2026-04-19T06:49:33.253Z</time></trkpt><trkpt lat="43.2259961" lon="12.1746217"><ele>486.0</ele><time>2026-04-19T06:49:59.255Z</time></trkpt><trkpt lat="43.2259366" lon="12.1745215"><ele>486.0</ele><time>2026-04-19T06:50:01.236Z</time></trkpt><trkpt lat="43.2259058" lon="12.1744071"><ele>488.0</ele><time>2026-04-19T06:50:03.249Z</time></trkpt><trkpt lat="43.2259508" lon="12.1743374"><ele>490.0</ele><time>2026-04-19T06:50:05.252Z</time></trkpt><trkpt lat="43.2260393" lon="12.1743213"><ele>492.0</ele><time>2026-04-19T06:50:07.252Z</time></trkpt><trkpt lat="43.2261024" lon="12.1742985"><ele>494.0</ele><time>2026-04-19T06:50:08.251Z</time></trkpt><trkpt lat="43.226162" lon="12.174262"><ele>496.0</ele><time>2026-04-19T06:50:09.237Z</time></trkpt><trkpt lat="43.2262597" lon="12.1741951"><ele>498.0</ele><time>2026-04-19T06:50:11.249Z</time></trkpt><trkpt lat="43.2263549" lon="12.1741558"><ele>498.0</ele><time>2026-04-19T06:50:13.251Z</time></trkpt><trkpt lat="43.2264375" lon="12.1741068"><ele>497.99999999999994</ele><time>2026-04-19T06:50:15.251Z</time></trkpt><trkpt lat="43.2265184" lon="12.1740799"><ele>497.99999999999994</ele><time>2026-04-19T06:50:17.152Z</time></trkpt><trkpt lat="43.2265921" lon="12.1740526"><ele>498.0</ele><time>2026-04-19T06:50:19.252Z</time></trkpt><trkpt lat="43.2266858" lon="12.1739824"><ele>498.0</ele><time>2026-04-19T06:50:21.255Z</time></trkpt><trkpt lat="43.2267985" lon="12.1739765"><ele>503.0</ele><time>2026-04-19T06:50:23.24Z</time></trkpt><trkpt lat="43.22691" lon="12.173956"><ele>507.99999999999994</ele><time>2026-04-19T06:50:25.241Z</time></trkpt><trkpt lat="43.2269961" lon="12.1738782"><ele>513.0</ele><time>2026-04-19T06:50:27.236Z</time></trkpt><trkpt lat="43.2269892" lon="12.173784"><ele>518.0</ele><time>2026-04-19T06:50:30.251Z</time></trkpt><trkpt lat="43.2268943" lon="12.1737348"><ele>523.0</ele><time>2026-04-19T06:50:32.253Z</time></trkpt><trkpt lat="43.2268328" lon="12.1736487"><ele>523.0</ele><time>2026-04-19T06:50:34.252Z</time></trkpt><trkpt lat="43.2267603" lon="12.1735414"><ele>523.0</ele><time>2026-04-19T06:50:36.244Z</time></trkpt><trkpt lat="43.2266988" lon="12.1734066"><ele>523.0</ele><time>2026-04-19T06:50:38.243Z</time></trkpt><trkpt lat="43.2266884" lon="12.173321"><ele>523.0</ele><time>2026-04-19T06:50:39.243Z</time></trkpt><trkpt lat="43.2266946" lon="12.1732321"><ele>523.0</ele><time>2026-04-19T06:50:40.246Z</time></trkpt><trkpt lat="43.2267616" lon="12.1730962"><ele>525.0</ele><time>2026-04-19T06:50:42.244Z</time></trkpt><trkpt lat="43.2268206" lon="12.1730596"><ele>527.0</ele><time>2026-04-19T06:50:43.244Z</time></trkpt><trkpt lat="43.2268833" lon="12.1730444"><ele>529.0</ele><time>2026-04-19T06:50:44.24Z</time></trkpt><trkpt lat="43.226963" lon="12.1729927"><ele>531.0</ele><time>2026-04-19T06:50:46.256Z</time></trkpt><trkpt lat="43.2269363" lon="12.1729013"><ele>533.0</ele><time>2026-04-19T06:50:48.256Z</time></trkpt><trkpt lat="43.2268959" lon="12.1727748"><ele>535.0</ele><time>2026-04-19T06:50:50.255Z</time></trkpt><trkpt lat="43.2269023" lon="12.1726302"><ele>535.0</ele><time>2026-04-19T06:50:52.251Z</time></trkpt><trkpt lat="43.2269261" lon="12.1724937"><ele>535.0</ele><time>2026-04-19T06:50:54.248Z</time></trkpt><trkpt lat="43.2269548" lon="12.1724049"><ele>535.0</ele><time>2026-04-19T06:50:56.26Z</time></trkpt><trkpt lat="43.2269321" lon="12.1722438"><ele>535.0</ele><time>2026-04-19T06:50:58.245Z</time></trkpt><trkpt lat="43.2269041" lon="12.1721635"><ele>535.0</ele><time>2026-04-19T06:50:59.243Z</time></trkpt><trkpt lat="43.2268693" lon="12.1720782"><ele>535.0</ele><time>2026-04-19T06:51:00.245Z</time></trkpt><trkpt lat="43.2268254" lon="12.1720019"><ele>538.0</ele><time>2026-04-19T06:51:01.244Z</time></trkpt><trkpt lat="43.2267468" lon="12.1718848"><ele>541.0</ele><time>2026-04-19T06:51:03.239Z</time></trkpt><trkpt lat="43.2266667" lon="12.1717969"><ele>544.0</ele><time>2026-04-19T06:51:05.245Z</time></trkpt><trkpt lat="43.2265967" lon="12.1716984"><ele>547.0</ele><time>2026-04-19T06:51:07.241Z</time></trkpt><trkpt lat="43.2265782" lon="12.1715909"><ele>550.0</ele><time>2026-04-19T06:51:09.255Z</time></trkpt><trkpt lat="43.2266277" lon="12.1715034"><ele>551.6666666666667</ele><time>2026-04-19T06:51:11.255Z</time></trkpt><trkpt lat="43.2267218" lon="12.1714562"><ele>553.3333333333334</ele><time>2026-04-19T06:51:13.259Z</time></trkpt><trkpt lat="43.2268136" lon="12.1714247"><ele>555.0</ele><time>2026-04-19T06:51:15.263Z</time></trkpt><trkpt lat="43.2268801" lon="12.1714202"><ele>556.6666666666666</ele><time>2026-04-19T06:51:16.278Z</time></trkpt><trkpt lat="43.2269509" lon="12.1714312"><ele>558.3333333333333</ele><time>2026-04-19T06:51:17.245Z</time></trkpt><trkpt lat="43.2270188" lon="12.1714243"><ele>560.0</ele><time>2026-04-19T06:51:18.245Z</time></trkpt><trkpt lat="43.2271037" lon="12.1713436"><ele>560.0</ele><time>2026-04-19T06:51:20.248Z</time></trkpt><trkpt lat="43.2270798" lon="12.1712234"><ele>560.0</ele><time>2026-04-19T06:51:22.256Z</time></trkpt><trkpt lat="43.2270011" lon="12.1711278"><ele>560.0</ele><time>2026-04-19T06:51:24.259Z</time></trkpt><trkpt lat="43.2269268" lon="12.171062"><ele>560.0</ele><time>2026-04-19T06:51:26.254Z</time></trkpt><trkpt lat="43.2268328" lon="12.1710052"><ele>560.0</ele><time>2026-04-19T06:51:28.247Z</time></trkpt><trkpt lat="43.2267864" lon="12.1709462"><ele>560.0</ele><time>2026-04-19T06:51:29.246Z</time></trkpt><trkpt lat="43.2267451" lon="12.1708095"><ele>560.0</ele><time>2026-04-19T06:51:31.24Z</time></trkpt><trkpt lat="43.2267667" lon="12.1706402"><ele>560.0</ele><time>2026-04-19T06:51:33.248Z</time></trkpt><trkpt lat="43.2268031" lon="12.1705104"><ele>560.0</ele><time>2026-04-19T06:51:35.255Z</time></trkpt><trkpt lat="43.2269131" lon="12.1705259"><ele>560.0</ele><time>2026-04-19T06:51:37.259Z</time></trkpt><trkpt lat="43.2269791" lon="12.1705664"><ele>560.0</ele><time>2026-04-19T06:51:38.245Z</time></trkpt><trkpt lat="43.2270468" lon="12.1706041"><ele>560.0</ele><time>2026-04-19T06:51:39.243Z</time></trkpt><trkpt lat="43.2271208" lon="12.1706341"><ele>560.0</ele><time>2026-04-19T06:51:40.243Z</time></trkpt><trkpt lat="43.2272122" lon="12.1706693"><ele>560.0</ele><time>2026-04-19T06:51:41.239Z</time></trkpt><trkpt lat="43.2273066" lon="12.1706996"><ele>560.0</ele><time>2026-04-19T06:51:42.248Z</time></trkpt><trkpt lat="43.2273806" lon="12.1707128"><ele>560.0</ele><time>2026-04-19T06:51:43.246Z</time></trkpt><trkpt lat="43.2274436" lon="12.1706495"><ele>560.8333333333333</ele><time>2026-04-19T06:51:45.24Z</time></trkpt><trkpt lat="43.2274062" lon="12.170572"><ele>561.6666666666666</ele><time>2026-04-19T06:51:48.255Z</time></trkpt><trkpt lat="43.2273112" lon="12.1704605"><ele>562.5</ele><time>2026-04-19T06:51:51.252Z</time></trkpt><trkpt lat="43.2272479" lon="12.1703822"><ele>563.3333333333334</ele><time>2026-04-19T06:51:52.245Z</time></trkpt><trkpt lat="43.2271985" lon="12.1703079"><ele>564.1666666666667</ele><time>2026-04-19T06:51:53.239Z</time></trkpt><trkpt lat="43.2271551" lon="12.1702333"><ele>565.0</ele><time>2026-04-19T06:51:54.246Z</time></trkpt><trkpt lat="43.2271104" lon="12.1701509"><ele>565.0</ele><time>2026-04-19T06:51:55.245Z</time></trkpt><trkpt lat="43.2270706" lon="12.1700651"><ele>565.0</ele><time>2026-04-19T06:51:56.255Z</time></trkpt><trkpt lat="43.2270351" lon="12.1699775"><ele>565.0</ele><time>2026-04-19T06:51:57.246Z</time></trkpt><trkpt lat="43.2270011" lon="12.1698823"><ele>565.0</ele><time>2026-04-19T06:51:58.25Z</time></trkpt><trkpt lat="43.2269758" lon="12.1697908"><ele>565.0</ele><time>2026-04-19T06:51:59.246Z</time></trkpt><trkpt lat="43.2269515" lon="12.169651"><ele>565.0</ele><time>2026-04-19T06:52:01.24Z</time></trkpt><trkpt lat="43.2269649" lon="12.1695296"><ele>565.5</ele><time>2026-04-19T06:52:03.245Z</time></trkpt><trkpt lat="43.226983" lon="12.1693505"><ele>566.0</ele><time>2026-04-19T06:52:05.247Z</time></trkpt><trkpt lat="43.2269865" lon="12.169258"><ele>566.5</ele><time>2026-04-19T06:52:06.246Z</time></trkpt><trkpt lat="43.2269904" lon="12.1691609"><ele>567.0</ele><time>2026-04-19T06:52:07.248Z</time></trkpt><trkpt lat="43.2269921" lon="12.1690536"><ele>567.5</ele><time>2026-04-19T06:52:08.248Z</time></trkpt><trkpt lat="43.2269928" lon="12.168938"><ele>568.0</ele><time>2026-04-19T06:52:09.245Z</time></trkpt><trkpt lat="43.2269962" lon="12.1688315"><ele>568.0</ele><time>2026-04-19T06:52:10.245Z</time></trkpt><trkpt lat="43.227001" lon="12.1687313"><ele>568.0</ele><time>2026-04-19T06:52:11.244Z</time></trkpt><trkpt lat="43.2270023" lon="12.1686323"><ele>568.0</ele><time>2026-04-19T06:52:12.246Z</time></trkpt><trkpt lat="43.227" lon="12.1685369"><ele>568.0</ele><time>2026-04-19T06:52:13.239Z</time></trkpt><trkpt lat="43.2270049" lon="12.1684507"><ele>568.0</ele><time>2026-04-19T06:52:14.24Z</time></trkpt><trkpt lat="43.2270371" lon="12.168314"><ele>568.0</ele><time>2026-04-19T06:52:16.241Z</time></trkpt><trkpt lat="43.227129" lon="12.1682316"><ele>567.3333333333334</ele><time>2026-04-19T06:52:18.26Z</time></trkpt><trkpt lat="43.2271864" lon="12.168193"><ele>566.6666666666667</ele><time>2026-04-19T06:52:19.241Z</time></trkpt><trkpt lat="43.227251" lon="12.1681398"><ele>566.0</ele><time>2026-04-19T06:52:20.248Z</time></trkpt><trkpt lat="43.2273223" lon="12.1680835"><ele>565.3333333333334</ele><time>2026-04-19T06:52:21.243Z</time></trkpt><trkpt lat="43.2273956" lon="12.1680255"><ele>564.6666666666666</ele><time>2026-04-19T06:52:22.244Z</time></trkpt><trkpt lat="43.2274654" lon="12.1679595"><ele>564.0</ele><time>2026-04-19T06:52:23.242Z</time></trkpt><trkpt lat="43.2275275" lon="12.1678844"><ele>569.0</ele><time>2026-04-19T06:52:24.245Z</time></trkpt><trkpt lat="43.227583" lon="12.167793"><ele>574.0</ele><time>2026-04-19T06:52:25.242Z</time></trkpt><trkpt lat="43.227637" lon="12.1676828"><ele>579.0</ele><time>2026-04-19T06:52:26.243Z</time></trkpt><trkpt lat="43.2276867" lon="12.1675694"><ele>584.0</ele><time>2026-04-19T06:52:27.237Z</time></trkpt><trkpt lat="43.2277246" lon="12.1674634"><ele>589.0</ele><time>2026-04-19T06:52:28.236Z</time></trkpt><trkpt lat="43.2277486" lon="12.1673497"><ele>590.4</ele><time>2026-04-19T06:52:29.232Z</time></trkpt><trkpt lat="43.2277549" lon="12.1672221"><ele>591.8</ele><time>2026-04-19T06:52:30.24Z</time></trkpt><trkpt lat="43.2277336" lon="12.1670861"><ele>593.2</ele><time>2026-04-19T06:52:31.238Z</time></trkpt><trkpt lat="43.2276997" lon="12.1669595"><ele>594.6</ele><time>2026-04-19T06:52:32.236Z</time></trkpt><trkpt lat="43.2276656" lon="12.1668394"><ele>596.0</ele><time>2026-04-19T06:52:33.24Z</time></trkpt><trkpt lat="43.227637" lon="12.1667191"><ele>596.0</ele><time>2026-04-19T06:52:34.242Z</time></trkpt><trkpt lat="43.2276161" lon="12.1665973"><ele>596.0</ele><time>2026-04-19T06:52:35.239Z</time></trkpt><trkpt lat="43.2276036" lon="12.1664767"><ele>596.0</ele><time>2026-04-19T06:52:36.243Z</time></trkpt><trkpt lat="43.2275955" lon="12.1663585"><ele>596.0</ele><time>2026-04-19T06:52:37.243Z</time></trkpt><trkpt lat="43.2275933" lon="12.1662475"><ele>596.0</ele><time>2026-04-19T06:52:38.243Z</time></trkpt><trkpt lat="43.2276013" lon="12.1661399"><ele>596.0</ele><time>2026-04-19T06:52:39.235Z</time></trkpt><trkpt lat="43.2276308" lon="12.1660393"><ele>596.6666666666666</ele><time>2026-04-19T06:52:40.247Z</time></trkpt><trkpt lat="43.2276873" lon="12.1659564"><ele>597.3333333333333</ele><time>2026-04-19T06:52:41.241Z</time></trkpt><trkpt lat="43.2277545" lon="12.1658742"><ele>598.0</ele><time>2026-04-19T06:52:42.244Z</time></trkpt><trkpt lat="43.2278195" lon="12.1657913"><ele>598.6666666666666</ele><time>2026-04-19T06:52:43.245Z</time></trkpt><trkpt lat="43.2278702" lon="12.1657024"><ele>599.3333333333334</ele><time>2026-04-19T06:52:44.243Z</time></trkpt><trkpt lat="43.2279089" lon="12.1655995"><ele>600.0</ele><time>2026-04-19T06:52:45.245Z</time></trkpt><trkpt lat="43.2279322" lon="12.1654791"><ele>600.5</ele><time>2026-04-19T06:52:46.248Z</time></trkpt><trkpt lat="43.22795" lon="12.1653551"><ele>601.0</ele><time>2026-04-19T06:52:47.241Z</time></trkpt><trkpt lat="43.2279722" lon="12.1652387"><ele>601.5</ele><time>2026-04-19T06:52:48.243Z</time></trkpt><trkpt lat="43.2280029" lon="12.1651378"><ele>602.0</ele><time>2026-04-19T06:52:49.256Z</time></trkpt><trkpt lat="43.2280534" lon="12.165057"><ele>602.5</ele><time>2026-04-19T06:52:50.236Z</time></trkpt><trkpt lat="43.2281225" lon="12.1649767"><ele>603.0</ele><time>2026-04-19T06:52:51.246Z</time></trkpt><trkpt lat="43.2282092" lon="12.1648841"><ele>607.75</ele><time>2026-04-19T06:52:52.236Z</time></trkpt><trkpt lat="43.22831" lon="12.1647827"><ele>612.5</ele><time>2026-04-19T06:52:53.239Z</time></trkpt><trkpt lat="43.2284176" lon="12.164682"><ele>617.25</ele><time>2026-04-19T06:52:54.24Z</time></trkpt><trkpt lat="43.2285257" lon="12.1645999"><ele>622.0</ele><time>2026-04-19T06:52:55.241Z</time></trkpt><trkpt lat="43.228634" lon="12.1645373"><ele>622.0</ele><time>2026-04-19T06:52:56.25Z</time></trkpt><trkpt lat="43.2287403" lon="12.1644983"><ele>622.0</ele><time>2026-04-19T06:52:57.245Z</time></trkpt><trkpt lat="43.2288375" lon="12.1644681"><ele>622.0</ele><time>2026-04-19T06:52:58.244Z</time></trkpt><trkpt lat="43.228922" lon="12.1644341"><ele>622.0</ele><time>2026-04-19T06:52:59.243Z</time></trkpt><trkpt lat="43.2289856" lon="12.1643874"><ele>622.0</ele><time>2026-04-19T06:53:00.241Z</time></trkpt><trkpt lat="43.2290368" lon="12.164334"><ele>622.0</ele><time>2026-04-19T06:53:01.243Z</time></trkpt><trkpt lat="43.2290634" lon="12.1642555"><ele>624.8333333333334</ele><time>2026-04-19T06:53:02.237Z</time></trkpt><trkpt lat="43.2290705" lon="12.1641535"><ele>627.6666666666667</ele><time>2026-04-19T06:53:03.236Z</time></trkpt><trkpt lat="43.2290684" lon="12.1640417"><ele>630.5</ele><time>2026-04-19T06:53:04.241Z</time></trkpt><trkpt lat="43.2290664" lon="12.1639219"><ele>633.3333333333334</ele><time>2026-04-19T06:53:05.239Z</time></trkpt><trkpt lat="43.2290631" lon="12.1637915"><ele>636.1666666666666</ele><time>2026-04-19T06:53:06.241Z</time></trkpt><trkpt lat="43.2290509" lon="12.1636596"><ele>639.0</ele><time>2026-04-19T06:53:07.234Z</time></trkpt><trkpt lat="43.2290286" lon="12.163528"><ele>638.0</ele><time>2026-04-19T06:53:08.245Z</time></trkpt><trkpt lat="43.2289983" lon="12.1634094"><ele>637.0</ele><time>2026-04-19T06:53:09.241Z</time></trkpt><trkpt lat="43.2289586" lon="12.1633004"><ele>636.0</ele><time>2026-04-19T06:53:10.241Z</time></trkpt><trkpt lat="43.2289103" lon="12.1632047"><ele>635.0</ele><time>2026-04-19T06:53:11.238Z</time></trkpt><trkpt lat="43.2288532" lon="12.1631278"><ele>634.0</ele><time>2026-04-19T06:53:12.244Z</time></trkpt><trkpt lat="43.228795" lon="12.1630507"><ele>633.0</ele><time>2026-04-19T06:53:13.243Z</time></trkpt><trkpt lat="43.2287339" lon="12.1629635"><ele>636.0</ele><time>2026-04-19T06:53:14.243Z</time></trkpt><trkpt lat="43.2286727" lon="12.1628658"><ele>639.0</ele><time>2026-04-19T06:53:15.239Z</time></trkpt><trkpt lat="43.2286106" lon="12.1627537"><ele>642.0</ele><time>2026-04-19T06:53:16.249Z</time></trkpt><trkpt lat="43.2285547" lon="12.1626474"><ele>645.0</ele><time>2026-04-19T06:53:17.24Z</time></trkpt><trkpt lat="43.2285046" lon="12.1625522"><ele>648.0</ele><time>2026-04-19T06:53:18.241Z</time></trkpt><trkpt lat="43.2284594" lon="12.1624627"><ele>648.5</ele><time>2026-04-19T06:53:19.245Z</time></trkpt><trkpt lat="43.2284245" lon="12.1623646"><ele>649.0</ele><time>2026-04-19T06:53:20.258Z</time></trkpt><trkpt lat="43.2283981" lon="12.1622596"><ele>649.5</ele><time>2026-04-19T06:53:21.248Z</time></trkpt><trkpt lat="43.2283782" lon="12.1621512"><ele>650.0</ele><time>2026-04-19T06:53:22.25Z</time></trkpt><trkpt lat="43.2283702" lon="12.1620479"><ele>650.5</ele><time>2026-04-19T06:53:23.241Z</time></trkpt><trkpt lat="43.2283765" lon="12.1619447"><ele>651.0</ele><time>2026-04-19T06:53:24.247Z</time></trkpt><trkpt lat="43.2283946" lon="12.1618374"><ele>651.0</ele><time>2026-04-19T06:53:25.25Z</time></trkpt><trkpt lat="43.2284147" lon="12.1617168"><ele>651.0</ele><time>2026-04-19T06:53:26.248Z</time></trkpt><trkpt lat="43.2284276" lon="12.1615761"><ele>651.0</ele><time>2026-04-19T06:53:27.247Z</time></trkpt><trkpt lat="43.2284328" lon="12.1614233"><ele>651.0</ele><time>2026-04-19T06:53:28.257Z</time></trkpt><trkpt lat="43.2284379" lon="12.1612623"><ele>651.0</ele><time>2026-04-19T06:53:29.249Z</time></trkpt><trkpt lat="43.228438" lon="12.161109"><ele>650.0</ele><time>2026-04-19T06:53:30.252Z</time></trkpt><trkpt lat="43.2284347" lon="12.1609671"><ele>649.0</ele><time>2026-04-19T06:53:31.249Z</time></trkpt><trkpt lat="43.2284346" lon="12.1608398"><ele>648.0</ele><time>2026-04-19T06:53:32.259Z</time></trkpt><trkpt lat="43.2284474" lon="12.1607237"><ele>647.0</ele><time>2026-04-19T06:53:33.258Z</time></trkpt><trkpt lat="43.228471" lon="12.1606109"><ele>646.0</ele><time>2026-04-19T06:53:34.258Z</time></trkpt><trkpt lat="43.2285104" lon="12.1605032"><ele>643.8</ele><time>2026-04-19T06:53:35.258Z</time></trkpt><trkpt lat="43.2285662" lon="12.1604015"><ele>641.5999999999999</ele><time>2026-04-19T06:53:36.257Z</time></trkpt><trkpt lat="43.2286381" lon="12.1603063"><ele>639.4</ele><time>2026-04-19T06:53:37.253Z</time></trkpt><trkpt lat="43.2287236" lon="12.1602249"><ele>637.2</ele><time>2026-04-19T06:53:38.255Z</time></trkpt><trkpt lat="43.2288168" lon="12.1601648"><ele>635.0</ele><time>2026-04-19T06:53:39.254Z</time></trkpt><trkpt lat="43.228912" lon="12.160112"><ele>636.2</ele><time>2026-04-19T06:53:40.254Z</time></trkpt><trkpt lat="43.2289998" lon="12.1600574"><ele>637.4</ele><time>2026-04-19T06:53:41.251Z</time></trkpt><trkpt lat="43.2290749" lon="12.1599855"><ele>638.5999999999999</ele><time>2026-04-19T06:53:42.263Z</time></trkpt><trkpt lat="43.2291373" lon="12.1598993"><ele>639.8</ele><time>2026-04-19T06:53:43.248Z</time></trkpt><trkpt lat="43.2291833" lon="12.1597881"><ele>641.0</ele><time>2026-04-19T06:53:44.243Z</time></trkpt><trkpt lat="43.229221" lon="12.159649"><ele>641.0</ele><time>2026-04-19T06:53:45.243Z</time></trkpt><trkpt lat="43.229246" lon="12.1594809"><ele>641.0</ele><time>2026-04-19T06:53:46.245Z</time></trkpt><trkpt lat="43.2292521" lon="12.1593127"><ele>641.0</ele><time>2026-04-19T06:53:47.25Z</time></trkpt><trkpt lat="43.2292608" lon="12.1591629"><ele>641.0</ele><time>2026-04-19T06:53:48.246Z</time></trkpt><trkpt lat="43.2292715" lon="12.1590314"><ele>639.5999999999999</ele><time>2026-04-19T06:53:49.248Z</time></trkpt><trkpt lat="43.229295" lon="12.1589118"><ele>638.1999999999999</ele><time>2026-04-19T06:53:50.246Z</time></trkpt><trkpt lat="43.2293345" lon="12.158804"><ele>636.8</ele><time>2026-04-19T06:53:51.263Z</time></trkpt><trkpt lat="43.2293954" lon="12.158712"><ele>635.4</ele><time>2026-04-19T06:53:52.246Z</time></trkpt><trkpt lat="43.2294802" lon="12.1586338"><ele>634.0</ele><time>2026-04-19T06:53:53.26Z</time></trkpt><trkpt lat="43.2295881" lon="12.158563"><ele>634.0</ele><time>2026-04-19T06:53:54.25Z</time></trkpt><trkpt lat="43.2296956" lon="12.1584862"><ele>634.0</ele><time>2026-04-19T06:53:55.248Z</time></trkpt><trkpt lat="43.2297868" lon="12.1584043"><ele>634.0</ele><time>2026-04-19T06:53:56.242Z</time></trkpt><trkpt lat="43.2298619" lon="12.1583028"><ele>634.0</ele><time>2026-04-19T06:53:57.245Z</time></trkpt><trkpt lat="43.2299107" lon="12.1581617"><ele>634.0</ele><time>2026-04-19T06:53:58.247Z</time></trkpt><trkpt lat="43.2299476" lon="12.1580003"><ele>636.2</ele><time>2026-04-19T06:53:59.239Z</time></trkpt><trkpt lat="43.2299765" lon="12.1578444"><ele>638.4</ele><time>2026-04-19T06:54:00.239Z</time></trkpt><trkpt lat="43.2299873" lon="12.1576941"><ele>640.6</ele><time>2026-04-19T06:54:01.246Z</time></trkpt><trkpt lat="43.229983" lon="12.1575484"><ele>642.8</ele><time>2026-04-19T06:54:02.251Z</time></trkpt><trkpt lat="43.2299561" lon="12.1574024"><ele>645.0</ele><time>2026-04-19T06:54:03.249Z</time></trkpt><trkpt lat="43.2299093" lon="12.1572537"><ele>645.25</ele><time>2026-04-19T06:54:04.246Z</time></trkpt><trkpt lat="43.2298574" lon="12.1570925"><ele>645.5</ele><time>2026-04-19T06:54:05.243Z</time></trkpt><trkpt lat="43.2298157" lon="12.1569403"><ele>645.75</ele><time>2026-04-19T06:54:06.243Z</time></trkpt><trkpt lat="43.2298016" lon="12.1567963"><ele>646.0</ele><time>2026-04-19T06:54:07.244Z</time></trkpt><trkpt lat="43.2298065" lon="12.1566613"><ele>648.0</ele><time>2026-04-19T06:54:08.243Z</time></trkpt><trkpt lat="43.2298335" lon="12.1565301"><ele>650.0</ele><time>2026-04-19T06:54:09.241Z</time></trkpt><trkpt lat="43.2298793" lon="12.1564008"><ele>652.0</ele><time>2026-04-19T06:54:10.241Z</time></trkpt><trkpt lat="43.229933" lon="12.1562735"><ele>654.0</ele><time>2026-04-19T06:54:11.243Z</time></trkpt><trkpt lat="43.2299818" lon="12.1561433"><ele>656.0</ele><time>2026-04-19T06:54:12.243Z</time></trkpt><trkpt lat="43.230025" lon="12.1560098"><ele>656.0</ele><time>2026-04-19T06:54:13.244Z</time></trkpt><trkpt lat="43.2300679" lon="12.155861"><ele>656.0</ele><time>2026-04-19T06:54:14.247Z</time></trkpt><trkpt lat="43.2301164" lon="12.1556924"><ele>656.0</ele><time>2026-04-19T06:54:15.249Z</time></trkpt><trkpt lat="43.2301686" lon="12.155512"><ele>656.0</ele><time>2026-04-19T06:54:16.253Z</time></trkpt><trkpt lat="43.2302191" lon="12.1553232"><ele>657.0</ele><time>2026-04-19T06:54:17.25Z</time></trkpt><trkpt lat="43.2302793" lon="12.15512"><ele>658.0</ele><time>2026-04-19T06:54:18.252Z</time></trkpt><trkpt lat="43.2303381" lon="12.1549088"><ele>659.0</ele><time>2026-04-19T06:54:19.254Z</time></trkpt><trkpt lat="43.2303894" lon="12.1547117"><ele>659.0</ele><time>2026-04-19T06:54:20.251Z</time></trkpt><trkpt lat="43.2304385" lon="12.1545546"><ele>659.0</ele><time>2026-04-19T06:54:21.255Z</time></trkpt><trkpt lat="43.2304982" lon="12.1544286"><ele>659.0</ele><time>2026-04-19T06:54:22.269Z</time></trkpt><trkpt lat="43.2305743" lon="12.1543299"><ele>659.0</ele><time>2026-04-19T06:54:23.252Z</time></trkpt><trkpt lat="43.2306543" lon="12.1542309"><ele>659.0</ele><time>2026-04-19T06:54:24.256Z</time></trkpt><trkpt lat="43.2307193" lon="12.1541312"><ele>660.4000000000001</ele><time>2026-04-19T06:54:25.245Z</time></trkpt><trkpt lat="43.2307676" lon="12.1540314"><ele>661.8</ele><time>2026-04-19T06:54:26.25Z</time></trkpt><trkpt lat="43.2307929" lon="12.1539267"><ele>663.2</ele><time>2026-04-19T06:54:27.248Z</time></trkpt><trkpt lat="43.2307906" lon="12.1538134"><ele>664.5999999999999</ele><time>2026-04-19T06:54:28.249Z</time></trkpt><trkpt lat="43.2307692" lon="12.1536872"><ele>666.0</ele><time>2026-04-19T06:54:29.26Z</time></trkpt><trkpt lat="43.2307412" lon="12.1535467"><ele>666.0</ele><time>2026-04-19T06:54:30.249Z</time></trkpt><trkpt lat="43.2307133" lon="12.1533945"><ele>666.0</ele><time>2026-04-19T06:54:31.254Z</time></trkpt><trkpt lat="43.2306892" lon="12.1532483"><ele>666.0</ele><time>2026-04-19T06:54:32.251Z</time></trkpt><trkpt lat="43.2306625" lon="12.1530962"><ele>666.0</ele><time>2026-04-19T06:54:33.25Z</time></trkpt><trkpt lat="43.230631" lon="12.1529211"><ele>666.75</ele><time>2026-04-19T06:54:34.248Z</time></trkpt><trkpt lat="43.2306005" lon="12.1527493"><ele>667.5</ele><time>2026-04-19T06:54:35.25Z</time></trkpt><trkpt lat="43.2305738" lon="12.1525864"><ele>668.25</ele><time>2026-04-19T06:54:36.249Z</time></trkpt><trkpt lat="43.2305594" lon="12.1524306"><ele>669.0</ele><time>2026-04-19T06:54:37.257Z</time></trkpt><trkpt lat="43.2305465" lon="12.1522757"><ele>667.5</ele><time>2026-04-19T06:54:38.249Z</time></trkpt><trkpt lat="43.2305382" lon="12.1521313"><ele>666.0</ele><time>2026-04-19T06:54:39.248Z</time></trkpt><trkpt lat="43.2305384" lon="12.1519975"><ele>664.5</ele><time>2026-04-19T06:54:40.245Z</time></trkpt><trkpt lat="43.2305518" lon="12.1518755"><ele>663.0</ele><time>2026-04-19T06:54:41.251Z</time></trkpt><trkpt lat="43.2305745" lon="12.1517686"><ele>661.5</ele><time>2026-04-19T06:54:42.251Z</time></trkpt><trkpt lat="43.2305926" lon="12.1516737"><ele>660.0</ele><time>2026-04-19T06:54:43.25Z</time></trkpt><trkpt lat="43.2305996" lon="12.151574"><ele>663.0</ele><time>2026-04-19T06:54:44.249Z</time></trkpt><trkpt lat="43.2305945" lon="12.1514715"><ele>666.0</ele><time>2026-04-19T06:54:45.25Z</time></trkpt><trkpt lat="43.2305804" lon="12.1513796"><ele>669.0</ele><time>2026-04-19T06:54:46.247Z</time></trkpt><trkpt lat="43.2305474" lon="12.1512406"><ele>672.0</ele><time>2026-04-19T06:54:48.254Z</time></trkpt><trkpt lat="43.2305528" lon="12.1511182"><ele>675.0</ele><time>2026-04-19T06:54:50.25Z</time></trkpt><trkpt lat="43.2306144" lon="12.151023"><ele>678.0</ele><time>2026-04-19T06:54:52.265Z</time></trkpt><trkpt lat="43.2307217" lon="12.1509996"><ele>679.5714285714286</ele><time>2026-04-19T06:54:54.258Z</time></trkpt><trkpt lat="43.2307857" lon="12.1510091"><ele>681.1428571428572</ele><time>2026-04-19T06:54:55.256Z</time></trkpt><trkpt lat="43.2308504" lon="12.1510161"><ele>682.7142857142858</ele><time>2026-04-19T06:54:56.255Z</time></trkpt><trkpt lat="43.2309154" lon="12.1510136"><ele>684.2857142857142</ele><time>2026-04-19T06:54:57.255Z</time></trkpt><trkpt lat="43.231032" lon="12.1509677"><ele>685.8571428571429</ele><time>2026-04-19T06:54:59.239Z</time></trkpt><trkpt lat="43.2310872" lon="12.1509236"><ele>687.4285714285714</ele><time>2026-04-19T06:55:00.241Z</time></trkpt><trkpt lat="43.2311367" lon="12.1508635"><ele>689.0</ele><time>2026-04-19T06:55:01.247Z</time></trkpt><trkpt lat="43.2311917" lon="12.1507172"><ele>689.5714285714286</ele><time>2026-04-19T06:55:03.242Z</time></trkpt><trkpt lat="43.2311979" lon="12.1506289"><ele>690.1428571428571</ele><time>2026-04-19T06:55:04.238Z</time></trkpt><trkpt lat="43.2311865" lon="12.1505413"><ele>690.7142857142858</ele><time>2026-04-19T06:55:05.251Z</time></trkpt><trkpt lat="43.2311546" lon="12.1504603"><ele>691.2857142857142</ele><time>2026-04-19T06:55:06.241Z</time></trkpt><trkpt lat="43.2311072" lon="12.1503803"><ele>691.8571428571429</ele><time>2026-04-19T06:55:07.241Z</time></trkpt><trkpt lat="43.2310539" lon="12.1502981"><ele>692.4285714285714</ele><time>2026-04-19T06:55:08.241Z</time></trkpt><trkpt lat="43.2309898" lon="12.1502066"><ele>693.0</ele><time>2026-04-19T06:55:09.248Z</time></trkpt><trkpt lat="43.2309167" lon="12.1501122"><ele>693.0</ele><time>2026-04-19T06:55:10.245Z</time></trkpt><trkpt lat="43.230849" lon="12.1500199"><ele>693.0</ele><time>2026-04-19T06:55:11.247Z</time></trkpt><trkpt lat="43.2307959" lon="12.1499182"><ele>693.0</ele><time>2026-04-19T06:55:12.243Z</time></trkpt><trkpt lat="43.2307499" lon="12.1497997"><ele>693.0</ele><time>2026-04-19T06:55:13.238Z</time></trkpt><trkpt lat="43.2306971" lon="12.149663"><ele>693.0</ele><time>2026-04-19T06:55:14.242Z</time></trkpt><trkpt lat="43.2306353" lon="12.1495162"><ele>693.5</ele><time>2026-04-19T06:55:15.244Z</time></trkpt><trkpt lat="43.2305633" lon="12.1493711"><ele>694.0</ele><time>2026-04-19T06:55:16.242Z</time></trkpt><trkpt lat="43.2304845" lon="12.149232"><ele>694.5</ele><time>2026-04-19T06:55:17.258Z</time></trkpt><trkpt lat="43.2304107" lon="12.14909"><ele>695.0</ele><time>2026-04-19T06:55:18.248Z</time></trkpt><trkpt lat="43.2303419" lon="12.1489342"><ele>694.0</ele><time>2026-04-19T06:55:19.255Z</time></trkpt><trkpt lat="43.2302807" lon="12.1487792"><ele>693.0</ele><time>2026-04-19T06:55:20.244Z</time></trkpt><trkpt lat="43.2302296" lon="12.1486263"><ele>692.0</ele><time>2026-04-19T06:55:21.245Z</time></trkpt><trkpt lat="43.230177" lon="12.1484743"><ele>691.0</ele><time>2026-04-19T06:55:22.246Z</time></trkpt><trkpt lat="43.2301195" lon="12.1483217"><ele>692.0</ele><time>2026-04-19T06:55:23.256Z</time></trkpt><trkpt lat="43.2300581" lon="12.1481658"><ele>693.0</ele><time>2026-04-19T06:55:24.282Z</time></trkpt><trkpt lat="43.2299977" lon="12.1480088"><ele>694.0</ele><time>2026-04-19T06:55:25.245Z</time></trkpt><trkpt lat="43.2299376" lon="12.1478498"><ele>695.0</ele><time>2026-04-19T06:55:26.249Z</time></trkpt><trkpt lat="43.2298813" lon="12.1477063"><ele>695.0</ele><time>2026-04-19T06:55:27.251Z</time></trkpt><trkpt lat="43.2298301" lon="12.1475801"><ele>695.0</ele><time>2026-04-19T06:55:28.245Z</time></trkpt><trkpt lat="43.2297895" lon="12.1474586"><ele>695.0</ele><time>2026-04-19T06:55:29.238Z</time></trkpt><trkpt lat="43.2297634" lon="12.1473445"><ele>695.0</ele><time>2026-04-19T06:55:30.246Z</time></trkpt><trkpt lat="43.2297447" lon="12.1472353"><ele>695.0</ele><time>2026-04-19T06:55:31.245Z</time></trkpt><trkpt lat="43.2297255" lon="12.1471332"><ele>695.0</ele><time>2026-04-19T06:55:32.246Z</time></trkpt><trkpt lat="43.229704" lon="12.1470324"><ele>695.1666666666666</ele><time>2026-04-19T06:55:33.243Z</time></trkpt><trkpt lat="43.2296826" lon="12.1469307"><ele>695.3333333333333</ele><time>2026-04-19T06:55:34.255Z</time></trkpt><trkpt lat="43.2296676" lon="12.1468349"><ele>695.5</ele><time>2026-04-19T06:55:35.244Z</time></trkpt><trkpt lat="43.2296639" lon="12.1467407"><ele>695.6666666666666</ele><time>2026-04-19T06:55:36.244Z</time></trkpt><trkpt lat="43.2296727" lon="12.1465971"><ele>695.8333333333334</ele><time>2026-04-19T06:55:38.245Z</time></trkpt><trkpt lat="43.2296442" lon="12.1464787"><ele>696.0</ele><time>2026-04-19T06:55:40.254Z</time></trkpt><trkpt lat="43.2295923" lon="12.1463154"><ele>696.0</ele><time>2026-04-19T06:55:42.245Z</time></trkpt><trkpt lat="43.2295718" lon="12.1462084"><ele>696.0</ele><time>2026-04-19T06:55:43.241Z</time></trkpt><trkpt lat="43.2295555" lon="12.1460858"><ele>696.0</ele><time>2026-04-19T06:55:44.244Z</time></trkpt><trkpt lat="43.2295472" lon="12.1459539"><ele>696.0</ele><time>2026-04-19T06:55:45.245Z</time></trkpt><trkpt lat="43.2295425" lon="12.1458164"><ele>696.0</ele><time>2026-04-19T06:55:46.246Z</time></trkpt><trkpt lat="43.2295412" lon="12.1456895"><ele>695.6666666666666</ele><time>2026-04-19T06:55:47.246Z</time></trkpt><trkpt lat="43.2295439" lon="12.1455764"><ele>695.3333333333334</ele><time>2026-04-19T06:55:48.247Z</time></trkpt><trkpt lat="43.2295489" lon="12.1454644"><ele>695.0</ele><time>2026-04-19T06:55:49.247Z</time></trkpt><trkpt lat="43.2295471" lon="12.1453561"><ele>694.6666666666667</ele><time>2026-04-19T06:55:50.246Z</time></trkpt><trkpt lat="43.229541" lon="12.1452585"><ele>694.3333333333334</ele><time>2026-04-19T06:55:51.242Z</time></trkpt><trkpt lat="43.2295326" lon="12.1451719"><ele>694.0</ele><time>2026-04-19T06:55:52.246Z</time></trkpt><trkpt lat="43.2295269" lon="12.1450056"><ele>691.0</ele><time>2026-04-19T06:55:54.259Z</time></trkpt><trkpt lat="43.2294977" lon="12.144844"><ele>688.0</ele><time>2026-04-19T06:55:56.25Z</time></trkpt><trkpt lat="43.2294586" lon="12.1447117"><ele>685.0</ele><time>2026-04-19T06:55:58.248Z</time></trkpt><trkpt lat="43.2294821" lon="12.144567"><ele>682.0</ele><time>2026-04-19T06:56:00.249Z</time></trkpt><trkpt lat="43.2295213" lon="12.1444069"><ele>682.0</ele><time>2026-04-19T06:56:02.244Z</time></trkpt><trkpt lat="43.2295541" lon="12.1442569"><ele>682.0</ele><time>2026-04-19T06:56:04.244Z</time></trkpt><trkpt lat="43.2295839" lon="12.1441421"><ele>682.0</ele><time>2026-04-19T06:56:06.244Z</time></trkpt><trkpt lat="43.2295542" lon="12.1440259"><ele>682.0</ele><time>2026-04-19T06:56:09.258Z</time></trkpt><trkpt lat="43.2294972" lon="12.1439367"><ele>682.0</ele><time>2026-04-19T06:56:11.257Z</time></trkpt><trkpt lat="43.2294508" lon="12.1438204"><ele>680.2</ele><time>2026-04-19T06:56:13.247Z</time></trkpt><trkpt lat="43.2294982" lon="12.14366"><ele>678.4000000000001</ele><time>2026-04-19T06:56:15.247Z</time></trkpt><trkpt lat="43.2295466" lon="12.1435699"><ele>676.5999999999999</ele><time>2026-04-19T06:56:16.252Z</time></trkpt><trkpt lat="43.2295912" lon="12.1434626"><ele>674.8</ele><time>2026-04-19T06:56:17.248Z</time></trkpt><trkpt lat="43.2296296" lon="12.1433305"><ele>673.0</ele><time>2026-04-19T06:56:18.246Z</time></trkpt><trkpt lat="43.2296666" lon="12.1432042"><ele>673.5</ele><time>2026-04-19T06:56:19.243Z</time></trkpt><trkpt lat="43.2297053" lon="12.1431034"><ele>674.0</ele><time>2026-04-19T06:56:20.245Z</time></trkpt><trkpt lat="43.2297457" lon="12.14302"><ele>674.5</ele><time>2026-04-19T06:56:21.25Z</time></trkpt><trkpt lat="43.2297931" lon="12.1429378"><ele>675.0</ele><time>2026-04-19T06:56:22.245Z</time></trkpt><trkpt lat="43.2298437" lon="12.1428469"><ele>675.5</ele><time>2026-04-19T06:56:23.251Z</time></trkpt><trkpt lat="43.2298897" lon="12.1427519"><ele>676.0</ele><time>2026-04-19T06:56:24.242Z</time></trkpt><trkpt lat="43.2299237" lon="12.142645"><ele>676.0</ele><time>2026-04-19T06:56:25.258Z</time></trkpt><trkpt lat="43.2299434" lon="12.1425052"><ele>676.0</ele><time>2026-04-19T06:56:26.247Z</time></trkpt><trkpt lat="43.22996" lon="12.1423706"><ele>676.0</ele><time>2026-04-19T06:56:27.244Z</time></trkpt><trkpt lat="43.229984" lon="12.1422472"><ele>676.0</ele><time>2026-04-19T06:56:28.244Z</time></trkpt><trkpt lat="43.2300144" lon="12.1421415"><ele>676.0</ele><time>2026-04-19T06:56:29.236Z</time></trkpt><trkpt lat="43.2300484" lon="12.1420587"><ele>676.0</ele><time>2026-04-19T06:56:30.248Z</time></trkpt><trkpt lat="43.2301148" lon="12.141914"><ele>677.4</ele><time>2026-04-19T06:56:32.243Z</time></trkpt><trkpt lat="43.2301516" lon="12.1417497"><ele>678.8</ele><time>2026-04-19T06:56:34.233Z</time></trkpt><trkpt lat="43.2301689" lon="12.1416646"><ele>680.1999999999999</ele><time>2026-04-19T06:56:35.241Z</time></trkpt><trkpt lat="43.2301991" lon="12.1414999"><ele>681.5999999999999</ele><time>2026-04-19T06:56:37.235Z</time></trkpt><trkpt lat="43.2302148" lon="12.1414065"><ele>683.0</ele><time>2026-04-19T06:56:38.238Z</time></trkpt><trkpt lat="43.2302376" lon="12.1413081"><ele>684.8</ele><time>2026-04-19T06:56:39.238Z</time></trkpt><trkpt lat="43.2302636" lon="12.1412205"><ele>686.5999999999999</ele><time>2026-04-19T06:56:40.241Z</time></trkpt><trkpt lat="43.2303175" lon="12.1410809"><ele>688.4000000000001</ele><time>2026-04-19T06:56:42.245Z</time></trkpt><trkpt lat="43.2303694" lon="12.1409505"><ele>690.2</ele><time>2026-04-19T06:56:44.242Z</time></trkpt><trkpt lat="43.2304117" lon="12.1408344"><ele>692.0</ele><time>2026-04-19T06:56:46.24Z</time></trkpt><trkpt lat="43.2304262" lon="12.1407203"><ele>694.8333333333333</ele><time>2026-04-19T06:56:48.25Z</time></trkpt><trkpt lat="43.2304334" lon="12.1405646"><ele>697.6666666666666</ele><time>2026-04-19T06:56:50.244Z</time></trkpt><trkpt lat="43.2304146" lon="12.1404081"><ele>700.5</ele><time>2026-04-19T06:56:52.241Z</time></trkpt><trkpt lat="43.2303964" lon="12.1403181"><ele>703.3333333333334</ele><time>2026-04-19T06:56:53.241Z</time></trkpt><trkpt lat="43.2303654" lon="12.1402346"><ele>706.1666666666667</ele><time>2026-04-19T06:56:54.248Z</time></trkpt><trkpt lat="43.2303189" lon="12.1401628"><ele>709.0</ele><time>2026-04-19T06:56:55.242Z</time></trkpt><trkpt lat="43.2302676" lon="12.1401054"><ele>709.0</ele><time>2026-04-19T06:56:56.269Z</time></trkpt><trkpt lat="43.230194" lon="12.1399775"><ele>709.0</ele><time>2026-04-19T06:56:58.239Z</time></trkpt><trkpt lat="43.2301598" lon="12.1399048"><ele>709.0</ele><time>2026-04-19T06:56:59.242Z</time></trkpt><trkpt lat="43.2301188" lon="12.139823"><ele>709.0</ele><time>2026-04-19T06:57:00.246Z</time></trkpt><trkpt lat="43.2300756" lon="12.1397155"><ele>709.0</ele><time>2026-04-19T06:57:01.255Z</time></trkpt><trkpt lat="43.2300271" lon="12.1395764"><ele>708.8333333333334</ele><time>2026-04-19T06:57:02.241Z</time></trkpt><trkpt lat="43.2299763" lon="12.1394543"><ele>708.6666666666667</ele><time>2026-04-19T06:57:03.24Z</time></trkpt><trkpt lat="43.2299234" lon="12.1393444"><ele>708.5</ele><time>2026-04-19T06:57:04.244Z</time></trkpt><trkpt lat="43.2298631" lon="12.1392545"><ele>708.3333333333334</ele><time>2026-04-19T06:57:05.242Z</time></trkpt><trkpt lat="43.2298028" lon="12.1391824"><ele>708.1666666666666</ele><time>2026-04-19T06:57:06.239Z</time></trkpt><trkpt lat="43.229748" lon="12.1391293"><ele>708.0</ele><time>2026-04-19T06:57:07.243Z</time></trkpt><trkpt lat="43.2296622" lon="12.1390258"><ele>707.5999999999999</ele><time>2026-04-19T06:57:09.245Z</time></trkpt><trkpt lat="43.2295908" lon="12.1388654"><ele>707.1999999999999</ele><time>2026-04-19T06:57:11.246Z</time></trkpt><trkpt lat="43.2295505" lon="12.1387531"><ele>706.8</ele><time>2026-04-19T06:57:12.248Z</time></trkpt><trkpt lat="43.2295065" lon="12.1386307"><ele>706.4</ele><time>2026-04-19T06:57:13.244Z</time></trkpt><trkpt lat="43.2294634" lon="12.1385215"><ele>706.0</ele><time>2026-04-19T06:57:14.247Z</time></trkpt><trkpt lat="43.2294324" lon="12.1384258"><ele>706.0</ele><time>2026-04-19T06:57:15.249Z</time></trkpt><trkpt lat="43.2294292" lon="12.1383095"><ele>706.0</ele><time>2026-04-19T06:57:17.241Z</time></trkpt><trkpt lat="43.2294194" lon="12.1382213"><ele>706.0</ele><time>2026-04-19T06:57:19.254Z</time></trkpt><trkpt lat="43.2294264" lon="12.1381134"><ele>706.0</ele><time>2026-04-19T06:57:21.256Z</time></trkpt><trkpt lat="43.2294404" lon="12.1379992"><ele>706.0</ele><time>2026-04-19T06:57:23.254Z</time></trkpt><trkpt lat="43.2294626" lon="12.137822"><ele>706.0</ele><time>2026-04-19T06:57:25.254Z</time></trkpt><trkpt lat="43.2294801" lon="12.1377298"><ele>706.5714285714286</ele><time>2026-04-19T06:57:26.237Z</time></trkpt><trkpt lat="43.2295009" lon="12.1376315"><ele>707.1428571428572</ele><time>2026-04-19T06:57:27.259Z</time></trkpt><trkpt lat="43.2295213" lon="12.1375313"><ele>707.7142857142858</ele><time>2026-04-19T06:57:28.244Z</time></trkpt><trkpt lat="43.2295422" lon="12.1374343"><ele>708.2857142857142</ele><time>2026-04-19T06:57:29.239Z</time></trkpt><trkpt lat="43.2295646" lon="12.1373426"><ele>708.8571428571429</ele><time>2026-04-19T06:57:30.245Z</time></trkpt><trkpt lat="43.2295865" lon="12.137258"><ele>709.4285714285714</ele><time>2026-04-19T06:57:31.238Z</time></trkpt><trkpt lat="43.2296055" lon="12.1371701"><ele>710.0</ele><time>2026-04-19T06:57:32.247Z</time></trkpt><trkpt lat="43.2296169" lon="12.1370766"><ele>712.3333333333333</ele><time>2026-04-19T06:57:33.239Z</time></trkpt><trkpt lat="43.229622" lon="12.1369812"><ele>714.6666666666666</ele><time>2026-04-19T06:57:34.235Z</time></trkpt><trkpt lat="43.2296242" lon="12.13684"><ele>717.0</ele><time>2026-04-19T06:57:36.237Z</time></trkpt><trkpt lat="43.2296314" lon="12.1367226"><ele>719.3333333333334</ele><time>2026-04-19T06:57:39.246Z</time></trkpt><trkpt lat="43.2296528" lon="12.136636"><ele>721.6666666666667</ele><time>2026-04-19T06:57:42.243Z</time></trkpt><trkpt lat="43.2296901" lon="12.1365209"><ele>724.0</ele><time>2026-04-19T06:57:45.244Z</time></trkpt><trkpt lat="43.2297392" lon="12.1364203"><ele>722.3333333333334</ele><time>2026-04-19T06:57:47.245Z</time></trkpt><trkpt lat="43.2298119" lon="12.1363201"><ele>720.6666666666667</ele><time>2026-04-19T06:57:49.252Z</time></trkpt><trkpt lat="43.2298531" lon="12.1362427"><ele>719.0</ele><time>2026-04-19T06:57:50.247Z</time></trkpt><trkpt lat="43.2298933" lon="12.1361543"><ele>717.3333333333334</ele><time>2026-04-19T06:57:51.232Z</time></trkpt><trkpt lat="43.2299369" lon="12.1360771"><ele>715.6666666666666</ele><time>2026-04-19T06:57:52.231Z</time></trkpt><trkpt lat="43.2299806" lon="12.1360139"><ele>714.0</ele><time>2026-04-19T06:57:53.231Z</time></trkpt><trkpt lat="43.2300749" lon="12.1359397"><ele>714.0</ele><time>2026-04-19T06:57:55.231Z</time></trkpt><trkpt lat="43.2301576" lon="12.1359094"><ele>714.0</ele><time>2026-04-19T06:57:57.254Z</time></trkpt><trkpt lat="43.2302199" lon="12.1358656"><ele>714.0</ele><time>2026-04-19T06:57:59.248Z</time></trkpt><trkpt lat="43.2303158" lon="12.1358175"><ele>714.0</ele><time>2026-04-19T06:58:01.25Z</time></trkpt><trkpt lat="43.2303814" lon="12.1357779"><ele>714.0</ele><time>2026-04-19T06:58:02.232Z</time></trkpt><trkpt lat="43.230467" lon="12.1357261"><ele>714.0</ele><time>2026-04-19T06:58:03.233Z</time></trkpt><trkpt lat="43.2305698" lon="12.1356568"><ele>715.2</ele><time>2026-04-19T06:58:04.236Z</time></trkpt><trkpt lat="43.2306743" lon="12.1356119"><ele>716.4000000000001</ele><time>2026-04-19T06:58:05.233Z</time></trkpt><trkpt lat="43.2307706" lon="12.1355886"><ele>717.6</ele><time>2026-04-19T06:58:06.234Z</time></trkpt><trkpt lat="43.2308625" lon="12.135563"><ele>718.8</ele><time>2026-04-19T06:58:07.238Z</time></trkpt><trkpt lat="43.2309413" lon="12.1355222"><ele>720.0</ele><time>2026-04-19T06:58:08.242Z</time></trkpt><trkpt lat="43.2310094" lon="12.1354571"><ele>720.0</ele><time>2026-04-19T06:58:09.242Z</time></trkpt><trkpt lat="43.2310683" lon="12.1353706"><ele>720.0</ele><time>2026-04-19T06:58:10.238Z</time></trkpt><trkpt lat="43.2311101" lon="12.1352712"><ele>720.0</ele><time>2026-04-19T06:58:11.24Z</time></trkpt><trkpt lat="43.2311407" lon="12.1351587"><ele>720.0</ele><time>2026-04-19T06:58:12.24Z</time></trkpt><trkpt lat="43.2311508" lon="12.1350213"><ele>720.0</ele><time>2026-04-19T06:58:13.234Z</time></trkpt><trkpt lat="43.2311525" lon="12.1348761"><ele>721.4</ele><time>2026-04-19T06:58:14.244Z</time></trkpt><trkpt lat="43.2311569" lon="12.1347328"><ele>722.8</ele><time>2026-04-19T06:58:15.228Z</time></trkpt><trkpt lat="43.2311514" lon="12.1345944"><ele>724.2</ele><time>2026-04-19T06:58:16.233Z</time></trkpt><trkpt lat="43.2311439" lon="12.1344663"><ele>725.6</ele><time>2026-04-19T06:58:17.234Z</time></trkpt><trkpt lat="43.2311378" lon="12.1343503"><ele>727.0</ele><time>2026-04-19T06:58:18.231Z</time></trkpt><trkpt lat="43.231127" lon="12.1342366"><ele>727.0</ele><time>2026-04-19T06:58:19.25Z</time></trkpt><trkpt lat="43.2311067" lon="12.1341215"><ele>727.0</ele><time>2026-04-19T06:58:20.234Z</time></trkpt><trkpt lat="43.2310892" lon="12.1340051"><ele>727.0</ele><time>2026-04-19T06:58:21.235Z</time></trkpt><trkpt lat="43.2310718" lon="12.1339072"><ele>727.0</ele><time>2026-04-19T06:58:22.243Z</time></trkpt><trkpt lat="43.2310186" lon="12.1337453"><ele>727.0</ele><time>2026-04-19T06:58:24.243Z</time></trkpt><trkpt lat="43.230991" lon="12.1336263"><ele>726.6</ele><time>2026-04-19T06:58:25.239Z</time></trkpt><trkpt lat="43.2309638" lon="12.1334673"><ele>726.2</ele><time>2026-04-19T06:58:26.238Z</time></trkpt><trkpt lat="43.2309433" lon="12.1333249"><ele>725.8</ele><time>2026-04-19T06:58:27.234Z</time></trkpt><trkpt lat="43.2309309" lon="12.133206"><ele>725.4</ele><time>2026-04-19T06:58:28.236Z</time></trkpt><trkpt lat="43.2309268" lon="12.1330946"><ele>725.0</ele><time>2026-04-19T06:58:29.25Z</time></trkpt><trkpt lat="43.2309326" lon="12.1329778"><ele>724.8333333333333</ele><time>2026-04-19T06:58:30.235Z</time></trkpt><trkpt lat="43.2309572" lon="12.1328568"><ele>724.6666666666666</ele><time>2026-04-19T06:58:31.247Z</time></trkpt><trkpt lat="43.2309891" lon="12.1327433"><ele>724.5</ele><time>2026-04-19T06:58:32.236Z</time></trkpt><trkpt lat="43.2310266" lon="12.1326459"><ele>724.3333333333334</ele><time>2026-04-19T06:58:33.238Z</time></trkpt><trkpt lat="43.2310618" lon="12.1325587"><ele>724.1666666666667</ele><time>2026-04-19T06:58:34.245Z</time></trkpt><trkpt lat="43.2310944" lon="12.1324657"><ele>724.0</ele><time>2026-04-19T06:58:35.234Z</time></trkpt><trkpt lat="43.2311282" lon="12.1323705"><ele>723.3333333333334</ele><time>2026-04-19T06:58:36.245Z</time></trkpt><trkpt lat="43.231168" lon="12.1322766"><ele>722.6666666666667</ele><time>2026-04-19T06:58:37.241Z</time></trkpt><trkpt lat="43.2312106" lon="12.1321792"><ele>722.0</ele><time>2026-04-19T06:58:38.238Z</time></trkpt><trkpt lat="43.2312404" lon="12.1320728"><ele>721.3333333333334</ele><time>2026-04-19T06:58:39.251Z</time></trkpt><trkpt lat="43.2312479" lon="12.1319682"><ele>720.6666666666666</ele><time>2026-04-19T06:58:40.241Z</time></trkpt><trkpt lat="43.2312408" lon="12.1318653"><ele>720.0</ele><time>2026-04-19T06:58:41.241Z</time></trkpt><trkpt lat="43.2312235" lon="12.13178"><ele>720.0</ele><time>2026-04-19T06:58:43.239Z</time></trkpt><trkpt lat="43.2312883" lon="12.1317283"><ele>720.0</ele><time>2026-04-19T07:04:06.276Z</time></trkpt><trkpt lat="43.2313544" lon="12.1317004"><ele>720.0</ele><time>2026-04-19T07:04:07.283Z</time></trkpt><trkpt lat="43.2314384" lon="12.1316705"><ele>720.0</ele><time>2026-04-19T07:04:08.251Z</time></trkpt><trkpt lat="43.2315326" lon="12.1316399"><ele>720.0</ele><time>2026-04-19T07:04:09.281Z</time></trkpt><trkpt lat="43.2316291" lon="12.1316115"><ele>720.0</ele><time>2026-04-19T07:04:10.249Z</time></trkpt><trkpt lat="43.231733" lon="12.1315691"><ele>723.0</ele><time>2026-04-19T07:04:11.26Z</time></trkpt><trkpt lat="43.2318213" lon="12.131513"><ele>726.0</ele><time>2026-04-19T07:04:12.256Z</time></trkpt><trkpt lat="43.2318952" lon="12.1314372"><ele>729.0</ele><time>2026-04-19T07:04:13.257Z</time></trkpt><trkpt lat="43.231953" lon="12.1313531"><ele>732.0</ele><time>2026-04-19T07:04:14.258Z</time></trkpt><trkpt lat="43.2320014" lon="12.131265"><ele>735.0</ele><time>2026-04-19T07:04:15.257Z</time></trkpt><trkpt lat="43.2320538" lon="12.1311672"><ele>738.0</ele><time>2026-04-19T07:04:16.258Z</time></trkpt><trkpt lat="43.2321012" lon="12.1310674"><ele>738.0</ele><time>2026-04-19T07:04:17.264Z</time></trkpt><trkpt lat="43.2321341" lon="12.1309522"><ele>738.0</ele><time>2026-04-19T07:04:18.25Z</time></trkpt><trkpt lat="43.2321455" lon="12.1308348"><ele>738.0</ele><time>2026-04-19T07:04:19.265Z</time></trkpt><trkpt lat="43.2321366" lon="12.130734"><ele>738.0</ele><time>2026-04-19T07:04:20.257Z</time></trkpt><trkpt lat="43.2321218" lon="12.1306487"><ele>738.0</ele><time>2026-04-19T07:04:21.262Z</time></trkpt><trkpt lat="43.232084" lon="12.1305177"><ele>738.0</ele><time>2026-04-19T07:04:23.244Z</time></trkpt><trkpt lat="43.2320403" lon="12.1304395"><ele>738.5</ele><time>2026-04-19T07:04:29.278Z</time></trkpt><trkpt lat="43.232041" lon="12.1302995"><ele>739.0</ele><time>2026-04-19T07:04:31.269Z</time></trkpt><trkpt lat="43.2321034" lon="12.1301188"><ele>739.5</ele><time>2026-04-19T07:04:33.264Z</time></trkpt><trkpt lat="43.232165" lon="12.1299993"><ele>740.0</ele><time>2026-04-19T07:04:34.261Z</time></trkpt><trkpt lat="43.2322324" lon="12.1298858"><ele>741.4</ele><time>2026-04-19T07:04:35.259Z</time></trkpt><trkpt lat="43.2323054" lon="12.1297816"><ele>742.8</ele><time>2026-04-19T07:04:36.263Z</time></trkpt><trkpt lat="43.2323831" lon="12.1296802"><ele>744.2</ele><time>2026-04-19T07:04:37.26Z</time></trkpt><trkpt lat="43.232461" lon="12.1295684"><ele>745.6</ele><time>2026-04-19T07:04:38.26Z</time></trkpt><trkpt lat="43.2325334" lon="12.1294444"><ele>747.0</ele><time>2026-04-19T07:04:39.26Z</time></trkpt><trkpt lat="43.2325979" lon="12.1293296"><ele>747.0</ele><time>2026-04-19T07:04:40.284Z</time></trkpt><trkpt lat="43.2326465" lon="12.1292361"><ele>747.0</ele><time>2026-04-19T07:04:41.263Z</time></trkpt><trkpt lat="43.2326896" lon="12.1291534"><ele>747.0</ele><time>2026-04-19T07:04:42.263Z</time></trkpt><trkpt lat="43.2327366" lon="12.1290881"><ele>747.0</ele><time>2026-04-19T07:04:43.267Z</time></trkpt><trkpt lat="43.2327976" lon="12.1290556"><ele>747.0</ele><time>2026-04-19T07:04:44.256Z</time></trkpt><trkpt lat="43.2328709" lon="12.1290797"><ele>747.0</ele><time>2026-04-19T07:04:45.26Z</time></trkpt><trkpt lat="43.2329416" lon="12.1291494"><ele>747.0</ele><time>2026-04-19T07:04:46.255Z</time></trkpt><trkpt lat="43.2330039" lon="12.1292261"><ele>747.0</ele><time>2026-04-19T07:04:47.258Z</time></trkpt><trkpt lat="43.2330664" lon="12.1292922"><ele>747.0</ele><time>2026-04-19T07:04:48.255Z</time></trkpt><trkpt lat="43.2331422" lon="12.1293415"><ele>747.0</ele><time>2026-04-19T07:04:49.259Z</time></trkpt><trkpt lat="43.2332369" lon="12.1293683"><ele>747.0</ele><time>2026-04-19T07:04:50.249Z</time></trkpt><trkpt lat="43.2333386" lon="12.1293853"><ele>747.0</ele><time>2026-04-19T07:04:51.259Z</time></trkpt><trkpt lat="43.2334336" lon="12.1294027"><ele>750.6</ele><time>2026-04-19T07:04:52.26Z</time></trkpt><trkpt lat="43.2335298" lon="12.1294273"><ele>754.2</ele><time>2026-04-19T07:04:53.252Z</time></trkpt><trkpt lat="43.2336261" lon="12.1294608"><ele>757.8</ele><time>2026-04-19T07:04:54.257Z</time></trkpt><trkpt lat="43.233717" lon="12.1294962"><ele>761.4</ele><time>2026-04-19T07:04:55.252Z</time></trkpt><trkpt lat="43.2338026" lon="12.1295173"><ele>765.0</ele><time>2026-04-19T07:04:56.261Z</time></trkpt><trkpt lat="43.2338763" lon="12.1295041"><ele>765.0</ele><time>2026-04-19T07:04:57.249Z</time></trkpt><trkpt lat="43.2339421" lon="12.1294648"><ele>765.0</ele><time>2026-04-19T07:04:58.251Z</time></trkpt><trkpt lat="43.2339951" lon="12.1293984"><ele>765.0</ele><time>2026-04-19T07:04:59.249Z</time></trkpt><trkpt lat="43.2340268" lon="12.1293042"><ele>765.0</ele><time>2026-04-19T07:05:00.256Z</time></trkpt><trkpt lat="43.234033" lon="12.1291858"><ele>765.0</ele><time>2026-04-19T07:05:01.252Z</time></trkpt><trkpt lat="43.2340263" lon="12.1290487"><ele>765.0</ele><time>2026-04-19T07:05:02.253Z</time></trkpt><trkpt lat="43.2340232" lon="12.1288988"><ele>766.6</ele><time>2026-04-19T07:05:03.253Z</time></trkpt><trkpt lat="43.2340176" lon="12.128752"><ele>768.2</ele><time>2026-04-19T07:05:04.253Z</time></trkpt><trkpt lat="43.2340051" lon="12.128619"><ele>769.8</ele><time>2026-04-19T07:05:05.25Z</time></trkpt><trkpt lat="43.2339807" lon="12.1284891"><ele>771.4</ele><time>2026-04-19T07:05:06.257Z</time></trkpt><trkpt lat="43.233927" lon="12.1283705"><ele>773.0</ele><time>2026-04-19T07:05:07.253Z</time></trkpt><trkpt lat="43.2338708" lon="12.1282628"><ele>774.1666666666667</ele><time>2026-04-19T07:05:08.249Z</time></trkpt><trkpt lat="43.2338336" lon="12.1281619"><ele>775.3333333333334</ele><time>2026-04-19T07:05:09.256Z</time></trkpt><trkpt lat="43.2338245" lon="12.1280651"><ele>776.5</ele><time>2026-04-19T07:05:10.254Z</time></trkpt><trkpt lat="43.2338405" lon="12.1279526"><ele>777.6666666666667</ele><time>2026-04-19T07:05:11.267Z</time></trkpt><trkpt lat="43.2338789" lon="12.1278338"><ele>778.8333333333334</ele><time>2026-04-19T07:05:12.253Z</time></trkpt><trkpt lat="43.2339251" lon="12.127706"><ele>780.0</ele><time>2026-04-19T07:05:13.245Z</time></trkpt><trkpt lat="43.2339763" lon="12.127568"><ele>781.0</ele><time>2026-04-19T07:05:14.25Z</time></trkpt><trkpt lat="43.2340274" lon="12.1274134"><ele>782.0</ele><time>2026-04-19T07:05:15.248Z</time></trkpt><trkpt lat="43.2340762" lon="12.1272527"><ele>783.0</ele><time>2026-04-19T07:05:16.251Z</time></trkpt><trkpt lat="43.2341228" lon="12.127088"><ele>784.0</ele><time>2026-04-19T07:05:17.25Z</time></trkpt><trkpt lat="43.2341738" lon="12.1269211"><ele>785.4000000000001</ele><time>2026-04-19T07:05:18.252Z</time></trkpt><trkpt lat="43.2342242" lon="12.126763"><ele>786.8</ele><time>2026-04-19T07:05:19.252Z</time></trkpt><trkpt lat="43.2342736" lon="12.1266242"><ele>788.2</ele><time>2026-04-19T07:05:20.247Z</time></trkpt><trkpt lat="43.2343243" lon="12.1265158"><ele>789.5999999999999</ele><time>2026-04-19T07:05:21.256Z</time></trkpt><trkpt lat="43.2343683" lon="12.1264425"><ele>791.0</ele><time>2026-04-19T07:05:22.254Z</time></trkpt><trkpt lat="43.2344003" lon="12.1263602"><ele>791.0000000000001</ele><time>2026-04-19T07:05:23.255Z</time></trkpt><trkpt lat="43.2344264" lon="12.1262693"><ele>791.0</ele><time>2026-04-19T07:05:24.255Z</time></trkpt><trkpt lat="43.2344525" lon="12.1261698"><ele>791.0</ele><time>2026-04-19T07:05:25.253Z</time></trkpt><trkpt lat="43.2344765" lon="12.126058"><ele>791.0</ele><time>2026-04-19T07:05:26.254Z</time></trkpt><trkpt lat="43.2345088" lon="12.1259316"><ele>791.0000000000001</ele><time>2026-04-19T07:05:27.254Z</time></trkpt><trkpt lat="43.234548" lon="12.1257935"><ele>791.0</ele><time>2026-04-19T07:05:28.255Z</time></trkpt><trkpt lat="43.2345915" lon="12.1256557"><ele>791.1999999999999</ele><time>2026-04-19T07:05:29.255Z</time></trkpt><trkpt lat="43.2346381" lon="12.125523"><ele>791.4</ele><time>2026-04-19T07:05:30.257Z</time></trkpt><trkpt lat="43.234685" lon="12.1253977"><ele>791.6</ele><time>2026-04-19T07:05:31.254Z</time></trkpt><trkpt lat="43.234731" lon="12.125275"><ele>791.8</ele><time>2026-04-19T07:05:32.257Z</time></trkpt><trkpt lat="43.2347821" lon="12.125158"><ele>792.0</ele><time>2026-04-19T07:05:33.254Z</time></trkpt><trkpt lat="43.2348375" lon="12.1250486"><ele>792.0</ele><time>2026-04-19T07:05:34.255Z</time></trkpt><trkpt lat="43.2348894" lon="12.1249469"><ele>792.0</ele><time>2026-04-19T07:05:35.257Z</time></trkpt><trkpt lat="43.2349356" lon="12.1248476"><ele>792.0</ele><time>2026-04-19T07:05:36.257Z</time></trkpt><trkpt lat="43.2349851" lon="12.124754"><ele>792.0</ele><time>2026-04-19T07:05:37.261Z</time></trkpt><trkpt lat="43.2350365" lon="12.1246538"><ele>792.0</ele><time>2026-04-19T07:05:38.256Z</time></trkpt><trkpt lat="43.2350871" lon="12.1245412"><ele>792.0</ele><time>2026-04-19T07:05:39.252Z</time></trkpt><trkpt lat="43.235131" lon="12.1244081"><ele>793.8</ele><time>2026-04-19T07:05:40.257Z</time></trkpt><trkpt lat="43.2351695" lon="12.1242626"><ele>795.6</ele><time>2026-04-19T07:05:41.255Z</time></trkpt><trkpt lat="43.2352068" lon="12.12412"><ele>797.4</ele><time>2026-04-19T07:05:42.271Z</time></trkpt><trkpt lat="43.2352411" lon="12.1239865"><ele>799.1999999999999</ele><time>2026-04-19T07:05:43.255Z</time></trkpt><trkpt lat="43.2352698" lon="12.1238545"><ele>801.0</ele><time>2026-04-19T07:05:44.253Z</time></trkpt><trkpt lat="43.235289" lon="12.1237184"><ele>800.5999999999999</ele><time>2026-04-19T07:05:45.252Z</time></trkpt><trkpt lat="43.2353042" lon="12.1235858"><ele>800.2</ele><time>2026-04-19T07:05:46.253Z</time></trkpt><trkpt lat="43.2353267" lon="12.123456"><ele>799.8</ele><time>2026-04-19T07:05:47.254Z</time></trkpt><trkpt lat="43.2353638" lon="12.1233228"><ele>799.4000000000001</ele><time>2026-04-19T07:05:48.253Z</time></trkpt><trkpt lat="43.23541" lon="12.1231926"><ele>799.0</ele><time>2026-04-19T07:05:49.254Z</time></trkpt><trkpt lat="43.2354605" lon="12.1230695"><ele>799.0</ele><time>2026-04-19T07:05:50.252Z</time></trkpt><trkpt lat="43.23551" lon="12.1229578"><ele>799.0</ele><time>2026-04-19T07:05:51.255Z</time></trkpt><trkpt lat="43.2355602" lon="12.1228568"><ele>799.0</ele><time>2026-04-19T07:05:52.256Z</time></trkpt><trkpt lat="43.2356087" lon="12.1227563"><ele>799.0</ele><time>2026-04-19T07:05:53.254Z</time></trkpt><trkpt lat="43.2356545" lon="12.1226527"><ele>799.0</ele><time>2026-04-19T07:05:54.252Z</time></trkpt><trkpt lat="43.2357029" lon="12.1225467"><ele>796.4000000000001</ele><time>2026-04-19T07:05:55.252Z</time></trkpt><trkpt lat="43.2357557" lon="12.1224374"><ele>793.8</ele><time>2026-04-19T07:05:56.248Z</time></trkpt><trkpt lat="43.2358151" lon="12.122322"><ele>791.2</ele><time>2026-04-19T07:05:57.252Z</time></trkpt><trkpt lat="43.2358795" lon="12.122206"><ele>788.5999999999999</ele><time>2026-04-19T07:05:58.247Z</time></trkpt><trkpt lat="43.2359435" lon="12.1220931"><ele>786.0</ele><time>2026-04-19T07:05:59.25Z</time></trkpt><trkpt lat="43.23601" lon="12.1219759"><ele>786.0</ele><time>2026-04-19T07:06:00.244Z</time></trkpt><trkpt lat="43.2360865" lon="12.1218612"><ele>786.0</ele><time>2026-04-19T07:06:01.244Z</time></trkpt><trkpt lat="43.2361657" lon="12.1217465"><ele>786.0</ele><time>2026-04-19T07:06:02.247Z</time></trkpt><trkpt lat="43.2362509" lon="12.1216321"><ele>786.0</ele><time>2026-04-19T07:06:03.247Z</time></trkpt><trkpt lat="43.2363427" lon="12.1215128"><ele>784.5999999999999</ele><time>2026-04-19T07:06:04.248Z</time></trkpt><trkpt lat="43.2364342" lon="12.1213982"><ele>783.2</ele><time>2026-04-19T07:06:05.252Z</time></trkpt><trkpt lat="43.2365222" lon="12.1212913"><ele>781.8</ele><time>2026-04-19T07:06:06.254Z</time></trkpt><trkpt lat="43.2366017" lon="12.1211941"><ele>780.4000000000001</ele><time>2026-04-19T07:06:07.253Z</time></trkpt><trkpt lat="43.2366681" lon="12.1210963"><ele>779.0</ele><time>2026-04-19T07:06:08.256Z</time></trkpt><trkpt lat="43.2367299" lon="12.1209988"><ele>776.6</ele><time>2026-04-19T07:06:09.258Z</time></trkpt><trkpt lat="43.2367959" lon="12.1209038"><ele>774.2</ele><time>2026-04-19T07:06:10.258Z</time></trkpt><trkpt lat="43.2368638" lon="12.1208081"><ele>771.8000000000001</ele><time>2026-04-19T07:06:11.255Z</time></trkpt><trkpt lat="43.2369296" lon="12.1207147"><ele>769.4000000000001</ele><time>2026-04-19T07:06:12.255Z</time></trkpt><trkpt lat="43.2369955" lon="12.1206251"><ele>767.0</ele><time>2026-04-19T07:06:13.273Z</time></trkpt><trkpt lat="43.2370577" lon="12.1205461"><ele>765.5</ele><time>2026-04-19T07:06:14.256Z</time></trkpt><trkpt lat="43.2371156" lon="12.1204697"><ele>764.0</ele><time>2026-04-19T07:06:15.253Z</time></trkpt><trkpt lat="43.2371707" lon="12.1203986"><ele>762.5</ele><time>2026-04-19T07:06:16.253Z</time></trkpt><trkpt lat="43.2372322" lon="12.1203326"><ele>761.0</ele><time>2026-04-19T07:06:17.251Z</time></trkpt><trkpt lat="43.2372972" lon="12.1202678"><ele>759.5</ele><time>2026-04-19T07:06:18.251Z</time></trkpt><trkpt lat="43.2373645" lon="12.120195"><ele>758.0</ele><time>2026-04-19T07:06:19.254Z</time></trkpt><trkpt lat="43.237428" lon="12.1201163"><ele>757.6666666666666</ele><time>2026-04-19T07:06:20.253Z</time></trkpt><trkpt lat="43.2374824" lon="12.1200302"><ele>757.3333333333333</ele><time>2026-04-19T07:06:21.254Z</time></trkpt><trkpt lat="43.2375178" lon="12.1199467"><ele>757.0</ele><time>2026-04-19T07:06:22.254Z</time></trkpt><trkpt lat="43.237565" lon="12.1198324"><ele>756.6666666666666</ele><time>2026-04-19T07:06:24.252Z</time></trkpt><trkpt lat="43.2375321" lon="12.1197504"><ele>756.3333333333334</ele><time>2026-04-19T07:06:27.264Z</time></trkpt><trkpt lat="43.2374447" lon="12.1196874"><ele>756.0</ele><time>2026-04-19T07:06:29.259Z</time></trkpt><trkpt lat="43.2373887" lon="12.1196432"><ele>756.0</ele><time>2026-04-19T07:06:30.249Z</time></trkpt><trkpt lat="43.237329" lon="12.1195983"><ele>756.0</ele><time>2026-04-19T07:06:31.249Z</time></trkpt><trkpt lat="43.2372715" lon="12.1195459"><ele>756.0</ele><time>2026-04-19T07:06:32.248Z</time></trkpt><trkpt lat="43.2372211" lon="12.1194933"><ele>756.0</ele><time>2026-04-19T07:06:33.248Z</time></trkpt><trkpt lat="43.2371397" lon="12.119384"><ele>756.0</ele><time>2026-04-19T07:06:35.251Z</time></trkpt><trkpt lat="43.2370655" lon="12.1192797"><ele>756.0</ele><time>2026-04-19T07:06:37.25Z</time></trkpt><trkpt lat="43.2369767" lon="12.1191802"><ele>754.1999999999999</ele><time>2026-04-19T07:06:39.249Z</time></trkpt><trkpt lat="43.2369267" lon="12.1191274"><ele>752.4</ele><time>2026-04-19T07:06:40.249Z</time></trkpt><trkpt lat="43.2368309" lon="12.119029"><ele>750.6</ele><time>2026-04-19T07:06:42.247Z</time></trkpt><trkpt lat="43.2367556" lon="12.1189221"><ele>748.8</ele><time>2026-04-19T07:06:44.266Z</time></trkpt><trkpt lat="43.2367017" lon="12.1187847"><ele>747.0</ele><time>2026-04-19T07:06:46.249Z</time></trkpt><trkpt lat="43.2366679" lon="12.118635"><ele>745.4000000000001</ele><time>2026-04-19T07:06:48.247Z</time></trkpt><trkpt lat="43.2366327" lon="12.1184897"><ele>743.8000000000001</ele><time>2026-04-19T07:06:50.245Z</time></trkpt><trkpt lat="43.2365924" lon="12.1183383"><ele>742.2</ele><time>2026-04-19T07:06:52.249Z</time></trkpt><trkpt lat="43.2365947" lon="12.1181746"><ele>740.6</ele><time>2026-04-19T07:06:54.249Z</time></trkpt><trkpt lat="43.2366171" lon="12.1180911"><ele>739.0</ele><time>2026-04-19T07:06:55.248Z</time></trkpt><trkpt lat="43.2366477" lon="12.1180155"><ele>737.6</ele><time>2026-04-19T07:06:56.248Z</time></trkpt><trkpt lat="43.2367307" lon="12.117901"><ele>736.2</ele><time>2026-04-19T07:06:58.261Z</time></trkpt><trkpt lat="43.2368123" lon="12.1178204"><ele>734.8000000000001</ele><time>2026-04-19T07:07:00.259Z</time></trkpt><trkpt lat="43.236846" lon="12.1177035"><ele>733.4000000000001</ele><time>2026-04-19T07:07:02.254Z</time></trkpt><trkpt lat="43.2368409" lon="12.1175601"><ele>732.0</ele><time>2026-04-19T07:07:04.244Z</time></trkpt><trkpt lat="43.236842" lon="12.1174586"><ele>731.5</ele><time>2026-04-19T07:07:05.245Z</time></trkpt><trkpt lat="43.236833" lon="12.1173558"><ele>731.0</ele><time>2026-04-19T07:07:06.243Z</time></trkpt><trkpt lat="43.2368161" lon="12.1172691"><ele>730.5</ele><time>2026-04-19T07:07:07.247Z</time></trkpt><trkpt lat="43.2367897" lon="12.1171876"><ele>730.0</ele><time>2026-04-19T07:07:08.248Z</time></trkpt><trkpt lat="43.2367492" lon="12.1170248"><ele>729.5</ele><time>2026-04-19T07:07:10.248Z</time></trkpt><trkpt lat="43.2367384" lon="12.116931"><ele>729.0</ele><time>2026-04-19T07:07:11.247Z</time></trkpt><trkpt lat="43.2367269" lon="12.1168226"><ele>729.0</ele><time>2026-04-19T07:07:12.247Z</time></trkpt><trkpt lat="43.2367108" lon="12.1166966"><ele>729.0</ele><time>2026-04-19T07:07:13.249Z</time></trkpt><trkpt lat="43.2366927" lon="12.1165654"><ele>729.0</ele><time>2026-04-19T07:07:14.251Z</time></trkpt><trkpt lat="43.2366713" lon="12.1164417"><ele>729.0</ele><time>2026-04-19T07:07:15.264Z</time></trkpt><trkpt lat="43.2366475" lon="12.116324"><ele>729.0</ele><time>2026-04-19T07:07:16.249Z</time></trkpt><trkpt lat="43.236625" lon="12.1162193"><ele>728.1428571428572</ele><time>2026-04-19T07:07:17.251Z</time></trkpt><trkpt lat="43.2366038" lon="12.1161204"><ele>727.2857142857142</ele><time>2026-04-19T07:07:18.252Z</time></trkpt><trkpt lat="43.2365855" lon="12.1160217"><ele>726.4285714285714</ele><time>2026-04-19T07:07:19.255Z</time></trkpt><trkpt lat="43.2365734" lon="12.115927"><ele>725.5714285714287</ele><time>2026-04-19T07:07:20.254Z</time></trkpt><trkpt lat="43.2365735" lon="12.1158363"><ele>724.7142857142858</ele><time>2026-04-19T07:07:21.255Z</time></trkpt><trkpt lat="43.236583" lon="12.1157464"><ele>723.8571428571429</ele><time>2026-04-19T07:07:22.254Z</time></trkpt><trkpt lat="43.236595" lon="12.1156516"><ele>723.0</ele><time>2026-04-19T07:07:23.253Z</time></trkpt><trkpt lat="43.2366075" lon="12.1155586"><ele>721.1428571428572</ele><time>2026-04-19T07:07:24.254Z</time></trkpt><trkpt lat="43.2366137" lon="12.1154666"><ele>719.2857142857143</ele><time>2026-04-19T07:07:25.255Z</time></trkpt><trkpt lat="43.2366228" lon="12.1153698"><ele>717.4285714285714</ele><time>2026-04-19T07:07:26.254Z</time></trkpt><trkpt lat="43.2366325" lon="12.1152739"><ele>715.5714285714287</ele><time>2026-04-19T07:07:27.262Z</time></trkpt><trkpt lat="43.2366398" lon="12.1151815"><ele>713.7142857142858</ele><time>2026-04-19T07:07:28.251Z</time></trkpt><trkpt lat="43.2366406" lon="12.1150833"><ele>711.8571428571429</ele><time>2026-04-19T07:07:29.256Z</time></trkpt><trkpt lat="43.2366317" lon="12.1149826"><ele>710.0</ele><time>2026-04-19T07:07:30.256Z</time></trkpt><trkpt lat="43.2366139" lon="12.1148833"><ele>708.1428571428571</ele><time>2026-04-19T07:07:31.255Z</time></trkpt><trkpt lat="43.2365927" lon="12.1147809"><ele>706.2857142857143</ele><time>2026-04-19T07:07:32.256Z</time></trkpt><trkpt lat="43.2365748" lon="12.114678"><ele>704.4285714285714</ele><time>2026-04-19T07:07:33.254Z</time></trkpt><trkpt lat="43.2365664" lon="12.1145742"><ele>702.5714285714286</ele><time>2026-04-19T07:07:34.254Z</time></trkpt><trkpt lat="43.2365741" lon="12.1144738"><ele>700.7142857142857</ele><time>2026-04-19T07:07:35.253Z</time></trkpt><trkpt lat="43.2365973" lon="12.1143751"><ele>698.8571428571429</ele><time>2026-04-19T07:07:36.25Z</time></trkpt><trkpt lat="43.2366295" lon="12.1142914"><ele>697.0</ele><time>2026-04-19T07:07:37.251Z</time></trkpt><trkpt lat="43.2366611" lon="12.1141659"><ele>696.0</ele><time>2026-04-19T07:07:39.249Z</time></trkpt><trkpt lat="43.2365883" lon="12.1140698"><ele>695.0</ele><time>2026-04-19T07:07:41.251Z</time></trkpt><trkpt lat="43.236521" lon="12.1140268"><ele>694.0</ele><time>2026-04-19T07:07:42.251Z</time></trkpt><trkpt lat="43.2364428" lon="12.1139871"><ele>693.0</ele><time>2026-04-19T07:07:43.252Z</time></trkpt><trkpt lat="43.2363613" lon="12.113947"><ele>692.0</ele><time>2026-04-19T07:07:44.25Z</time></trkpt><trkpt lat="43.2362784" lon="12.1139112"><ele>691.0</ele><time>2026-04-19T07:07:45.25Z</time></trkpt><trkpt lat="43.2361992" lon="12.1138742"><ele>688.3333333333334</ele><time>2026-04-19T07:07:46.281Z</time></trkpt><trkpt lat="43.2361277" lon="12.1138583"><ele>685.6666666666667</ele><time>2026-04-19T07:07:47.255Z</time></trkpt><trkpt lat="43.2360192" lon="12.1139308"><ele>683.0</ele><time>2026-04-19T07:07:49.249Z</time></trkpt><trkpt lat="43.2359841" lon="12.1140109"><ele>680.3333333333334</ele><time>2026-04-19T07:07:50.247Z</time></trkpt><trkpt lat="43.2359531" lon="12.1141154"><ele>677.6666666666666</ele><time>2026-04-19T07:07:51.249Z</time></trkpt><trkpt lat="43.2359181" lon="12.114244"><ele>675.0</ele><time>2026-04-19T07:07:52.248Z</time></trkpt><trkpt lat="43.2358866" lon="12.1143777"><ele>675.0</ele><time>2026-04-19T07:07:53.245Z</time></trkpt><trkpt lat="43.2358527" lon="12.1144958"><ele>675.0</ele><time>2026-04-19T07:07:54.24Z</time></trkpt><trkpt lat="43.2358236" lon="12.1146017"><ele>675.0</ele><time>2026-04-19T07:07:55.243Z</time></trkpt><trkpt lat="43.235793" lon="12.1146851"><ele>675.0</ele><time>2026-04-19T07:07:56.242Z</time></trkpt><trkpt lat="43.235718" lon="12.1147435"><ele>675.0</ele><time>2026-04-19T07:07:58.238Z</time></trkpt><trkpt lat="43.2356465" lon="12.1146663"><ele>675.0</ele><time>2026-04-19T07:08:00.26Z</time></trkpt><trkpt lat="43.2356476" lon="12.114487"><ele>675.0</ele><time>2026-04-19T07:08:02.24Z</time></trkpt><trkpt lat="43.2356697" lon="12.114359"><ele>675.0</ele><time>2026-04-19T07:08:03.239Z</time></trkpt><trkpt lat="43.2356881" lon="12.1142185"><ele>675.0</ele><time>2026-04-19T07:08:04.238Z</time></trkpt><trkpt lat="43.2357075" lon="12.1140662"><ele>675.0</ele><time>2026-04-19T07:08:05.24Z</time></trkpt><trkpt lat="43.2357206" lon="12.1139208"><ele>675.0</ele><time>2026-04-19T07:08:06.242Z</time></trkpt><trkpt lat="43.2357342" lon="12.1137872"><ele>674.6</ele><time>2026-04-19T07:08:07.243Z</time></trkpt><trkpt lat="43.2357429" lon="12.1136673"><ele>674.2</ele><time>2026-04-19T07:08:08.24Z</time></trkpt><trkpt lat="43.2357435" lon="12.1135503"><ele>673.8</ele><time>2026-04-19T07:08:09.238Z</time></trkpt><trkpt lat="43.2357272" lon="12.1134389"><ele>673.4</ele><time>2026-04-19T07:08:10.241Z</time></trkpt><trkpt lat="43.2356806" lon="12.1133255"><ele>673.0</ele><time>2026-04-19T07:08:11.238Z</time></trkpt><trkpt lat="43.2356187" lon="12.1132109"><ele>667.0</ele><time>2026-04-19T07:08:12.235Z</time></trkpt><trkpt lat="43.2355425" lon="12.1130971"><ele>661.0</ele><time>2026-04-19T07:08:13.243Z</time></trkpt><trkpt lat="43.2354705" lon="12.1129814"><ele>655.0</ele><time>2026-04-19T07:08:14.245Z</time></trkpt><trkpt lat="43.2354012" lon="12.1128652"><ele>649.0</ele><time>2026-04-19T07:08:15.246Z</time></trkpt><trkpt lat="43.2353426" lon="12.112748"><ele>643.0</ele><time>2026-04-19T07:08:16.248Z</time></trkpt><trkpt lat="43.2352814" lon="12.1126392"><ele>643.0</ele><time>2026-04-19T07:08:17.262Z</time></trkpt><trkpt lat="43.2352218" lon="12.1125277"><ele>643.0</ele><time>2026-04-19T07:08:18.244Z</time></trkpt><trkpt lat="43.2351615" lon="12.1124192"><ele>643.0</ele><time>2026-04-19T07:08:19.249Z</time></trkpt><trkpt lat="43.2351039" lon="12.1123118"><ele>643.0</ele><time>2026-04-19T07:08:20.25Z</time></trkpt><trkpt lat="43.2350581" lon="12.1122062"><ele>643.0</ele><time>2026-04-19T07:08:21.249Z</time></trkpt><trkpt lat="43.2350309" lon="12.1120975"><ele>643.0</ele><time>2026-04-19T07:08:22.247Z</time></trkpt><trkpt lat="43.2350247" lon="12.111976"><ele>643.0</ele><time>2026-04-19T07:08:23.249Z</time></trkpt><trkpt lat="43.2350396" lon="12.1118552"><ele>643.0</ele><time>2026-04-19T07:08:24.25Z</time></trkpt><trkpt lat="43.235069" lon="12.111737"><ele>643.0</ele><time>2026-04-19T07:08:25.247Z</time></trkpt><trkpt lat="43.2351167" lon="12.1116239"><ele>643.0</ele><time>2026-04-19T07:08:26.254Z</time></trkpt><trkpt lat="43.2351803" lon="12.1115275"><ele>641.0</ele><time>2026-04-19T07:08:27.249Z</time></trkpt><trkpt lat="43.2352534" lon="12.1114433"><ele>639.0</ele><time>2026-04-19T07:08:28.25Z</time></trkpt><trkpt lat="43.2353356" lon="12.1113845"><ele>637.0</ele><time>2026-04-19T07:08:29.25Z</time></trkpt><trkpt lat="43.2354304" lon="12.1113716"><ele>635.0</ele><time>2026-04-19T07:08:30.247Z</time></trkpt><trkpt lat="43.2355257" lon="12.1113947"><ele>633.0</ele><time>2026-04-19T07:08:31.246Z</time></trkpt><trkpt lat="43.2356104" lon="12.1114201"><ele>633.0</ele><time>2026-04-19T07:08:32.248Z</time></trkpt><trkpt lat="43.2356812" lon="12.11143"><ele>633.0</ele><time>2026-04-19T07:08:33.245Z</time></trkpt><trkpt lat="43.2357772" lon="12.1113887"><ele>633.0</ele><time>2026-04-19T07:08:35.247Z</time></trkpt><trkpt lat="43.2357142" lon="12.1112853"><ele>633.0</ele><time>2026-04-19T07:08:37.255Z</time></trkpt><trkpt lat="43.2356211" lon="12.1112186"><ele>633.0</ele><time>2026-04-19T07:08:38.238Z</time></trkpt><trkpt lat="43.235506" lon="12.1111241"><ele>633.0</ele><time>2026-04-19T07:08:39.24Z</time></trkpt><trkpt lat="43.2353856" lon="12.1110122"><ele>633.0</ele><time>2026-04-19T07:08:40.242Z</time></trkpt><trkpt lat="43.2352716" lon="12.1108954"><ele>633.0</ele><time>2026-04-19T07:08:41.242Z</time></trkpt><trkpt lat="43.2351553" lon="12.1107894"><ele>633.0</ele><time>2026-04-19T07:08:42.243Z</time></trkpt><trkpt lat="43.2350365" lon="12.1107008"><ele>629.5</ele><time>2026-04-19T07:08:43.247Z</time></trkpt><trkpt lat="43.2349043" lon="12.1106465"><ele>626.0</ele><time>2026-04-19T07:08:44.254Z</time></trkpt><trkpt lat="43.2347718" lon="12.1106199"><ele>622.5</ele><time>2026-04-19T07:08:45.252Z</time></trkpt><trkpt lat="43.2346449" lon="12.110599"><ele>619.0</ele><time>2026-04-19T07:08:46.257Z</time></trkpt><trkpt lat="43.2345268" lon="12.1105836"><ele>618.8</ele><time>2026-04-19T07:08:47.251Z</time></trkpt><trkpt lat="43.2344106" lon="12.1105653"><ele>618.5999999999999</ele><time>2026-04-19T07:08:48.267Z</time></trkpt><trkpt lat="43.2342977" lon="12.1105458"><ele>618.4</ele><time>2026-04-19T07:08:49.251Z</time></trkpt><trkpt lat="43.2341926" lon="12.1105291"><ele>618.1999999999999</ele><time>2026-04-19T07:08:50.25Z</time></trkpt><trkpt lat="43.2340935" lon="12.1104976"><ele>618.0</ele><time>2026-04-19T07:08:51.249Z</time></trkpt><trkpt lat="43.2340089" lon="12.1104466"><ele>614.4</ele><time>2026-04-19T07:08:52.255Z</time></trkpt><trkpt lat="43.233946" lon="12.1103715"><ele>610.8</ele><time>2026-04-19T07:08:53.254Z</time></trkpt><trkpt lat="43.2338993" lon="12.1102617"><ele>607.2</ele><time>2026-04-19T07:08:54.253Z</time></trkpt><trkpt lat="43.2338854" lon="12.1101026"><ele>603.6</ele><time>2026-04-19T07:08:55.252Z</time></trkpt><trkpt lat="43.233891" lon="12.1099289"><ele>600.0</ele><time>2026-04-19T07:08:56.252Z</time></trkpt><trkpt lat="43.2339065" lon="12.1097539"><ele>599.0</ele><time>2026-04-19T07:08:57.253Z</time></trkpt><trkpt lat="43.2339358" lon="12.1095805"><ele>598.0</ele><time>2026-04-19T07:08:58.248Z</time></trkpt><trkpt lat="43.2339674" lon="12.1094091"><ele>597.0</ele><time>2026-04-19T07:08:59.253Z</time></trkpt><trkpt lat="43.2340023" lon="12.1092472"><ele>596.0</ele><time>2026-04-19T07:09:00.253Z</time></trkpt><trkpt lat="43.2340431" lon="12.1090986"><ele>598.25</ele><time>2026-04-19T07:09:01.247Z</time></trkpt><trkpt lat="43.2340903" lon="12.1089498"><ele>600.5</ele><time>2026-04-19T07:09:02.239Z</time></trkpt><trkpt lat="43.234143" lon="12.1087968"><ele>602.75</ele><time>2026-04-19T07:09:03.255Z</time></trkpt><trkpt lat="43.2341897" lon="12.1086499"><ele>605.0</ele><time>2026-04-19T07:09:04.251Z</time></trkpt><trkpt lat="43.2342318" lon="12.1085043"><ele>605.0</ele><time>2026-04-19T07:09:05.25Z</time></trkpt><trkpt lat="43.2342698" lon="12.1083641"><ele>605.0</ele><time>2026-04-19T07:09:06.247Z</time></trkpt><trkpt lat="43.2342914" lon="12.1082232"><ele>605.0</ele><time>2026-04-19T07:09:07.248Z</time></trkpt><trkpt lat="43.2342999" lon="12.1080812"><ele>605.0</ele><time>2026-04-19T07:09:08.253Z</time></trkpt><trkpt lat="43.2342987" lon="12.1079476"><ele>605.0</ele><time>2026-04-19T07:09:09.252Z</time></trkpt><trkpt lat="43.2342981" lon="12.1078119"><ele>604.4</ele><time>2026-04-19T07:09:10.246Z</time></trkpt><trkpt lat="43.2343064" lon="12.1076665"><ele>603.8</ele><time>2026-04-19T07:09:11.245Z</time></trkpt><trkpt lat="43.234321" lon="12.1075287"><ele>603.2</ele><time>2026-04-19T07:09:12.253Z</time></trkpt><trkpt lat="43.2343429" lon="12.1074001"><ele>602.6</ele><time>2026-04-19T07:09:13.248Z</time></trkpt><trkpt lat="43.2343684" lon="12.1072833"><ele>602.0</ele><time>2026-04-19T07:09:14.25Z</time></trkpt><trkpt lat="43.2343974" lon="12.1071756"><ele>601.1666666666666</ele><time>2026-04-19T07:09:15.245Z</time></trkpt><trkpt lat="43.2344357" lon="12.1070772"><ele>600.3333333333333</ele><time>2026-04-19T07:09:16.247Z</time></trkpt><trkpt lat="43.2344844" lon="12.1069894"><ele>599.5</ele><time>2026-04-19T07:09:17.248Z</time></trkpt><trkpt lat="43.2345346" lon="12.1069164"><ele>598.6666666666666</ele><time>2026-04-19T07:09:18.252Z</time></trkpt><trkpt lat="43.2346088" lon="12.106814"><ele>597.8333333333334</ele><time>2026-04-19T07:09:20.254Z</time></trkpt><trkpt lat="43.2346227" lon="12.1067102"><ele>597.0</ele><time>2026-04-19T07:09:23.263Z</time></trkpt><trkpt lat="43.2345667" lon="12.1065902"><ele>596.4</ele><time>2026-04-19T07:09:25.261Z</time></trkpt><trkpt lat="43.2345216" lon="12.106507"><ele>595.8000000000001</ele><time>2026-04-19T07:09:26.255Z</time></trkpt><trkpt lat="43.2344798" lon="12.1064065"><ele>595.2</ele><time>2026-04-19T07:09:27.254Z</time></trkpt><trkpt lat="43.2344455" lon="12.1062894"><ele>594.6</ele><time>2026-04-19T07:09:28.251Z</time></trkpt><trkpt lat="43.2344295" lon="12.1061541"><ele>594.0</ele><time>2026-04-19T07:09:29.259Z</time></trkpt><trkpt lat="43.2344457" lon="12.1060018"><ele>594.0</ele><time>2026-04-19T07:09:30.249Z</time></trkpt><trkpt lat="43.2344742" lon="12.1058442"><ele>594.0</ele><time>2026-04-19T07:09:31.252Z</time></trkpt><trkpt lat="43.2345087" lon="12.1056848"><ele>594.0</ele><time>2026-04-19T07:09:32.251Z</time></trkpt><trkpt lat="43.2345425" lon="12.1055239"><ele>594.0</ele><time>2026-04-19T07:09:33.249Z</time></trkpt><trkpt lat="43.2345648" lon="12.105373"><ele>595.8</ele><time>2026-04-19T07:09:34.247Z</time></trkpt><trkpt lat="43.2345687" lon="12.105239"><ele>597.5999999999999</ele><time>2026-04-19T07:09:35.25Z</time></trkpt><trkpt lat="43.2345435" lon="12.1051222"><ele>599.4</ele><time>2026-04-19T07:09:36.25Z</time></trkpt><trkpt lat="43.2344852" lon="12.1050354"><ele>601.1999999999999</ele><time>2026-04-19T07:09:37.251Z</time></trkpt><trkpt lat="43.2343941" lon="12.104958"><ele>603.0</ele><time>2026-04-19T07:09:38.251Z</time></trkpt><trkpt lat="43.2342787" lon="12.1048893"><ele>601.5</ele><time>2026-04-19T07:09:39.245Z</time></trkpt><trkpt lat="43.2341455" lon="12.1048262"><ele>600.0</ele><time>2026-04-19T07:09:40.247Z</time></trkpt><trkpt lat="43.2340109" lon="12.1047682"><ele>598.5</ele><time>2026-04-19T07:09:41.249Z</time></trkpt><trkpt lat="43.2338828" lon="12.1047126"><ele>597.0</ele><time>2026-04-19T07:09:42.25Z</time></trkpt><trkpt lat="43.2337683" lon="12.1046417"><ele>597.0</ele><time>2026-04-19T07:09:43.248Z</time></trkpt><trkpt lat="43.2336679" lon="12.1045513"><ele>597.0</ele><time>2026-04-19T07:09:44.254Z</time></trkpt><trkpt lat="43.2335845" lon="12.1044309"><ele>597.0</ele><time>2026-04-19T07:09:45.249Z</time></trkpt><trkpt lat="43.2335196" lon="12.1042838"><ele>597.0</ele><time>2026-04-19T07:09:46.246Z</time></trkpt><trkpt lat="43.2334745" lon="12.1041284"><ele>597.25</ele><time>2026-04-19T07:09:47.243Z</time></trkpt><trkpt lat="43.233452" lon="12.1039709"><ele>597.5</ele><time>2026-04-19T07:09:48.245Z</time></trkpt><trkpt lat="43.2334484" lon="12.1037955"><ele>597.75</ele><time>2026-04-19T07:09:49.273Z</time></trkpt><trkpt lat="43.2334604" lon="12.10362"><ele>598.0</ele><time>2026-04-19T07:09:50.246Z</time></trkpt><trkpt lat="43.2334737" lon="12.1034464"><ele>598.0</ele><time>2026-04-19T07:09:51.247Z</time></trkpt><trkpt lat="43.2334617" lon="12.1032838"><ele>598.0</ele><time>2026-04-19T07:09:52.249Z</time></trkpt><trkpt lat="43.2334185" lon="12.1031471"><ele>598.0</ele><time>2026-04-19T07:09:53.245Z</time></trkpt><trkpt lat="43.2333498" lon="12.1030414"><ele>598.0</ele><time>2026-04-19T07:09:54.247Z</time></trkpt><trkpt lat="43.233271" lon="12.102964"><ele>598.0</ele><time>2026-04-19T07:09:55.249Z</time></trkpt><trkpt lat="43.2331928" lon="12.1028864"><ele>596.8</ele><time>2026-04-19T07:09:56.249Z</time></trkpt><trkpt lat="43.2331127" lon="12.1028008"><ele>595.5999999999999</ele><time>2026-04-19T07:09:57.256Z</time></trkpt><trkpt lat="43.2330294" lon="12.1027222"><ele>594.4000000000001</ele><time>2026-04-19T07:09:58.249Z</time></trkpt><trkpt lat="43.2329476" lon="12.1026543"><ele>593.2</ele><time>2026-04-19T07:09:59.259Z</time></trkpt><trkpt lat="43.2328716" lon="12.1025893"><ele>592.0</ele><time>2026-04-19T07:10:00.259Z</time></trkpt><trkpt lat="43.2328212" lon="12.1025248"><ele>591.8000000000001</ele><time>2026-04-19T07:10:01.257Z</time></trkpt><trkpt lat="43.2328212" lon="12.1023701"><ele>591.6</ele><time>2026-04-19T07:10:03.259Z</time></trkpt><trkpt lat="43.2328678" lon="12.1022882"><ele>591.4000000000001</ele><time>2026-04-19T07:10:04.253Z</time></trkpt><trkpt lat="43.2329301" lon="12.1022077"><ele>591.2</ele><time>2026-04-19T07:10:05.259Z</time></trkpt><trkpt lat="43.2330237" lon="12.10212"><ele>591.0</ele><time>2026-04-19T07:10:06.252Z</time></trkpt><trkpt lat="43.2331375" lon="12.1020277"><ele>594.5</ele><time>2026-04-19T07:10:07.249Z</time></trkpt><trkpt lat="43.2332597" lon="12.1019253"><ele>598.0</ele><time>2026-04-19T07:10:08.25Z</time></trkpt><trkpt lat="43.2333792" lon="12.1018202"><ele>601.5</ele><time>2026-04-19T07:10:09.251Z</time></trkpt><trkpt lat="43.2334845" lon="12.1017123"><ele>605.0</ele><time>2026-04-19T07:10:10.248Z</time></trkpt><trkpt lat="43.2335837" lon="12.1015961"><ele>604.5</ele><time>2026-04-19T07:10:11.249Z</time></trkpt><trkpt lat="43.2336735" lon="12.1014691"><ele>604.0</ele><time>2026-04-19T07:10:12.246Z</time></trkpt><trkpt lat="43.2337535" lon="12.1013358"><ele>603.5</ele><time>2026-04-19T07:10:13.246Z</time></trkpt><trkpt lat="43.2338261" lon="12.1012"><ele>603.0</ele><time>2026-04-19T07:10:14.246Z</time></trkpt><trkpt lat="43.2338865" lon="12.1010541"><ele>603.0</ele><time>2026-04-19T07:10:15.237Z</time></trkpt><trkpt lat="43.2339388" lon="12.1009032"><ele>603.0</ele><time>2026-04-19T07:10:16.242Z</time></trkpt><trkpt lat="43.2339936" lon="12.1007616"><ele>603.0</ele><time>2026-04-19T07:10:17.25Z</time></trkpt><trkpt lat="43.2340603" lon="12.1006333"><ele>603.0</ele><time>2026-04-19T07:10:18.24Z</time></trkpt><trkpt lat="43.234133" lon="12.1005136"><ele>606.25</ele><time>2026-04-19T07:10:19.242Z</time></trkpt><trkpt lat="43.2342135" lon="12.1004067"><ele>609.5</ele><time>2026-04-19T07:10:20.261Z</time></trkpt><trkpt lat="43.2343038" lon="12.1003109"><ele>612.75</ele><time>2026-04-19T07:10:21.243Z</time></trkpt><trkpt lat="43.2344032" lon="12.1002126"><ele>616.0</ele><time>2026-04-19T07:10:22.246Z</time></trkpt><trkpt lat="43.234498" lon="12.1001128"><ele>616.0</ele><time>2026-04-19T07:10:23.246Z</time></trkpt><trkpt lat="43.2345882" lon="12.100014"><ele>616.0</ele><time>2026-04-19T07:10:24.249Z</time></trkpt><trkpt lat="43.234679" lon="12.0999075"><ele>616.0</ele><time>2026-04-19T07:10:25.245Z</time></trkpt><trkpt lat="43.2347694" lon="12.0997882"><ele>616.0</ele><time>2026-04-19T07:10:26.246Z</time></trkpt><trkpt lat="43.2348576" lon="12.0996669"><ele>620.5</ele><time>2026-04-19T07:10:27.242Z</time></trkpt><trkpt lat="43.2349438" lon="12.0995425"><ele>625.0</ele><time>2026-04-19T07:10:28.244Z</time></trkpt><trkpt lat="43.2350283" lon="12.0994167"><ele>629.5</ele><time>2026-04-19T07:10:29.244Z</time></trkpt><trkpt lat="43.2351117" lon="12.0992992"><ele>634.0</ele><time>2026-04-19T07:10:30.241Z</time></trkpt><trkpt lat="43.2351917" lon="12.0991926"><ele>634.0</ele><time>2026-04-19T07:10:31.238Z</time></trkpt><trkpt lat="43.235266" lon="12.0990924"><ele>634.0</ele><time>2026-04-19T07:10:32.238Z</time></trkpt><trkpt lat="43.2353334" lon="12.0989927"><ele>634.0</ele><time>2026-04-19T07:10:33.231Z</time></trkpt><trkpt lat="43.2353884" lon="12.0988917"><ele>634.0</ele><time>2026-04-19T07:10:34.242Z</time></trkpt><trkpt lat="43.2354408" lon="12.0987976"><ele>634.0</ele><time>2026-04-19T07:10:35.244Z</time></trkpt><trkpt lat="43.2354959" lon="12.098714"><ele>633.6666666666667</ele><time>2026-04-19T07:10:36.244Z</time></trkpt><trkpt lat="43.2355549" lon="12.0986424"><ele>633.3333333333334</ele><time>2026-04-19T07:10:37.248Z</time></trkpt><trkpt lat="43.235623" lon="12.0985787"><ele>633.0</ele><time>2026-04-19T07:10:38.244Z</time></trkpt><trkpt lat="43.2357015" lon="12.0985182"><ele>632.6666666666666</ele><time>2026-04-19T07:10:39.249Z</time></trkpt><trkpt lat="43.2357875" lon="12.0984622"><ele>632.3333333333333</ele><time>2026-04-19T07:10:40.25Z</time></trkpt><trkpt lat="43.2358696" lon="12.0983982"><ele>632.0</ele><time>2026-04-19T07:10:41.254Z</time></trkpt><trkpt lat="43.2359487" lon="12.0983176"><ele>634.4000000000001</ele><time>2026-04-19T07:10:42.256Z</time></trkpt><trkpt lat="43.2360193" lon="12.0982297"><ele>636.8000000000001</ele><time>2026-04-19T07:10:43.253Z</time></trkpt><trkpt lat="43.2360871" lon="12.0981477"><ele>639.2</ele><time>2026-04-19T07:10:44.257Z</time></trkpt><trkpt lat="43.2361605" lon="12.098105"><ele>641.6</ele><time>2026-04-19T07:10:45.256Z</time></trkpt><trkpt lat="43.2362485" lon="12.0980999"><ele>644.0</ele><time>2026-04-19T07:10:46.256Z</time></trkpt><trkpt lat="43.2363468" lon="12.0980972"><ele>644.0</ele><time>2026-04-19T07:10:47.256Z</time></trkpt><trkpt lat="43.2364461" lon="12.0980818"><ele>644.0</ele><time>2026-04-19T07:10:48.252Z</time></trkpt><trkpt lat="43.2365427" lon="12.0980459"><ele>644.0</ele><time>2026-04-19T07:10:49.258Z</time></trkpt><trkpt lat="43.2366386" lon="12.0980095"><ele>644.0</ele><time>2026-04-19T07:10:50.258Z</time></trkpt><trkpt lat="43.2367367" lon="12.0979797"><ele>644.0</ele><time>2026-04-19T07:10:51.275Z</time></trkpt><trkpt lat="43.2368372" lon="12.0979835"><ele>646.4000000000001</ele><time>2026-04-19T07:10:52.258Z</time></trkpt><trkpt lat="43.2369447" lon="12.0980283"><ele>648.8</ele><time>2026-04-19T07:10:53.257Z</time></trkpt><trkpt lat="43.237047" lon="12.098076"><ele>651.2</ele><time>2026-04-19T07:10:54.257Z</time></trkpt><trkpt lat="43.2371414" lon="12.0981173"><ele>653.5999999999999</ele><time>2026-04-19T07:10:55.253Z</time></trkpt><trkpt lat="43.2372226" lon="12.0981485"><ele>656.0</ele><time>2026-04-19T07:10:56.249Z</time></trkpt><trkpt lat="43.2372889" lon="12.0981724"><ele>656.0</ele><time>2026-04-19T07:10:57.254Z</time></trkpt><trkpt lat="43.237359" lon="12.0981674"><ele>656.0</ele><time>2026-04-19T07:10:59.259Z</time></trkpt><trkpt lat="43.2373389" lon="12.0980704"><ele>656.0</ele><time>2026-04-19T07:11:02.268Z</time></trkpt><trkpt lat="43.2372823" lon="12.0979411"><ele>656.0</ele><time>2026-04-19T07:11:04.266Z</time></trkpt><trkpt lat="43.2372536" lon="12.0978444"><ele>656.0</ele><time>2026-04-19T07:11:05.258Z</time></trkpt><trkpt lat="43.2372293" lon="12.0977375"><ele>656.0</ele><time>2026-04-19T07:11:06.259Z</time></trkpt><trkpt lat="43.2372137" lon="12.0976267"><ele>656.0</ele><time>2026-04-19T07:11:07.258Z</time></trkpt><trkpt lat="43.2372056" lon="12.0975187"><ele>656.0</ele><time>2026-04-19T07:11:08.258Z</time></trkpt><trkpt lat="43.2372018" lon="12.0974246"><ele>656.0</ele><time>2026-04-19T07:11:09.268Z</time></trkpt><trkpt lat="43.2372003" lon="12.0972686"><ele>656.0</ele><time>2026-04-19T07:11:11.261Z</time></trkpt><trkpt lat="43.2371662" lon="12.0971237"><ele>656.0</ele><time>2026-04-19T07:11:13.264Z</time></trkpt><trkpt lat="43.237136" lon="12.0969711"><ele>656.2857142857142</ele><time>2026-04-19T07:11:15.263Z</time></trkpt><trkpt lat="43.2371369" lon="12.0968835"><ele>656.5714285714286</ele><time>2026-04-19T07:11:16.264Z</time></trkpt><trkpt lat="43.2371436" lon="12.0967923"><ele>656.8571428571429</ele><time>2026-04-19T07:11:17.266Z</time></trkpt><trkpt lat="43.2371549" lon="12.0966999"><ele>657.1428571428571</ele><time>2026-04-19T07:11:18.264Z</time></trkpt><trkpt lat="43.2371704" lon="12.0966061"><ele>657.4285714285714</ele><time>2026-04-19T07:11:19.265Z</time></trkpt><trkpt lat="43.2371945" lon="12.0965071"><ele>657.7142857142857</ele><time>2026-04-19T07:11:20.267Z</time></trkpt><trkpt lat="43.237226" lon="12.0964031"><ele>658.0</ele><time>2026-04-19T07:11:21.267Z</time></trkpt><trkpt lat="43.2372555" lon="12.0963037"><ele>658.1666666666667</ele><time>2026-04-19T07:11:22.281Z</time></trkpt><trkpt lat="43.2372799" lon="12.0962163"><ele>658.3333333333334</ele><time>2026-04-19T07:11:23.263Z</time></trkpt><trkpt lat="43.237291" lon="12.0960651"><ele>658.5</ele><time>2026-04-19T07:11:25.265Z</time></trkpt><trkpt lat="43.2372799" lon="12.0958869"><ele>658.6666666666666</ele><time>2026-04-19T07:11:27.268Z</time></trkpt><trkpt lat="43.2372647" lon="12.0957944"><ele>658.8333333333333</ele><time>2026-04-19T07:11:28.266Z</time></trkpt><trkpt lat="43.2372482" lon="12.0957077"><ele>659.0</ele><time>2026-04-19T07:11:29.271Z</time></trkpt><trkpt lat="43.2372139" lon="12.095548"><ele>659.3333333333333</ele><time>2026-04-19T07:11:31.266Z</time></trkpt><trkpt lat="43.2371903" lon="12.0954678"><ele>659.6666666666666</ele><time>2026-04-19T07:11:32.271Z</time></trkpt><trkpt lat="43.2371642" lon="12.095387"><ele>660.0</ele><time>2026-04-19T07:11:33.269Z</time></trkpt><trkpt lat="43.2371185" lon="12.0952291"><ele>660.3333333333334</ele><time>2026-04-19T07:11:35.27Z</time></trkpt><trkpt lat="43.2370372" lon="12.0951019"><ele>660.6666666666667</ele><time>2026-04-19T07:11:37.272Z</time></trkpt><trkpt lat="43.2369835" lon="12.0950475"><ele>661.0</ele><time>2026-04-19T07:11:38.271Z</time></trkpt><trkpt lat="43.2369313" lon="12.0949927"><ele>661.3333333333334</ele><time>2026-04-19T07:11:39.267Z</time></trkpt><trkpt lat="43.2368701" lon="12.0948589"><ele>661.6666666666667</ele><time>2026-04-19T07:11:41.27Z</time></trkpt><trkpt lat="43.236849" lon="12.0947621"><ele>662.0</ele><time>2026-04-19T07:11:42.268Z</time></trkpt><trkpt lat="43.2368248" lon="12.0946636"><ele>662.3333333333334</ele><time>2026-04-19T07:11:43.265Z</time></trkpt><trkpt lat="43.2368014" lon="12.0945725"><ele>662.6666666666666</ele><time>2026-04-19T07:11:44.27Z</time></trkpt><trkpt lat="43.2367753" lon="12.094492"><ele>663.0</ele><time>2026-04-19T07:11:45.268Z</time></trkpt><trkpt lat="43.2366959" lon="12.094354"><ele>663.0</ele><time>2026-04-19T07:11:47.268Z</time></trkpt><trkpt lat="43.2366537" lon="12.0942767"><ele>663.0</ele><time>2026-04-19T07:11:48.268Z</time></trkpt><trkpt lat="43.2366182" lon="12.0941926"><ele>663.0</ele><time>2026-04-19T07:11:49.268Z</time></trkpt><trkpt lat="43.2365899" lon="12.094111"><ele>663.0</ele><time>2026-04-19T07:11:50.267Z</time></trkpt><trkpt lat="43.2365672" lon="12.0939573"><ele>663.0</ele><time>2026-04-19T07:11:52.268Z</time></trkpt><trkpt lat="43.2365751" lon="12.0938161"><ele>663.0</ele><time>2026-04-19T07:11:54.27Z</time></trkpt><trkpt lat="43.2365752" lon="12.0936456"><ele>662.8333333333334</ele><time>2026-04-19T07:11:56.269Z</time></trkpt><trkpt lat="43.2365673" lon="12.0935545"><ele>662.6666666666666</ele><time>2026-04-19T07:11:57.265Z</time></trkpt><trkpt lat="43.2365501" lon="12.0934601"><ele>662.5</ele><time>2026-04-19T07:11:58.265Z</time></trkpt><trkpt lat="43.2365253" lon="12.0933579"><ele>662.3333333333333</ele><time>2026-04-19T07:11:59.266Z</time></trkpt><trkpt lat="43.2364984" lon="12.0932437"><ele>662.1666666666666</ele><time>2026-04-19T07:12:00.271Z</time></trkpt><trkpt lat="43.2364661" lon="12.0931407"><ele>662.0</ele><time>2026-04-19T07:12:01.271Z</time></trkpt><trkpt lat="43.2364191" lon="12.0930657"><ele>662.0</ele><time>2026-04-19T07:12:02.272Z</time></trkpt><trkpt lat="43.2363598" lon="12.0930032"><ele>662.0</ele><time>2026-04-19T07:12:03.272Z</time></trkpt><trkpt lat="43.2363058" lon="12.0929258"><ele>662.0</ele><time>2026-04-19T07:12:04.267Z</time></trkpt><trkpt lat="43.2362524" lon="12.0928316"><ele>662.0</ele><time>2026-04-19T07:12:05.271Z</time></trkpt><trkpt lat="43.2361989" lon="12.0927478"><ele>662.0</ele><time>2026-04-19T07:12:06.266Z</time></trkpt><trkpt lat="43.2361485" lon="12.0926731"><ele>662.0</ele><time>2026-04-19T07:12:07.264Z</time></trkpt><trkpt lat="43.2361029" lon="12.0926118"><ele>662.0</ele><time>2026-04-19T07:12:08.264Z</time></trkpt><trkpt lat="43.2360435" lon="12.0925355"><ele>662.0</ele><time>2026-04-19T07:12:10.265Z</time></trkpt><trkpt lat="43.2359924" lon="12.0924534"><ele>662.0</ele><time>2026-04-19T07:12:13.277Z</time></trkpt><trkpt lat="43.2359319" lon="12.092341"><ele>662.0</ele><time>2026-04-19T07:12:15.266Z</time></trkpt><trkpt lat="43.2358762" lon="12.0922038"><ele>662.0</ele><time>2026-04-19T07:12:17.265Z</time></trkpt><trkpt lat="43.2358514" lon="12.0920608"><ele>663.2</ele><time>2026-04-19T07:12:19.271Z</time></trkpt><trkpt lat="43.2358461" lon="12.0918844"><ele>664.4000000000001</ele><time>2026-04-19T07:12:21.267Z</time></trkpt><trkpt lat="43.2358389" lon="12.0917817"><ele>665.5999999999999</ele><time>2026-04-19T07:12:22.27Z</time></trkpt><trkpt lat="43.2358279" lon="12.0916888"><ele>666.8</ele><time>2026-04-19T07:12:23.266Z</time></trkpt><trkpt lat="43.2357821" lon="12.0915418"><ele>668.0</ele><time>2026-04-19T07:12:25.264Z</time></trkpt><trkpt lat="43.2357367" lon="12.0913786"><ele>669.4285714285714</ele><time>2026-04-19T07:12:27.267Z</time></trkpt><trkpt lat="43.2357213" lon="12.0912846"><ele>670.8571428571429</ele><time>2026-04-19T07:12:28.269Z</time></trkpt><trkpt lat="43.2357144" lon="12.091187"><ele>672.2857142857142</ele><time>2026-04-19T07:12:29.265Z</time></trkpt><trkpt lat="43.235708" lon="12.0910962"><ele>673.7142857142858</ele><time>2026-04-19T07:12:30.265Z</time></trkpt><trkpt lat="43.2356976" lon="12.0910097"><ele>675.1428571428572</ele><time>2026-04-19T07:12:31.262Z</time></trkpt><trkpt lat="43.235696" lon="12.0909205"><ele>676.5714285714286</ele><time>2026-04-19T07:12:32.263Z</time></trkpt><trkpt lat="43.2356983" lon="12.0908333"><ele>678.0</ele><time>2026-04-19T07:12:33.259Z</time></trkpt><trkpt lat="43.2356926" lon="12.0906989"><ele>682.8333333333334</ele><time>2026-04-19T07:12:35.256Z</time></trkpt><trkpt lat="43.2356356" lon="12.0906214"><ele>687.6666666666666</ele><time>2026-04-19T07:12:37.248Z</time></trkpt><trkpt lat="43.2355245" lon="12.0905689"><ele>692.5</ele><time>2026-04-19T07:12:39.253Z</time></trkpt><trkpt lat="43.2354591" lon="12.0905555"><ele>697.3333333333333</ele><time>2026-04-19T07:12:40.249Z</time></trkpt><trkpt lat="43.2353909" lon="12.0905428"><ele>702.1666666666666</ele><time>2026-04-19T07:12:41.254Z</time></trkpt><trkpt lat="43.2353285" lon="12.0905279"><ele>707.0</ele><time>2026-04-19T07:12:42.252Z</time></trkpt><trkpt lat="43.2352068" lon="12.0904852"><ele>707.0</ele><time>2026-04-19T07:12:44.251Z</time></trkpt><trkpt lat="43.2351451" lon="12.0904629"><ele>707.0</ele><time>2026-04-19T07:12:45.249Z</time></trkpt><trkpt lat="43.2350502" lon="12.0903883"><ele>707.0</ele><time>2026-04-19T07:12:47.253Z</time></trkpt><trkpt lat="43.2349721" lon="12.0902585"><ele>707.0</ele><time>2026-04-19T07:12:49.255Z</time></trkpt><trkpt lat="43.234904" lon="12.0901205"><ele>707.0</ele><time>2026-04-19T07:12:51.255Z</time></trkpt><trkpt lat="43.2348502" lon="12.08999"><ele>706.6</ele><time>2026-04-19T07:12:53.258Z</time></trkpt><trkpt lat="43.234789" lon="12.0898536"><ele>706.2</ele><time>2026-04-19T07:12:55.276Z</time></trkpt><trkpt lat="43.2347569" lon="12.0897776"><ele>705.8</ele><time>2026-04-19T07:12:56.26Z</time></trkpt><trkpt lat="43.2347036" lon="12.0896201"><ele>705.4</ele><time>2026-04-19T07:12:58.258Z</time></trkpt><trkpt lat="43.2346617" lon="12.0894684"><ele>705.0</ele><time>2026-04-19T07:13:00.257Z</time></trkpt><trkpt lat="43.2346183" lon="12.0893508"><ele>705.0</ele><time>2026-04-19T07:13:02.26Z</time></trkpt><trkpt lat="43.2345589" lon="12.0892467"><ele>705.0</ele><time>2026-04-19T07:13:04.254Z</time></trkpt><trkpt lat="43.2345229" lon="12.0891724"><ele>705.0</ele><time>2026-04-19T07:13:05.258Z</time></trkpt><trkpt lat="43.2344607" lon="12.0890497"><ele>705.0</ele><time>2026-04-19T07:13:07.257Z</time></trkpt><trkpt lat="43.2343879" lon="12.0889107"><ele>705.0</ele><time>2026-04-19T07:13:09.258Z</time></trkpt><trkpt lat="43.2343486" lon="12.0888195"><ele>706.5</ele><time>2026-04-19T07:13:10.255Z</time></trkpt><trkpt lat="43.2343089" lon="12.0887272"><ele>708.0</ele><time>2026-04-19T07:13:11.254Z</time></trkpt><trkpt lat="43.2342703" lon="12.0886315"><ele>709.5</ele><time>2026-04-19T07:13:12.257Z</time></trkpt><trkpt lat="43.2342312" lon="12.0885359"><ele>711.0</ele><time>2026-04-19T07:13:13.256Z</time></trkpt><trkpt lat="43.2341954" lon="12.0884343"><ele>712.5</ele><time>2026-04-19T07:13:14.255Z</time></trkpt><trkpt lat="43.2341539" lon="12.0883264"><ele>714.0</ele><time>2026-04-19T07:13:15.268Z</time></trkpt><trkpt lat="43.2341161" lon="12.0882261"><ele>714.8333333333334</ele><time>2026-04-19T07:13:16.256Z</time></trkpt><trkpt lat="43.2340766" lon="12.0881238"><ele>715.6666666666666</ele><time>2026-04-19T07:13:17.256Z</time></trkpt><trkpt lat="43.234043" lon="12.0880146"><ele>716.5</ele><time>2026-04-19T07:13:18.254Z</time></trkpt><trkpt lat="43.2340116" lon="12.0879028"><ele>717.3333333333333</ele><time>2026-04-19T07:13:19.256Z</time></trkpt><trkpt lat="43.2339751" lon="12.0878032"><ele>718.1666666666666</ele><time>2026-04-19T07:13:20.251Z</time></trkpt><trkpt lat="43.2339418" lon="12.0877095"><ele>719.0</ele><time>2026-04-19T07:13:21.254Z</time></trkpt><trkpt lat="43.2339133" lon="12.0876278"><ele>717.3333333333333</ele><time>2026-04-19T07:13:22.254Z</time></trkpt><trkpt lat="43.2338543" lon="12.0874666"><ele>715.6666666666666</ele><time>2026-04-19T07:13:24.252Z</time></trkpt><trkpt lat="43.2338174" lon="12.087386"><ele>714.0</ele><time>2026-04-19T07:13:25.252Z</time></trkpt><trkpt lat="43.2337802" lon="12.0873012"><ele>712.3333333333334</ele><time>2026-04-19T07:13:26.269Z</time></trkpt><trkpt lat="43.233742" lon="12.0872171"><ele>710.6666666666667</ele><time>2026-04-19T07:13:27.254Z</time></trkpt><trkpt lat="43.2337101" lon="12.08714"><ele>709.0</ele><time>2026-04-19T07:13:28.254Z</time></trkpt><trkpt lat="43.233653" lon="12.0870302"><ele>709.0</ele><time>2026-04-19T07:13:30.245Z</time></trkpt><trkpt lat="43.2335989" lon="12.0869091"><ele>709.0</ele><time>2026-04-19T07:13:32.245Z</time></trkpt><trkpt lat="43.2335719" lon="12.0868252"><ele>709.0</ele><time>2026-04-19T07:13:33.25Z</time></trkpt><trkpt lat="43.2335433" lon="12.0867197"><ele>709.0</ele><time>2026-04-19T07:13:34.246Z</time></trkpt><trkpt lat="43.2335114" lon="12.0866132"><ele>709.0</ele><time>2026-04-19T07:13:35.246Z</time></trkpt><trkpt lat="43.2334734" lon="12.0865127"><ele>709.0</ele><time>2026-04-19T07:13:36.253Z</time></trkpt><trkpt lat="43.2334344" lon="12.0864169"><ele>711.0</ele><time>2026-04-19T07:13:37.236Z</time></trkpt><trkpt lat="43.2333943" lon="12.0863259"><ele>713.0</ele><time>2026-04-19T07:13:38.25Z</time></trkpt><trkpt lat="43.2333509" lon="12.0862432"><ele>715.0</ele><time>2026-04-19T07:13:39.246Z</time></trkpt><trkpt lat="43.2333058" lon="12.0861808"><ele>717.0</ele><time>2026-04-19T07:13:40.246Z</time></trkpt><trkpt lat="43.2332137" lon="12.0860776"><ele>719.0</ele><time>2026-04-19T07:13:42.244Z</time></trkpt><trkpt lat="43.2331541" lon="12.0859365"><ele>719.0</ele><time>2026-04-19T07:13:44.251Z</time></trkpt><trkpt lat="43.2331488" lon="12.0858494"><ele>719.0</ele><time>2026-04-19T07:13:45.251Z</time></trkpt><trkpt lat="43.2331349" lon="12.0857228"><ele>719.0</ele><time>2026-04-19T07:13:47.249Z</time></trkpt><trkpt lat="43.233095" lon="12.0856295"><ele>719.0</ele><time>2026-04-19T07:13:49.263Z</time></trkpt><trkpt lat="43.2330164" lon="12.0854933"><ele>719.0</ele><time>2026-04-19T07:13:51.249Z</time></trkpt><trkpt lat="43.2329763" lon="12.0853954"><ele>719.0</ele><time>2026-04-19T07:13:52.249Z</time></trkpt><trkpt lat="43.2329369" lon="12.0852742"><ele>716.3333333333333</ele><time>2026-04-19T07:13:53.25Z</time></trkpt><trkpt lat="43.2328997" lon="12.0851503"><ele>713.6666666666666</ele><time>2026-04-19T07:13:54.25Z</time></trkpt><trkpt lat="43.2328693" lon="12.085038"><ele>711.0</ele><time>2026-04-19T07:13:55.251Z</time></trkpt><trkpt lat="43.2328483" lon="12.0849297"><ele>708.3333333333334</ele><time>2026-04-19T07:13:56.257Z</time></trkpt><trkpt lat="43.2328318" lon="12.0848109"><ele>705.6666666666667</ele><time>2026-04-19T07:13:57.274Z</time></trkpt><trkpt lat="43.2328194" lon="12.0846855"><ele>703.0</ele><time>2026-04-19T07:13:58.261Z</time></trkpt><trkpt lat="43.2328113" lon="12.0845616"><ele>703.0</ele><time>2026-04-19T07:13:59.262Z</time></trkpt><trkpt lat="43.2328082" lon="12.0844474"><ele>703.0</ele><time>2026-04-19T07:14:00.257Z</time></trkpt><trkpt lat="43.2328089" lon="12.0843406"><ele>703.0</ele><time>2026-04-19T07:14:01.26Z</time></trkpt><trkpt lat="43.2328174" lon="12.0842387"><ele>703.0</ele><time>2026-04-19T07:14:02.258Z</time></trkpt><trkpt lat="43.2328259" lon="12.084145"><ele>703.0</ele><time>2026-04-19T07:14:03.267Z</time></trkpt><trkpt lat="43.2328265" lon="12.0839898"><ele>703.0</ele><time>2026-04-19T07:14:05.263Z</time></trkpt><trkpt lat="43.2328195" lon="12.0838285"><ele>702.2</ele><time>2026-04-19T07:14:07.263Z</time></trkpt><trkpt lat="43.2328103" lon="12.0836623"><ele>701.4</ele><time>2026-04-19T07:14:09.25Z</time></trkpt><trkpt lat="43.232793" lon="12.083527"><ele>700.6</ele><time>2026-04-19T07:14:11.255Z</time></trkpt><trkpt lat="43.2327926" lon="12.0834398"><ele>699.8000000000001</ele><time>2026-04-19T07:14:13.272Z</time></trkpt><trkpt lat="43.2328917" lon="12.0834096"><ele>699.0</ele><time>2026-04-19T07:14:16.272Z</time></trkpt><trkpt lat="43.2329595" lon="12.0833957"><ele>699.0</ele><time>2026-04-19T07:14:17.269Z</time></trkpt><trkpt lat="43.2330379" lon="12.0833654"><ele>699.0</ele><time>2026-04-19T07:14:18.253Z</time></trkpt><trkpt lat="43.2331242" lon="12.0833347"><ele>699.0</ele><time>2026-04-19T07:14:19.255Z</time></trkpt><trkpt lat="43.2332155" lon="12.0833036"><ele>699.0</ele><time>2026-04-19T07:14:20.257Z</time></trkpt><trkpt lat="43.2333129" lon="12.0832674"><ele>699.0</ele><time>2026-04-19T07:14:21.252Z</time></trkpt><trkpt lat="43.2334101" lon="12.0832426"><ele>699.3333333333334</ele><time>2026-04-19T07:14:22.256Z</time></trkpt><trkpt lat="43.2334936" lon="12.083236"><ele>699.6666666666666</ele><time>2026-04-19T07:14:23.253Z</time></trkpt><trkpt lat="43.2335651" lon="12.0832368"><ele>700.0</ele><time>2026-04-19T07:14:24.256Z</time></trkpt><trkpt lat="43.2336751" lon="12.0832418"><ele>700.3333333333333</ele><time>2026-04-19T07:14:26.254Z</time></trkpt><trkpt lat="43.2337374" lon="12.0832554"><ele>700.6666666666666</ele><time>2026-04-19T07:14:28.282Z</time></trkpt><trkpt lat="43.2338258" lon="12.0833012"><ele>701.0</ele><time>2026-04-19T07:14:30.263Z</time></trkpt><trkpt lat="43.2339421" lon="12.0833694"><ele>702.8571428571429</ele><time>2026-04-19T07:14:32.254Z</time></trkpt><trkpt lat="43.2340064" lon="12.0834079"><ele>704.7142857142857</ele><time>2026-04-19T07:14:33.246Z</time></trkpt><trkpt lat="43.2340777" lon="12.0834396"><ele>706.5714285714286</ele><time>2026-04-19T07:14:34.253Z</time></trkpt><trkpt lat="43.2341509" lon="12.083464"><ele>708.4285714285714</ele><time>2026-04-19T07:14:35.258Z</time></trkpt><trkpt lat="43.2342125" lon="12.0834858"><ele>710.2857142857142</ele><time>2026-04-19T07:14:36.248Z</time></trkpt><trkpt lat="43.2343068" lon="12.0835063"><ele>712.1428571428571</ele><time>2026-04-19T07:14:38.249Z</time></trkpt><trkpt lat="43.2343716" lon="12.083523"><ele>714.0</ele><time>2026-04-19T07:14:40.271Z</time></trkpt><trkpt lat="43.2344479" lon="12.0835565"><ele>714.0</ele><time>2026-04-19T07:14:43.259Z</time></trkpt><trkpt lat="43.2343882" lon="12.0835248"><ele>714.0</ele><time>2026-04-19T07:14:56.272Z</time></trkpt><trkpt lat="43.2343124" lon="12.08352"><ele>714.0</ele><time>2026-04-19T07:14:58.267Z</time></trkpt><trkpt lat="43.2341938" lon="12.0834777"><ele>714.0</ele><time>2026-04-19T07:15:00.261Z</time></trkpt><trkpt lat="43.2341068" lon="12.0834697"><ele>714.0</ele><time>2026-04-19T07:15:01.263Z</time></trkpt><trkpt lat="43.2340238" lon="12.0834607"><ele>714.0</ele><time>2026-04-19T07:15:02.265Z</time></trkpt><trkpt lat="43.2338955" lon="12.0834245"><ele>713.0</ele><time>2026-04-19T07:15:04.254Z</time></trkpt><trkpt lat="43.2337985" lon="12.0833573"><ele>712.0</ele><time>2026-04-19T07:15:06.251Z</time></trkpt><trkpt lat="43.2337376" lon="12.0832576"><ele>711.0</ele><time>2026-04-19T07:15:08.267Z</time></trkpt><trkpt lat="43.2336945" lon="12.0831368"><ele>710.0</ele><time>2026-04-19T07:15:10.258Z</time></trkpt><trkpt lat="43.2336878" lon="12.0830302"><ele>709.0</ele><time>2026-04-19T07:15:12.275Z</time></trkpt><trkpt lat="43.2337227" lon="12.0829437"><ele>709.6</ele><time>2026-04-19T07:15:15.26Z</time></trkpt><trkpt lat="43.2337765" lon="12.08289"><ele>710.2</ele><time>2026-04-19T07:15:16.264Z</time></trkpt><trkpt lat="43.2338344" lon="12.0828133"><ele>710.8000000000001</ele><time>2026-04-19T07:15:17.253Z</time></trkpt><trkpt lat="43.2339019" lon="12.0827046"><ele>711.4000000000001</ele><time>2026-04-19T07:15:18.26Z</time></trkpt><trkpt lat="43.2339711" lon="12.0825889"><ele>712.0</ele><time>2026-04-19T07:15:19.256Z</time></trkpt><trkpt lat="43.2340321" lon="12.0824766"><ele>710.6666666666667</ele><time>2026-04-19T07:15:20.251Z</time></trkpt><trkpt lat="43.2340778" lon="12.082384"><ele>709.3333333333334</ele><time>2026-04-19T07:15:21.25Z</time></trkpt><trkpt lat="43.2341311" lon="12.0822214"><ele>708.0</ele><time>2026-04-19T07:15:23.249Z</time></trkpt><trkpt lat="43.2341661" lon="12.0821378"><ele>706.6666666666666</ele><time>2026-04-19T07:15:24.256Z</time></trkpt><trkpt lat="43.2342091" lon="12.0820508"><ele>705.3333333333333</ele><time>2026-04-19T07:15:25.245Z</time></trkpt><trkpt lat="43.2342609" lon="12.0819673"><ele>704.0</ele><time>2026-04-19T07:15:26.249Z</time></trkpt><trkpt lat="43.2343212" lon="12.0818888"><ele>704.0</ele><time>2026-04-19T07:15:27.254Z</time></trkpt><trkpt lat="43.2343783" lon="12.0818089"><ele>704.0</ele><time>2026-04-19T07:15:28.255Z</time></trkpt><trkpt lat="43.2344345" lon="12.0817311"><ele>704.0</ele><time>2026-04-19T07:15:29.254Z</time></trkpt><trkpt lat="43.2344897" lon="12.0816581"><ele>704.0</ele><time>2026-04-19T07:15:30.268Z</time></trkpt><trkpt lat="43.2345468" lon="12.081592"><ele>704.0</ele><time>2026-04-19T07:15:31.251Z</time></trkpt><trkpt lat="43.2346147" lon="12.0815261"><ele>704.0</ele><time>2026-04-19T07:15:32.259Z</time></trkpt><trkpt lat="43.2346834" lon="12.0814553"><ele>703.4000000000001</ele><time>2026-04-19T07:15:33.251Z</time></trkpt><trkpt lat="43.2347531" lon="12.081391"><ele>702.8</ele><time>2026-04-19T07:15:34.252Z</time></trkpt><trkpt lat="43.2348206" lon="12.0813316"><ele>702.2</ele><time>2026-04-19T07:15:35.256Z</time></trkpt><trkpt lat="43.2348956" lon="12.0812632"><ele>701.5999999999999</ele><time>2026-04-19T07:15:36.251Z</time></trkpt><trkpt lat="43.2349783" lon="12.0811916"><ele>701.0</ele><time>2026-04-19T07:15:37.256Z</time></trkpt><trkpt lat="43.2350728" lon="12.0811125"><ele>701.0</ele><time>2026-04-19T07:15:38.258Z</time></trkpt><trkpt lat="43.2351735" lon="12.0810346"><ele>701.0</ele><time>2026-04-19T07:15:39.249Z</time></trkpt><trkpt lat="43.2352694" lon="12.0809666"><ele>701.0</ele><time>2026-04-19T07:15:40.258Z</time></trkpt><trkpt lat="43.2353416" lon="12.0809171"><ele>701.0</ele><time>2026-04-19T07:15:41.253Z</time></trkpt><trkpt lat="43.2354266" lon="12.0808167"><ele>701.0</ele><time>2026-04-19T07:15:43.257Z</time></trkpt><trkpt lat="43.2354799" lon="12.0807321"><ele>700.4</ele><time>2026-04-19T07:15:45.254Z</time></trkpt><trkpt lat="43.2355497" lon="12.080688"><ele>699.8</ele><time>2026-04-19T07:15:47.266Z</time></trkpt><trkpt lat="43.2356787" lon="12.0806014"><ele>699.1999999999999</ele><time>2026-04-19T07:15:49.25Z</time></trkpt><trkpt lat="43.2357447" lon="12.0805474"><ele>698.5999999999999</ele><time>2026-04-19T07:15:50.25Z</time></trkpt><trkpt lat="43.2358419" lon="12.0804838"><ele>698.0</ele><time>2026-04-19T07:15:52.258Z</time></trkpt><trkpt lat="43.2359355" lon="12.0804156"><ele>698.0</ele><time>2026-04-19T07:15:54.255Z</time></trkpt><trkpt lat="43.2359916" lon="12.080366"><ele>698.0</ele><time>2026-04-19T07:15:55.254Z</time></trkpt><trkpt lat="43.2360619" lon="12.0803049"><ele>698.0</ele><time>2026-04-19T07:15:56.251Z</time></trkpt><trkpt lat="43.2361405" lon="12.0802328"><ele>698.0</ele><time>2026-04-19T07:15:57.249Z</time></trkpt><trkpt lat="43.2362144" lon="12.0801603"><ele>698.0</ele><time>2026-04-19T07:15:58.253Z</time></trkpt><trkpt lat="43.2362739" lon="12.080096"><ele>698.0</ele><time>2026-04-19T07:15:59.253Z</time></trkpt><trkpt lat="43.2363581" lon="12.0800049"><ele>698.0</ele><time>2026-04-19T07:16:01.272Z</time></trkpt><trkpt lat="43.2364365" lon="12.0799467"><ele>698.0</ele><time>2026-04-19T07:16:03.246Z</time></trkpt><trkpt lat="43.2365296" lon="12.0798502"><ele>698.0</ele><time>2026-04-19T07:16:05.252Z</time></trkpt><trkpt lat="43.2365809" lon="12.0797929"><ele>698.0</ele><time>2026-04-19T07:16:06.245Z</time></trkpt><trkpt lat="43.2366377" lon="12.0797325"><ele>698.0</ele><time>2026-04-19T07:16:07.247Z</time></trkpt><trkpt lat="43.2367012" lon="12.0796733"><ele>698.0</ele><time>2026-04-19T07:16:08.244Z</time></trkpt><trkpt lat="43.2367666" lon="12.0796242"><ele>698.3333333333333</ele><time>2026-04-19T07:16:09.25Z</time></trkpt><trkpt lat="43.236837" lon="12.0795861"><ele>698.6666666666666</ele><time>2026-04-19T07:16:10.245Z</time></trkpt><trkpt lat="43.2369031" lon="12.0795467"><ele>699.0</ele><time>2026-04-19T07:16:11.25Z</time></trkpt><trkpt lat="43.2369669" lon="12.0795032"><ele>699.3333333333334</ele><time>2026-04-19T07:16:12.249Z</time></trkpt><trkpt lat="43.2370198" lon="12.0794496"><ele>699.6666666666667</ele><time>2026-04-19T07:16:13.248Z</time></trkpt><trkpt lat="43.2371117" lon="12.0793289"><ele>700.0</ele><time>2026-04-19T07:16:15.249Z</time></trkpt><trkpt lat="43.2371714" lon="12.0792643"><ele>700.0</ele><time>2026-04-19T07:16:16.243Z</time></trkpt><trkpt lat="43.2372434" lon="12.0791924"><ele>700.0</ele><time>2026-04-19T07:16:17.244Z</time></trkpt><trkpt lat="43.2373277" lon="12.0791043"><ele>700.0</ele><time>2026-04-19T07:16:18.246Z</time></trkpt><trkpt lat="43.2374169" lon="12.0790108"><ele>700.0</ele><time>2026-04-19T07:16:19.251Z</time></trkpt><trkpt lat="43.2375094" lon="12.0789163"><ele>700.0</ele><time>2026-04-19T07:16:20.245Z</time></trkpt><trkpt lat="43.2376042" lon="12.0788261"><ele>700.6</ele><time>2026-04-19T07:16:21.259Z</time></trkpt><trkpt lat="43.2376925" lon="12.078735"><ele>701.2</ele><time>2026-04-19T07:16:22.248Z</time></trkpt><trkpt lat="43.2377767" lon="12.0786475"><ele>701.8</ele><time>2026-04-19T07:16:23.25Z</time></trkpt><trkpt lat="43.2378564" lon="12.0785711"><ele>702.4</ele><time>2026-04-19T07:16:24.248Z</time></trkpt><trkpt lat="43.2379188" lon="12.0785062"><ele>703.0</ele><time>2026-04-19T07:16:25.254Z</time></trkpt><trkpt lat="43.2379772" lon="12.0784593"><ele>703.0</ele><time>2026-04-19T07:16:26.25Z</time></trkpt><trkpt lat="43.2380355" lon="12.0784226"><ele>703.0</ele><time>2026-04-19T07:16:27.25Z</time></trkpt><trkpt lat="43.2381535" lon="12.0783829"><ele>703.0</ele><time>2026-04-19T07:16:29.258Z</time></trkpt><trkpt lat="43.2382511" lon="12.0783179"><ele>703.0</ele><time>2026-04-19T07:16:31.252Z</time></trkpt><trkpt lat="43.2383057" lon="12.0781841"><ele>703.0</ele><time>2026-04-19T07:16:33.25Z</time></trkpt><trkpt lat="43.2383154" lon="12.0780894"><ele>701.2857142857142</ele><time>2026-04-19T07:16:34.257Z</time></trkpt><trkpt lat="43.2383185" lon="12.0779924"><ele>699.5714285714286</ele><time>2026-04-19T07:16:35.249Z</time></trkpt><trkpt lat="43.2383215" lon="12.0778985"><ele>697.8571428571429</ele><time>2026-04-19T07:16:36.253Z</time></trkpt><trkpt lat="43.2383213" lon="12.0777938"><ele>696.1428571428571</ele><time>2026-04-19T07:16:37.255Z</time></trkpt><trkpt lat="43.2383234" lon="12.0776864"><ele>694.4285714285714</ele><time>2026-04-19T07:16:38.25Z</time></trkpt><trkpt lat="43.2383241" lon="12.0775808"><ele>692.7142857142857</ele><time>2026-04-19T07:16:39.252Z</time></trkpt><trkpt lat="43.2383253" lon="12.0774797"><ele>691.0</ele><time>2026-04-19T07:16:40.254Z</time></trkpt><trkpt lat="43.238327" lon="12.0773684"><ele>690.6666666666667</ele><time>2026-04-19T07:16:41.258Z</time></trkpt><trkpt lat="43.2383338" lon="12.0772422"><ele>690.3333333333334</ele><time>2026-04-19T07:16:42.264Z</time></trkpt><trkpt lat="43.2383434" lon="12.0771274"><ele>690.0</ele><time>2026-04-19T07:16:43.256Z</time></trkpt><trkpt lat="43.238346" lon="12.0770321"><ele>689.6666666666666</ele><time>2026-04-19T07:16:44.256Z</time></trkpt><trkpt lat="43.2383374" lon="12.0769456"><ele>689.3333333333333</ele><time>2026-04-19T07:16:45.255Z</time></trkpt><trkpt lat="43.2383097" lon="12.0768125"><ele>689.0</ele><time>2026-04-19T07:16:47.251Z</time></trkpt><trkpt lat="43.2382615" lon="12.0767265"><ele>689.0</ele><time>2026-04-19T07:16:57.278Z</time></trkpt><trkpt lat="43.2382409" lon="12.076618"><ele>689.0</ele><time>2026-04-19T07:17:00.263Z</time></trkpt><trkpt lat="43.2382776" lon="12.0765247"><ele>689.0</ele><time>2026-04-19T07:17:02.26Z</time></trkpt><trkpt lat="43.2383475" lon="12.0764685"><ele>689.0</ele><time>2026-04-19T07:17:04.158Z</time></trkpt><trkpt lat="43.2384499" lon="12.0763779"><ele>689.0</ele><time>2026-04-19T07:17:05.249Z</time></trkpt><trkpt lat="43.2385315" lon="12.0763555"><ele>689.0</ele><time>2026-04-19T07:17:06.253Z</time></trkpt><trkpt lat="43.2386079" lon="12.076334"><ele>687.6666666666666</ele><time>2026-04-19T07:17:07.253Z</time></trkpt><trkpt lat="43.2386776" lon="12.0763095"><ele>686.3333333333333</ele><time>2026-04-19T07:17:08.25Z</time></trkpt><trkpt lat="43.2387387" lon="12.0762863"><ele>685.0</ele><time>2026-04-19T07:17:09.254Z</time></trkpt><trkpt lat="43.238832" lon="12.0762384"><ele>683.6666666666666</ele><time>2026-04-19T07:17:11.27Z</time></trkpt><trkpt lat="43.2389104" lon="12.0761795"><ele>682.3333333333334</ele><time>2026-04-19T07:17:13.268Z</time></trkpt><trkpt lat="43.2388717" lon="12.0760831"><ele>681.0</ele><time>2026-04-19T07:17:20.242Z</time></trkpt><trkpt lat="43.2387873" lon="12.0760219"><ele>681.0</ele><time>2026-04-19T07:17:22.234Z</time></trkpt><trkpt lat="43.2387019" lon="12.0760244"><ele>681.0</ele><time>2026-04-19T07:17:24.195Z</time></trkpt><trkpt lat="43.2386143" lon="12.0759741"><ele>681.0</ele><time>2026-04-19T07:17:26.26Z</time></trkpt><trkpt lat="43.2385467" lon="12.0758392"><ele>681.0</ele><time>2026-04-19T07:17:27.266Z</time></trkpt><trkpt lat="43.2385039" lon="12.0757757"><ele>681.0</ele><time>2026-04-19T07:17:28.264Z</time></trkpt><trkpt lat="43.2384386" lon="12.0757085"><ele>681.0</ele><time>2026-04-19T07:17:30.262Z</time></trkpt><trkpt lat="43.2383685" lon="12.0756348"><ele>681.0000000000001</ele><time>2026-04-19T07:17:32.267Z</time></trkpt><trkpt lat="43.2382882" lon="12.0755762"><ele>681.0</ele><time>2026-04-19T07:17:34.279Z</time></trkpt><trkpt lat="43.2382449" lon="12.0755032"><ele>681.0</ele><time>2026-04-19T07:17:35.248Z</time></trkpt><trkpt lat="43.2381989" lon="12.0754199"><ele>681.0</ele><time>2026-04-19T07:17:36.253Z</time></trkpt><trkpt lat="43.238154" lon="12.0753523"><ele>681.0</ele><time>2026-04-19T07:17:37.254Z</time></trkpt><trkpt lat="43.2381022" lon="12.0752927"><ele>681.0000000000001</ele><time>2026-04-19T07:17:38.254Z</time></trkpt><trkpt lat="43.2380477" lon="12.0752366"><ele>681.0</ele><time>2026-04-19T07:17:39.252Z</time></trkpt><trkpt lat="43.2379627" lon="12.0751406"><ele>677.4</ele><time>2026-04-19T07:17:41.256Z</time></trkpt><trkpt lat="43.2379079" lon="12.075072"><ele>673.8</ele><time>2026-04-19T07:17:43.27Z</time></trkpt><trkpt lat="43.2378717" lon="12.0749791"><ele>670.1999999999999</ele><time>2026-04-19T07:17:45.269Z</time></trkpt><trkpt lat="43.2378249" lon="12.0748582"><ele>666.5999999999999</ele><time>2026-04-19T07:17:47.268Z</time></trkpt><trkpt lat="43.2377737" lon="12.0747216"><ele>663.0</ele><time>2026-04-19T07:17:49.256Z</time></trkpt><trkpt lat="43.2377349" lon="12.0746015"><ele>661.8333333333334</ele><time>2026-04-19T07:17:51.25Z</time></trkpt><trkpt lat="43.2377064" lon="12.0745183"><ele>660.6666666666666</ele><time>2026-04-19T07:17:53.264Z</time></trkpt><trkpt lat="43.2376176" lon="12.0744955"><ele>659.5</ele><time>2026-04-19T07:17:55.26Z</time></trkpt><trkpt lat="43.2375333" lon="12.0744444"><ele>658.3333333333333</ele><time>2026-04-19T07:17:57.261Z</time></trkpt><trkpt lat="43.2374778" lon="12.0743452"><ele>657.1666666666666</ele><time>2026-04-19T07:17:59.181Z</time></trkpt><trkpt lat="43.2374252" lon="12.0742934"><ele>656.0</ele><time>2026-04-19T07:18:01.268Z</time></trkpt><trkpt lat="43.2373722" lon="12.0743436"><ele>656.0</ele><time>2026-04-19T07:18:04.261Z</time></trkpt><trkpt lat="43.2373043" lon="12.0743299"><ele>656.0</ele><time>2026-04-19T07:18:06.259Z</time></trkpt><trkpt lat="43.2372161" lon="12.0743017"><ele>656.0</ele><time>2026-04-19T07:18:08.256Z</time></trkpt><trkpt lat="43.2371344" lon="12.0742073"><ele>656.0</ele><time>2026-04-19T07:18:10.258Z</time></trkpt><trkpt lat="43.2370752" lon="12.0740622"><ele>656.0</ele><time>2026-04-19T07:18:12.246Z</time></trkpt><trkpt lat="43.2370707" lon="12.0739187"><ele>651.8333333333333</ele><time>2026-04-19T07:18:14.255Z</time></trkpt><trkpt lat="43.2370251" lon="12.0737996"><ele>647.6666666666666</ele><time>2026-04-19T07:18:16.265Z</time></trkpt><trkpt lat="43.2369866" lon="12.0737164"><ele>643.5</ele><time>2026-04-19T07:18:18.263Z</time></trkpt><trkpt lat="43.2369357" lon="12.0736329"><ele>639.3333333333334</ele><time>2026-04-19T07:18:22.203Z</time></trkpt><trkpt lat="43.2369074" lon="12.0735154"><ele>635.1666666666667</ele><time>2026-04-19T07:18:24.263Z</time></trkpt><trkpt lat="43.2368757" lon="12.0734056"><ele>631.0</ele><time>2026-04-19T07:18:26.262Z</time></trkpt><trkpt lat="43.2368351" lon="12.0733112"><ele>629.6</ele><time>2026-04-19T07:18:28.198Z</time></trkpt><trkpt lat="43.2368034" lon="12.0731937"><ele>628.2</ele><time>2026-04-19T07:18:30.26Z</time></trkpt><trkpt lat="43.2367739" lon="12.073089"><ele>626.8</ele><time>2026-04-19T07:18:32.268Z</time></trkpt><trkpt lat="43.236729" lon="12.0729798"><ele>625.4</ele><time>2026-04-19T07:18:34.262Z</time></trkpt><trkpt lat="43.2367011" lon="12.0728126"><ele>624.0</ele><time>2026-04-19T07:18:36.29Z</time></trkpt><trkpt lat="43.2367075" lon="12.072654"><ele>624.0</ele><time>2026-04-19T07:18:38.246Z</time></trkpt><trkpt lat="43.2367362" lon="12.0724907"><ele>624.0</ele><time>2026-04-19T07:18:40.245Z</time></trkpt><trkpt lat="43.2367228" lon="12.0723772"><ele>624.0</ele><time>2026-04-19T07:18:42.262Z</time></trkpt><trkpt lat="43.2366641" lon="12.0723401"><ele>624.0</ele><time>2026-04-19T07:18:43.247Z</time></trkpt><trkpt lat="43.236594" lon="12.0723001"><ele>624.0</ele><time>2026-04-19T07:18:44.247Z</time></trkpt><trkpt lat="43.2365187" lon="12.0722604"><ele>624.0</ele><time>2026-04-19T07:18:45.25Z</time></trkpt><trkpt lat="43.2364435" lon="12.0722227"><ele>620.2</ele><time>2026-04-19T07:18:46.252Z</time></trkpt><trkpt lat="43.2363721" lon="12.072199"><ele>616.4</ele><time>2026-04-19T07:18:47.251Z</time></trkpt><trkpt lat="43.2363063" lon="12.0721909"><ele>612.6</ele><time>2026-04-19T07:18:48.25Z</time></trkpt><trkpt lat="43.2362051" lon="12.0721918"><ele>608.8</ele><time>2026-04-19T07:18:50.25Z</time></trkpt><trkpt lat="43.2361211" lon="12.0721756"><ele>605.0</ele><time>2026-04-19T07:18:52.251Z</time></trkpt><trkpt lat="43.2360061" lon="12.0721057"><ele>605.0</ele><time>2026-04-19T07:18:54.255Z</time></trkpt><trkpt lat="43.2359451" lon="12.0720582"><ele>605.0</ele><time>2026-04-19T07:18:55.254Z</time></trkpt><trkpt lat="43.2358922" lon="12.0720006"><ele>605.0</ele><time>2026-04-19T07:18:56.254Z</time></trkpt><trkpt lat="43.2358234" lon="12.0719034"><ele>605.0</ele><time>2026-04-19T07:18:58.249Z</time></trkpt><trkpt lat="43.2357367" lon="12.0718628"><ele>605.0</ele><time>2026-04-19T07:19:00.254Z</time></trkpt><trkpt lat="43.2356389" lon="12.0718317"><ele>605.0</ele><time>2026-04-19T07:19:02.255Z</time></trkpt><trkpt lat="43.2355614" lon="12.0718019"><ele>602.5</ele><time>2026-04-19T07:19:04.256Z</time></trkpt><trkpt lat="43.2354837" lon="12.071823"><ele>600.0</ele><time>2026-04-19T07:19:06.291Z</time></trkpt><trkpt lat="43.2353932" lon="12.071862"><ele>597.5</ele><time>2026-04-19T07:19:08.255Z</time></trkpt><trkpt lat="43.2352916" lon="12.0718639"><ele>595.0</ele><time>2026-04-19T07:19:11.27Z</time></trkpt><trkpt lat="43.2352297" lon="12.0718229"><ele>592.5</ele><time>2026-04-19T07:19:13.268Z</time></trkpt><trkpt lat="43.235181" lon="12.0717451"><ele>590.0</ele><time>2026-04-19T07:19:15.255Z</time></trkpt><trkpt lat="43.2351674" lon="12.0716325"><ele>587.4</ele><time>2026-04-19T07:19:17.266Z</time></trkpt><trkpt lat="43.2352259" lon="12.0715606"><ele>584.8</ele><time>2026-04-19T07:20:27.261Z</time></trkpt><trkpt lat="43.2353684" lon="12.0714659"><ele>582.2</ele><time>2026-04-19T07:20:29.262Z</time></trkpt><trkpt lat="43.2354428" lon="12.0714076"><ele>579.6</ele><time>2026-04-19T07:20:30.243Z</time></trkpt><trkpt lat="43.2355132" lon="12.0713518"><ele>577.0</ele><time>2026-04-19T07:20:31.245Z</time></trkpt><trkpt lat="43.2355945" lon="12.0712901"><ele>579.25</ele><time>2026-04-19T07:20:32.253Z</time></trkpt><trkpt lat="43.235674" lon="12.0712353"><ele>581.5</ele><time>2026-04-19T07:20:33.241Z</time></trkpt><trkpt lat="43.2357483" lon="12.0711889"><ele>583.75</ele><time>2026-04-19T07:20:34.246Z</time></trkpt><trkpt lat="43.2358939" lon="12.0710902"><ele>586.0</ele><time>2026-04-19T07:20:36.247Z</time></trkpt><trkpt lat="43.2360462" lon="12.0710237"><ele>585.9999999999999</ele><time>2026-04-19T07:20:38.248Z</time></trkpt><trkpt lat="43.2361156" lon="12.0709912"><ele>586.0</ele><time>2026-04-19T07:20:39.26Z</time></trkpt><trkpt lat="43.2361806" lon="12.0709624"><ele>586.0</ele><time>2026-04-19T07:20:40.244Z</time></trkpt><trkpt lat="43.2362562" lon="12.0709393"><ele>586.0</ele><time>2026-04-19T07:20:41.24Z</time></trkpt><trkpt lat="43.2363317" lon="12.0709214"><ele>586.0</ele><time>2026-04-19T07:20:42.24Z</time></trkpt><trkpt lat="43.2364051" lon="12.0709081"><ele>585.9999999999999</ele><time>2026-04-19T07:20:43.246Z</time></trkpt><trkpt lat="43.2364807" lon="12.0708909"><ele>586.0</ele><time>2026-04-19T07:20:44.242Z</time></trkpt><trkpt lat="43.2365636" lon="12.0708764"><ele>586.6</ele><time>2026-04-19T07:20:45.247Z</time></trkpt><trkpt lat="43.2366541" lon="12.0708603"><ele>587.2</ele><time>2026-04-19T07:20:46.243Z</time></trkpt><trkpt lat="43.2367627" lon="12.070835"><ele>587.8</ele><time>2026-04-19T07:20:47.241Z</time></trkpt><trkpt lat="43.2368782" lon="12.0708066"><ele>588.4</ele><time>2026-04-19T07:20:48.244Z</time></trkpt><trkpt lat="43.2369854" lon="12.0707811"><ele>589.0</ele><time>2026-04-19T07:20:49.245Z</time></trkpt><trkpt lat="43.237082" lon="12.0707552"><ele>587.1666666666667</ele><time>2026-04-19T07:20:50.239Z</time></trkpt><trkpt lat="43.2371699" lon="12.0707196"><ele>585.3333333333334</ele><time>2026-04-19T07:20:51.243Z</time></trkpt><trkpt lat="43.2372511" lon="12.0706852"><ele>583.5</ele><time>2026-04-19T07:20:52.24Z</time></trkpt><trkpt lat="43.2373288" lon="12.0706534"><ele>581.6666666666666</ele><time>2026-04-19T07:20:53.236Z</time></trkpt><trkpt lat="43.2374068" lon="12.0706215"><ele>579.8333333333333</ele><time>2026-04-19T07:20:54.241Z</time></trkpt><trkpt lat="43.2374836" lon="12.0705897"><ele>578.0</ele><time>2026-04-19T07:20:55.242Z</time></trkpt><trkpt lat="43.2375551" lon="12.0705586"><ele>578.0</ele><time>2026-04-19T07:20:56.238Z</time></trkpt><trkpt lat="43.2376214" lon="12.070523"><ele>578.0</ele><time>2026-04-19T07:20:57.246Z</time></trkpt><trkpt lat="43.237688" lon="12.0704807"><ele>578.0</ele><time>2026-04-19T07:20:58.245Z</time></trkpt><trkpt lat="43.2377544" lon="12.0704184"><ele>578.0</ele><time>2026-04-19T07:20:59.247Z</time></trkpt><trkpt lat="43.2378267" lon="12.0703494"><ele>578.0</ele><time>2026-04-19T07:21:00.243Z</time></trkpt><trkpt lat="43.2378968" lon="12.070274"><ele>578.0</ele><time>2026-04-19T07:21:01.247Z</time></trkpt><trkpt lat="43.2379641" lon="12.0701983"><ele>578.0</ele><time>2026-04-19T07:21:02.246Z</time></trkpt><trkpt lat="43.2380291" lon="12.0701277"><ele>578.0</ele><time>2026-04-19T07:21:03.245Z</time></trkpt><trkpt lat="43.2380816" lon="12.0700666"><ele>578.0</ele><time>2026-04-19T07:21:04.241Z</time></trkpt><trkpt lat="43.2381496" lon="12.0699927"><ele>578.0</ele><time>2026-04-19T07:21:06.247Z</time></trkpt><trkpt lat="43.2382167" lon="12.0699461"><ele>578.0</ele><time>2026-04-19T07:21:10.27Z</time></trkpt><trkpt lat="43.2382854" lon="12.0698756"><ele>578.0</ele><time>2026-04-19T07:21:13.259Z</time></trkpt><trkpt lat="43.2383554" lon="12.0698875"><ele>580.0</ele><time>2026-04-19T07:21:16.253Z</time></trkpt><trkpt lat="43.2384418" lon="12.0699014"><ele>582.0</ele><time>2026-04-19T07:21:18.262Z</time></trkpt><trkpt lat="43.2385321" lon="12.0699053"><ele>584.0</ele><time>2026-04-19T07:21:20.248Z</time></trkpt><trkpt lat="43.2386278" lon="12.0698988"><ele>586.0</ele><time>2026-04-19T07:21:22.251Z</time></trkpt><trkpt lat="43.2387058" lon="12.0698656"><ele>588.0</ele><time>2026-04-19T07:21:24.255Z</time></trkpt><trkpt lat="43.2387802" lon="12.0698418"><ele>590.0</ele><time>2026-04-19T07:21:26.259Z</time></trkpt><trkpt lat="43.2388499" lon="12.0698055"><ele>590.0000000000001</ele><time>2026-04-19T07:21:28.251Z</time></trkpt><trkpt lat="43.2389146" lon="12.0697445"><ele>590.0</ele><time>2026-04-19T07:21:30.252Z</time></trkpt><trkpt lat="43.238975" lon="12.069714"><ele>590.0</ele><time>2026-04-19T07:21:32.261Z</time></trkpt><trkpt lat="43.2390521" lon="12.0696974"><ele>590.0</ele><time>2026-04-19T07:21:50.253Z</time></trkpt><trkpt lat="43.2391" lon="12.0696304"><ele>590.0</ele><time>2026-04-19T07:21:54.231Z</time></trkpt><trkpt lat="43.2391389" lon="12.0695427"><ele>590.0000000000001</ele><time>2026-04-19T07:21:57.259Z</time></trkpt><trkpt lat="43.2391596" lon="12.069629"><ele>590.0</ele><time>2026-04-19T07:22:13.229Z</time></trkpt><trkpt lat="43.2390991" lon="12.0697824"><ele>590.0</ele><time>2026-04-19T07:22:16.254Z</time></trkpt><trkpt lat="43.2390299" lon="12.0698211"><ele>590.0</ele><time>2026-04-19T07:22:17.255Z</time></trkpt><trkpt lat="43.2389276" lon="12.0698404"><ele>590.0</ele><time>2026-04-19T07:22:19.254Z</time></trkpt><trkpt lat="43.2388402" lon="12.0699048"><ele>590.0</ele><time>2026-04-19T07:22:21.254Z</time></trkpt><trkpt lat="43.2387427" lon="12.0699521"><ele>590.0</ele><time>2026-04-19T07:22:23.254Z</time></trkpt><trkpt lat="43.2386314" lon="12.0699874"><ele>589.8333333333333</ele><time>2026-04-19T07:22:25.242Z</time></trkpt><trkpt lat="43.2385682" lon="12.0699955"><ele>589.6666666666666</ele><time>2026-04-19T07:22:28.258Z</time></trkpt><trkpt lat="43.2386515" lon="12.0700065"><ele>589.5</ele><time>2026-04-19T07:22:34.255Z</time></trkpt><trkpt lat="43.2387234" lon="12.0700665"><ele>589.3333333333334</ele><time>2026-04-19T07:23:22.166Z</time></trkpt><trkpt lat="43.2387375" lon="12.0701666"><ele>589.1666666666667</ele><time>2026-04-19T07:23:25.25Z</time></trkpt><trkpt lat="43.2387361" lon="12.0702583"><ele>589.0</ele><time>2026-04-19T07:23:28.184Z</time></trkpt><trkpt lat="43.2387638" lon="12.0703599"><ele>589.0</ele><time>2026-04-19T07:23:31.25Z</time></trkpt><trkpt lat="43.2388318" lon="12.0703713"><ele>589.0</ele><time>2026-04-19T07:23:35.246Z</time></trkpt><trkpt lat="43.2389059" lon="12.0703152"><ele>589.0</ele><time>2026-04-19T07:23:38.163Z</time></trkpt><trkpt lat="43.2389804" lon="12.0702875"><ele>589.0</ele><time>2026-04-19T07:23:40.231Z</time></trkpt><trkpt lat="43.2390609" lon="12.0702603"><ele>589.0</ele><time>2026-04-19T07:23:42.233Z</time></trkpt><trkpt lat="43.2391318" lon="12.0702383"><ele>589.0</ele><time>2026-04-19T07:23:44.236Z</time></trkpt><trkpt lat="43.2392016" lon="12.0702268"><ele>587.3333333333334</ele><time>2026-04-19T07:23:46.234Z</time></trkpt><trkpt lat="43.2392839" lon="12.0701887"><ele>585.6666666666667</ele><time>2026-04-19T07:23:49.244Z</time></trkpt><trkpt lat="43.2393568" lon="12.07013"><ele>584.0</ele><time>2026-04-19T07:23:52.167Z</time></trkpt><trkpt lat="43.2394166" lon="12.0701002"><ele>582.3333333333334</ele><time>2026-04-19T07:23:53.968Z</time></trkpt><trkpt lat="43.2394811" lon="12.0700935"><ele>580.6666666666666</ele><time>2026-04-19T07:23:55.871Z</time></trkpt><trkpt lat="43.2395721" lon="12.0700748"><ele>579.0</ele><time>2026-04-19T07:23:58.241Z</time></trkpt><trkpt lat="43.2396466" lon="12.070059"><ele>579.0</ele><time>2026-04-19T07:24:00.242Z</time></trkpt><trkpt lat="43.2397217" lon="12.0700387"><ele>579.0</ele><time>2026-04-19T07:24:02.242Z</time></trkpt><trkpt lat="43.2397954" lon="12.0700615"><ele>579.0</ele><time>2026-04-19T07:24:04.237Z</time></trkpt><trkpt lat="43.2398736" lon="12.0700275"><ele>579.0</ele><time>2026-04-19T07:24:06.242Z</time></trkpt><trkpt lat="43.2399375" lon="12.0699427"><ele>579.0</ele><time>2026-04-19T07:24:08.241Z</time></trkpt><trkpt lat="43.2400154" lon="12.0698776"><ele>579.0</ele><time>2026-04-19T07:24:10.242Z</time></trkpt><trkpt lat="43.2400883" lon="12.069859"><ele>576.9999999999999</ele><time>2026-04-19T07:24:12.246Z</time></trkpt><trkpt lat="43.2401477" lon="12.0698886"><ele>575.0</ele><time>2026-04-19T07:24:14.241Z</time></trkpt><trkpt lat="43.2402105" lon="12.0699139"><ele>573.0</ele><time>2026-04-19T07:24:16.255Z</time></trkpt><trkpt lat="43.2402725" lon="12.0699467"><ele>571.0</ele><time>2026-04-19T07:24:18.241Z</time></trkpt><trkpt lat="43.2403522" lon="12.0699511"><ele>569.0</ele><time>2026-04-19T07:24:20.247Z</time></trkpt><trkpt lat="43.2404222" lon="12.0698994"><ele>566.9999999999999</ele><time>2026-04-19T07:24:22.251Z</time></trkpt><trkpt lat="43.240489" lon="12.0698357"><ele>565.0</ele><time>2026-04-19T07:24:24.255Z</time></trkpt><trkpt lat="43.2405412" lon="12.0697571"><ele>563.3333333333334</ele><time>2026-04-19T07:24:26.253Z</time></trkpt><trkpt lat="43.2406145" lon="12.0697138"><ele>561.6666666666667</ele><time>2026-04-19T07:24:28.181Z</time></trkpt><trkpt lat="43.2406778" lon="12.0696362"><ele>560.0</ele><time>2026-04-19T07:24:30.25Z</time></trkpt><trkpt lat="43.2407418" lon="12.0695596"><ele>558.3333333333334</ele><time>2026-04-19T07:24:33.249Z</time></trkpt><trkpt lat="43.2407964" lon="12.0694737"><ele>556.6666666666666</ele><time>2026-04-19T07:24:36.252Z</time></trkpt><trkpt lat="43.2408437" lon="12.0694071"><ele>555.0</ele><time>2026-04-19T07:24:38.251Z</time></trkpt><trkpt lat="43.2409229" lon="12.0693406"><ele>553.3333333333334</ele><time>2026-04-19T07:24:41.256Z</time></trkpt><trkpt lat="43.2410067" lon="12.0693"><ele>551.6666666666666</ele><time>2026-04-19T07:24:43.253Z</time></trkpt><trkpt lat="43.2410781" lon="12.0692253"><ele>550.0</ele><time>2026-04-19T07:24:45.252Z</time></trkpt><trkpt lat="43.2411634" lon="12.069144"><ele>548.3333333333333</ele><time>2026-04-19T07:24:47.27Z</time></trkpt><trkpt lat="43.2412375" lon="12.0690928"><ele>546.6666666666666</ele><time>2026-04-19T07:24:49.247Z</time></trkpt><trkpt lat="43.241309" lon="12.069091"><ele>545.0</ele><time>2026-04-19T07:24:51.203Z</time></trkpt><trkpt lat="43.2414123" lon="12.0690933"><ele>541.0</ele><time>2026-04-19T07:24:53.251Z</time></trkpt><trkpt lat="43.2415563" lon="12.0690623"><ele>537.0</ele><time>2026-04-19T07:24:55.244Z</time></trkpt><trkpt lat="43.2416163" lon="12.0690299"><ele>533.0</ele><time>2026-04-19T07:24:56.235Z</time></trkpt><trkpt lat="43.2417265" lon="12.0689673"><ele>529.0</ele><time>2026-04-19T07:24:58.237Z</time></trkpt><trkpt lat="43.2417935" lon="12.0689406"><ele>525.0</ele><time>2026-04-19T07:24:59.252Z</time></trkpt><trkpt lat="43.2418613" lon="12.0689153"><ele>525.0</ele><time>2026-04-19T07:25:00.243Z</time></trkpt><trkpt lat="43.241931" lon="12.0688936"><ele>525.0</ele><time>2026-04-19T07:25:01.241Z</time></trkpt><trkpt lat="43.2420483" lon="12.0688824"><ele>525.0</ele><time>2026-04-19T07:25:03.24Z</time></trkpt><trkpt lat="43.2421508" lon="12.068897"><ele>525.0</ele><time>2026-04-19T07:25:05.244Z</time></trkpt><trkpt lat="43.2422439" lon="12.0688799"><ele>525.0</ele><time>2026-04-19T07:25:07.245Z</time></trkpt><trkpt lat="43.2423224" lon="12.0688033"><ele>525.0</ele><time>2026-04-19T07:25:09.236Z</time></trkpt><trkpt lat="43.2423952" lon="12.0687178"><ele>525.0</ele><time>2026-04-19T07:25:11.251Z</time></trkpt><trkpt lat="43.2424638" lon="12.0686534"><ele>525.0</ele><time>2026-04-19T07:25:13.254Z</time></trkpt><trkpt lat="43.242526" lon="12.0686231"><ele>525.0</ele><time>2026-04-19T07:25:15.258Z</time></trkpt><trkpt lat="43.2426216" lon="12.0686434"><ele>525.0</ele><time>2026-04-19T07:25:18.264Z</time></trkpt><trkpt lat="43.2427039" lon="12.0686443"><ele>525.0</ele><time>2026-04-19T07:25:20.257Z</time></trkpt><trkpt lat="43.2427791" lon="12.0686698"><ele>525.0</ele><time>2026-04-19T07:25:22.256Z</time></trkpt><trkpt lat="43.242856" lon="12.0686707"><ele>525.0</ele><time>2026-04-19T07:25:24.227Z</time></trkpt><trkpt lat="43.2429379" lon="12.0686945"><ele>525.0</ele><time>2026-04-19T07:25:26.255Z</time></trkpt><trkpt lat="43.2430199" lon="12.0686866"><ele>525.0</ele><time>2026-04-19T07:25:28.255Z</time></trkpt><trkpt lat="43.2430937" lon="12.0686834"><ele>525.0</ele><time>2026-04-19T07:25:30.254Z</time></trkpt><trkpt lat="43.2431691" lon="12.0686618"><ele>525.0</ele><time>2026-04-19T07:25:32.251Z</time></trkpt><trkpt lat="43.2432289" lon="12.0686117"><ele>526.1666666666666</ele><time>2026-04-19T07:25:34.252Z</time></trkpt><trkpt lat="43.2432972" lon="12.0685825"><ele>527.3333333333334</ele><time>2026-04-19T07:25:36.252Z</time></trkpt><trkpt lat="43.2433561" lon="12.0685196"><ele>528.5</ele><time>2026-04-19T07:25:38.256Z</time></trkpt><trkpt lat="43.2433595" lon="12.0684029"><ele>529.6666666666667</ele><time>2026-04-19T07:25:43.25Z</time></trkpt><trkpt lat="43.2433701" lon="12.068306"><ele>530.8333333333334</ele><time>2026-04-19T07:25:45.26Z</time></trkpt><trkpt lat="43.2434341" lon="12.0682996"><ele>532.0</ele><time>2026-04-19T07:25:46.257Z</time></trkpt><trkpt lat="43.2435305" lon="12.0683099"><ele>532.0</ele><time>2026-04-19T07:25:48.257Z</time></trkpt><trkpt lat="43.2436037" lon="12.0682918"><ele>532.0</ele><time>2026-04-19T07:25:50.256Z</time></trkpt><trkpt lat="43.2436694" lon="12.0682803"><ele>532.0</ele><time>2026-04-19T07:25:52.257Z</time></trkpt><trkpt lat="43.2437463" lon="12.0682739"><ele>532.0</ele><time>2026-04-19T07:25:55.248Z</time></trkpt><trkpt lat="43.2438406" lon="12.0682449"><ele>532.0</ele><time>2026-04-19T07:25:58.248Z</time></trkpt><trkpt lat="43.2439249" lon="12.0681962"><ele>532.0</ele><time>2026-04-19T07:26:00.25Z</time></trkpt><trkpt lat="43.2440124" lon="12.0681669"><ele>528.3333333333334</ele><time>2026-04-19T07:26:02.253Z</time></trkpt><trkpt lat="43.2440784" lon="12.0681252"><ele>524.6666666666667</ele><time>2026-04-19T07:26:03.926Z</time></trkpt><trkpt lat="43.2441633" lon="12.0681078"><ele>521.0</ele><time>2026-04-19T07:26:06.249Z</time></trkpt><trkpt lat="43.2442223" lon="12.0680689"><ele>517.3333333333334</ele><time>2026-04-19T07:26:08.189Z</time></trkpt><trkpt lat="43.2442763" lon="12.0679722"><ele>513.6666666666666</ele><time>2026-04-19T07:26:10.252Z</time></trkpt><trkpt lat="43.2443351" lon="12.0679105"><ele>510.0</ele><time>2026-04-19T07:26:12.25Z</time></trkpt><trkpt lat="43.2444167" lon="12.0678782"><ele>510.0</ele><time>2026-04-19T07:26:14.25Z</time></trkpt><trkpt lat="43.2445104" lon="12.0678476"><ele>510.0</ele><time>2026-04-19T07:26:16.25Z</time></trkpt><trkpt lat="43.2446025" lon="12.0678226"><ele>510.0</ele><time>2026-04-19T07:26:18.25Z</time></trkpt><trkpt lat="43.2446952" lon="12.0678021"><ele>510.0</ele><time>2026-04-19T07:26:20.272Z</time></trkpt><trkpt lat="43.2447728" lon="12.0677966"><ele>510.0</ele><time>2026-04-19T07:26:22.254Z</time></trkpt><trkpt lat="43.2448365" lon="12.0677799"><ele>510.0</ele><time>2026-04-19T07:26:24.249Z</time></trkpt><trkpt lat="43.2448764" lon="12.0676775"><ele>511.0</ele><time>2026-04-19T07:26:27.253Z</time></trkpt><trkpt lat="43.2448992" lon="12.0675516"><ele>512.0</ele><time>2026-04-19T07:26:29.26Z</time></trkpt><trkpt lat="43.2449324" lon="12.0674355"><ele>513.0</ele><time>2026-04-19T07:26:31.261Z</time></trkpt><trkpt lat="43.2449931" lon="12.0673801"><ele>514.0</ele><time>2026-04-19T07:26:33.163Z</time></trkpt><trkpt lat="43.2450503" lon="12.0673221"><ele>515.0</ele><time>2026-04-19T07:26:35.254Z</time></trkpt><trkpt lat="43.2451239" lon="12.067327"><ele>516.0</ele><time>2026-04-19T07:26:37.255Z</time></trkpt><trkpt lat="43.2452127" lon="12.0673543"><ele>516.0</ele><time>2026-04-19T07:26:39.247Z</time></trkpt><trkpt lat="43.2452982" lon="12.0674083"><ele>516.0</ele><time>2026-04-19T07:26:41.252Z</time></trkpt><trkpt lat="43.2453926" lon="12.067493"><ele>516.0</ele><time>2026-04-19T07:26:43.24Z</time></trkpt><trkpt lat="43.245446" lon="12.0675428"><ele>516.0</ele><time>2026-04-19T07:26:44.24Z</time></trkpt><trkpt lat="43.2454969" lon="12.0675962"><ele>516.0</ele><time>2026-04-19T07:26:45.243Z</time></trkpt><trkpt lat="43.245573" lon="12.0676864"><ele>516.0</ele><time>2026-04-19T07:26:47.252Z</time></trkpt><trkpt lat="43.2456272" lon="12.0677496"><ele>516.0</ele><time>2026-04-19T07:26:49.251Z</time></trkpt><trkpt lat="43.2456415" lon="12.0676652"><ele>516.0</ele><time>2026-04-19T07:26:56.257Z</time></trkpt><trkpt lat="43.2455901" lon="12.0675674"><ele>516.0</ele><time>2026-04-19T07:26:59.253Z</time></trkpt><trkpt lat="43.2455554" lon="12.067481"><ele>516.0</ele><time>2026-04-19T07:27:01.249Z</time></trkpt><trkpt lat="43.2455291" lon="12.0673959"><ele>516.0</ele><time>2026-04-19T07:27:03.256Z</time></trkpt><trkpt lat="43.2455065" lon="12.0672886"><ele>516.0</ele><time>2026-04-19T07:27:05.258Z</time></trkpt><trkpt lat="43.2454601" lon="12.0671944"><ele>512.5</ele><time>2026-04-19T07:27:07.218Z</time></trkpt><trkpt lat="43.2454291" lon="12.0670776"><ele>509.0</ele><time>2026-04-19T07:27:09.257Z</time></trkpt><trkpt lat="43.2453892" lon="12.0669884"><ele>505.5</ele><time>2026-04-19T07:27:11.257Z</time></trkpt><trkpt lat="43.2453349" lon="12.0669047"><ele>502.0</ele><time>2026-04-19T07:27:13.255Z</time></trkpt><trkpt lat="43.2452689" lon="12.0668264"><ele>498.5</ele><time>2026-04-19T07:27:15.254Z</time></trkpt><trkpt lat="43.2452201" lon="12.0667507"><ele>495.0</ele><time>2026-04-19T07:27:17.249Z</time></trkpt><trkpt lat="43.2451814" lon="12.0666267"><ele>492.0</ele><time>2026-04-19T07:27:20.255Z</time></trkpt><trkpt lat="43.2451387" lon="12.0665207"><ele>489.0</ele><time>2026-04-19T07:27:22.272Z</time></trkpt><trkpt lat="43.2451151" lon="12.0664151"><ele>486.0</ele><time>2026-04-19T07:27:24.251Z</time></trkpt><trkpt lat="43.245085" lon="12.0663382"><ele>483.0</ele><time>2026-04-19T07:27:26.257Z</time></trkpt><trkpt lat="43.2450445" lon="12.0662456"><ele>480.0</ele><time>2026-04-19T07:27:29.26Z</time></trkpt><trkpt lat="43.2450615" lon="12.0661397"><ele>477.0</ele><time>2026-04-19T07:27:33.249Z</time></trkpt><trkpt lat="43.2451272" lon="12.0660935"><ele>477.0</ele><time>2026-04-19T07:27:35.257Z</time></trkpt><trkpt lat="43.2452125" lon="12.0660668"><ele>477.00000000000006</ele><time>2026-04-19T07:27:37.246Z</time></trkpt><trkpt lat="43.2453226" lon="12.0660887"><ele>477.00000000000006</ele><time>2026-04-19T07:27:39.256Z</time></trkpt><trkpt lat="43.2454132" lon="12.066112"><ele>477.0</ele><time>2026-04-19T07:27:41.263Z</time></trkpt><trkpt lat="43.245494" lon="12.0661361"><ele>477.0</ele><time>2026-04-19T07:27:43.258Z</time></trkpt><trkpt lat="43.2455698" lon="12.0661771"><ele>477.0</ele><time>2026-04-19T07:27:45.258Z</time></trkpt><trkpt lat="43.2455921" lon="12.066279"><ele>477.00000000000006</ele><time>2026-04-19T07:27:48.258Z</time></trkpt><trkpt lat="43.2456052" lon="12.0663945"><ele>477.00000000000006</ele><time>2026-04-19T07:27:51.2Z</time></trkpt><trkpt lat="43.2456221" lon="12.0665407"><ele>477.0</ele><time>2026-04-19T07:27:53.279Z</time></trkpt><trkpt lat="43.2456685" lon="12.0666672"><ele>477.0</ele><time>2026-04-19T07:27:55.251Z</time></trkpt><trkpt lat="43.2457276" lon="12.0667562"><ele>477.0</ele><time>2026-04-19T07:27:57.243Z</time></trkpt><trkpt lat="43.2457841" lon="12.0667983"><ele>477.00000000000006</ele><time>2026-04-19T07:28:00.252Z</time></trkpt><trkpt lat="43.2457058" lon="12.0666214"><ele>477.00000000000006</ele><time>2026-04-19T07:28:37.243Z</time></trkpt><trkpt lat="43.2456663" lon="12.0665031"><ele>477.0</ele><time>2026-04-19T07:28:38.236Z</time></trkpt><trkpt lat="43.2456338" lon="12.0663985"><ele>477.0</ele><time>2026-04-19T07:28:39.235Z</time></trkpt><trkpt lat="43.245599" lon="12.0662979"><ele>477.0</ele><time>2026-04-19T07:28:40.239Z</time></trkpt><trkpt lat="43.2455678" lon="12.0662068"><ele>477.0</ele><time>2026-04-19T07:28:41.23Z</time></trkpt><trkpt lat="43.2455402" lon="12.0661273"><ele>477.0</ele><time>2026-04-19T07:28:42.239Z</time></trkpt><trkpt lat="43.2455274" lon="12.0659789"><ele>477.0</ele><time>2026-04-19T07:28:44.246Z</time></trkpt><trkpt lat="43.2455459" lon="12.0658394"><ele>477.0</ele><time>2026-04-19T07:28:46.249Z</time></trkpt><trkpt lat="43.2455729" lon="12.0657276"><ele>477.0</ele><time>2026-04-19T07:28:48.26Z</time></trkpt><trkpt lat="43.245588" lon="12.0656149"><ele>474.5</ele><time>2026-04-19T07:28:50.25Z</time></trkpt><trkpt lat="43.245572" lon="12.0654906"><ele>472.0</ele><time>2026-04-19T07:28:52.253Z</time></trkpt><trkpt lat="43.245597" lon="12.0653899"><ele>469.5</ele><time>2026-04-19T07:28:55.25Z</time></trkpt><trkpt lat="43.2456319" lon="12.0652979"><ele>467.0</ele><time>2026-04-19T07:28:57.257Z</time></trkpt><trkpt lat="43.2456128" lon="12.0651786"><ele>464.5</ele><time>2026-04-19T07:28:59.257Z</time></trkpt><trkpt lat="43.2455889" lon="12.0650932"><ele>462.0</ele><time>2026-04-19T07:29:00.257Z</time></trkpt><trkpt lat="43.245536" lon="12.0649756"><ele>458.8</ele><time>2026-04-19T07:29:02.181Z</time></trkpt><trkpt lat="43.2455101" lon="12.0648864"><ele>455.6</ele><time>2026-04-19T07:29:03.24Z</time></trkpt><trkpt lat="43.2454928" lon="12.0647263"><ele>452.40000000000003</ele><time>2026-04-19T07:29:05.238Z</time></trkpt><trkpt lat="43.24549" lon="12.0645742"><ele>449.20000000000005</ele><time>2026-04-19T07:29:07.243Z</time></trkpt><trkpt lat="43.2454503" lon="12.0644439"><ele>446.0</ele><time>2026-04-19T07:29:09.241Z</time></trkpt><trkpt lat="43.2453749" lon="12.0643265"><ele>446.0</ele><time>2026-04-19T07:29:11.247Z</time></trkpt><trkpt lat="43.2452806" lon="12.0642226"><ele>446.0</ele><time>2026-04-19T07:29:13.25Z</time></trkpt><trkpt lat="43.245222" lon="12.0640863"><ele>446.0</ele><time>2026-04-19T07:29:15.247Z</time></trkpt><trkpt lat="43.2452215" lon="12.0639269"><ele>446.0</ele><time>2026-04-19T07:29:17.247Z</time></trkpt><trkpt lat="43.2452829" lon="12.0638329"><ele>446.0</ele><time>2026-04-19T07:29:19.256Z</time></trkpt><trkpt lat="43.2453752" lon="12.0638725"><ele>446.3333333333333</ele><time>2026-04-19T07:29:21.256Z</time></trkpt><trkpt lat="43.2454772" lon="12.0639632"><ele>446.66666666666663</ele><time>2026-04-19T07:29:23.252Z</time></trkpt><trkpt lat="43.2455284" lon="12.0640228"><ele>447.0</ele><time>2026-04-19T07:29:24.242Z</time></trkpt><trkpt lat="43.2455803" lon="12.0640793"><ele>447.33333333333337</ele><time>2026-04-19T07:29:25.257Z</time></trkpt><trkpt lat="43.2456738" lon="12.0641477"><ele>447.6666666666667</ele><time>2026-04-19T07:29:27.242Z</time></trkpt><trkpt lat="43.2457434" lon="12.0641044"><ele>448.0</ele><time>2026-04-19T07:29:29.257Z</time></trkpt><trkpt lat="43.2457762" lon="12.0640113"><ele>445.79999999999995</ele><time>2026-04-19T07:29:30.246Z</time></trkpt><trkpt lat="43.2458026" lon="12.0638925"><ele>443.59999999999997</ele><time>2026-04-19T07:29:31.249Z</time></trkpt><trkpt lat="43.2458264" lon="12.0637807"><ele>441.40000000000003</ele><time>2026-04-19T07:29:32.251Z</time></trkpt><trkpt lat="43.2458565" lon="12.0636681"><ele>439.20000000000005</ele><time>2026-04-19T07:29:33.246Z</time></trkpt><trkpt lat="43.2458943" lon="12.0635461"><ele>437.0</ele><time>2026-04-19T07:29:34.255Z</time></trkpt><trkpt lat="43.2459318" lon="12.0634273"><ele>437.0</ele><time>2026-04-19T07:29:35.255Z</time></trkpt><trkpt lat="43.2459658" lon="12.063327"><ele>437.0</ele><time>2026-04-19T07:29:36.257Z</time></trkpt><trkpt lat="43.2459964" lon="12.0632394"><ele>437.0</ele><time>2026-04-19T07:29:37.258Z</time></trkpt><trkpt lat="43.2460227" lon="12.0631545"><ele>437.0</ele><time>2026-04-19T07:29:38.258Z</time></trkpt><trkpt lat="43.2460377" lon="12.0630644"><ele>437.0</ele><time>2026-04-19T07:29:39.257Z</time></trkpt><trkpt lat="43.2460421" lon="12.0629692"><ele>437.0</ele><time>2026-04-19T07:29:40.253Z</time></trkpt><trkpt lat="43.2460403" lon="12.062877"><ele>437.0</ele><time>2026-04-19T07:29:41.256Z</time></trkpt><trkpt lat="43.2460372" lon="12.0627238"><ele>435.8</ele><time>2026-04-19T07:29:43.236Z</time></trkpt><trkpt lat="43.2460781" lon="12.0626039"><ele>434.6</ele><time>2026-04-19T07:29:45.238Z</time></trkpt><trkpt lat="43.2461149" lon="12.0625246"><ele>433.40000000000003</ele><time>2026-04-19T07:29:46.236Z</time></trkpt><trkpt lat="43.2461639" lon="12.062419"><ele>432.20000000000005</ele><time>2026-04-19T07:29:47.241Z</time></trkpt><trkpt lat="43.2462185" lon="12.062301"><ele>431.0</ele><time>2026-04-19T07:29:48.242Z</time></trkpt><trkpt lat="43.2462683" lon="12.0621931"><ele>430.66666666666663</ele><time>2026-04-19T07:29:49.237Z</time></trkpt><trkpt lat="43.2463115" lon="12.0621054"><ele>430.3333333333333</ele><time>2026-04-19T07:29:50.243Z</time></trkpt><trkpt lat="43.246352" lon="12.0620291"><ele>430.0</ele><time>2026-04-19T07:29:51.231Z</time></trkpt><trkpt lat="43.2464112" lon="12.0618878"><ele>429.66666666666663</ele><time>2026-04-19T07:29:53.237Z</time></trkpt><trkpt lat="43.2464382" lon="12.0618043"><ele>429.3333333333333</ele><time>2026-04-19T07:29:54.241Z</time></trkpt><trkpt lat="43.2464638" lon="12.0617128"><ele>429.0</ele><time>2026-04-19T07:29:55.24Z</time></trkpt><trkpt lat="43.2464925" lon="12.0616244"><ele>428.42857142857144</ele><time>2026-04-19T07:29:56.257Z</time></trkpt><trkpt lat="43.246521" lon="12.061544"><ele>427.8571428571429</ele><time>2026-04-19T07:29:57.242Z</time></trkpt><trkpt lat="43.2465547" lon="12.0614587"><ele>427.2857142857143</ele><time>2026-04-19T07:29:58.241Z</time></trkpt><trkpt lat="43.2465919" lon="12.0613761"><ele>426.7142857142857</ele><time>2026-04-19T07:29:59.241Z</time></trkpt><trkpt lat="43.2466342" lon="12.0612963"><ele>426.1428571428571</ele><time>2026-04-19T07:30:00.24Z</time></trkpt><trkpt lat="43.2466794" lon="12.061215"><ele>425.57142857142856</ele><time>2026-04-19T07:30:01.239Z</time></trkpt><trkpt lat="43.2467225" lon="12.0611457"><ele>425.0</ele><time>2026-04-19T07:30:02.24Z</time></trkpt><trkpt lat="43.2467659" lon="12.0610824"><ele>425.0</ele><time>2026-04-19T07:30:03.245Z</time></trkpt><trkpt lat="43.2468643" lon="12.0609726"><ele>425.0</ele><time>2026-04-19T07:30:05.238Z</time></trkpt><trkpt lat="43.2469232" lon="12.0609237"><ele>425.0</ele><time>2026-04-19T07:30:06.235Z</time></trkpt><trkpt lat="43.2470193" lon="12.0608494"><ele>425.0</ele><time>2026-04-19T07:30:08.235Z</time></trkpt><trkpt lat="43.2471031" lon="12.0607689"><ele>425.0</ele><time>2026-04-19T07:30:10.244Z</time></trkpt><trkpt lat="43.2471644" lon="12.0606617"><ele>424.99999999999994</ele><time>2026-04-19T07:30:12.237Z</time></trkpt><trkpt lat="43.2472239" lon="12.0606252"><ele>425.0</ele><time>2026-04-19T07:30:14.252Z</time></trkpt><trkpt lat="43.2472723" lon="12.0607458"><ele>425.0</ele><time>2026-04-19T07:30:16.25Z</time></trkpt><trkpt lat="43.2472864" lon="12.0608464"><ele>425.0</ele><time>2026-04-19T07:30:17.233Z</time></trkpt><trkpt lat="43.2473057" lon="12.0609558"><ele>424.99999999999994</ele><time>2026-04-19T07:30:18.242Z</time></trkpt><trkpt lat="43.2473274" lon="12.0610508"><ele>425.0</ele><time>2026-04-19T07:30:19.236Z</time></trkpt><trkpt lat="43.2473495" lon="12.0611391"><ele>421.66666666666663</ele><time>2026-04-19T07:30:20.233Z</time></trkpt><trkpt lat="43.2473704" lon="12.0612317"><ele>418.3333333333333</ele><time>2026-04-19T07:30:21.244Z</time></trkpt><trkpt lat="43.2473917" lon="12.0613176"><ele>415.0</ele><time>2026-04-19T07:30:22.236Z</time></trkpt><trkpt lat="43.2474131" lon="12.061399"><ele>411.66666666666663</ele><time>2026-04-19T07:30:23.243Z</time></trkpt><trkpt lat="43.2474511" lon="12.0615556"><ele>408.3333333333333</ele><time>2026-04-19T07:30:25.233Z</time></trkpt><trkpt lat="43.2474772" lon="12.0616419"><ele>405.0</ele><time>2026-04-19T07:30:26.236Z</time></trkpt><trkpt lat="43.2474934" lon="12.0617268"><ele>404.6</ele><time>2026-04-19T07:30:27.248Z</time></trkpt><trkpt lat="43.2475095" lon="12.0618769"><ele>404.2</ele><time>2026-04-19T07:30:29.244Z</time></trkpt><trkpt lat="43.2475198" lon="12.0620199"><ele>403.79999999999995</ele><time>2026-04-19T07:30:31.235Z</time></trkpt><trkpt lat="43.2475162" lon="12.0621802"><ele>403.4</ele><time>2026-04-19T07:30:33.238Z</time></trkpt><trkpt lat="43.2475192" lon="12.0623095"><ele>403.0</ele><time>2026-04-19T07:30:35.239Z</time></trkpt><trkpt lat="43.247549" lon="12.0624254"><ele>403.14285714285717</ele><time>2026-04-19T07:30:37.246Z</time></trkpt><trkpt lat="43.2475794" lon="12.0625039"><ele>403.2857142857143</ele><time>2026-04-19T07:30:38.228Z</time></trkpt><trkpt lat="43.2476157" lon="12.0625866"><ele>403.42857142857144</ele><time>2026-04-19T07:30:39.234Z</time></trkpt><trkpt lat="43.2476613" lon="12.0626724"><ele>403.57142857142856</ele><time>2026-04-19T07:30:40.236Z</time></trkpt><trkpt lat="43.2477024" lon="12.0627433"><ele>403.71428571428567</ele><time>2026-04-19T07:30:41.231Z</time></trkpt><trkpt lat="43.2477453" lon="12.0628251"><ele>403.85714285714283</ele><time>2026-04-19T07:30:43.244Z</time></trkpt><trkpt lat="43.2477712" lon="12.0629127"><ele>404.0</ele><time>2026-04-19T07:30:45.243Z</time></trkpt><trkpt lat="43.2477944" lon="12.063017"><ele>403.99999999999994</ele><time>2026-04-19T07:30:47.25Z</time></trkpt><trkpt lat="43.247802" lon="12.0631297"><ele>404.0</ele><time>2026-04-19T07:30:49.25Z</time></trkpt><trkpt lat="43.2478098" lon="12.0632532"><ele>404.0</ele><time>2026-04-19T07:30:51.254Z</time></trkpt><trkpt lat="43.2478461" lon="12.0633612"><ele>404.0</ele><time>2026-04-19T07:30:53.249Z</time></trkpt><trkpt lat="43.2479136" lon="12.0634303"><ele>403.99999999999994</ele><time>2026-04-19T07:30:55.247Z</time></trkpt><trkpt lat="43.2480056" lon="12.0634212"><ele>404.0</ele><time>2026-04-19T07:30:57.243Z</time></trkpt><trkpt lat="43.2480842" lon="12.0633529"><ele>399.4</ele><time>2026-04-19T07:30:59.244Z</time></trkpt><trkpt lat="43.2481638" lon="12.0632804"><ele>394.79999999999995</ele><time>2026-04-19T07:31:01.254Z</time></trkpt><trkpt lat="43.248234" lon="12.0632099"><ele>390.20000000000005</ele><time>2026-04-19T07:31:03.253Z</time></trkpt><trkpt lat="43.2482938" lon="12.063154"><ele>385.6</ele><time>2026-04-19T07:31:05.248Z</time></trkpt><trkpt lat="43.2483398" lon="12.0630595"><ele>381.0</ele><time>2026-04-19T07:31:07.25Z</time></trkpt><trkpt lat="43.2484079" lon="12.0629354"><ele>381.0</ele><time>2026-04-19T07:31:09.239Z</time></trkpt><trkpt lat="43.2484579" lon="12.0628804"><ele>381.0</ele><time>2026-04-19T07:31:10.238Z</time></trkpt><trkpt lat="43.2485138" lon="12.0628282"><ele>381.0</ele><time>2026-04-19T07:31:11.238Z</time></trkpt><trkpt lat="43.2485739" lon="12.062773"><ele>381.0</ele><time>2026-04-19T07:31:12.234Z</time></trkpt><trkpt lat="43.2486355" lon="12.0627117"><ele>381.0</ele><time>2026-04-19T07:31:13.243Z</time></trkpt><trkpt lat="43.2486928" lon="12.0626495"><ele>381.0</ele><time>2026-04-19T07:31:14.235Z</time></trkpt><trkpt lat="43.2487493" lon="12.0625915"><ele>381.0</ele><time>2026-04-19T07:31:15.241Z</time></trkpt><trkpt lat="43.2488077" lon="12.0625445"><ele>381.0</ele><time>2026-04-19T07:31:16.237Z</time></trkpt><trkpt lat="43.2488722" lon="12.0625042"><ele>381.0</ele><time>2026-04-19T07:31:17.236Z</time></trkpt><trkpt lat="43.2489462" lon="12.0624693"><ele>381.0</ele><time>2026-04-19T07:31:18.238Z</time></trkpt><trkpt lat="43.2490283" lon="12.0624382"><ele>381.0</ele><time>2026-04-19T07:31:19.24Z</time></trkpt><trkpt lat="43.2491122" lon="12.0624067"><ele>381.0</ele><time>2026-04-19T07:31:20.237Z</time></trkpt><trkpt lat="43.2491921" lon="12.0623747"><ele>381.0</ele><time>2026-04-19T07:31:21.241Z</time></trkpt><trkpt lat="43.2492662" lon="12.0623487"><ele>377.6666666666667</ele><time>2026-04-19T07:31:22.236Z</time></trkpt><trkpt lat="43.2493344" lon="12.0623285"><ele>374.3333333333333</ele><time>2026-04-19T07:31:23.241Z</time></trkpt><trkpt lat="43.2494442" lon="12.0623122"><ele>371.0</ele><time>2026-04-19T07:31:25.23Z</time></trkpt><trkpt lat="43.249512" lon="12.0623866"><ele>367.66666666666663</ele><time>2026-04-19T07:31:27.253Z</time></trkpt><trkpt lat="43.2495204" lon="12.0624743"><ele>364.3333333333333</ele><time>2026-04-19T07:31:28.253Z</time></trkpt><trkpt lat="43.2495107" lon="12.0625881"><ele>361.0</ele><time>2026-04-19T07:31:29.253Z</time></trkpt><trkpt lat="43.2494857" lon="12.0627139"><ele>361.0</ele><time>2026-04-19T07:31:30.235Z</time></trkpt><trkpt lat="43.2494602" lon="12.0628437"><ele>361.0</ele><time>2026-04-19T07:31:31.237Z</time></trkpt><trkpt lat="43.2494283" lon="12.062964"><ele>361.0</ele><time>2026-04-19T07:31:32.237Z</time></trkpt><trkpt lat="43.249408" lon="12.0630487"><ele>361.0</ele><time>2026-04-19T07:31:33.241Z</time></trkpt><trkpt lat="43.2495032" lon="12.0630702"><ele>361.0</ele><time>2026-04-19T07:31:37.247Z</time></trkpt><trkpt lat="43.2495432" lon="12.0630027"><ele>361.0</ele><time>2026-04-19T07:31:38.236Z</time></trkpt><trkpt lat="43.249597" lon="12.062922"><ele>361.0</ele><time>2026-04-19T07:31:39.228Z</time></trkpt><trkpt lat="43.2496532" lon="12.0628402"><ele>361.0</ele><time>2026-04-19T07:31:40.232Z</time></trkpt><trkpt lat="43.2497059" lon="12.0627523"><ele>361.0</ele><time>2026-04-19T07:31:41.229Z</time></trkpt><trkpt lat="43.2497543" lon="12.0626669"><ele>361.0</ele><time>2026-04-19T07:31:42.236Z</time></trkpt><trkpt lat="43.2498004" lon="12.0625909"><ele>361.0</ele><time>2026-04-19T07:31:43.234Z</time></trkpt><trkpt lat="43.2498804" lon="12.0625197"><ele>361.0</ele><time>2026-04-19T07:31:45.247Z</time></trkpt><trkpt lat="43.2498979" lon="12.0626247"><ele>357.5</ele><time>2026-04-19T07:31:47.247Z</time></trkpt><trkpt lat="43.2498856" lon="12.0627127"><ele>354.0</ele><time>2026-04-19T07:31:48.248Z</time></trkpt><trkpt lat="43.2498698" lon="12.062816"><ele>350.5</ele><time>2026-04-19T07:31:49.234Z</time></trkpt><trkpt lat="43.2498485" lon="12.0629324"><ele>347.0</ele><time>2026-04-19T07:31:50.239Z</time></trkpt><trkpt lat="43.2498287" lon="12.0630479"><ele>343.5</ele><time>2026-04-19T07:31:51.236Z</time></trkpt><trkpt lat="43.2498174" lon="12.0631536"><ele>340.0</ele><time>2026-04-19T07:31:52.241Z</time></trkpt><trkpt lat="43.2498141" lon="12.0632827"><ele>340.0</ele><time>2026-04-19T07:31:54.238Z</time></trkpt><trkpt lat="43.2498607" lon="12.063207"><ele>340.0</ele><time>2026-04-19T07:33:03.245Z</time></trkpt><trkpt lat="43.2499304" lon="12.063105"><ele>340.0</ele><time>2026-04-19T07:33:04.242Z</time></trkpt><trkpt lat="43.2499945" lon="12.0630036"><ele>340.0</ele><time>2026-04-19T07:33:05.236Z</time></trkpt><trkpt lat="43.2500425" lon="12.0629128"><ele>340.0</ele><time>2026-04-19T07:33:06.235Z</time></trkpt><trkpt lat="43.2500878" lon="12.0628376"><ele>340.0</ele><time>2026-04-19T07:33:07.236Z</time></trkpt><trkpt lat="43.2501315" lon="12.0627692"><ele>340.0</ele><time>2026-04-19T07:33:08.232Z</time></trkpt><trkpt lat="43.2502173" lon="12.0626425"><ele>340.0</ele><time>2026-04-19T07:33:10.242Z</time></trkpt><trkpt lat="43.2502669" lon="12.0625677"><ele>340.0</ele><time>2026-04-19T07:33:11.236Z</time></trkpt><trkpt lat="43.2503215" lon="12.0624887"><ele>340.0</ele><time>2026-04-19T07:33:12.226Z</time></trkpt><trkpt lat="43.2503786" lon="12.0624131"><ele>340.0</ele><time>2026-04-19T07:33:13.233Z</time></trkpt><trkpt lat="43.2504262" lon="12.0623435"><ele>340.0</ele><time>2026-04-19T07:33:14.232Z</time></trkpt><trkpt lat="43.250473" lon="12.0622842"><ele>340.4</ele><time>2026-04-19T07:33:15.232Z</time></trkpt><trkpt lat="43.2505607" lon="12.0621854"><ele>340.8</ele><time>2026-04-19T07:33:17.233Z</time></trkpt><trkpt lat="43.2506874" lon="12.0621338"><ele>341.20000000000005</ele><time>2026-04-19T07:33:19.234Z</time></trkpt><trkpt lat="43.2507616" lon="12.0621172"><ele>341.6</ele><time>2026-04-19T07:33:20.242Z</time></trkpt><trkpt lat="43.2508403" lon="12.0621076"><ele>342.0</ele><time>2026-04-19T07:33:21.243Z</time></trkpt><trkpt lat="43.2509206" lon="12.0621048"><ele>339.6666666666667</ele><time>2026-04-19T07:33:22.239Z</time></trkpt><trkpt lat="43.2510045" lon="12.0621068"><ele>337.3333333333333</ele><time>2026-04-19T07:33:23.243Z</time></trkpt><trkpt lat="43.2510902" lon="12.0621182"><ele>335.0</ele><time>2026-04-19T07:33:24.246Z</time></trkpt><trkpt lat="43.2511767" lon="12.0621276"><ele>332.66666666666663</ele><time>2026-04-19T07:33:25.235Z</time></trkpt><trkpt lat="43.2512651" lon="12.0621321"><ele>330.3333333333333</ele><time>2026-04-19T07:33:26.239Z</time></trkpt><trkpt lat="43.2513613" lon="12.0621222"><ele>328.0</ele><time>2026-04-19T07:33:27.236Z</time></trkpt><trkpt lat="43.2514595" lon="12.0620878"><ele>325.0</ele><time>2026-04-19T07:33:28.237Z</time></trkpt><trkpt lat="43.2515642" lon="12.0620401"><ele>322.0</ele><time>2026-04-19T07:33:29.235Z</time></trkpt><trkpt lat="43.2516648" lon="12.0619903"><ele>319.0</ele><time>2026-04-19T07:33:30.236Z</time></trkpt><trkpt lat="43.2517593" lon="12.0619512"><ele>316.0</ele><time>2026-04-19T07:33:31.237Z</time></trkpt><trkpt lat="43.2518532" lon="12.0619182"><ele>313.0</ele><time>2026-04-19T07:33:32.238Z</time></trkpt><trkpt lat="43.2519537" lon="12.061887"><ele>313.0</ele><time>2026-04-19T07:33:33.25Z</time></trkpt><trkpt lat="43.2520501" lon="12.0618524"><ele>313.0</ele><time>2026-04-19T07:33:34.239Z</time></trkpt><trkpt lat="43.2521432" lon="12.0618239"><ele>313.0</ele><time>2026-04-19T07:33:35.235Z</time></trkpt><trkpt lat="43.2522298" lon="12.0617899"><ele>313.0</ele><time>2026-04-19T07:33:36.233Z</time></trkpt><trkpt lat="43.2523124" lon="12.0617433"><ele>313.0</ele><time>2026-04-19T07:33:37.241Z</time></trkpt><trkpt lat="43.252394" lon="12.0616653"><ele>310.0</ele><time>2026-04-19T07:33:38.244Z</time></trkpt><trkpt lat="43.2524808" lon="12.0615512"><ele>307.0</ele><time>2026-04-19T07:33:39.237Z</time></trkpt><trkpt lat="43.2525619" lon="12.0614258"><ele>304.0</ele><time>2026-04-19T07:33:40.238Z</time></trkpt><trkpt lat="43.2526347" lon="12.0613066"><ele>301.0</ele><time>2026-04-19T07:33:41.245Z</time></trkpt><trkpt lat="43.2527056" lon="12.0611949"><ele>301.0</ele><time>2026-04-19T07:33:42.24Z</time></trkpt><trkpt lat="43.2527776" lon="12.0610856"><ele>301.0</ele><time>2026-04-19T07:33:43.243Z</time></trkpt><trkpt lat="43.2528445" lon="12.0609809"><ele>301.0</ele><time>2026-04-19T07:33:44.235Z</time></trkpt><trkpt lat="43.2529059" lon="12.0608779"><ele>301.0</ele><time>2026-04-19T07:33:45.242Z</time></trkpt><trkpt lat="43.2529646" lon="12.0607837"><ele>301.0</ele><time>2026-04-19T07:33:46.24Z</time></trkpt><trkpt lat="43.2530168" lon="12.0607041"><ele>300.75</ele><time>2026-04-19T07:33:47.242Z</time></trkpt><trkpt lat="43.2531083" lon="12.0606102"><ele>300.5</ele><time>2026-04-19T07:33:49.235Z</time></trkpt><trkpt lat="43.2532413" lon="12.0606449"><ele>300.25</ele><time>2026-04-19T07:33:51.238Z</time></trkpt><trkpt lat="43.2533308" lon="12.0607026"><ele>300.0</ele><time>2026-04-19T07:33:52.247Z</time></trkpt><trkpt lat="43.253428" lon="12.0607668"><ele>299.6</ele><time>2026-04-19T07:33:53.243Z</time></trkpt><trkpt lat="43.2535179" lon="12.0608263"><ele>299.2</ele><time>2026-04-19T07:33:54.242Z</time></trkpt><trkpt lat="43.2536012" lon="12.0608753"><ele>298.8</ele><time>2026-04-19T07:33:55.24Z</time></trkpt><trkpt lat="43.2536792" lon="12.060905"><ele>298.4</ele><time>2026-04-19T07:33:56.234Z</time></trkpt><trkpt lat="43.2537427" lon="12.0609015"><ele>298.0</ele><time>2026-04-19T07:33:57.238Z</time></trkpt><trkpt lat="43.2538151" lon="12.0607769"><ele>297.66666666666663</ele><time>2026-04-19T07:33:59.238Z</time></trkpt><trkpt lat="43.2538176" lon="12.0606696"><ele>297.3333333333333</ele><time>2026-04-19T07:34:00.237Z</time></trkpt><trkpt lat="43.2538061" lon="12.0605464"><ele>297.0</ele><time>2026-04-19T07:34:01.238Z</time></trkpt><trkpt lat="43.2538029" lon="12.0604181"><ele>296.6666666666667</ele><time>2026-04-19T07:34:02.236Z</time></trkpt><trkpt lat="43.2538084" lon="12.0602929"><ele>296.33333333333337</ele><time>2026-04-19T07:34:03.23Z</time></trkpt><trkpt lat="43.2538266" lon="12.0601759"><ele>296.0</ele><time>2026-04-19T07:34:04.243Z</time></trkpt><trkpt lat="43.253859" lon="12.0600689"><ele>296.0</ele><time>2026-04-19T07:34:05.233Z</time></trkpt><trkpt lat="43.2539128" lon="12.0599646"><ele>296.0</ele><time>2026-04-19T07:34:06.234Z</time></trkpt><trkpt lat="43.2539798" lon="12.0598589"><ele>296.0</ele><time>2026-04-19T07:34:07.23Z</time></trkpt><trkpt lat="43.2540543" lon="12.059759"><ele>296.0</ele><time>2026-04-19T07:34:08.24Z</time></trkpt><trkpt lat="43.254126" lon="12.0596764"><ele>296.0</ele><time>2026-04-19T07:34:09.222Z</time></trkpt><trkpt lat="43.2541887" lon="12.0596083"><ele>295.83333333333337</ele><time>2026-04-19T07:34:10.234Z</time></trkpt><trkpt lat="43.2542479" lon="12.0595709"><ele>295.6666666666667</ele><time>2026-04-19T07:34:11.233Z</time></trkpt><trkpt lat="43.2543589" lon="12.0595618"><ele>295.5</ele><time>2026-04-19T07:34:13.233Z</time></trkpt><trkpt lat="43.2544339" lon="12.059565"><ele>295.3333333333333</ele><time>2026-04-19T07:34:15.246Z</time></trkpt><trkpt lat="43.2544581" lon="12.0594825"><ele>295.16666666666663</ele><time>2026-04-19T07:34:17.242Z</time></trkpt><trkpt lat="43.2544533" lon="12.0593225"><ele>295.0</ele><time>2026-04-19T07:34:19.237Z</time></trkpt><trkpt lat="43.2544559" lon="12.0592308"><ele>295.0</ele><time>2026-04-19T07:34:20.243Z</time></trkpt><trkpt lat="43.254465" lon="12.0591451"><ele>295.0</ele><time>2026-04-19T07:34:21.239Z</time></trkpt><trkpt lat="43.25448" lon="12.0589638"><ele>295.0</ele><time>2026-04-19T07:34:23.235Z</time></trkpt><trkpt lat="43.2544867" lon="12.0588391"><ele>295.0</ele><time>2026-04-19T07:34:24.243Z</time></trkpt><trkpt lat="43.254494" lon="12.0586941"><ele>295.0</ele><time>2026-04-19T07:34:25.237Z</time></trkpt><trkpt lat="43.2545022" lon="12.0585408"><ele>294.0</ele><time>2026-04-19T07:34:26.237Z</time></trkpt><trkpt lat="43.2545122" lon="12.0583752"><ele>293.0</ele><time>2026-04-19T07:34:27.244Z</time></trkpt><trkpt lat="43.2545232" lon="12.0581988"><ele>292.0</ele><time>2026-04-19T07:34:28.242Z</time></trkpt><trkpt lat="43.2545347" lon="12.0580254"><ele>291.0</ele><time>2026-04-19T07:34:29.245Z</time></trkpt><trkpt lat="43.2545449" lon="12.0578648"><ele>290.5</ele><time>2026-04-19T07:34:30.242Z</time></trkpt><trkpt lat="43.2545545" lon="12.0577091"><ele>290.0</ele><time>2026-04-19T07:34:31.243Z</time></trkpt><trkpt lat="43.2545637" lon="12.057551"><ele>289.5</ele><time>2026-04-19T07:34:32.24Z</time></trkpt><trkpt lat="43.2545704" lon="12.057385"><ele>289.0</ele><time>2026-04-19T07:34:33.243Z</time></trkpt><trkpt lat="43.2545718" lon="12.0572072"><ele>289.0</ele><time>2026-04-19T07:34:34.242Z</time></trkpt><trkpt lat="43.254567" lon="12.057019"><ele>289.0</ele><time>2026-04-19T07:34:35.253Z</time></trkpt><trkpt lat="43.2545551" lon="12.0568257"><ele>289.0</ele><time>2026-04-19T07:34:36.25Z</time></trkpt><trkpt lat="43.2545361" lon="12.0566222"><ele>289.0</ele><time>2026-04-19T07:34:37.256Z</time></trkpt><trkpt lat="43.2545084" lon="12.0564363"><ele>289.0</ele><time>2026-04-19T07:34:38.246Z</time></trkpt><trkpt lat="43.2544852" lon="12.0562493"><ele>289.0</ele><time>2026-04-19T07:34:39.246Z</time></trkpt><trkpt lat="43.2544622" lon="12.0560496"><ele>289.0</ele><time>2026-04-19T07:34:40.253Z</time></trkpt><trkpt lat="43.2544489" lon="12.0558347"><ele>289.0</ele><time>2026-04-19T07:34:41.248Z</time></trkpt><trkpt lat="43.2544336" lon="12.0556118"><ele>289.3333333333333</ele><time>2026-04-19T07:34:42.247Z</time></trkpt><trkpt lat="43.2544147" lon="12.0553938"><ele>289.6666666666667</ele><time>2026-04-19T07:34:43.25Z</time></trkpt><trkpt lat="43.2543945" lon="12.0551853"><ele>290.0</ele><time>2026-04-19T07:34:44.251Z</time></trkpt><trkpt lat="43.2543797" lon="12.0549799"><ele>289.6666666666667</ele><time>2026-04-19T07:34:45.249Z</time></trkpt><trkpt lat="43.2543682" lon="12.0547724"><ele>289.3333333333333</ele><time>2026-04-19T07:34:46.253Z</time></trkpt><trkpt lat="43.2543579" lon="12.0545592"><ele>289.0</ele><time>2026-04-19T07:34:47.242Z</time></trkpt><trkpt lat="43.2543436" lon="12.0543333"><ele>289.0</ele><time>2026-04-19T07:34:48.243Z</time></trkpt><trkpt lat="43.2543257" lon="12.0540888"><ele>289.0</ele><time>2026-04-19T07:34:49.243Z</time></trkpt><trkpt lat="43.2543032" lon="12.0538541"><ele>289.0</ele><time>2026-04-19T07:34:50.243Z</time></trkpt><trkpt lat="43.2542816" lon="12.0536369"><ele>289.0</ele><time>2026-04-19T07:34:51.245Z</time></trkpt><trkpt lat="43.2542649" lon="12.0534325"><ele>289.0</ele><time>2026-04-19T07:34:52.244Z</time></trkpt><trkpt lat="43.2542517" lon="12.053241"><ele>289.0</ele><time>2026-04-19T07:34:53.248Z</time></trkpt><trkpt lat="43.2542388" lon="12.0530578"><ele>289.0</ele><time>2026-04-19T07:34:54.249Z</time></trkpt><trkpt lat="43.2542191" lon="12.0528733"><ele>288.66666666666663</ele><time>2026-04-19T07:34:55.242Z</time></trkpt><trkpt lat="43.2541992" lon="12.0526746"><ele>288.3333333333333</ele><time>2026-04-19T07:34:56.243Z</time></trkpt><trkpt lat="43.2541783" lon="12.0524593"><ele>288.0</ele><time>2026-04-19T07:34:57.241Z</time></trkpt><trkpt lat="43.2541563" lon="12.0522305"><ele>288.0</ele><time>2026-04-19T07:34:58.244Z</time></trkpt><trkpt lat="43.254128" lon="12.0520049"><ele>288.0</ele><time>2026-04-19T07:34:59.239Z</time></trkpt><trkpt lat="43.2540979" lon="12.0517913"><ele>288.0</ele><time>2026-04-19T07:35:00.25Z</time></trkpt><trkpt lat="43.2540455" lon="12.0513878"><ele>286.6666666666667</ele><time>2026-04-19T07:35:02.247Z</time></trkpt><trkpt lat="43.2540266" lon="12.0511717"><ele>285.33333333333337</ele><time>2026-04-19T07:35:03.244Z</time></trkpt><trkpt lat="43.2540009" lon="12.0509449"><ele>284.0</ele><time>2026-04-19T07:35:04.247Z</time></trkpt><trkpt lat="43.2539752" lon="12.0507101"><ele>284.33333333333337</ele><time>2026-04-19T07:35:05.244Z</time></trkpt><trkpt lat="43.2539414" lon="12.050469"><ele>284.6666666666667</ele><time>2026-04-19T07:35:06.257Z</time></trkpt><trkpt lat="43.2539098" lon="12.0502441"><ele>285.0</ele><time>2026-04-19T07:35:07.245Z</time></trkpt><trkpt lat="43.2538789" lon="12.050041"><ele>285.3333333333333</ele><time>2026-04-19T07:35:08.247Z</time></trkpt><trkpt lat="43.2538482" lon="12.0498361"><ele>285.66666666666663</ele><time>2026-04-19T07:35:09.248Z</time></trkpt><trkpt lat="43.2538207" lon="12.0496192"><ele>286.0</ele><time>2026-04-19T07:35:10.244Z</time></trkpt><trkpt lat="43.2537964" lon="12.0493993"><ele>286.0</ele><time>2026-04-19T07:35:11.244Z</time></trkpt><trkpt lat="43.2537726" lon="12.0491711"><ele>286.0</ele><time>2026-04-19T07:35:12.245Z</time></trkpt><trkpt lat="43.2537488" lon="12.0489377"><ele>286.0</ele><time>2026-04-19T07:35:13.242Z</time></trkpt><trkpt lat="43.2537242" lon="12.0487213"><ele>285.3333333333333</ele><time>2026-04-19T07:35:14.243Z</time></trkpt><trkpt lat="43.2536996" lon="12.0485112"><ele>284.6666666666667</ele><time>2026-04-19T07:35:15.244Z</time></trkpt><trkpt lat="43.2536735" lon="12.0483001"><ele>284.0</ele><time>2026-04-19T07:35:16.248Z</time></trkpt><trkpt lat="43.2536455" lon="12.0480802"><ele>284.0</ele><time>2026-04-19T07:35:17.244Z</time></trkpt><trkpt lat="43.2536147" lon="12.0478644"><ele>284.0</ele><time>2026-04-19T07:35:18.243Z</time></trkpt><trkpt lat="43.2535923" lon="12.0476657"><ele>284.0</ele><time>2026-04-19T07:35:19.242Z</time></trkpt><trkpt lat="43.2535753" lon="12.04749"><ele>284.0</ele><time>2026-04-19T07:35:20.243Z</time></trkpt><trkpt lat="43.2535582" lon="12.0473214"><ele>284.0</ele><time>2026-04-19T07:35:21.244Z</time></trkpt><trkpt lat="43.2535381" lon="12.04717"><ele>284.0</ele><time>2026-04-19T07:35:22.246Z</time></trkpt><trkpt lat="43.2535166" lon="12.0470343"><ele>284.0</ele><time>2026-04-19T07:35:23.241Z</time></trkpt><trkpt lat="43.253499" lon="12.0469143"><ele>284.0</ele><time>2026-04-19T07:35:24.24Z</time></trkpt><trkpt lat="43.2534817" lon="12.0467955"><ele>284.0</ele><time>2026-04-19T07:35:25.246Z</time></trkpt><trkpt lat="43.2534696" lon="12.0466642"><ele>283.83333333333337</ele><time>2026-04-19T07:35:26.245Z</time></trkpt><trkpt lat="43.253456" lon="12.046534"><ele>283.6666666666667</ele><time>2026-04-19T07:35:27.249Z</time></trkpt><trkpt lat="43.253441" lon="12.0464144"><ele>283.5</ele><time>2026-04-19T07:35:28.241Z</time></trkpt><trkpt lat="43.2534253" lon="12.0463039"><ele>283.3333333333333</ele><time>2026-04-19T07:35:29.245Z</time></trkpt><trkpt lat="43.2534126" lon="12.0462001"><ele>283.16666666666663</ele><time>2026-04-19T07:35:30.243Z</time></trkpt><trkpt lat="43.2533984" lon="12.0461113"><ele>283.0</ele><time>2026-04-19T07:35:31.243Z</time></trkpt><trkpt lat="43.2533865" lon="12.0460156"><ele>283.0</ele><time>2026-04-19T07:35:33.243Z</time></trkpt><trkpt lat="43.253426" lon="12.0459459"><ele>283.0</ele><time>2026-04-19T07:35:36.253Z</time></trkpt><trkpt lat="43.2535186" lon="12.0459272"><ele>283.0</ele><time>2026-04-19T07:35:39.254Z</time></trkpt><trkpt lat="43.2535867" lon="12.0459401"><ele>283.0</ele><time>2026-04-19T07:35:41.183Z</time></trkpt><trkpt lat="43.253693" lon="12.0459655"><ele>283.0</ele><time>2026-04-19T07:35:42.24Z</time></trkpt><trkpt lat="43.2537866" lon="12.0459883"><ele>283.0</ele><time>2026-04-19T07:35:43.244Z</time></trkpt><trkpt lat="43.2538819" lon="12.0460143"><ele>282.8333333333333</ele><time>2026-04-19T07:35:44.239Z</time></trkpt><trkpt lat="43.2539721" lon="12.0460389"><ele>282.66666666666663</ele><time>2026-04-19T07:35:45.237Z</time></trkpt><trkpt lat="43.2540605" lon="12.0460723"><ele>282.5</ele><time>2026-04-19T07:35:46.247Z</time></trkpt><trkpt lat="43.2541406" lon="12.0461039"><ele>282.3333333333333</ele><time>2026-04-19T07:35:47.244Z</time></trkpt><trkpt lat="43.2542135" lon="12.0461309"><ele>282.1666666666667</ele><time>2026-04-19T07:35:48.248Z</time></trkpt><trkpt lat="43.2542805" lon="12.046154"><ele>282.0</ele><time>2026-04-19T07:35:49.245Z</time></trkpt><trkpt lat="43.2543424" lon="12.0461727"><ele>282.0</ele><time>2026-04-19T07:35:50.239Z</time></trkpt><trkpt lat="43.2544643" lon="12.0462106"><ele>282.0</ele><time>2026-04-19T07:35:52.244Z</time></trkpt><trkpt lat="43.25453" lon="12.0462301"><ele>282.0</ele><time>2026-04-19T07:35:53.244Z</time></trkpt><trkpt lat="43.2546001" lon="12.0462532"><ele>282.0</ele><time>2026-04-19T07:35:54.245Z</time></trkpt><trkpt lat="43.2546725" lon="12.0462774"><ele>282.0</ele><time>2026-04-19T07:35:55.242Z</time></trkpt><trkpt lat="43.254759" lon="12.0463002"><ele>282.0</ele><time>2026-04-19T07:35:56.251Z</time></trkpt><trkpt lat="43.2548573" lon="12.0463315"><ele>282.2</ele><time>2026-04-19T07:35:57.249Z</time></trkpt><trkpt lat="43.2549645" lon="12.0463631"><ele>282.4</ele><time>2026-04-19T07:35:58.247Z</time></trkpt><trkpt lat="43.2550708" lon="12.046398"><ele>282.6</ele><time>2026-04-19T07:35:59.246Z</time></trkpt><trkpt lat="43.2551809" lon="12.0464396"><ele>282.8</ele><time>2026-04-19T07:36:00.248Z</time></trkpt><trkpt lat="43.2552848" lon="12.0464811"><ele>283.0</ele><time>2026-04-19T07:36:01.237Z</time></trkpt><trkpt lat="43.2553859" lon="12.0465257"><ele>283.0</ele><time>2026-04-19T07:36:02.241Z</time></trkpt><trkpt lat="43.2554881" lon="12.0465772"><ele>283.0</ele><time>2026-04-19T07:36:03.249Z</time></trkpt><trkpt lat="43.2555966" lon="12.0466324"><ele>283.0</ele><time>2026-04-19T07:36:04.232Z</time></trkpt><trkpt lat="43.2557126" lon="12.0466943"><ele>283.0</ele><time>2026-04-19T07:36:05.238Z</time></trkpt><trkpt lat="43.2558416" lon="12.046766"><ele>284.5</ele><time>2026-04-19T07:36:06.238Z</time></trkpt><trkpt lat="43.2559738" lon="12.0468384"><ele>286.0</ele><time>2026-04-19T07:36:07.24Z</time></trkpt><trkpt lat="43.2561044" lon="12.0469087"><ele>287.5</ele><time>2026-04-19T07:36:08.258Z</time></trkpt><trkpt lat="43.2562394" lon="12.0469822"><ele>289.0</ele><time>2026-04-19T07:36:09.241Z</time></trkpt><trkpt lat="43.2563839" lon="12.0470616"><ele>288.3333333333333</ele><time>2026-04-19T07:36:10.238Z</time></trkpt><trkpt lat="43.2565338" lon="12.047152"><ele>287.6666666666667</ele><time>2026-04-19T07:36:11.246Z</time></trkpt><trkpt lat="43.2566842" lon="12.0472562"><ele>287.0</ele><time>2026-04-19T07:36:12.236Z</time></trkpt><trkpt lat="43.2568181" lon="12.0473492"><ele>287.0</ele><time>2026-04-19T07:36:13.231Z</time></trkpt><trkpt lat="43.2569428" lon="12.0474364"><ele>287.0</ele><time>2026-04-19T07:36:14.244Z</time></trkpt><trkpt lat="43.2570659" lon="12.0475208"><ele>287.0</ele><time>2026-04-19T07:36:15.24Z</time></trkpt><trkpt lat="43.2571932" lon="12.047608"><ele>287.0</ele><time>2026-04-19T07:36:16.239Z</time></trkpt><trkpt lat="43.2573256" lon="12.0476814"><ele>287.0</ele><time>2026-04-19T07:36:17.241Z</time></trkpt><trkpt lat="43.257465" lon="12.0477337"><ele>287.0</ele><time>2026-04-19T07:36:18.238Z</time></trkpt><trkpt lat="43.2576086" lon="12.0477642"><ele>287.0</ele><time>2026-04-19T07:36:19.244Z</time></trkpt><trkpt lat="43.257741" lon="12.047784"><ele>287.0</ele><time>2026-04-19T07:36:20.239Z</time></trkpt><trkpt lat="43.2578761" lon="12.0477884"><ele>287.0</ele><time>2026-04-19T07:36:21.244Z</time></trkpt><trkpt lat="43.2580264" lon="12.0477828"><ele>287.0</ele><time>2026-04-19T07:36:22.242Z</time></trkpt><trkpt lat="43.2581643" lon="12.0477685"><ele>287.0</ele><time>2026-04-19T07:36:23.239Z</time></trkpt><trkpt lat="43.2582954" lon="12.0477353"><ele>287.0</ele><time>2026-04-19T07:36:24.248Z</time></trkpt><trkpt lat="43.2584173" lon="12.0476948"><ele>287.75</ele><time>2026-04-19T07:36:25.243Z</time></trkpt><trkpt lat="43.2585312" lon="12.0476501"><ele>288.5</ele><time>2026-04-19T07:36:26.238Z</time></trkpt><trkpt lat="43.2586453" lon="12.047604"><ele>289.25</ele><time>2026-04-19T07:36:27.242Z</time></trkpt><trkpt lat="43.2587549" lon="12.0475586"><ele>290.0</ele><time>2026-04-19T07:36:28.242Z</time></trkpt><trkpt lat="43.258866" lon="12.0475224"><ele>290.75</ele><time>2026-04-19T07:36:29.242Z</time></trkpt><trkpt lat="43.2589834" lon="12.0474999"><ele>291.5</ele><time>2026-04-19T07:36:30.242Z</time></trkpt><trkpt lat="43.2591121" lon="12.0474841"><ele>292.25</ele><time>2026-04-19T07:36:31.239Z</time></trkpt><trkpt lat="43.2592489" lon="12.047468"><ele>293.0</ele><time>2026-04-19T07:36:32.247Z</time></trkpt><trkpt lat="43.2593832" lon="12.0474635"><ele>293.0</ele><time>2026-04-19T07:36:33.24Z</time></trkpt><trkpt lat="43.2595136" lon="12.0474679"><ele>293.0</ele><time>2026-04-19T07:36:34.239Z</time></trkpt><trkpt lat="43.2596429" lon="12.0474801"><ele>293.0</ele><time>2026-04-19T07:36:35.237Z</time></trkpt><trkpt lat="43.2597719" lon="12.0474909"><ele>293.0</ele><time>2026-04-19T07:36:36.244Z</time></trkpt><trkpt lat="43.2599034" lon="12.0475054"><ele>293.25</ele><time>2026-04-19T07:36:37.243Z</time></trkpt><trkpt lat="43.2600403" lon="12.0475238"><ele>293.5</ele><time>2026-04-19T07:36:38.244Z</time></trkpt><trkpt lat="43.2601833" lon="12.0475484"><ele>293.75</ele><time>2026-04-19T07:36:39.254Z</time></trkpt><trkpt lat="43.2603183" lon="12.0475774"><ele>294.0</ele><time>2026-04-19T07:36:40.241Z</time></trkpt><trkpt lat="43.2604545" lon="12.047606"><ele>294.0</ele><time>2026-04-19T07:36:41.241Z</time></trkpt><trkpt lat="43.2605969" lon="12.0476269"><ele>294.0</ele><time>2026-04-19T07:36:42.242Z</time></trkpt><trkpt lat="43.260741" lon="12.0476558"><ele>294.0</ele><time>2026-04-19T07:36:43.236Z</time></trkpt><trkpt lat="43.2608864" lon="12.0477028"><ele>294.0</ele><time>2026-04-19T07:36:44.243Z</time></trkpt><trkpt lat="43.2610195" lon="12.0477671"><ele>295.25</ele><time>2026-04-19T07:36:45.239Z</time></trkpt><trkpt lat="43.2611418" lon="12.0478339"><ele>296.5</ele><time>2026-04-19T07:36:46.236Z</time></trkpt><trkpt lat="43.2612609" lon="12.047894"><ele>297.75</ele><time>2026-04-19T07:36:47.24Z</time></trkpt><trkpt lat="43.26137" lon="12.0479472"><ele>299.0</ele><time>2026-04-19T07:36:48.236Z</time></trkpt><trkpt lat="43.2614747" lon="12.0479889"><ele>299.25</ele><time>2026-04-19T07:36:49.237Z</time></trkpt><trkpt lat="43.2615797" lon="12.0480268"><ele>299.5</ele><time>2026-04-19T07:36:50.246Z</time></trkpt><trkpt lat="43.2616874" lon="12.0480672"><ele>299.75</ele><time>2026-04-19T07:36:51.238Z</time></trkpt><trkpt lat="43.2618094" lon="12.0481183"><ele>300.0</ele><time>2026-04-19T07:36:52.24Z</time></trkpt><trkpt lat="43.2619399" lon="12.0481736"><ele>300.0</ele><time>2026-04-19T07:36:53.234Z</time></trkpt><trkpt lat="43.2620769" lon="12.0482345"><ele>300.0</ele><time>2026-04-19T07:36:54.24Z</time></trkpt><trkpt lat="43.2622274" lon="12.0483126"><ele>300.0</ele><time>2026-04-19T07:36:55.244Z</time></trkpt><trkpt lat="43.2623874" lon="12.0483894"><ele>300.6666666666667</ele><time>2026-04-19T07:36:56.238Z</time></trkpt><trkpt lat="43.2625437" lon="12.0484508"><ele>301.33333333333337</ele><time>2026-04-19T07:36:57.24Z</time></trkpt><trkpt lat="43.2626839" lon="12.0485114"><ele>302.0</ele><time>2026-04-19T07:36:58.236Z</time></trkpt><trkpt lat="43.2628226" lon="12.048576"><ele>302.0</ele><time>2026-04-19T07:36:59.239Z</time></trkpt><trkpt lat="43.2629564" lon="12.0486401"><ele>302.0</ele><time>2026-04-19T07:37:00.242Z</time></trkpt><trkpt lat="43.263095" lon="12.0487028"><ele>302.0</ele><time>2026-04-19T07:37:01.236Z</time></trkpt><trkpt lat="43.2632403" lon="12.0487621"><ele>302.0</ele><time>2026-04-19T07:37:02.241Z</time></trkpt><trkpt lat="43.2633634" lon="12.0488276"><ele>302.25</ele><time>2026-04-19T07:37:03.24Z</time></trkpt><trkpt lat="43.2634833" lon="12.0488969"><ele>302.5</ele><time>2026-04-19T07:37:04.236Z</time></trkpt><trkpt lat="43.2636015" lon="12.0489576"><ele>302.75</ele><time>2026-04-19T07:37:05.244Z</time></trkpt><trkpt lat="43.2637247" lon="12.0490261"><ele>303.0</ele><time>2026-04-19T07:37:06.236Z</time></trkpt><trkpt lat="43.2638448" lon="12.0490983"><ele>303.0</ele><time>2026-04-19T07:37:07.236Z</time></trkpt><trkpt lat="43.2639668" lon="12.0491838"><ele>303.0</ele><time>2026-04-19T07:37:08.241Z</time></trkpt><trkpt lat="43.2640895" lon="12.049271"><ele>303.0</ele><time>2026-04-19T07:37:09.237Z</time></trkpt><trkpt lat="43.2642187" lon="12.0493579"><ele>303.0</ele><time>2026-04-19T07:37:10.267Z</time></trkpt><trkpt lat="43.2643463" lon="12.049447"><ele>303.0</ele><time>2026-04-19T07:37:11.238Z</time></trkpt><trkpt lat="43.2644822" lon="12.0495455"><ele>303.0</ele><time>2026-04-19T07:37:12.237Z</time></trkpt><trkpt lat="43.2646035" lon="12.0496589"><ele>303.0</ele><time>2026-04-19T07:37:13.244Z</time></trkpt><trkpt lat="43.2647126" lon="12.0497866"><ele>303.0</ele><time>2026-04-19T07:37:14.242Z</time></trkpt><trkpt lat="43.2648209" lon="12.0499197"><ele>304.0</ele><time>2026-04-19T07:37:15.242Z</time></trkpt><trkpt lat="43.2649244" lon="12.0500558"><ele>305.0</ele><time>2026-04-19T07:37:16.242Z</time></trkpt><trkpt lat="43.2650146" lon="12.050198"><ele>306.0</ele><time>2026-04-19T07:37:17.239Z</time></trkpt><trkpt lat="43.2650969" lon="12.0503334"><ele>307.0</ele><time>2026-04-19T07:37:18.232Z</time></trkpt><trkpt lat="43.2651888" lon="12.0504524"><ele>307.0</ele><time>2026-04-19T07:37:19.233Z</time></trkpt><trkpt lat="43.2652959" lon="12.0505518"><ele>307.0</ele><time>2026-04-19T07:37:20.238Z</time></trkpt><trkpt lat="43.2654004" lon="12.0506318"><ele>307.0</ele><time>2026-04-19T07:37:21.238Z</time></trkpt><trkpt lat="43.2655025" lon="12.0507139"><ele>307.0</ele><time>2026-04-19T07:37:22.236Z</time></trkpt><trkpt lat="43.2655995" lon="12.050796"><ele>309.5</ele><time>2026-04-19T07:37:23.232Z</time></trkpt><trkpt lat="43.2656909" lon="12.0508852"><ele>312.0</ele><time>2026-04-19T07:37:24.233Z</time></trkpt><trkpt lat="43.2657747" lon="12.0509876"><ele>314.5</ele><time>2026-04-19T07:37:25.233Z</time></trkpt><trkpt lat="43.2658482" lon="12.0511063"><ele>317.0</ele><time>2026-04-19T07:37:26.234Z</time></trkpt><trkpt lat="43.2659141" lon="12.0512428"><ele>317.0</ele><time>2026-04-19T07:37:27.236Z</time></trkpt><trkpt lat="43.2659704" lon="12.0513914"><ele>317.0</ele><time>2026-04-19T07:37:28.226Z</time></trkpt><trkpt lat="43.2660166" lon="12.0515265"><ele>317.0</ele><time>2026-04-19T07:37:29.225Z</time></trkpt><trkpt lat="43.2660523" lon="12.0516443"><ele>317.0</ele><time>2026-04-19T07:37:30.228Z</time></trkpt><trkpt lat="43.2660837" lon="12.0517393"><ele>317.0</ele><time>2026-04-19T07:37:31.226Z</time></trkpt><trkpt lat="43.2661106" lon="12.0518282"><ele>317.5</ele><time>2026-04-19T07:37:33.226Z</time></trkpt><trkpt lat="43.2660766" lon="12.0519158"><ele>318.0</ele><time>2026-04-19T07:37:46.239Z</time></trkpt><trkpt lat="43.2661463" lon="12.0520141"><ele>318.5</ele><time>2026-04-19T07:37:48.241Z</time></trkpt><trkpt lat="43.2662049" lon="12.0520806"><ele>319.0</ele><time>2026-04-19T07:37:49.236Z</time></trkpt><trkpt lat="43.2662605" lon="12.0521514"><ele>319.5</ele><time>2026-04-19T07:37:50.227Z</time></trkpt><trkpt lat="43.2663103" lon="12.0522202"><ele>320.0</ele><time>2026-04-19T07:37:51.228Z</time></trkpt><trkpt lat="43.2663923" lon="12.0523387"><ele>321.5</ele><time>2026-04-19T07:37:53.232Z</time></trkpt><trkpt lat="43.2664747" lon="12.0524618"><ele>323.0</ele><time>2026-04-19T07:37:55.235Z</time></trkpt><trkpt lat="43.2665524" lon="12.0525879"><ele>324.5</ele><time>2026-04-19T07:37:57.237Z</time></trkpt><trkpt lat="43.2665969" lon="12.0526556"><ele>326.0</ele><time>2026-04-19T07:37:58.238Z</time></trkpt><trkpt lat="43.2666434" lon="12.0527264"><ele>327.5</ele><time>2026-04-19T07:37:59.234Z</time></trkpt><trkpt lat="43.2666912" lon="12.0527873"><ele>329.0</ele><time>2026-04-19T07:38:00.235Z</time></trkpt><trkpt lat="43.2667559" lon="12.0528691"><ele>329.0</ele><time>2026-04-19T07:38:02.237Z</time></trkpt><trkpt lat="43.2668147" lon="12.052938"><ele>329.0</ele><time>2026-04-19T07:38:14.242Z</time></trkpt><trkpt lat="43.2668927" lon="12.0530694"><ele>329.0</ele><time>2026-04-19T07:38:16.229Z</time></trkpt><trkpt lat="43.2669332" lon="12.0531545"><ele>329.0</ele><time>2026-04-19T07:38:17.233Z</time></trkpt><trkpt lat="43.2669534" lon="12.0532431"><ele>329.0</ele><time>2026-04-19T07:38:18.233Z</time></trkpt><trkpt lat="43.2669539" lon="12.0533897"><ele>329.0</ele><time>2026-04-19T07:38:20.233Z</time></trkpt><trkpt lat="43.2669937" lon="12.053509"><ele>329.6666666666667</ele><time>2026-04-19T07:38:22.238Z</time></trkpt><trkpt lat="43.2670473" lon="12.0536223"><ele>330.33333333333337</ele><time>2026-04-19T07:38:24.233Z</time></trkpt><trkpt lat="43.2671297" lon="12.0537121"><ele>331.0</ele><time>2026-04-19T07:38:26.235Z</time></trkpt><trkpt lat="43.2671827" lon="12.0537637"><ele>331.6666666666667</ele><time>2026-04-19T07:38:27.238Z</time></trkpt><trkpt lat="43.2672375" lon="12.0538175"><ele>332.3333333333333</ele><time>2026-04-19T07:38:28.231Z</time></trkpt><trkpt lat="43.2672919" lon="12.0538751"><ele>333.0</ele><time>2026-04-19T07:38:29.237Z</time></trkpt><trkpt lat="43.2673452" lon="12.0539351"><ele>333.8571428571429</ele><time>2026-04-19T07:38:30.239Z</time></trkpt><trkpt lat="43.267399" lon="12.0539973"><ele>334.71428571428567</ele><time>2026-04-19T07:38:31.235Z</time></trkpt><trkpt lat="43.2674549" lon="12.0540575"><ele>335.57142857142856</ele><time>2026-04-19T07:38:32.24Z</time></trkpt><trkpt lat="43.2675101" lon="12.0541144"><ele>336.42857142857144</ele><time>2026-04-19T07:38:33.236Z</time></trkpt><trkpt lat="43.2675638" lon="12.0541748"><ele>337.28571428571433</ele><time>2026-04-19T07:38:34.239Z</time></trkpt><trkpt lat="43.2676171" lon="12.054229"><ele>338.1428571428571</ele><time>2026-04-19T07:38:35.235Z</time></trkpt><trkpt lat="43.2676689" lon="12.0542845"><ele>339.0</ele><time>2026-04-19T07:38:36.235Z</time></trkpt><trkpt lat="43.2677167" lon="12.0543498"><ele>340.6</ele><time>2026-04-19T07:38:37.236Z</time></trkpt><trkpt lat="43.267753" lon="12.0544313"><ele>342.2</ele><time>2026-04-19T07:38:38.233Z</time></trkpt><trkpt lat="43.267771" lon="12.0545228"><ele>343.8</ele><time>2026-04-19T07:38:39.235Z</time></trkpt><trkpt lat="43.2677789" lon="12.0546137"><ele>345.40000000000003</ele><time>2026-04-19T07:38:40.235Z</time></trkpt><trkpt lat="43.2677682" lon="12.0547689"><ele>347.0</ele><time>2026-04-19T07:38:42.245Z</time></trkpt><trkpt lat="43.2677216" lon="12.0549379"><ele>347.6666666666667</ele><time>2026-04-19T07:38:44.238Z</time></trkpt><trkpt lat="43.2676946" lon="12.0550306"><ele>348.33333333333337</ele><time>2026-04-19T07:38:45.231Z</time></trkpt><trkpt lat="43.2676793" lon="12.0551148"><ele>349.0</ele><time>2026-04-19T07:38:46.234Z</time></trkpt><trkpt lat="43.2676938" lon="12.0552208"><ele>349.6666666666667</ele><time>2026-04-19T07:38:48.237Z</time></trkpt><trkpt lat="43.267775" lon="12.055227"><ele>350.3333333333333</ele><time>2026-04-19T07:38:50.242Z</time></trkpt><trkpt lat="43.2678648" lon="12.0551922"><ele>351.0</ele><time>2026-04-19T07:38:52.246Z</time></trkpt><trkpt lat="43.2679252" lon="12.0552205"><ele>351.0</ele><time>2026-04-19T07:38:54.242Z</time></trkpt><trkpt lat="43.2679357" lon="12.055397"><ele>351.0</ele><time>2026-04-19T07:38:57.245Z</time></trkpt><trkpt lat="43.2679391" lon="12.0555014"><ele>351.0</ele><time>2026-04-19T07:38:58.232Z</time></trkpt><trkpt lat="43.2679355" lon="12.0556062"><ele>351.0</ele><time>2026-04-19T07:38:59.234Z</time></trkpt><trkpt lat="43.2679292" lon="12.0557028"><ele>351.0</ele><time>2026-04-19T07:39:00.234Z</time></trkpt><trkpt lat="43.2679242" lon="12.0558651"><ele>351.14285714285717</ele><time>2026-04-19T07:39:02.231Z</time></trkpt><trkpt lat="43.2679278" lon="12.0559607"><ele>351.2857142857143</ele><time>2026-04-19T07:39:03.23Z</time></trkpt><trkpt lat="43.2679309" lon="12.056057"><ele>351.42857142857144</ele><time>2026-04-19T07:39:04.226Z</time></trkpt><trkpt lat="43.2679253" lon="12.0561515"><ele>351.57142857142856</ele><time>2026-04-19T07:39:05.228Z</time></trkpt><trkpt lat="43.267912" lon="12.0562381"><ele>351.7142857142857</ele><time>2026-04-19T07:39:06.228Z</time></trkpt><trkpt lat="43.2678999" lon="12.056327"><ele>351.8571428571429</ele><time>2026-04-19T07:39:07.235Z</time></trkpt><trkpt lat="43.2678968" lon="12.0564265"><ele>352.0</ele><time>2026-04-19T07:39:08.23Z</time></trkpt><trkpt lat="43.2679064" lon="12.0565333"><ele>352.66666666666663</ele><time>2026-04-19T07:39:09.226Z</time></trkpt><trkpt lat="43.2679232" lon="12.0566315"><ele>353.3333333333333</ele><time>2026-04-19T07:39:10.232Z</time></trkpt><trkpt lat="43.2679419" lon="12.0567181"><ele>354.0</ele><time>2026-04-19T07:39:11.227Z</time></trkpt><trkpt lat="43.267965" lon="12.0568553"><ele>354.6666666666667</ele><time>2026-04-19T07:39:13.239Z</time></trkpt><trkpt lat="43.2679582" lon="12.057013"><ele>355.33333333333337</ele><time>2026-04-19T07:39:15.225Z</time></trkpt><trkpt lat="43.2679521" lon="12.0571098"><ele>356.0</ele><time>2026-04-19T07:39:16.229Z</time></trkpt><trkpt lat="43.2679507" lon="12.057246"><ele>356.0</ele><time>2026-04-19T07:39:18.227Z</time></trkpt><trkpt lat="43.2679061" lon="12.057332"><ele>356.0</ele><time>2026-04-19T07:39:31.233Z</time></trkpt><trkpt lat="43.2678372" lon="12.0575011"><ele>356.0</ele><time>2026-04-19T07:39:34.233Z</time></trkpt><trkpt lat="43.2677943" lon="12.0575924"><ele>356.0</ele><time>2026-04-19T07:39:36.234Z</time></trkpt><trkpt lat="43.2677915" lon="12.057713"><ele>356.0</ele><time>2026-04-19T07:39:42.236Z</time></trkpt><trkpt lat="43.2678492" lon="12.057793"><ele>355.99999999999994</ele><time>2026-04-19T07:39:45.238Z</time></trkpt><trkpt lat="43.2679109" lon="12.0578206"><ele>356.0</ele><time>2026-04-19T07:39:51.236Z</time></trkpt><trkpt lat="43.2678316" lon="12.0577701"><ele>356.0</ele><time>2026-04-19T07:39:56.232Z</time></trkpt><trkpt lat="43.2677906" lon="12.0577036"><ele>356.0</ele><time>2026-04-19T07:40:02.241Z</time></trkpt><trkpt lat="43.2677445" lon="12.0576304"><ele>356.0</ele><time>2026-04-19T07:40:05.237Z</time></trkpt><trkpt lat="43.267755" lon="12.0575289"><ele>355.99999999999994</ele><time>2026-04-19T07:40:08.241Z</time></trkpt><trkpt lat="43.2678111" lon="12.0574549"><ele>356.0</ele><time>2026-04-19T07:40:10.241Z</time></trkpt><trkpt lat="43.2678546" lon="12.0573417"><ele>356.0</ele><time>2026-04-19T07:40:12.243Z</time></trkpt><trkpt lat="43.2678791" lon="12.0572184"><ele>356.0</ele><time>2026-04-19T07:40:14.232Z</time></trkpt><trkpt lat="43.2679536" lon="12.0572584"><ele>356.0</ele><time>2026-04-19T07:40:19.238Z</time></trkpt><trkpt lat="43.2680005" lon="12.0573199"><ele>356.0</ele><time>2026-04-19T07:40:25.223Z</time></trkpt><trkpt lat="43.2680217" lon="12.0574196"><ele>356.0</ele><time>2026-04-19T07:40:36.239Z</time></trkpt><trkpt lat="43.2681315" lon="12.0575107"><ele>356.0</ele><time>2026-04-19T07:40:39.23Z</time></trkpt><trkpt lat="43.2682068" lon="12.0575646"><ele>358.33333333333337</ele><time>2026-04-19T07:40:40.222Z</time></trkpt><trkpt lat="43.2682747" lon="12.0576281"><ele>360.6666666666667</ele><time>2026-04-19T07:40:41.219Z</time></trkpt><trkpt lat="43.2683256" lon="12.0577063"><ele>363.0</ele><time>2026-04-19T07:40:42.227Z</time></trkpt><trkpt lat="43.2683731" lon="12.0577815"><ele>365.3333333333333</ele><time>2026-04-19T07:40:43.232Z</time></trkpt><trkpt lat="43.2684105" lon="12.0578567"><ele>367.66666666666663</ele><time>2026-04-19T07:40:44.232Z</time></trkpt><trkpt lat="43.2684442" lon="12.0579304"><ele>370.0</ele><time>2026-04-19T07:40:45.231Z</time></trkpt><trkpt lat="43.2685137" lon="12.0580446"><ele>370.0</ele><time>2026-04-19T07:40:47.226Z</time></trkpt><trkpt lat="43.2686003" lon="12.0581052"><ele>370.0</ele><time>2026-04-19T07:40:49.218Z</time></trkpt><trkpt lat="43.2687118" lon="12.0581743"><ele>370.0</ele><time>2026-04-19T07:40:51.224Z</time></trkpt><trkpt lat="43.2687922" lon="12.0582604"><ele>370.0</ele><time>2026-04-19T07:40:53.225Z</time></trkpt><trkpt lat="43.2688839" lon="12.0583038"><ele>370.0</ele><time>2026-04-19T07:40:55.221Z</time></trkpt><trkpt lat="43.2689861" lon="12.0583495"><ele>372.8</ele><time>2026-04-19T07:40:57.225Z</time></trkpt><trkpt lat="43.2690592" lon="12.0584505"><ele>375.6</ele><time>2026-04-19T07:40:59.221Z</time></trkpt><trkpt lat="43.269151" lon="12.0585284"><ele>378.4</ele><time>2026-04-19T07:41:01.229Z</time></trkpt><trkpt lat="43.2692519" lon="12.0585976"><ele>381.2</ele><time>2026-04-19T07:41:03.223Z</time></trkpt><trkpt lat="43.2693373" lon="12.0586643"><ele>384.0</ele><time>2026-04-19T07:41:05.228Z</time></trkpt><trkpt lat="43.2693966" lon="12.05874"><ele>384.0</ele><time>2026-04-19T07:41:07.243Z</time></trkpt><trkpt lat="43.2694674" lon="12.0588252"><ele>384.0</ele><time>2026-04-19T07:41:09.235Z</time></trkpt><trkpt lat="43.2695584" lon="12.0588897"><ele>384.0</ele><time>2026-04-19T07:41:11.223Z</time></trkpt><trkpt lat="43.2696275" lon="12.0589339"><ele>384.0</ele><time>2026-04-19T07:41:14.234Z</time></trkpt><trkpt lat="43.2695697" lon="12.0589849"><ele>384.0</ele><time>2026-04-19T07:41:56.246Z</time></trkpt><trkpt lat="43.2694965" lon="12.0589584"><ele>384.0</ele><time>2026-04-19T07:42:01.155Z</time></trkpt><trkpt lat="43.2694407" lon="12.0589113"><ele>384.0</ele><time>2026-04-19T07:42:03.246Z</time></trkpt><trkpt lat="43.2693645" lon="12.0588506"><ele>384.0</ele><time>2026-04-19T07:42:06.151Z</time></trkpt><trkpt lat="43.2693098" lon="12.058791"><ele>384.0</ele><time>2026-04-19T07:42:09.249Z</time></trkpt><trkpt lat="43.2692431" lon="12.0587064"><ele>384.0</ele><time>2026-04-19T07:42:12.243Z</time></trkpt><trkpt lat="43.2691728" lon="12.0586666"><ele>384.0</ele><time>2026-04-19T07:42:14.236Z</time></trkpt><trkpt lat="43.2690969" lon="12.0586153"><ele>384.0</ele><time>2026-04-19T07:42:16.244Z</time></trkpt><trkpt lat="43.2690292" lon="12.0585574"><ele>384.0</ele><time>2026-04-19T07:42:18.132Z</time></trkpt><trkpt lat="43.2689596" lon="12.0584889"><ele>384.0</ele><time>2026-04-19T07:42:19.253Z</time></trkpt><trkpt lat="43.2688816" lon="12.058415"><ele>384.0</ele><time>2026-04-19T07:42:21.242Z</time></trkpt><trkpt lat="43.2687896" lon="12.0583139"><ele>384.0</ele><time>2026-04-19T07:42:24.241Z</time></trkpt><trkpt lat="43.2687037" lon="12.0582565"><ele>384.0</ele><time>2026-04-19T07:42:27.238Z</time></trkpt><trkpt lat="43.2687606" lon="12.0583211"><ele>383.99999999999994</ele><time>2026-04-19T07:42:38.252Z</time></trkpt><trkpt lat="43.2687936" lon="12.0583978"><ele>384.0</ele><time>2026-04-19T07:42:41.241Z</time></trkpt><trkpt lat="43.268826" lon="12.0584727"><ele>384.0</ele><time>2026-04-19T07:42:44.242Z</time></trkpt><trkpt lat="43.2688702" lon="12.058559"><ele>384.0</ele><time>2026-04-19T07:42:48.241Z</time></trkpt><trkpt lat="43.2689199" lon="12.0586134"><ele>384.0</ele><time>2026-04-19T07:42:52.24Z</time></trkpt><trkpt lat="43.2689772" lon="12.0586806"><ele>383.99999999999994</ele><time>2026-04-19T07:42:55.243Z</time></trkpt><trkpt lat="43.2690104" lon="12.0587608"><ele>384.0</ele><time>2026-04-19T07:42:57.243Z</time></trkpt><trkpt lat="43.2690309" lon="12.05887"><ele>384.0</ele><time>2026-04-19T07:42:59.238Z</time></trkpt><trkpt lat="43.26902" lon="12.0589953"><ele>384.0</ele><time>2026-04-19T07:43:01.248Z</time></trkpt><trkpt lat="43.2690011" lon="12.0591336"><ele>384.0</ele><time>2026-04-19T07:43:03.244Z</time></trkpt><trkpt lat="43.2689875" lon="12.0592892"><ele>384.0</ele><time>2026-04-19T07:43:05.229Z</time></trkpt><trkpt lat="43.2689709" lon="12.0594366"><ele>384.0</ele><time>2026-04-19T07:43:07.242Z</time></trkpt><trkpt lat="43.2689414" lon="12.0595707"><ele>383.4</ele><time>2026-04-19T07:43:09.239Z</time></trkpt><trkpt lat="43.2689589" lon="12.0597031"><ele>382.79999999999995</ele><time>2026-04-19T07:43:11.228Z</time></trkpt><trkpt lat="43.2690257" lon="12.0598175"><ele>382.20000000000005</ele><time>2026-04-19T07:43:13.23Z</time></trkpt><trkpt lat="43.2690941" lon="12.059895"><ele>381.6</ele><time>2026-04-19T07:43:15.24Z</time></trkpt><trkpt lat="43.26915" lon="12.0599959"><ele>381.0</ele><time>2026-04-19T07:43:17.225Z</time></trkpt><trkpt lat="43.2692024" lon="12.0600995"><ele>384.0</ele><time>2026-04-19T07:43:19.227Z</time></trkpt><trkpt lat="43.2692438" lon="12.0602292"><ele>387.0</ele><time>2026-04-19T07:43:21.24Z</time></trkpt><trkpt lat="43.2692808" lon="12.060352"><ele>390.0</ele><time>2026-04-19T07:43:23.229Z</time></trkpt><trkpt lat="43.2693107" lon="12.0604443"><ele>393.0</ele><time>2026-04-19T07:43:25.24Z</time></trkpt><trkpt lat="43.2693328" lon="12.060581"><ele>396.0</ele><time>2026-04-19T07:43:27.239Z</time></trkpt><trkpt lat="43.2694235" lon="12.0606768"><ele>400.0</ele><time>2026-04-19T07:43:29.229Z</time></trkpt><trkpt lat="43.2694843" lon="12.0607857"><ele>404.0</ele><time>2026-04-19T07:43:31.234Z</time></trkpt><trkpt lat="43.2695292" lon="12.0609096"><ele>408.0</ele><time>2026-04-19T07:43:33.24Z</time></trkpt><trkpt lat="43.2695747" lon="12.0610195"><ele>412.0</ele><time>2026-04-19T07:43:35.239Z</time></trkpt><trkpt lat="43.2696432" lon="12.0611228"><ele>416.0</ele><time>2026-04-19T07:43:37.229Z</time></trkpt><trkpt lat="43.2697116" lon="12.0612393"><ele>415.99999999999994</ele><time>2026-04-19T07:43:39.223Z</time></trkpt><trkpt lat="43.2697701" lon="12.061351"><ele>416.0</ele><time>2026-04-19T07:43:41.221Z</time></trkpt><trkpt lat="43.2698125" lon="12.0614173"><ele>416.0</ele><time>2026-04-19T07:43:44.238Z</time></trkpt><trkpt lat="43.269903" lon="12.0614897"><ele>416.0</ele><time>2026-04-19T07:43:59.235Z</time></trkpt><trkpt lat="43.2699637" lon="12.0615889"><ele>415.99999999999994</ele><time>2026-04-19T07:44:00.223Z</time></trkpt><trkpt lat="43.270007" lon="12.0616667"><ele>416.0</ele><time>2026-04-19T07:44:02.235Z</time></trkpt><trkpt lat="43.2700738" lon="12.0617943"><ele>416.99999999999994</ele><time>2026-04-19T07:44:03.227Z</time></trkpt><trkpt lat="43.2700985" lon="12.0618909"><ele>418.0</ele><time>2026-04-19T07:44:04.22Z</time></trkpt><trkpt lat="43.2701144" lon="12.0619916"><ele>419.0</ele><time>2026-04-19T07:44:05.223Z</time></trkpt><trkpt lat="43.2701394" lon="12.062099"><ele>420.0</ele><time>2026-04-19T07:44:06.222Z</time></trkpt><trkpt lat="43.2701666" lon="12.0621997"><ele>420.99999999999994</ele><time>2026-04-19T07:44:07.225Z</time></trkpt><trkpt lat="43.2701945" lon="12.0622831"><ele>422.0</ele><time>2026-04-19T07:44:08.22Z</time></trkpt><trkpt lat="43.270259" lon="12.0624182"><ele>425.6</ele><time>2026-04-19T07:44:10.225Z</time></trkpt><trkpt lat="43.2703151" lon="12.0625453"><ele>429.20000000000005</ele><time>2026-04-19T07:44:12.222Z</time></trkpt><trkpt lat="43.2703574" lon="12.0626761"><ele>432.8</ele><time>2026-04-19T07:44:14.225Z</time></trkpt><trkpt lat="43.2703885" lon="12.0628161"><ele>436.4</ele><time>2026-04-19T07:44:16.225Z</time></trkpt><trkpt lat="43.2704001" lon="12.0629866"><ele>440.0</ele><time>2026-04-19T07:44:18.223Z</time></trkpt><trkpt lat="43.2703922" lon="12.0630853"><ele>439.99999999999994</ele><time>2026-04-19T07:44:19.225Z</time></trkpt><trkpt lat="43.2703882" lon="12.0632221"><ele>440.0</ele><time>2026-04-19T07:44:21.222Z</time></trkpt><trkpt lat="43.2703842" lon="12.0633602"><ele>440.0</ele><time>2026-04-19T07:44:23.254Z</time></trkpt><trkpt lat="43.2703531" lon="12.0634695"><ele>440.0</ele><time>2026-04-19T07:44:25.242Z</time></trkpt><trkpt lat="43.2703938" lon="12.0635598"><ele>439.99999999999994</ele><time>2026-04-19T07:44:29.246Z</time></trkpt><trkpt lat="43.2704602" lon="12.0635369"><ele>440.0</ele><time>2026-04-19T07:44:31.182Z</time></trkpt><trkpt lat="43.2705638" lon="12.0637018"><ele>438.99999999999994</ele><time>2026-04-19T07:44:33.224Z</time></trkpt><trkpt lat="43.2705957" lon="12.0637998"><ele>438.0</ele><time>2026-04-19T07:44:34.224Z</time></trkpt><trkpt lat="43.2706215" lon="12.0638894"><ele>437.0</ele><time>2026-04-19T07:44:35.228Z</time></trkpt><trkpt lat="43.2706354" lon="12.0639756"><ele>436.0</ele><time>2026-04-19T07:44:36.224Z</time></trkpt><trkpt lat="43.2706458" lon="12.0640627"><ele>435.0</ele><time>2026-04-19T07:44:37.228Z</time></trkpt><trkpt lat="43.270654" lon="12.0641607"><ele>433.99999999999994</ele><time>2026-04-19T07:44:38.223Z</time></trkpt><trkpt lat="43.2706586" lon="12.0642575"><ele>433.0</ele><time>2026-04-19T07:44:39.224Z</time></trkpt><trkpt lat="43.2706669" lon="12.0643498"><ele>435.33333333333337</ele><time>2026-04-19T07:44:40.221Z</time></trkpt><trkpt lat="43.2706925" lon="12.0645144"><ele>437.6666666666667</ele><time>2026-04-19T07:44:42.217Z</time></trkpt><trkpt lat="43.2707133" lon="12.0646004"><ele>440.0</ele><time>2026-04-19T07:44:43.225Z</time></trkpt><trkpt lat="43.2707357" lon="12.0646933"><ele>442.33333333333337</ele><time>2026-04-19T07:44:44.223Z</time></trkpt><trkpt lat="43.2707651" lon="12.0647837"><ele>444.6666666666667</ele><time>2026-04-19T07:44:45.223Z</time></trkpt><trkpt lat="43.2708025" lon="12.0648709"><ele>447.0</ele><time>2026-04-19T07:44:46.22Z</time></trkpt><trkpt lat="43.2708407" lon="12.0649628"><ele>450.0</ele><time>2026-04-19T07:44:47.219Z</time></trkpt><trkpt lat="43.2708773" lon="12.0650437"><ele>453.0</ele><time>2026-04-19T07:44:48.232Z</time></trkpt><trkpt lat="43.2709175" lon="12.0651173"><ele>456.0</ele><time>2026-04-19T07:44:49.231Z</time></trkpt><trkpt lat="43.2709508" lon="12.0651964"><ele>459.0</ele><time>2026-04-19T07:44:50.23Z</time></trkpt><trkpt lat="43.2709908" lon="12.065337"><ele>462.0</ele><time>2026-04-19T07:44:52.231Z</time></trkpt><trkpt lat="43.2710231" lon="12.0655023"><ele>465.0</ele><time>2026-04-19T07:44:54.239Z</time></trkpt><trkpt lat="43.2710429" lon="12.0655934"><ele>465.0</ele><time>2026-04-19T07:44:55.231Z</time></trkpt><trkpt lat="43.2710562" lon="12.0656812"><ele>465.0</ele><time>2026-04-19T07:44:56.228Z</time></trkpt><trkpt lat="43.271088" lon="12.0658354"><ele>465.0</ele><time>2026-04-19T07:44:58.231Z</time></trkpt><trkpt lat="43.2711319" lon="12.065978"><ele>465.0</ele><time>2026-04-19T07:45:00.227Z</time></trkpt><trkpt lat="43.2711524" lon="12.0660605"><ele>465.0</ele><time>2026-04-19T07:45:01.233Z</time></trkpt><trkpt lat="43.2711825" lon="12.0661413"><ele>465.0</ele><time>2026-04-19T07:45:02.225Z</time></trkpt><trkpt lat="43.271218" lon="12.0662173"><ele>467.85714285714283</ele><time>2026-04-19T07:45:03.223Z</time></trkpt><trkpt lat="43.2712625" lon="12.0662904"><ele>470.7142857142858</ele><time>2026-04-19T07:45:04.229Z</time></trkpt><trkpt lat="43.2712948" lon="12.0663717"><ele>473.5714285714286</ele><time>2026-04-19T07:45:05.232Z</time></trkpt><trkpt lat="43.2713281" lon="12.066458"><ele>476.42857142857144</ele><time>2026-04-19T07:45:06.228Z</time></trkpt><trkpt lat="43.2713562" lon="12.0665423"><ele>479.28571428571433</ele><time>2026-04-19T07:45:07.232Z</time></trkpt><trkpt lat="43.2714009" lon="12.0666422"><ele>482.1428571428572</ele><time>2026-04-19T07:45:09.22Z</time></trkpt><trkpt lat="43.2714511" lon="12.0665815"><ele>485.00000000000006</ele><time>2026-04-19T07:45:12.232Z</time></trkpt><trkpt lat="43.271481" lon="12.0664536"><ele>486.49999999999994</ele><time>2026-04-19T07:45:14.233Z</time></trkpt><trkpt lat="43.2714983" lon="12.0663669"><ele>488.0</ele><time>2026-04-19T07:45:15.239Z</time></trkpt><trkpt lat="43.271516" lon="12.0662699"><ele>489.5</ele><time>2026-04-19T07:45:16.219Z</time></trkpt><trkpt lat="43.2715295" lon="12.0661694"><ele>491.0</ele><time>2026-04-19T07:45:17.226Z</time></trkpt><trkpt lat="43.2715381" lon="12.0660827"><ele>492.49999999999994</ele><time>2026-04-19T07:45:18.221Z</time></trkpt><trkpt lat="43.2715253" lon="12.0659426"><ele>494.0</ele><time>2026-04-19T07:45:20.225Z</time></trkpt><trkpt lat="43.2714744" lon="12.0658292"><ele>492.2</ele><time>2026-04-19T07:45:23.234Z</time></trkpt><trkpt lat="43.2714428" lon="12.0657215"><ele>490.4</ele><time>2026-04-19T07:45:25.25Z</time></trkpt><trkpt lat="43.271469" lon="12.0655654"><ele>488.6</ele><time>2026-04-19T07:45:27.23Z</time></trkpt><trkpt lat="43.2714985" lon="12.0654029"><ele>486.8</ele><time>2026-04-19T07:45:29.231Z</time></trkpt><trkpt lat="43.2715361" lon="12.0652721"><ele>485.0</ele><time>2026-04-19T07:45:31.23Z</time></trkpt><trkpt lat="43.2715648" lon="12.065142"><ele>485.0</ele><time>2026-04-19T07:45:33.234Z</time></trkpt><trkpt lat="43.2715427" lon="12.0649845"><ele>485.0</ele><time>2026-04-19T07:45:35.233Z</time></trkpt><trkpt lat="43.2715168" lon="12.0649024"><ele>485.0</ele><time>2026-04-19T07:45:36.233Z</time></trkpt><trkpt lat="43.2714807" lon="12.0647474"><ele>485.0</ele><time>2026-04-19T07:45:38.233Z</time></trkpt><trkpt lat="43.2714755" lon="12.0645748"><ele>485.0</ele><time>2026-04-19T07:45:40.237Z</time></trkpt><trkpt lat="43.2714857" lon="12.0644788"><ele>482.7142857142858</ele><time>2026-04-19T07:45:41.234Z</time></trkpt><trkpt lat="43.2714993" lon="12.0643739"><ele>480.42857142857144</ele><time>2026-04-19T07:45:42.238Z</time></trkpt><trkpt lat="43.2715187" lon="12.0642734"><ele>478.14285714285717</ele><time>2026-04-19T07:45:43.237Z</time></trkpt><trkpt lat="43.2715415" lon="12.0641825"><ele>475.8571428571429</ele><time>2026-04-19T07:45:44.24Z</time></trkpt><trkpt lat="43.2715725" lon="12.0640945"><ele>473.57142857142856</ele><time>2026-04-19T07:45:45.228Z</time></trkpt><trkpt lat="43.2716131" lon="12.0640139"><ele>471.2857142857143</ele><time>2026-04-19T07:45:46.233Z</time></trkpt><trkpt lat="43.2716615" lon="12.0639553"><ele>469.0</ele><time>2026-04-19T07:45:47.235Z</time></trkpt><trkpt lat="43.2717205" lon="12.0639201"><ele>465.50000000000006</ele><time>2026-04-19T07:45:48.232Z</time></trkpt><trkpt lat="43.2717916" lon="12.0638897"><ele>462.0</ele><time>2026-04-19T07:45:49.23Z</time></trkpt><trkpt lat="43.271861" lon="12.0638653"><ele>458.5</ele><time>2026-04-19T07:45:50.237Z</time></trkpt><trkpt lat="43.2719309" lon="12.0638576"><ele>455.0</ele><time>2026-04-19T07:45:51.233Z</time></trkpt><trkpt lat="43.2719986" lon="12.0638595"><ele>451.50000000000006</ele><time>2026-04-19T07:45:52.229Z</time></trkpt><trkpt lat="43.2720623" lon="12.0638663"><ele>448.0</ele><time>2026-04-19T07:45:53.235Z</time></trkpt><trkpt lat="43.2721756" lon="12.0639077"><ele>448.00000000000006</ele><time>2026-04-19T07:45:55.224Z</time></trkpt><trkpt lat="43.2722323" lon="12.0639496"><ele>448.0</ele><time>2026-04-19T07:45:56.243Z</time></trkpt><trkpt lat="43.2722954" lon="12.0640161"><ele>448.0</ele><time>2026-04-19T07:45:57.229Z</time></trkpt><trkpt lat="43.2723583" lon="12.064096"><ele>448.0</ele><time>2026-04-19T07:45:58.222Z</time></trkpt><trkpt lat="43.2724154" lon="12.0641753"><ele>448.00000000000006</ele><time>2026-04-19T07:45:59.231Z</time></trkpt><trkpt lat="43.272463" lon="12.0642387"><ele>448.0</ele><time>2026-04-19T07:46:00.222Z</time></trkpt><trkpt lat="43.2725347" lon="12.0643402"><ele>452.33333333333337</ele><time>2026-04-19T07:46:02.226Z</time></trkpt><trkpt lat="43.2726126" lon="12.0644443"><ele>456.6666666666667</ele><time>2026-04-19T07:46:04.224Z</time></trkpt><trkpt lat="43.2727117" lon="12.0645141"><ele>461.0</ele><time>2026-04-19T07:46:06.221Z</time></trkpt><trkpt lat="43.2727794" lon="12.0645224"><ele>465.33333333333337</ele><time>2026-04-19T07:46:07.226Z</time></trkpt><trkpt lat="43.2728546" lon="12.0645141"><ele>469.6666666666667</ele><time>2026-04-19T07:46:08.222Z</time></trkpt><trkpt lat="43.2729292" lon="12.0645036"><ele>474.0</ele><time>2026-04-19T07:46:09.227Z</time></trkpt><trkpt lat="43.2729949" lon="12.0644924"><ele>474.0</ele><time>2026-04-19T07:46:10.224Z</time></trkpt><trkpt lat="43.2730595" lon="12.0644864"><ele>474.0</ele><time>2026-04-19T07:46:11.226Z</time></trkpt><trkpt lat="43.2731242" lon="12.0644932"><ele>474.0</ele><time>2026-04-19T07:46:12.232Z</time></trkpt><trkpt lat="43.2732435" lon="12.0645338"><ele>474.0</ele><time>2026-04-19T07:46:14.225Z</time></trkpt><trkpt lat="43.2733466" lon="12.0646124"><ele>474.0</ele><time>2026-04-19T07:46:16.224Z</time></trkpt><trkpt lat="43.2733979" lon="12.0646708"><ele>474.0</ele><time>2026-04-19T07:46:17.225Z</time></trkpt><trkpt lat="43.2735006" lon="12.0647662"><ele>474.79999999999995</ele><time>2026-04-19T07:46:19.228Z</time></trkpt><trkpt lat="43.2735889" lon="12.0648067"><ele>475.59999999999997</ele><time>2026-04-19T07:46:21.229Z</time></trkpt><trkpt lat="43.2736742" lon="12.0648413"><ele>476.4</ele><time>2026-04-19T07:46:23.229Z</time></trkpt><trkpt lat="43.2737594" lon="12.0648143"><ele>477.2</ele><time>2026-04-19T07:46:25.227Z</time></trkpt><trkpt lat="43.2738631" lon="12.0647254"><ele>478.0</ele><time>2026-04-19T07:46:27.255Z</time></trkpt><trkpt lat="43.2739748" lon="12.0646874"><ele>482.50000000000006</ele><time>2026-04-19T07:46:29.231Z</time></trkpt><trkpt lat="43.2740953" lon="12.064685"><ele>487.0</ele><time>2026-04-19T07:46:31.239Z</time></trkpt><trkpt lat="43.2741972" lon="12.0647049"><ele>491.5</ele><time>2026-04-19T07:46:33.222Z</time></trkpt><trkpt lat="43.2742612" lon="12.0647032"><ele>496.0</ele><time>2026-04-19T07:46:35.248Z</time></trkpt><trkpt lat="43.2743183" lon="12.0647467"><ele>500.50000000000006</ele><time>2026-04-19T07:48:59.227Z</time></trkpt><trkpt lat="43.2743821" lon="12.0648193"><ele>505.0</ele><time>2026-04-19T07:49:02.239Z</time></trkpt><trkpt lat="43.2744508" lon="12.0649004"><ele>505.0</ele><time>2026-04-19T07:49:05.237Z</time></trkpt><trkpt lat="43.2745104" lon="12.0649651"><ele>504.99999999999994</ele><time>2026-04-19T07:49:08.232Z</time></trkpt><trkpt lat="43.2745605" lon="12.0650208"><ele>505.0</ele><time>2026-04-19T07:49:12.242Z</time></trkpt><trkpt lat="43.2744999" lon="12.0650541"><ele>505.0</ele><time>2026-04-19T07:50:04.235Z</time></trkpt><trkpt lat="43.2744377" lon="12.0650291"><ele>504.99999999999994</ele><time>2026-04-19T07:50:10.23Z</time></trkpt><trkpt lat="43.2743837" lon="12.0649773"><ele>505.0</ele><time>2026-04-19T07:50:15.236Z</time></trkpt><trkpt lat="43.2743353" lon="12.064911"><ele>505.0</ele><time>2026-04-19T07:50:19.234Z</time></trkpt><trkpt lat="43.2742735" lon="12.0648553"><ele>505.00000000000006</ele><time>2026-04-19T07:50:23.239Z</time></trkpt><trkpt lat="43.2742264" lon="12.0647809"><ele>505.0</ele><time>2026-04-19T07:50:27.234Z</time></trkpt><trkpt lat="43.2741803" lon="12.0647118"><ele>505.0</ele><time>2026-04-19T07:50:33.236Z</time></trkpt><trkpt lat="43.2741654" lon="12.0645432"><ele>505.0</ele><time>2026-04-19T07:50:51.21Z</time></trkpt><trkpt lat="43.2740974" lon="12.0644375"><ele>505.00000000000006</ele><time>2026-04-19T07:50:53.215Z</time></trkpt><trkpt lat="43.2740498" lon="12.0643768"><ele>505.0</ele><time>2026-04-19T07:50:54.22Z</time></trkpt><trkpt lat="43.2739982" lon="12.0643085"><ele>505.0</ele><time>2026-04-19T07:50:55.208Z</time></trkpt><trkpt lat="43.2739418" lon="12.0642514"><ele>505.0</ele><time>2026-04-19T07:50:56.219Z</time></trkpt><trkpt lat="43.2738302" lon="12.0641701"><ele>505.0</ele><time>2026-04-19T07:50:58.216Z</time></trkpt><trkpt lat="43.2737679" lon="12.0641246"><ele>505.0</ele><time>2026-04-19T07:50:59.219Z</time></trkpt><trkpt lat="43.2737152" lon="12.064072"><ele>505.0</ele><time>2026-04-19T07:51:00.223Z</time></trkpt><trkpt lat="43.2736345" lon="12.0639404"><ele>501.2</ele><time>2026-04-19T07:51:02.225Z</time></trkpt><trkpt lat="43.2735934" lon="12.0638586"><ele>497.4</ele><time>2026-04-19T07:51:03.224Z</time></trkpt><trkpt lat="43.2735512" lon="12.0637712"><ele>493.6</ele><time>2026-04-19T07:51:04.221Z</time></trkpt><trkpt lat="43.2734499" lon="12.0636008"><ele>489.8</ele><time>2026-04-19T07:51:06.227Z</time></trkpt><trkpt lat="43.2733906" lon="12.0635271"><ele>486.0</ele><time>2026-04-19T07:51:07.223Z</time></trkpt><trkpt lat="43.2733235" lon="12.0634608"><ele>486.0</ele><time>2026-04-19T07:51:08.224Z</time></trkpt><trkpt lat="43.2732571" lon="12.0633967"><ele>486.0</ele><time>2026-04-19T07:51:09.227Z</time></trkpt><trkpt lat="43.2731956" lon="12.0633269"><ele>486.0</ele><time>2026-04-19T07:51:10.226Z</time></trkpt><trkpt lat="43.27314" lon="12.0632487"><ele>486.0</ele><time>2026-04-19T07:51:11.23Z</time></trkpt><trkpt lat="43.2730862" lon="12.0631564"><ele>486.0</ele><time>2026-04-19T07:51:12.229Z</time></trkpt><trkpt lat="43.2730369" lon="12.063063"><ele>486.0</ele><time>2026-04-19T07:51:13.23Z</time></trkpt><trkpt lat="43.2729982" lon="12.0629768"><ele>484.0</ele><time>2026-04-19T07:51:14.222Z</time></trkpt><trkpt lat="43.272966" lon="12.0628232"><ele>482.0</ele><time>2026-04-19T07:51:16.226Z</time></trkpt><trkpt lat="43.2729963" lon="12.0626542"><ele>480.0</ele><time>2026-04-19T07:51:18.227Z</time></trkpt><trkpt lat="43.2730175" lon="12.0625636"><ele>478.0</ele><time>2026-04-19T07:51:19.234Z</time></trkpt><trkpt lat="43.2730211" lon="12.0624076"><ele>476.0</ele><time>2026-04-19T07:51:21.237Z</time></trkpt><trkpt lat="43.2729777" lon="12.0623043"><ele>475.99999999999994</ele><time>2026-04-19T07:51:23.223Z</time></trkpt><trkpt lat="43.2729105" lon="12.0622113"><ele>476.0</ele><time>2026-04-19T07:51:25.236Z</time></trkpt><trkpt lat="43.2728205" lon="12.0620843"><ele>476.0</ele><time>2026-04-19T07:51:27.239Z</time></trkpt><trkpt lat="43.2727788" lon="12.0620125"><ele>476.0</ele><time>2026-04-19T07:51:28.235Z</time></trkpt><trkpt lat="43.2727403" lon="12.0619372"><ele>475.99999999999994</ele><time>2026-04-19T07:51:29.234Z</time></trkpt><trkpt lat="43.2726997" lon="12.061852"><ele>476.0</ele><time>2026-04-19T07:51:30.233Z</time></trkpt><trkpt lat="43.2726671" lon="12.0617627"><ele>476.0</ele><time>2026-04-19T07:51:31.242Z</time></trkpt><trkpt lat="43.2726345" lon="12.0616749"><ele>476.0</ele><time>2026-04-19T07:51:32.238Z</time></trkpt><trkpt lat="43.2726022" lon="12.0615861"><ele>476.0</ele><time>2026-04-19T07:51:33.237Z</time></trkpt><trkpt lat="43.2725699" lon="12.0614951"><ele>476.0</ele><time>2026-04-19T07:51:34.238Z</time></trkpt><trkpt lat="43.2725449" lon="12.0614018"><ele>476.0</ele><time>2026-04-19T07:51:35.239Z</time></trkpt><trkpt lat="43.2725278" lon="12.0613"><ele>476.0</ele><time>2026-04-19T07:51:36.247Z</time></trkpt><trkpt lat="43.2725129" lon="12.0611966"><ele>476.0</ele><time>2026-04-19T07:51:37.237Z</time></trkpt><trkpt lat="43.2724942" lon="12.061093"><ele>476.57142857142856</ele><time>2026-04-19T07:51:38.237Z</time></trkpt><trkpt lat="43.2724717" lon="12.0609948"><ele>477.1428571428571</ele><time>2026-04-19T07:51:39.236Z</time></trkpt><trkpt lat="43.2724543" lon="12.0609022"><ele>477.7142857142857</ele><time>2026-04-19T07:51:40.235Z</time></trkpt><trkpt lat="43.2724427" lon="12.0608161"><ele>478.2857142857143</ele><time>2026-04-19T07:51:41.225Z</time></trkpt><trkpt lat="43.272442" lon="12.0607285"><ele>478.85714285714283</ele><time>2026-04-19T07:51:42.242Z</time></trkpt><trkpt lat="43.2724519" lon="12.0606329"><ele>479.42857142857144</ele><time>2026-04-19T07:51:43.232Z</time></trkpt><trkpt lat="43.2724654" lon="12.060531"><ele>480.0</ele><time>2026-04-19T07:51:44.243Z</time></trkpt><trkpt lat="43.2724772" lon="12.0604361"><ele>480.0</ele><time>2026-04-19T07:51:45.24Z</time></trkpt><trkpt lat="43.272492" lon="12.0603445"><ele>480.0</ele><time>2026-04-19T07:51:46.239Z</time></trkpt><trkpt lat="43.2725138" lon="12.0602582"><ele>480.0</ele><time>2026-04-19T07:51:47.229Z</time></trkpt><trkpt lat="43.2725415" lon="12.0601711"><ele>480.0</ele><time>2026-04-19T07:51:48.237Z</time></trkpt><trkpt lat="43.2725522" lon="12.0600352"><ele>480.0</ele><time>2026-04-19T07:51:50.234Z</time></trkpt><trkpt lat="43.2725292" lon="12.0599435"><ele>480.0</ele><time>2026-04-19T07:51:52.252Z</time></trkpt><trkpt lat="43.2725239" lon="12.0598384"><ele>478.6</ele><time>2026-04-19T07:51:55.243Z</time></trkpt><trkpt lat="43.2725926" lon="12.0597698"><ele>477.2</ele><time>2026-04-19T07:51:58.244Z</time></trkpt><trkpt lat="43.2726652" lon="12.0597098"><ele>475.79999999999995</ele><time>2026-04-19T07:52:00.246Z</time></trkpt><trkpt lat="43.2727187" lon="12.0596642"><ele>474.4</ele><time>2026-04-19T07:52:01.235Z</time></trkpt><trkpt lat="43.272829" lon="12.0596147"><ele>473.0</ele><time>2026-04-19T07:52:03.231Z</time></trkpt><trkpt lat="43.2729503" lon="12.0595883"><ele>473.0</ele><time>2026-04-19T07:52:05.234Z</time></trkpt><trkpt lat="43.2730632" lon="12.0595187"><ele>472.99999999999994</ele><time>2026-04-19T07:52:07.24Z</time></trkpt><trkpt lat="43.273171" lon="12.0594433"><ele>472.99999999999994</ele><time>2026-04-19T07:52:09.23Z</time></trkpt><trkpt lat="43.273297" lon="12.0594207"><ele>473.0</ele><time>2026-04-19T07:52:11.229Z</time></trkpt><trkpt lat="43.2733691" lon="12.0594154"><ele>473.0</ele><time>2026-04-19T07:52:12.23Z</time></trkpt><trkpt lat="43.2734456" lon="12.059411"><ele>472.49999999999994</ele><time>2026-04-19T07:52:13.23Z</time></trkpt><trkpt lat="43.2735222" lon="12.0594151"><ele>472.0</ele><time>2026-04-19T07:52:14.231Z</time></trkpt><trkpt lat="43.2735946" lon="12.0594319"><ele>471.5</ele><time>2026-04-19T07:52:15.225Z</time></trkpt><trkpt lat="43.2736638" lon="12.0594739"><ele>471.0</ele><time>2026-04-19T07:52:16.232Z</time></trkpt><trkpt lat="43.2737314" lon="12.0595301"><ele>470.49999999999994</ele><time>2026-04-19T07:52:17.224Z</time></trkpt><trkpt lat="43.2738069" lon="12.0595903"><ele>470.0</ele><time>2026-04-19T07:52:18.231Z</time></trkpt><trkpt lat="43.2738889" lon="12.0596446"><ele>468.99999999999994</ele><time>2026-04-19T07:52:19.222Z</time></trkpt><trkpt lat="43.2739671" lon="12.0597048"><ele>468.0</ele><time>2026-04-19T07:52:20.229Z</time></trkpt><trkpt lat="43.2740337" lon="12.0597719"><ele>467.0</ele><time>2026-04-19T07:52:21.226Z</time></trkpt><trkpt lat="43.274085" lon="12.0598574"><ele>466.0</ele><time>2026-04-19T07:52:22.233Z</time></trkpt><trkpt lat="43.2741239" lon="12.0599599"><ele>464.99999999999994</ele><time>2026-04-19T07:52:23.226Z</time></trkpt><trkpt lat="43.2741616" lon="12.0600689"><ele>464.0</ele><time>2026-04-19T07:52:24.222Z</time></trkpt><trkpt lat="43.2742061" lon="12.0601594"><ele>468.3333333333333</ele><time>2026-04-19T07:52:25.222Z</time></trkpt><trkpt lat="43.2742574" lon="12.0602227"><ele>472.66666666666663</ele><time>2026-04-19T07:52:26.225Z</time></trkpt><trkpt lat="43.2743235" lon="12.0602708"><ele>477.0</ele><time>2026-04-19T07:52:27.222Z</time></trkpt><trkpt lat="43.2744036" lon="12.0603025"><ele>481.33333333333337</ele><time>2026-04-19T07:52:28.223Z</time></trkpt><trkpt lat="43.2744889" lon="12.0603091"><ele>485.6666666666667</ele><time>2026-04-19T07:52:29.219Z</time></trkpt><trkpt lat="43.2745771" lon="12.060295"><ele>490.0</ele><time>2026-04-19T07:52:30.224Z</time></trkpt><trkpt lat="43.2746719" lon="12.0602818"><ele>490.00000000000006</ele><time>2026-04-19T07:52:31.226Z</time></trkpt><trkpt lat="43.2747662" lon="12.0602857"><ele>490.0</ele><time>2026-04-19T07:52:32.222Z</time></trkpt><trkpt lat="43.2748493" lon="12.0603054"><ele>490.0</ele><time>2026-04-19T07:52:33.229Z</time></trkpt><trkpt lat="43.2749119" lon="12.0603434"><ele>490.0</ele><time>2026-04-19T07:52:34.221Z</time></trkpt><trkpt lat="43.2749644" lon="12.0603978"><ele>490.00000000000006</ele><time>2026-04-19T07:52:35.219Z</time></trkpt><trkpt lat="43.2750189" lon="12.0604692"><ele>490.0</ele><time>2026-04-19T07:52:36.247Z</time></trkpt><trkpt lat="43.27507" lon="12.0605333"><ele>489.50000000000006</ele><time>2026-04-19T07:52:37.23Z</time></trkpt><trkpt lat="43.2751182" lon="12.060598"><ele>489.0</ele><time>2026-04-19T07:52:38.229Z</time></trkpt><trkpt lat="43.2751674" lon="12.0606641"><ele>488.5</ele><time>2026-04-19T07:52:39.221Z</time></trkpt><trkpt lat="43.2752287" lon="12.0607298"><ele>488.0</ele><time>2026-04-19T07:52:40.234Z</time></trkpt><trkpt lat="43.2752897" lon="12.0607905"><ele>487.50000000000006</ele><time>2026-04-19T07:52:41.219Z</time></trkpt><trkpt lat="43.2753443" lon="12.0608441"><ele>487.0</ele><time>2026-04-19T07:52:42.218Z</time></trkpt><trkpt lat="43.2754344" lon="12.0609026"><ele>487.00000000000006</ele><time>2026-04-19T07:52:44.223Z</time></trkpt><trkpt lat="43.2755016" lon="12.0608784"><ele>487.0</ele><time>2026-04-19T07:52:46.232Z</time></trkpt><trkpt lat="43.2755048" lon="12.0607867"><ele>487.0</ele><time>2026-04-19T07:52:48.236Z</time></trkpt><trkpt lat="43.2754648" lon="12.0606184"><ele>487.0</ele><time>2026-04-19T07:52:50.22Z</time></trkpt><trkpt lat="43.2754354" lon="12.0605128"><ele>487.00000000000006</ele><time>2026-04-19T07:52:51.219Z</time></trkpt><trkpt lat="43.2753916" lon="12.0604045"><ele>487.0</ele><time>2026-04-19T07:52:52.228Z</time></trkpt><trkpt lat="43.2753503" lon="12.0603021"><ele>487.0</ele><time>2026-04-19T07:52:53.228Z</time></trkpt><trkpt lat="43.2753161" lon="12.0602123"><ele>487.0</ele><time>2026-04-19T07:52:54.231Z</time></trkpt><trkpt lat="43.2752885" lon="12.0601254"><ele>487.0</ele><time>2026-04-19T07:52:55.221Z</time></trkpt><trkpt lat="43.2752601" lon="12.0600377"><ele>487.0</ele><time>2026-04-19T07:52:56.23Z</time></trkpt><trkpt lat="43.2752437" lon="12.0599435"><ele>487.0</ele><time>2026-04-19T07:52:57.226Z</time></trkpt><trkpt lat="43.2752288" lon="12.059846"><ele>487.0</ele><time>2026-04-19T07:52:58.223Z</time></trkpt><trkpt lat="43.275221" lon="12.059742"><ele>487.0</ele><time>2026-04-19T07:52:59.227Z</time></trkpt><trkpt lat="43.2752197" lon="12.0596339"><ele>484.83333333333337</ele><time>2026-04-19T07:53:00.233Z</time></trkpt><trkpt lat="43.2752204" lon="12.0595258"><ele>482.6666666666667</ele><time>2026-04-19T07:53:01.23Z</time></trkpt><trkpt lat="43.2752224" lon="12.0594298"><ele>480.5</ele><time>2026-04-19T07:53:02.226Z</time></trkpt><trkpt lat="43.2752139" lon="12.0592826"><ele>478.33333333333337</ele><time>2026-04-19T07:53:04.232Z</time></trkpt><trkpt lat="43.2751728" lon="12.0591413"><ele>476.1666666666667</ele><time>2026-04-19T07:53:06.236Z</time></trkpt><trkpt lat="43.2751576" lon="12.059055"><ele>474.0</ele><time>2026-04-19T07:53:07.238Z</time></trkpt><trkpt lat="43.2751525" lon="12.0589505"><ele>474.0</ele><time>2026-04-19T07:53:08.229Z</time></trkpt><trkpt lat="43.2751562" lon="12.0588261"><ele>474.0</ele><time>2026-04-19T07:53:09.237Z</time></trkpt><trkpt lat="43.2751636" lon="12.0586999"><ele>474.0</ele><time>2026-04-19T07:53:10.231Z</time></trkpt><trkpt lat="43.2751709" lon="12.0585974"><ele>474.0</ele><time>2026-04-19T07:53:11.227Z</time></trkpt><trkpt lat="43.2751317" lon="12.05845"><ele>474.0</ele><time>2026-04-19T07:53:13.232Z</time></trkpt><trkpt lat="43.2750528" lon="12.0583158"><ele>473.6666666666667</ele><time>2026-04-19T07:53:15.239Z</time></trkpt><trkpt lat="43.2750191" lon="12.0582142"><ele>473.33333333333337</ele><time>2026-04-19T07:53:16.241Z</time></trkpt><trkpt lat="43.2749947" lon="12.0580957"><ele>473.0</ele><time>2026-04-19T07:53:17.24Z</time></trkpt><trkpt lat="43.2749798" lon="12.0579809"><ele>472.6666666666667</ele><time>2026-04-19T07:53:18.242Z</time></trkpt><trkpt lat="43.2749704" lon="12.0578753"><ele>472.33333333333337</ele><time>2026-04-19T07:53:19.237Z</time></trkpt><trkpt lat="43.2749717" lon="12.0577762"><ele>472.0</ele><time>2026-04-19T07:53:20.245Z</time></trkpt><trkpt lat="43.2749818" lon="12.0576708"><ele>472.0</ele><time>2026-04-19T07:53:21.239Z</time></trkpt><trkpt lat="43.274989" lon="12.0575749"><ele>472.0</ele><time>2026-04-19T07:53:22.247Z</time></trkpt><trkpt lat="43.274983" lon="12.0574886"><ele>472.0</ele><time>2026-04-19T07:53:23.242Z</time></trkpt><trkpt lat="43.2749731" lon="12.0573951"><ele>472.0</ele><time>2026-04-19T07:53:24.246Z</time></trkpt><trkpt lat="43.2749728" lon="12.0572943"><ele>472.0</ele><time>2026-04-19T07:53:25.244Z</time></trkpt><trkpt lat="43.2749899" lon="12.0571829"><ele>472.0</ele><time>2026-04-19T07:53:26.241Z</time></trkpt><trkpt lat="43.2750178" lon="12.0570703"><ele>472.0</ele><time>2026-04-19T07:53:27.246Z</time></trkpt><trkpt lat="43.2750502" lon="12.0569669"><ele>471.33333333333337</ele><time>2026-04-19T07:53:28.238Z</time></trkpt><trkpt lat="43.2750634" lon="12.0568689"><ele>470.6666666666667</ele><time>2026-04-19T07:53:29.247Z</time></trkpt><trkpt lat="43.2750661" lon="12.0567659"><ele>470.0</ele><time>2026-04-19T07:53:30.238Z</time></trkpt><trkpt lat="43.2750739" lon="12.0566545"><ele>469.33333333333337</ele><time>2026-04-19T07:53:31.246Z</time></trkpt><trkpt lat="43.2750861" lon="12.0565493"><ele>468.6666666666667</ele><time>2026-04-19T07:53:32.25Z</time></trkpt><trkpt lat="43.2751017" lon="12.0564644"><ele>468.0</ele><time>2026-04-19T07:53:33.247Z</time></trkpt><trkpt lat="43.2751577" lon="12.0563429"><ele>467.0</ele><time>2026-04-19T07:53:35.247Z</time></trkpt><trkpt lat="43.2752277" lon="12.0563012"><ele>466.0</ele><time>2026-04-19T07:53:37.264Z</time></trkpt><trkpt lat="43.2753194" lon="12.0562598"><ele>465.0</ele><time>2026-04-19T07:53:40.266Z</time></trkpt><trkpt lat="43.2753966" lon="12.0562229"><ele>464.0</ele><time>2026-04-19T07:53:42.263Z</time></trkpt><trkpt lat="43.275489" lon="12.0562064"><ele>463.0</ele><time>2026-04-19T07:53:45.256Z</time></trkpt><trkpt lat="43.2755613" lon="12.0562382"><ele>462.0</ele><time>2026-04-19T07:53:46.253Z</time></trkpt><trkpt lat="43.2756271" lon="12.0562768"><ele>461.0</ele><time>2026-04-19T07:53:47.24Z</time></trkpt><trkpt lat="43.2757425" lon="12.0563333"><ele>460.0</ele><time>2026-04-19T07:53:49.227Z</time></trkpt><trkpt lat="43.2758593" lon="12.056414"><ele>459.0</ele><time>2026-04-19T07:53:51.229Z</time></trkpt><trkpt lat="43.2759572" lon="12.0565117"><ele>458.0</ele><time>2026-04-19T07:53:53.234Z</time></trkpt><trkpt lat="43.276021" lon="12.0566221"><ele>462.0</ele><time>2026-04-19T07:53:55.234Z</time></trkpt><trkpt lat="43.2760735" lon="12.0567443"><ele>465.99999999999994</ele><time>2026-04-19T07:53:57.232Z</time></trkpt><trkpt lat="43.276115" lon="12.0568525"><ele>469.99999999999994</ele><time>2026-04-19T07:53:59.235Z</time></trkpt><trkpt lat="43.2761381" lon="12.0569896"><ele>474.0</ele><time>2026-04-19T07:54:01.222Z</time></trkpt><trkpt lat="43.2761662" lon="12.0570987"><ele>478.0</ele><time>2026-04-19T07:54:03.235Z</time></trkpt><trkpt lat="43.2762575" lon="12.0570846"><ele>478.0</ele><time>2026-04-19T07:54:07.234Z</time></trkpt><trkpt lat="43.2763775" lon="12.0570592"><ele>477.99999999999994</ele><time>2026-04-19T07:54:09.217Z</time></trkpt><trkpt lat="43.2764965" lon="12.0570198"><ele>477.99999999999994</ele><time>2026-04-19T07:54:11.226Z</time></trkpt><trkpt lat="43.2765605" lon="12.0569815"><ele>478.0</ele><time>2026-04-19T07:54:12.218Z</time></trkpt><trkpt lat="43.2766748" lon="12.0569566"><ele>478.0</ele><time>2026-04-19T07:54:14.223Z</time></trkpt><trkpt lat="43.2767865" lon="12.0569718"><ele>477.00000000000006</ele><time>2026-04-19T07:54:16.223Z</time></trkpt><trkpt lat="43.2768652" lon="12.0569953"><ele>476.0</ele><time>2026-04-19T07:54:18.236Z</time></trkpt><trkpt lat="43.2769297" lon="12.0570629"><ele>475.0</ele><time>2026-04-19T07:54:20.233Z</time></trkpt><trkpt lat="43.276992" lon="12.0571636"><ele>474.0</ele><time>2026-04-19T07:54:22.231Z</time></trkpt><trkpt lat="43.2770408" lon="12.0572402"><ele>473.00000000000006</ele><time>2026-04-19T07:54:24.232Z</time></trkpt><trkpt lat="43.2771216" lon="12.05726"><ele>472.0</ele><time>2026-04-19T07:54:26.231Z</time></trkpt><trkpt lat="43.2771596" lon="12.0571829"><ele>472.00000000000006</ele><time>2026-04-19T07:54:29.237Z</time></trkpt><trkpt lat="43.2771546" lon="12.0570661"><ele>472.0</ele><time>2026-04-19T07:54:35.228Z</time></trkpt><trkpt lat="43.2771557" lon="12.0569771"><ele>472.0</ele><time>2026-04-19T07:54:40.232Z</time></trkpt><trkpt lat="43.2771434" lon="12.0568771"><ele>472.0</ele><time>2026-04-19T07:54:43.236Z</time></trkpt><trkpt lat="43.2771582" lon="12.0567713"><ele>472.00000000000006</ele><time>2026-04-19T07:54:45.242Z</time></trkpt><trkpt lat="43.2771379" lon="12.0566507"><ele>472.0</ele><time>2026-04-19T07:54:47.232Z</time></trkpt><trkpt lat="43.2771489" lon="12.0565312"><ele>469.85714285714283</ele><time>2026-04-19T07:54:49.233Z</time></trkpt><trkpt lat="43.2771641" lon="12.056429"><ele>467.7142857142858</ele><time>2026-04-19T07:54:51.236Z</time></trkpt><trkpt lat="43.2771941" lon="12.0563516"><ele>465.5714285714286</ele><time>2026-04-19T07:54:53.23Z</time></trkpt><trkpt lat="43.2772401" lon="12.0562786"><ele>463.42857142857144</ele><time>2026-04-19T07:54:55.23Z</time></trkpt><trkpt lat="43.2772678" lon="12.0561923"><ele>461.28571428571433</ele><time>2026-04-19T07:54:58.235Z</time></trkpt><trkpt lat="43.2772336" lon="12.0561135"><ele>459.1428571428572</ele><time>2026-04-19T07:55:08.237Z</time></trkpt><trkpt lat="43.2772964" lon="12.0560357"><ele>457.00000000000006</ele><time>2026-04-19T07:55:11.235Z</time></trkpt><trkpt lat="43.2773261" lon="12.0561124"><ele>457.00000000000006</ele><time>2026-04-19T07:55:22.239Z</time></trkpt><trkpt lat="43.2773014" lon="12.0562461"><ele>457.0</ele><time>2026-04-19T07:55:24.043Z</time></trkpt><trkpt lat="43.2772875" lon="12.0563319"><ele>457.0</ele><time>2026-04-19T07:55:25.233Z</time></trkpt><trkpt lat="43.2772591" lon="12.0564448"><ele>457.0</ele><time>2026-04-19T07:55:27.234Z</time></trkpt><trkpt lat="43.2772342" lon="12.0565283"><ele>457.00000000000006</ele><time>2026-04-19T07:55:29.229Z</time></trkpt><trkpt lat="43.2772224" lon="12.056622"><ele>457.0</ele><time>2026-04-19T07:55:31.234Z</time></trkpt><trkpt lat="43.2772274" lon="12.0567137"><ele>459.1428571428572</ele><time>2026-04-19T07:55:34.235Z</time></trkpt><trkpt lat="43.2772135" lon="12.0568298"><ele>461.28571428571433</ele><time>2026-04-19T07:55:37.231Z</time></trkpt><trkpt lat="43.2772019" lon="12.0569214"><ele>463.42857142857144</ele><time>2026-04-19T07:55:40.234Z</time></trkpt><trkpt lat="43.2771917" lon="12.0570275"><ele>465.5714285714286</ele><time>2026-04-19T07:55:43.232Z</time></trkpt><trkpt lat="43.2771903" lon="12.0571355"><ele>467.7142857142858</ele><time>2026-04-19T07:55:46.233Z</time></trkpt><trkpt lat="43.2771798" lon="12.0572266"><ele>469.85714285714283</ele><time>2026-04-19T07:55:49.233Z</time></trkpt><trkpt lat="43.2772356" lon="12.0572688"><ele>472.0</ele><time>2026-04-19T07:56:00.231Z</time></trkpt><trkpt lat="43.2772538" lon="12.0571782"><ele>475.83333333333337</ele><time>2026-04-19T07:56:01.234Z</time></trkpt><trkpt lat="43.277281" lon="12.0570717"><ele>479.6666666666667</ele><time>2026-04-19T07:56:03.231Z</time></trkpt><trkpt lat="43.2772996" lon="12.0569848"><ele>483.5</ele><time>2026-04-19T07:56:05.227Z</time></trkpt><trkpt lat="43.2773161" lon="12.0568592"><ele>487.33333333333337</ele><time>2026-04-19T07:56:08.225Z</time></trkpt><trkpt lat="43.2773316" lon="12.0567335"><ele>491.1666666666667</ele><time>2026-04-19T07:56:11.197Z</time></trkpt><trkpt lat="43.2773695" lon="12.0566458"><ele>495.0</ele><time>2026-04-19T07:56:13.23Z</time></trkpt><trkpt lat="43.2774076" lon="12.0565461"><ele>495.0</ele><time>2026-04-19T07:56:15.236Z</time></trkpt><trkpt lat="43.2774782" lon="12.0564666"><ele>495.0</ele><time>2026-04-19T07:56:17.234Z</time></trkpt><trkpt lat="43.2775555" lon="12.056373"><ele>495.0</ele><time>2026-04-19T07:56:19.23Z</time></trkpt><trkpt lat="43.277614" lon="12.056259"><ele>495.0</ele><time>2026-04-19T07:56:21.218Z</time></trkpt><trkpt lat="43.2776618" lon="12.0561581"><ele>495.0</ele><time>2026-04-19T07:56:23.23Z</time></trkpt><trkpt lat="43.2777152" lon="12.0560823"><ele>495.0</ele><time>2026-04-19T07:56:25.232Z</time></trkpt><trkpt lat="43.2777793" lon="12.0560027"><ele>495.0</ele><time>2026-04-19T07:56:27.231Z</time></trkpt><trkpt lat="43.277875" lon="12.0559222"><ele>495.0</ele><time>2026-04-19T07:56:30.227Z</time></trkpt><trkpt lat="43.2779422" lon="12.0557931"><ele>495.0</ele><time>2026-04-19T07:56:32.229Z</time></trkpt><trkpt lat="43.2779566" lon="12.0557037"><ele>495.0</ele><time>2026-04-19T07:56:33.216Z</time></trkpt><trkpt lat="43.2779915" lon="12.0555757"><ele>493.6</ele><time>2026-04-19T07:56:35.232Z</time></trkpt><trkpt lat="43.278054" lon="12.0554976"><ele>492.2</ele><time>2026-04-19T07:56:37.238Z</time></trkpt><trkpt lat="43.278131" lon="12.0554291"><ele>490.79999999999995</ele><time>2026-04-19T07:56:39.235Z</time></trkpt><trkpt lat="43.2782492" lon="12.0554153"><ele>489.4</ele><time>2026-04-19T07:56:42.241Z</time></trkpt><trkpt lat="43.2783719" lon="12.0554436"><ele>488.0</ele><time>2026-04-19T07:56:44.224Z</time></trkpt><trkpt lat="43.2784405" lon="12.0554619"><ele>492.4</ele><time>2026-04-19T07:56:45.236Z</time></trkpt><trkpt lat="43.278504" lon="12.0554809"><ele>496.79999999999995</ele><time>2026-04-19T07:56:46.227Z</time></trkpt><trkpt lat="43.2786181" lon="12.0555088"><ele>501.2</ele><time>2026-04-19T07:56:48.223Z</time></trkpt><trkpt lat="43.2787185" lon="12.0555634"><ele>505.6</ele><time>2026-04-19T07:56:50.228Z</time></trkpt><trkpt lat="43.278819" lon="12.0556433"><ele>510.0</ele><time>2026-04-19T07:56:52.225Z</time></trkpt><trkpt lat="43.2788728" lon="12.0557673"><ele>514.2</ele><time>2026-04-19T07:56:54.221Z</time></trkpt><trkpt lat="43.2788621" lon="12.0559227"><ele>518.4</ele><time>2026-04-19T07:56:56.222Z</time></trkpt><trkpt lat="43.2788746" lon="12.0560495"><ele>522.6</ele><time>2026-04-19T07:56:58.23Z</time></trkpt><trkpt lat="43.2788993" lon="12.056167"><ele>526.8</ele><time>2026-04-19T07:57:00.236Z</time></trkpt><trkpt lat="43.2789373" lon="12.0562665"><ele>531.0</ele><time>2026-04-19T07:57:02.235Z</time></trkpt><trkpt lat="43.2789835" lon="12.0563466"><ele>534.0</ele><time>2026-04-19T07:57:04.238Z</time></trkpt><trkpt lat="43.2790133" lon="12.0564414"><ele>537.0</ele><time>2026-04-19T07:57:05.227Z</time></trkpt><trkpt lat="43.2790376" lon="12.0565375"><ele>540.0</ele><time>2026-04-19T07:57:06.228Z</time></trkpt><trkpt lat="43.2790947" lon="12.0566553"><ele>543.0</ele><time>2026-04-19T07:57:08.22Z</time></trkpt><trkpt lat="43.2791644" lon="12.0567104"><ele>546.0</ele><time>2026-04-19T07:57:10.235Z</time></trkpt><trkpt lat="43.279237" lon="12.056709"><ele>549.0</ele><time>2026-04-19T07:57:12.231Z</time></trkpt><trkpt lat="43.279307" lon="12.0566743"><ele>551.7142857142857</ele><time>2026-04-19T07:57:26.243Z</time></trkpt><trkpt lat="43.2793764" lon="12.0566977"><ele>554.4285714285714</ele><time>2026-04-19T07:57:27.235Z</time></trkpt><trkpt lat="43.2794378" lon="12.0567255"><ele>557.1428571428571</ele><time>2026-04-19T07:57:28.229Z</time></trkpt><trkpt lat="43.2795029" lon="12.0567588"><ele>559.8571428571429</ele><time>2026-04-19T07:57:29.235Z</time></trkpt><trkpt lat="43.2795803" lon="12.0568009"><ele>562.5714285714286</ele><time>2026-04-19T07:57:30.221Z</time></trkpt><trkpt lat="43.2796463" lon="12.056851"><ele>565.2857142857142</ele><time>2026-04-19T07:57:31.223Z</time></trkpt><trkpt lat="43.2797012" lon="12.0569028"><ele>568.0</ele><time>2026-04-19T07:57:32.217Z</time></trkpt><trkpt lat="43.2797561" lon="12.0569488"><ele>570.8333333333334</ele><time>2026-04-19T07:57:33.225Z</time></trkpt><trkpt lat="43.2798573" lon="12.0569999"><ele>573.6666666666667</ele><time>2026-04-19T07:57:35.223Z</time></trkpt><trkpt lat="43.2799552" lon="12.0569826"><ele>576.5</ele><time>2026-04-19T07:57:37.224Z</time></trkpt><trkpt lat="43.2800298" lon="12.0569338"><ele>579.3333333333334</ele><time>2026-04-19T07:57:39.233Z</time></trkpt><trkpt lat="43.2800844" lon="12.0568677"><ele>582.1666666666666</ele><time>2026-04-19T07:57:41.23Z</time></trkpt><trkpt lat="43.2800699" lon="12.0567632"><ele>585.0</ele><time>2026-04-19T07:57:43.231Z</time></trkpt><trkpt lat="43.280063" lon="12.0566476"><ele>582.6666666666666</ele><time>2026-04-19T07:57:45.224Z</time></trkpt><trkpt lat="43.2800807" lon="12.0565354"><ele>580.3333333333334</ele><time>2026-04-19T07:57:46.227Z</time></trkpt><trkpt lat="43.2801121" lon="12.0564347"><ele>578.0</ele><time>2026-04-19T07:57:47.237Z</time></trkpt><trkpt lat="43.2801604" lon="12.0563273"><ele>575.6666666666667</ele><time>2026-04-19T07:57:48.229Z</time></trkpt><trkpt lat="43.2802197" lon="12.056222"><ele>573.3333333333334</ele><time>2026-04-19T07:57:49.23Z</time></trkpt><trkpt lat="43.2802724" lon="12.0561228"><ele>571.0</ele><time>2026-04-19T07:57:50.224Z</time></trkpt><trkpt lat="43.2803167" lon="12.056028"><ele>571.0</ele><time>2026-04-19T07:57:51.227Z</time></trkpt><trkpt lat="43.2803509" lon="12.05595"><ele>571.0</ele><time>2026-04-19T07:57:52.232Z</time></trkpt><trkpt lat="43.2804078" lon="12.0558851"><ele>571.0</ele><time>2026-04-19T07:57:54.226Z</time></trkpt><trkpt lat="43.2804495" lon="12.0559579"><ele>571.0</ele><time>2026-04-19T07:57:56.238Z</time></trkpt><trkpt lat="43.2804584" lon="12.0561102"><ele>571.0</ele><time>2026-04-19T07:57:58.237Z</time></trkpt><trkpt lat="43.2804919" lon="12.0562356"><ele>571.0</ele><time>2026-04-19T07:58:00.238Z</time></trkpt><trkpt lat="43.2805652" lon="12.0563977"><ele>574.2</ele><time>2026-04-19T07:58:03.245Z</time></trkpt><trkpt lat="43.2806173" lon="12.0564566"><ele>577.4000000000001</ele><time>2026-04-19T07:58:04.228Z</time></trkpt><trkpt lat="43.2806674" lon="12.0565126"><ele>580.6</ele><time>2026-04-19T07:58:05.228Z</time></trkpt><trkpt lat="43.2807697" lon="12.0566123"><ele>583.8000000000001</ele><time>2026-04-19T07:58:07.233Z</time></trkpt><trkpt lat="43.2808577" lon="12.0567249"><ele>587.0</ele><time>2026-04-19T07:58:09.23Z</time></trkpt><trkpt lat="43.2809258" lon="12.0568043"><ele>590.3333333333333</ele><time>2026-04-19T07:58:11.233Z</time></trkpt><trkpt lat="43.2810002" lon="12.0568564"><ele>593.6666666666666</ele><time>2026-04-19T07:58:13.244Z</time></trkpt><trkpt lat="43.2810638" lon="12.0569782"><ele>597.0</ele><time>2026-04-19T07:58:15.228Z</time></trkpt><trkpt lat="43.2811137" lon="12.0570899"><ele>600.3333333333334</ele><time>2026-04-19T07:58:17.225Z</time></trkpt><trkpt lat="43.281175" lon="12.0571429"><ele>603.6666666666667</ele><time>2026-04-19T07:58:19.236Z</time></trkpt><trkpt lat="43.2812369" lon="12.0571663"><ele>607.0</ele><time>2026-04-19T07:58:20.235Z</time></trkpt><trkpt lat="43.2813404" lon="12.0572338"><ele>607.0</ele><time>2026-04-19T07:58:22.234Z</time></trkpt><trkpt lat="43.2814288" lon="12.057338"><ele>607.0</ele><time>2026-04-19T07:58:24.227Z</time></trkpt><trkpt lat="43.2814588" lon="12.0574156"><ele>607.0</ele><time>2026-04-19T07:58:25.224Z</time></trkpt><trkpt lat="43.2814693" lon="12.057504"><ele>607.0</ele><time>2026-04-19T07:58:26.227Z</time></trkpt><trkpt lat="43.2814796" lon="12.0576312"><ele>607.0</ele><time>2026-04-19T07:58:28.241Z</time></trkpt><trkpt lat="43.2815131" lon="12.0577196"><ele>607.0</ele><time>2026-04-19T07:58:30.24Z</time></trkpt><trkpt lat="43.2815839" lon="12.057798"><ele>610.5</ele><time>2026-04-19T07:58:32.241Z</time></trkpt><trkpt lat="43.2816897" lon="12.0578965"><ele>614.0</ele><time>2026-04-19T07:58:34.222Z</time></trkpt><trkpt lat="43.2817496" lon="12.0579473"><ele>617.5</ele><time>2026-04-19T07:58:35.218Z</time></trkpt><trkpt lat="43.2818023" lon="12.0579972"><ele>621.0</ele><time>2026-04-19T07:58:36.221Z</time></trkpt><trkpt lat="43.2818574" lon="12.0581056"><ele>624.5</ele><time>2026-04-19T07:58:38.227Z</time></trkpt><trkpt lat="43.2818279" lon="12.0582184"><ele>628.0</ele><time>2026-04-19T07:58:40.238Z</time></trkpt><trkpt lat="43.2818228" lon="12.0583821"><ele>631.3333333333334</ele><time>2026-04-19T07:58:42.234Z</time></trkpt><trkpt lat="43.2818306" lon="12.0584838"><ele>634.6666666666667</ele><time>2026-04-19T07:58:43.221Z</time></trkpt><trkpt lat="43.2818306" lon="12.0585851"><ele>638.0</ele><time>2026-04-19T07:58:44.227Z</time></trkpt><trkpt lat="43.2818252" lon="12.0586787"><ele>641.3333333333334</ele><time>2026-04-19T07:58:45.22Z</time></trkpt><trkpt lat="43.2818178" lon="12.0587768"><ele>644.6666666666666</ele><time>2026-04-19T07:58:46.223Z</time></trkpt><trkpt lat="43.2818158" lon="12.0588642"><ele>648.0</ele><time>2026-04-19T07:58:47.231Z</time></trkpt><trkpt lat="43.2818197" lon="12.0590404"><ele>650.1428571428571</ele><time>2026-04-19T07:58:49.23Z</time></trkpt><trkpt lat="43.281831" lon="12.0591421"><ele>652.2857142857142</ele><time>2026-04-19T07:58:50.225Z</time></trkpt><trkpt lat="43.281843" lon="12.0592463"><ele>654.4285714285713</ele><time>2026-04-19T07:58:51.22Z</time></trkpt><trkpt lat="43.2818399" lon="12.0593464"><ele>656.5714285714286</ele><time>2026-04-19T07:58:52.226Z</time></trkpt><trkpt lat="43.2818332" lon="12.0594333"><ele>658.7142857142857</ele><time>2026-04-19T07:58:53.222Z</time></trkpt><trkpt lat="43.2817942" lon="12.0595462"><ele>660.8571428571428</ele><time>2026-04-19T07:58:55.235Z</time></trkpt><trkpt lat="43.2817324" lon="12.0595819"><ele>663.0</ele><time>2026-04-19T07:59:04.238Z</time></trkpt><trkpt lat="43.28165" lon="12.0595656"><ele>663.0</ele><time>2026-04-19T07:59:06.234Z</time></trkpt><trkpt lat="43.281571" lon="12.0595477"><ele>663.0</ele><time>2026-04-19T07:59:08.193Z</time></trkpt><trkpt lat="43.2814999" lon="12.0595429"><ele>663.0</ele><time>2026-04-19T07:59:09.234Z</time></trkpt><trkpt lat="43.2814044" lon="12.0596174"><ele>663.0</ele><time>2026-04-19T07:59:11.227Z</time></trkpt><trkpt lat="43.2813679" lon="12.0597398"><ele>663.0</ele><time>2026-04-19T07:59:12.222Z</time></trkpt><trkpt lat="43.2813378" lon="12.059869"><ele>663.5</ele><time>2026-04-19T07:59:13.221Z</time></trkpt><trkpt lat="43.2813102" lon="12.059985"><ele>664.0</ele><time>2026-04-19T07:59:14.225Z</time></trkpt><trkpt lat="43.2812786" lon="12.0600867"><ele>664.5</ele><time>2026-04-19T07:59:15.222Z</time></trkpt><trkpt lat="43.281245" lon="12.0601847"><ele>665.0</ele><time>2026-04-19T07:59:16.227Z</time></trkpt><trkpt lat="43.2812111" lon="12.0602771"><ele>665.5</ele><time>2026-04-19T07:59:17.224Z</time></trkpt><trkpt lat="43.2811717" lon="12.0603697"><ele>666.0</ele><time>2026-04-19T07:59:18.226Z</time></trkpt><trkpt lat="43.2811285" lon="12.0604562"><ele>666.0</ele><time>2026-04-19T07:59:19.227Z</time></trkpt><trkpt lat="43.28109" lon="12.060534"><ele>666.0</ele><time>2026-04-19T07:59:20.237Z</time></trkpt><trkpt lat="43.2810492" lon="12.0606586"><ele>666.0</ele><time>2026-04-19T07:59:22.232Z</time></trkpt><trkpt lat="43.2810823" lon="12.0607634"><ele>666.0</ele><time>2026-04-19T07:59:24.241Z</time></trkpt><trkpt lat="43.2811504" lon="12.0608714"><ele>666.0</ele><time>2026-04-19T07:59:26.227Z</time></trkpt><trkpt lat="43.2812051" lon="12.0610187"><ele>667.8</ele><time>2026-04-19T07:59:28.228Z</time></trkpt><trkpt lat="43.2812535" lon="12.0611488"><ele>669.5999999999999</ele><time>2026-04-19T07:59:30.225Z</time></trkpt><trkpt lat="43.2813426" lon="12.0612022"><ele>671.4</ele><time>2026-04-19T07:59:32.228Z</time></trkpt><trkpt lat="43.2814391" lon="12.0613144"><ele>673.2</ele><time>2026-04-19T07:59:34.224Z</time></trkpt><trkpt lat="43.2814825" lon="12.0614202"><ele>675.0</ele><time>2026-04-19T07:59:35.228Z</time></trkpt><trkpt lat="43.2815161" lon="12.0615284"><ele>681.3333333333334</ele><time>2026-04-19T07:59:36.222Z</time></trkpt><trkpt lat="43.2815392" lon="12.061627"><ele>687.6666666666666</ele><time>2026-04-19T07:59:37.231Z</time></trkpt><trkpt lat="43.2815591" lon="12.0617182"><ele>694.0</ele><time>2026-04-19T07:59:38.224Z</time></trkpt><trkpt lat="43.2816004" lon="12.0618454"><ele>700.3333333333333</ele><time>2026-04-19T07:59:40.229Z</time></trkpt><trkpt lat="43.2816773" lon="12.0618529"><ele>706.6666666666666</ele><time>2026-04-19T07:59:42.237Z</time></trkpt><trkpt lat="43.2817906" lon="12.0618319"><ele>713.0</ele><time>2026-04-19T07:59:44.224Z</time></trkpt><trkpt lat="43.2818989" lon="12.0618886"><ele>713.0</ele><time>2026-04-19T07:59:46.228Z</time></trkpt><trkpt lat="43.2819421" lon="12.0619546"><ele>713.0</ele><time>2026-04-19T07:59:47.227Z</time></trkpt><trkpt lat="43.2819888" lon="12.0620289"><ele>713.0</ele><time>2026-04-19T07:59:48.226Z</time></trkpt><trkpt lat="43.282042" lon="12.0621102"><ele>713.0</ele><time>2026-04-19T07:59:49.222Z</time></trkpt><trkpt lat="43.2821065" lon="12.0621818"><ele>713.0</ele><time>2026-04-19T07:59:50.239Z</time></trkpt><trkpt lat="43.2821846" lon="12.0622391"><ele>713.0</ele><time>2026-04-19T07:59:51.235Z</time></trkpt><trkpt lat="43.2822678" lon="12.0622738"><ele>716.0</ele><time>2026-04-19T07:59:52.223Z</time></trkpt><trkpt lat="43.2823509" lon="12.062278"><ele>719.0</ele><time>2026-04-19T07:59:53.227Z</time></trkpt><trkpt lat="43.2824238" lon="12.062272"><ele>722.0</ele><time>2026-04-19T07:59:54.22Z</time></trkpt><trkpt lat="43.2824918" lon="12.0622711"><ele>725.0</ele><time>2026-04-19T07:59:55.225Z</time></trkpt><trkpt lat="43.2826052" lon="12.0622721"><ele>728.0</ele><time>2026-04-19T07:59:57.201Z</time></trkpt><trkpt lat="43.2827056" lon="12.0622811"><ele>731.0</ele><time>2026-04-19T07:59:59.211Z</time></trkpt><trkpt lat="43.2827958" lon="12.0622805"><ele>731.0</ele><time>2026-04-19T08:00:01.213Z</time></trkpt><trkpt lat="43.2828704" lon="12.0623167"><ele>731.0</ele><time>2026-04-19T08:00:13.222Z</time></trkpt><trkpt lat="43.2829258" lon="12.0623863"><ele>731.0</ele><time>2026-04-19T08:00:14.218Z</time></trkpt><trkpt lat="43.2830343" lon="12.0624885"><ele>731.0</ele><time>2026-04-19T08:00:17.222Z</time></trkpt><trkpt lat="43.2830887" lon="12.0625364"><ele>731.0</ele><time>2026-04-19T08:00:18.219Z</time></trkpt><trkpt lat="43.2831674" lon="12.0626146"><ele>731.0</ele><time>2026-04-19T08:00:20.22Z</time></trkpt><trkpt lat="43.2832641" lon="12.0626726"><ele>736.0</ele><time>2026-04-19T08:00:22.22Z</time></trkpt><trkpt lat="43.2833535" lon="12.0626817"><ele>741.0</ele><time>2026-04-19T08:00:25.139Z</time></trkpt><trkpt lat="43.283432" lon="12.0626776"><ele>746.0</ele><time>2026-04-19T08:00:27.219Z</time></trkpt><trkpt lat="43.283551" lon="12.0627057"><ele>751.0</ele><time>2026-04-19T08:00:30.143Z</time></trkpt><trkpt lat="43.2836252" lon="12.0627195"><ele>756.0</ele><time>2026-04-19T08:00:31.226Z</time></trkpt><trkpt lat="43.2836962" lon="12.0627281"><ele>761.0</ele><time>2026-04-19T08:00:33.222Z</time></trkpt><trkpt lat="43.2837643" lon="12.0627424"><ele>761.0</ele><time>2026-04-19T08:00:35.229Z</time></trkpt><trkpt lat="43.2838413" lon="12.0627466"><ele>761.0</ele><time>2026-04-19T08:00:37.228Z</time></trkpt><trkpt lat="43.2839218" lon="12.0627716"><ele>761.0</ele><time>2026-04-19T08:00:39.227Z</time></trkpt><trkpt lat="43.2840095" lon="12.0628477"><ele>761.0</ele><time>2026-04-19T08:00:41.23Z</time></trkpt><trkpt lat="43.284096" lon="12.06289"><ele>761.0</ele><time>2026-04-19T08:00:43.138Z</time></trkpt><trkpt lat="43.2841822" lon="12.0629019"><ele>761.0</ele><time>2026-04-19T08:00:45.238Z</time></trkpt><trkpt lat="43.2842552" lon="12.0628958"><ele>764.2857142857142</ele><time>2026-04-19T08:00:47.221Z</time></trkpt><trkpt lat="43.2843203" lon="12.0628895"><ele>767.5714285714286</ele><time>2026-04-19T08:00:49.222Z</time></trkpt><trkpt lat="43.2843993" lon="12.0629079"><ele>770.8571428571429</ele><time>2026-04-19T08:00:52.231Z</time></trkpt><trkpt lat="43.2844747" lon="12.0629268"><ele>774.1428571428571</ele><time>2026-04-19T08:00:55.231Z</time></trkpt><trkpt lat="43.2845331" lon="12.0629629"><ele>777.4285714285714</ele><time>2026-04-19T08:00:57.22Z</time></trkpt><trkpt lat="43.2846074" lon="12.0629705"><ele>780.7142857142857</ele><time>2026-04-19T08:01:00.237Z</time></trkpt><trkpt lat="43.284674" lon="12.0629918"><ele>784.0</ele><time>2026-04-19T08:01:09.229Z</time></trkpt><trkpt lat="43.2847388" lon="12.0630328"><ele>787.3333333333333</ele><time>2026-04-19T08:01:12.125Z</time></trkpt><trkpt lat="43.2848389" lon="12.0631243"><ele>790.6666666666666</ele><time>2026-04-19T08:01:14.217Z</time></trkpt><trkpt lat="43.2848939" lon="12.0631721"><ele>794.0</ele><time>2026-04-19T08:01:28.235Z</time></trkpt><trkpt lat="43.2849482" lon="12.0632516"><ele>797.3333333333333</ele><time>2026-04-19T08:01:31.233Z</time></trkpt><trkpt lat="43.2849972" lon="12.0633282"><ele>800.6666666666666</ele><time>2026-04-19T08:01:34.206Z</time></trkpt><trkpt lat="43.2850685" lon="12.0633749"><ele>804.0</ele><time>2026-04-19T08:01:37.242Z</time></trkpt><trkpt lat="43.2851387" lon="12.0633856"><ele>804.0</ele><time>2026-04-19T08:01:39.235Z</time></trkpt><trkpt lat="43.2852059" lon="12.0633493"><ele>804.0</ele><time>2026-04-19T08:01:41.229Z</time></trkpt><trkpt lat="43.2852662" lon="12.0632876"><ele>804.0</ele><time>2026-04-19T08:01:44.241Z</time></trkpt><trkpt lat="43.2853363" lon="12.0632603"><ele>804.0</ele><time>2026-04-19T08:01:47.237Z</time></trkpt><trkpt lat="43.2853941" lon="12.0632199"><ele>804.0</ele><time>2026-04-19T08:01:49.241Z</time></trkpt><trkpt lat="43.2854631" lon="12.0631739"><ele>804.0</ele><time>2026-04-19T08:01:52.24Z</time></trkpt><trkpt lat="43.2855519" lon="12.0631528"><ele>806.6</ele><time>2026-04-19T08:01:55.235Z</time></trkpt><trkpt lat="43.2856418" lon="12.0631158"><ele>809.2</ele><time>2026-04-19T08:01:58.233Z</time></trkpt><trkpt lat="43.2857281" lon="12.0631021"><ele>811.8000000000001</ele><time>2026-04-19T08:02:00.234Z</time></trkpt><trkpt lat="43.28576" lon="12.0630175"><ele>814.4000000000001</ele><time>2026-04-19T08:02:03.236Z</time></trkpt><trkpt lat="43.285726" lon="12.063092"><ele>817.0</ele><time>2026-04-19T08:02:05.232Z</time></trkpt><trkpt lat="43.2858819" lon="12.0630412"><ele>816.9999999999999</ele><time>2026-04-19T08:02:27.232Z</time></trkpt><trkpt lat="43.285967" lon="12.0630416"><ele>817.0</ele><time>2026-04-19T08:02:29.224Z</time></trkpt><trkpt lat="43.2860153" lon="12.0631383"><ele>817.0</ele><time>2026-04-19T08:02:32.23Z</time></trkpt><trkpt lat="43.285978" lon="12.0630574"><ele>817.0</ele><time>2026-04-19T08:02:34.228Z</time></trkpt><trkpt lat="43.2859667" lon="12.0631798"><ele>816.9999999999999</ele><time>2026-04-19T08:02:55.237Z</time></trkpt><trkpt lat="43.2859258" lon="12.063274"><ele>817.0</ele><time>2026-04-19T08:02:56.217Z</time></trkpt><trkpt lat="43.2858738" lon="12.063369"><ele>821.25</ele><time>2026-04-19T08:02:57.227Z</time></trkpt><trkpt lat="43.2858163" lon="12.0634707"><ele>825.5</ele><time>2026-04-19T08:02:58.219Z</time></trkpt><trkpt lat="43.2857533" lon="12.0635911"><ele>829.75</ele><time>2026-04-19T08:02:59.226Z</time></trkpt><trkpt lat="43.2856816" lon="12.0637356"><ele>834.0</ele><time>2026-04-19T08:03:00.22Z</time></trkpt><trkpt lat="43.2856036" lon="12.0638923"><ele>832.5</ele><time>2026-04-19T08:03:01.221Z</time></trkpt><trkpt lat="43.2855223" lon="12.064056"><ele>831.0</ele><time>2026-04-19T08:03:02.227Z</time></trkpt><trkpt lat="43.2854592" lon="12.0642113"><ele>829.5</ele><time>2026-04-19T08:03:03.224Z</time></trkpt><trkpt lat="43.2854176" lon="12.0643575"><ele>828.0</ele><time>2026-04-19T08:03:04.224Z</time></trkpt><trkpt lat="43.2853842" lon="12.0645113"><ele>828.0</ele><time>2026-04-19T08:03:05.219Z</time></trkpt><trkpt lat="43.2853578" lon="12.06467"><ele>828.0</ele><time>2026-04-19T08:03:06.223Z</time></trkpt><trkpt lat="43.2853363" lon="12.0648215"><ele>828.0</ele><time>2026-04-19T08:03:07.225Z</time></trkpt><trkpt lat="43.2853248" lon="12.0649733"><ele>828.0</ele><time>2026-04-19T08:03:08.22Z</time></trkpt><trkpt lat="43.2853234" lon="12.0651253"><ele>828.25</ele><time>2026-04-19T08:03:09.22Z</time></trkpt><trkpt lat="43.285337" lon="12.0652747"><ele>828.5</ele><time>2026-04-19T08:03:10.223Z</time></trkpt><trkpt lat="43.285367" lon="12.0654262"><ele>828.75</ele><time>2026-04-19T08:03:11.222Z</time></trkpt><trkpt lat="43.2854098" lon="12.0655824"><ele>829.0</ele><time>2026-04-19T08:03:12.224Z</time></trkpt><trkpt lat="43.285464" lon="12.0657383"><ele>828.4000000000001</ele><time>2026-04-19T08:03:13.223Z</time></trkpt><trkpt lat="43.2855229" lon="12.0658841"><ele>827.8</ele><time>2026-04-19T08:03:14.219Z</time></trkpt><trkpt lat="43.2855773" lon="12.0660231"><ele>827.2</ele><time>2026-04-19T08:03:15.219Z</time></trkpt><trkpt lat="43.2856202" lon="12.0661618"><ele>826.5999999999999</ele><time>2026-04-19T08:03:16.217Z</time></trkpt><trkpt lat="43.2856455" lon="12.0662993"><ele>826.0</ele><time>2026-04-19T08:03:17.224Z</time></trkpt><trkpt lat="43.2856523" lon="12.0664377"><ele>828.25</ele><time>2026-04-19T08:03:18.216Z</time></trkpt><trkpt lat="43.2856363" lon="12.0665812"><ele>830.5</ele><time>2026-04-19T08:03:19.225Z</time></trkpt><trkpt lat="43.285596" lon="12.0667277"><ele>832.75</ele><time>2026-04-19T08:03:20.227Z</time></trkpt><trkpt lat="43.285534" lon="12.066873"><ele>835.0</ele><time>2026-04-19T08:03:21.23Z</time></trkpt><trkpt lat="43.2854558" lon="12.0670183"><ele>835.0</ele><time>2026-04-19T08:03:22.22Z</time></trkpt><trkpt lat="43.2853646" lon="12.0671609"><ele>835.0</ele><time>2026-04-19T08:03:23.216Z</time></trkpt><trkpt lat="43.2852591" lon="12.0672891"><ele>835.0</ele><time>2026-04-19T08:03:24.217Z</time></trkpt><trkpt lat="43.2851413" lon="12.0673976"><ele>835.0</ele><time>2026-04-19T08:03:25.215Z</time></trkpt><trkpt lat="43.2850161" lon="12.0674783"><ele>835.75</ele><time>2026-04-19T08:03:26.214Z</time></trkpt><trkpt lat="43.2848933" lon="12.0675284"><ele>836.5</ele><time>2026-04-19T08:03:27.232Z</time></trkpt><trkpt lat="43.2847733" lon="12.0675725"><ele>837.25</ele><time>2026-04-19T08:03:28.214Z</time></trkpt><trkpt lat="43.2846543" lon="12.0676361"><ele>838.0</ele><time>2026-04-19T08:03:29.215Z</time></trkpt><trkpt lat="43.2845422" lon="12.0677264"><ele>838.0</ele><time>2026-04-19T08:03:30.223Z</time></trkpt><trkpt lat="43.2844372" lon="12.0678526"><ele>838.0</ele><time>2026-04-19T08:03:31.218Z</time></trkpt><trkpt lat="43.2843278" lon="12.0680167"><ele>838.0</ele><time>2026-04-19T08:03:32.224Z</time></trkpt><trkpt lat="43.2842135" lon="12.0682052"><ele>836.25</ele><time>2026-04-19T08:03:33.223Z</time></trkpt><trkpt lat="43.2841162" lon="12.0683713"><ele>834.5</ele><time>2026-04-19T08:03:34.22Z</time></trkpt><trkpt lat="43.2840372" lon="12.0685139"><ele>832.75</ele><time>2026-04-19T08:03:35.221Z</time></trkpt><trkpt lat="43.2839623" lon="12.0686394"><ele>831.0</ele><time>2026-04-19T08:03:36.216Z</time></trkpt><trkpt lat="43.2839051" lon="12.0687652"><ele>831.0</ele><time>2026-04-19T08:03:37.222Z</time></trkpt><trkpt lat="43.2838738" lon="12.0688878"><ele>831.0</ele><time>2026-04-19T08:03:38.223Z</time></trkpt><trkpt lat="43.2838556" lon="12.0690359"><ele>831.0</ele><time>2026-04-19T08:03:39.215Z</time></trkpt><trkpt lat="43.2838343" lon="12.0692165"><ele>831.0</ele><time>2026-04-19T08:03:40.225Z</time></trkpt><trkpt lat="43.283819" lon="12.069405"><ele>832.5</ele><time>2026-04-19T08:03:41.225Z</time></trkpt><trkpt lat="43.2838058" lon="12.0695909"><ele>834.0</ele><time>2026-04-19T08:03:42.221Z</time></trkpt><trkpt lat="43.2837889" lon="12.0697858"><ele>835.5</ele><time>2026-04-19T08:03:43.225Z</time></trkpt><trkpt lat="43.2837714" lon="12.0699717"><ele>837.0</ele><time>2026-04-19T08:03:44.218Z</time></trkpt><trkpt lat="43.2837527" lon="12.0701275"><ele>839.6</ele><time>2026-04-19T08:03:45.22Z</time></trkpt><trkpt lat="43.2837191" lon="12.0702685"><ele>842.2</ele><time>2026-04-19T08:03:46.217Z</time></trkpt><trkpt lat="43.2836682" lon="12.070396"><ele>844.8</ele><time>2026-04-19T08:03:47.219Z</time></trkpt><trkpt lat="43.2835802" lon="12.0704935"><ele>847.4</ele><time>2026-04-19T08:03:48.217Z</time></trkpt><trkpt lat="43.2834785" lon="12.0705707"><ele>850.0</ele><time>2026-04-19T08:03:49.225Z</time></trkpt><trkpt lat="43.2833773" lon="12.0706215"><ele>850.0</ele><time>2026-04-19T08:03:50.224Z</time></trkpt><trkpt lat="43.2832737" lon="12.07064"><ele>850.0</ele><time>2026-04-19T08:03:51.222Z</time></trkpt><trkpt lat="43.2831625" lon="12.0706397"><ele>850.0</ele><time>2026-04-19T08:03:52.22Z</time></trkpt><trkpt lat="43.2830518" lon="12.0706312"><ele>850.0</ele><time>2026-04-19T08:03:53.219Z</time></trkpt><trkpt lat="43.2829412" lon="12.0706244"><ele>850.0</ele><time>2026-04-19T08:03:54.219Z</time></trkpt><trkpt lat="43.282836" lon="12.0706275"><ele>848.0</ele><time>2026-04-19T08:03:55.225Z</time></trkpt><trkpt lat="43.2827398" lon="12.0706435"><ele>846.0</ele><time>2026-04-19T08:03:56.22Z</time></trkpt><trkpt lat="43.2826442" lon="12.0706781"><ele>844.0</ele><time>2026-04-19T08:03:57.216Z</time></trkpt><trkpt lat="43.2825514" lon="12.0707434"><ele>842.0</ele><time>2026-04-19T08:03:58.214Z</time></trkpt><trkpt lat="43.2824622" lon="12.0708387"><ele>840.0</ele><time>2026-04-19T08:03:59.223Z</time></trkpt><trkpt lat="43.2823754" lon="12.0709613"><ele>841.5</ele><time>2026-04-19T08:04:00.227Z</time></trkpt><trkpt lat="43.2822923" lon="12.0710911"><ele>843.0</ele><time>2026-04-19T08:04:01.229Z</time></trkpt><trkpt lat="43.2822077" lon="12.0712209"><ele>844.5</ele><time>2026-04-19T08:04:02.23Z</time></trkpt><trkpt lat="43.2821244" lon="12.0713405"><ele>846.0</ele><time>2026-04-19T08:04:03.234Z</time></trkpt><trkpt lat="43.2820461" lon="12.0714527"><ele>846.0</ele><time>2026-04-19T08:04:04.226Z</time></trkpt><trkpt lat="43.2819727" lon="12.0715741"><ele>846.0</ele><time>2026-04-19T08:04:05.226Z</time></trkpt><trkpt lat="43.2819126" lon="12.0717163"><ele>846.0</ele><time>2026-04-19T08:04:06.226Z</time></trkpt><trkpt lat="43.28187" lon="12.0718827"><ele>846.0</ele><time>2026-04-19T08:04:07.223Z</time></trkpt><trkpt lat="43.2818503" lon="12.0720649"><ele>848.75</ele><time>2026-04-19T08:04:08.238Z</time></trkpt><trkpt lat="43.2818473" lon="12.0722545"><ele>851.5</ele><time>2026-04-19T08:04:09.23Z</time></trkpt><trkpt lat="43.2818527" lon="12.0724474"><ele>854.25</ele><time>2026-04-19T08:04:10.23Z</time></trkpt><trkpt lat="43.2818684" lon="12.0726363"><ele>857.0</ele><time>2026-04-19T08:04:11.231Z</time></trkpt><trkpt lat="43.281893" lon="12.0728086"><ele>857.5</ele><time>2026-04-19T08:04:12.229Z</time></trkpt><trkpt lat="43.2819321" lon="12.0729755"><ele>858.0</ele><time>2026-04-19T08:04:13.229Z</time></trkpt><trkpt lat="43.2819839" lon="12.0731454"><ele>858.5</ele><time>2026-04-19T08:04:14.233Z</time></trkpt><trkpt lat="43.2820402" lon="12.0733175"><ele>859.0</ele><time>2026-04-19T08:04:15.23Z</time></trkpt><trkpt lat="43.2821023" lon="12.0734721"><ele>859.0</ele><time>2026-04-19T08:04:16.226Z</time></trkpt><trkpt lat="43.2821653" lon="12.0736089"><ele>859.0000000000001</ele><time>2026-04-19T08:04:17.222Z</time></trkpt><trkpt lat="43.2822187" lon="12.0737269"><ele>859.0000000000001</ele><time>2026-04-19T08:04:18.219Z</time></trkpt><trkpt lat="43.2822563" lon="12.0738326"><ele>859.0</ele><time>2026-04-19T08:04:19.226Z</time></trkpt><trkpt lat="43.2822534" lon="12.0739401"><ele>859.0</ele><time>2026-04-19T08:04:20.226Z</time></trkpt><trkpt lat="43.282217" lon="12.0740438"><ele>861.5</ele><time>2026-04-19T08:04:21.227Z</time></trkpt><trkpt lat="43.2821467" lon="12.0741498"><ele>864.0</ele><time>2026-04-19T08:04:22.222Z</time></trkpt><trkpt lat="43.2820484" lon="12.0742605"><ele>866.5</ele><time>2026-04-19T08:04:23.212Z</time></trkpt><trkpt lat="43.2819319" lon="12.0743645"><ele>869.0</ele><time>2026-04-19T08:04:24.224Z</time></trkpt><trkpt lat="43.2818116" lon="12.0744634"><ele>869.0</ele><time>2026-04-19T08:04:25.223Z</time></trkpt><trkpt lat="43.2816916" lon="12.0745618"><ele>869.0</ele><time>2026-04-19T08:04:26.224Z</time></trkpt><trkpt lat="43.281572" lon="12.0746591"><ele>869.0</ele><time>2026-04-19T08:04:27.218Z</time></trkpt><trkpt lat="43.2814511" lon="12.074762"><ele>869.0</ele><time>2026-04-19T08:04:28.226Z</time></trkpt><trkpt lat="43.2813374" lon="12.0748785"><ele>869.5</ele><time>2026-04-19T08:04:29.226Z</time></trkpt><trkpt lat="43.2812393" lon="12.0750036"><ele>870.0</ele><time>2026-04-19T08:04:30.224Z</time></trkpt><trkpt lat="43.2811598" lon="12.0751453"><ele>870.5</ele><time>2026-04-19T08:04:31.229Z</time></trkpt><trkpt lat="43.2810945" lon="12.0753024"><ele>871.0</ele><time>2026-04-19T08:04:32.228Z</time></trkpt><trkpt lat="43.2810383" lon="12.0754786"><ele>871.0</ele><time>2026-04-19T08:04:33.218Z</time></trkpt><trkpt lat="43.2809927" lon="12.0756607"><ele>871.0</ele><time>2026-04-19T08:04:34.223Z</time></trkpt><trkpt lat="43.2809639" lon="12.075832"><ele>871.0</ele><time>2026-04-19T08:04:35.227Z</time></trkpt><trkpt lat="43.2809478" lon="12.0760036"><ele>871.0</ele><time>2026-04-19T08:04:36.229Z</time></trkpt><trkpt lat="43.2809392" lon="12.0761768"><ele>872.25</ele><time>2026-04-19T08:04:37.229Z</time></trkpt><trkpt lat="43.2809464" lon="12.076351"><ele>873.5</ele><time>2026-04-19T08:04:38.222Z</time></trkpt><trkpt lat="43.2809737" lon="12.0765257"><ele>874.75</ele><time>2026-04-19T08:04:39.218Z</time></trkpt><trkpt lat="43.2809995" lon="12.0766902"><ele>876.0</ele><time>2026-04-19T08:04:40.222Z</time></trkpt><trkpt lat="43.2809928" lon="12.0768357"><ele>877.8</ele><time>2026-04-19T08:04:41.231Z</time></trkpt><trkpt lat="43.2809584" lon="12.0769627"><ele>879.5999999999999</ele><time>2026-04-19T08:04:42.226Z</time></trkpt><trkpt lat="43.280899" lon="12.0770745"><ele>881.4</ele><time>2026-04-19T08:04:43.216Z</time></trkpt><trkpt lat="43.2808211" lon="12.0771753"><ele>883.2</ele><time>2026-04-19T08:04:44.217Z</time></trkpt><trkpt lat="43.2807229" lon="12.0772517"><ele>885.0</ele><time>2026-04-19T08:04:45.21Z</time></trkpt><trkpt lat="43.2806089" lon="12.077308"><ele>884.25</ele><time>2026-04-19T08:04:46.213Z</time></trkpt><trkpt lat="43.2804867" lon="12.0773604"><ele>883.5</ele><time>2026-04-19T08:04:47.222Z</time></trkpt><trkpt lat="43.2803699" lon="12.0774248"><ele>882.75</ele><time>2026-04-19T08:04:48.219Z</time></trkpt><trkpt lat="43.2802737" lon="12.0775191"><ele>882.0</ele><time>2026-04-19T08:04:49.219Z</time></trkpt><trkpt lat="43.280196" lon="12.077646"><ele>882.0</ele><time>2026-04-19T08:04:50.217Z</time></trkpt><trkpt lat="43.2801426" lon="12.0777884"><ele>882.0</ele><time>2026-04-19T08:04:51.216Z</time></trkpt><trkpt lat="43.280109" lon="12.0779397"><ele>882.0</ele><time>2026-04-19T08:04:52.21Z</time></trkpt><trkpt lat="43.2800901" lon="12.0781118"><ele>882.0</ele><time>2026-04-19T08:04:53.221Z</time></trkpt><trkpt lat="43.2800845" lon="12.0782988"><ele>883.0</ele><time>2026-04-19T08:04:54.219Z</time></trkpt><trkpt lat="43.2800892" lon="12.0784798"><ele>884.0</ele><time>2026-04-19T08:04:55.219Z</time></trkpt><trkpt lat="43.2801086" lon="12.0786558"><ele>885.0</ele><time>2026-04-19T08:04:56.221Z</time></trkpt><trkpt lat="43.2801355" lon="12.0788349"><ele>886.0</ele><time>2026-04-19T08:04:57.22Z</time></trkpt><trkpt lat="43.2801639" lon="12.079017"><ele>886.8</ele><time>2026-04-19T08:04:58.218Z</time></trkpt><trkpt lat="43.2801888" lon="12.0791895"><ele>887.5999999999999</ele><time>2026-04-19T08:04:59.22Z</time></trkpt><trkpt lat="43.2802071" lon="12.0793435"><ele>888.4</ele><time>2026-04-19T08:05:00.218Z</time></trkpt><trkpt lat="43.2802208" lon="12.0794829"><ele>889.2</ele><time>2026-04-19T08:05:01.222Z</time></trkpt><trkpt lat="43.280221" lon="12.0796064"><ele>890.0</ele><time>2026-04-19T08:05:02.218Z</time></trkpt><trkpt lat="43.2802105" lon="12.0797213"><ele>890.0</ele><time>2026-04-19T08:05:03.226Z</time></trkpt><trkpt lat="43.2801812" lon="12.07982"><ele>890.0</ele><time>2026-04-19T08:05:04.222Z</time></trkpt><trkpt lat="43.2801313" lon="12.0799096"><ele>890.0</ele><time>2026-04-19T08:05:05.229Z</time></trkpt><trkpt lat="43.2800623" lon="12.0799862"><ele>890.0</ele><time>2026-04-19T08:05:06.227Z</time></trkpt><trkpt lat="43.2799746" lon="12.0800546"><ele>890.0</ele><time>2026-04-19T08:05:07.224Z</time></trkpt><trkpt lat="43.2798774" lon="12.0801255"><ele>890.25</ele><time>2026-04-19T08:05:08.23Z</time></trkpt><trkpt lat="43.279776" lon="12.0802106"><ele>890.5</ele><time>2026-04-19T08:05:09.229Z</time></trkpt><trkpt lat="43.2796836" lon="12.0803188"><ele>890.75</ele><time>2026-04-19T08:05:10.226Z</time></trkpt><trkpt lat="43.2795902" lon="12.080448"><ele>891.0</ele><time>2026-04-19T08:05:11.227Z</time></trkpt><trkpt lat="43.2794892" lon="12.0805737"><ele>891.4</ele><time>2026-04-19T08:05:12.225Z</time></trkpt><trkpt lat="43.2793906" lon="12.0806778"><ele>891.8</ele><time>2026-04-19T08:05:13.221Z</time></trkpt><trkpt lat="43.2792935" lon="12.0807631"><ele>892.1999999999999</ele><time>2026-04-19T08:05:14.227Z</time></trkpt><trkpt lat="43.279198" lon="12.0808195"><ele>892.5999999999999</ele><time>2026-04-19T08:05:15.224Z</time></trkpt><trkpt lat="43.2791023" lon="12.0808471"><ele>893.0</ele><time>2026-04-19T08:05:16.224Z</time></trkpt><trkpt lat="43.2790019" lon="12.0808596"><ele>894.4</ele><time>2026-04-19T08:05:17.229Z</time></trkpt><trkpt lat="43.2789021" lon="12.0808699"><ele>895.8</ele><time>2026-04-19T08:05:18.232Z</time></trkpt><trkpt lat="43.2788106" lon="12.0808914"><ele>897.2</ele><time>2026-04-19T08:05:19.229Z</time></trkpt><trkpt lat="43.2787304" lon="12.080945"><ele>898.6</ele><time>2026-04-19T08:05:20.232Z</time></trkpt><trkpt lat="43.2786636" lon="12.0810294"><ele>900.0</ele><time>2026-04-19T08:05:21.231Z</time></trkpt><trkpt lat="43.2785951" lon="12.0811154"><ele>900.0</ele><time>2026-04-19T08:05:22.23Z</time></trkpt><trkpt lat="43.2785208" lon="12.0811915"><ele>900.0</ele><time>2026-04-19T08:05:23.236Z</time></trkpt><trkpt lat="43.2784422" lon="12.0812543"><ele>900.0</ele><time>2026-04-19T08:05:24.222Z</time></trkpt><trkpt lat="43.2783609" lon="12.0813109"><ele>900.0</ele><time>2026-04-19T08:05:25.229Z</time></trkpt><trkpt lat="43.2782797" lon="12.0813602"><ele>900.0</ele><time>2026-04-19T08:05:26.221Z</time></trkpt><trkpt lat="43.2781987" lon="12.0813921"><ele>900.0</ele><time>2026-04-19T08:05:27.231Z</time></trkpt><trkpt lat="43.2781139" lon="12.0814084"><ele>899.6</ele><time>2026-04-19T08:05:28.227Z</time></trkpt><trkpt lat="43.2780257" lon="12.0814241"><ele>899.2</ele><time>2026-04-19T08:05:29.227Z</time></trkpt><trkpt lat="43.2779377" lon="12.0814548"><ele>898.8</ele><time>2026-04-19T08:05:30.225Z</time></trkpt><trkpt lat="43.2778547" lon="12.0815122"><ele>898.4</ele><time>2026-04-19T08:05:31.231Z</time></trkpt><trkpt lat="43.2777773" lon="12.0815942"><ele>898.0</ele><time>2026-04-19T08:05:32.229Z</time></trkpt><trkpt lat="43.2777061" lon="12.0816823"><ele>898.0</ele><time>2026-04-19T08:05:33.227Z</time></trkpt><trkpt lat="43.2776374" lon="12.0817755"><ele>898.0</ele><time>2026-04-19T08:05:34.229Z</time></trkpt><trkpt lat="43.2775693" lon="12.0818762"><ele>898.0</ele><time>2026-04-19T08:05:35.228Z</time></trkpt><trkpt lat="43.2774979" lon="12.0819776"><ele>898.0</ele><time>2026-04-19T08:05:36.227Z</time></trkpt><trkpt lat="43.2774254" lon="12.082089"><ele>898.0</ele><time>2026-04-19T08:05:37.225Z</time></trkpt><trkpt lat="43.277353" lon="12.082219"><ele>898.0</ele><time>2026-04-19T08:05:38.224Z</time></trkpt><trkpt lat="43.2772827" lon="12.0823694"><ele>898.0</ele><time>2026-04-19T08:05:39.223Z</time></trkpt><trkpt lat="43.2772075" lon="12.0825332"><ele>898.0</ele><time>2026-04-19T08:05:40.225Z</time></trkpt><trkpt lat="43.2771296" lon="12.0826951"><ele>898.0</ele><time>2026-04-19T08:05:41.219Z</time></trkpt><trkpt lat="43.2770522" lon="12.0828419"><ele>899.0</ele><time>2026-04-19T08:05:42.223Z</time></trkpt><trkpt lat="43.2769872" lon="12.0829762"><ele>900.0</ele><time>2026-04-19T08:05:43.224Z</time></trkpt><trkpt lat="43.2769299" lon="12.0831006"><ele>901.0</ele><time>2026-04-19T08:05:44.223Z</time></trkpt><trkpt lat="43.2768728" lon="12.08322"><ele>902.0</ele><time>2026-04-19T08:05:45.223Z</time></trkpt><trkpt lat="43.2767741" lon="12.0834546"><ele>904.0</ele><time>2026-04-19T08:05:47.227Z</time></trkpt><trkpt lat="43.2767357" lon="12.0835765"><ele>906.0</ele><time>2026-04-19T08:05:48.225Z</time></trkpt><trkpt lat="43.2766995" lon="12.0837062"><ele>908.0</ele><time>2026-04-19T08:05:49.226Z</time></trkpt><trkpt lat="43.2766586" lon="12.0838396"><ele>910.0</ele><time>2026-04-19T08:05:50.228Z</time></trkpt><trkpt lat="43.2766036" lon="12.0839665"><ele>912.0</ele><time>2026-04-19T08:05:51.224Z</time></trkpt><trkpt lat="43.2765405" lon="12.0840831"><ele>912.6</ele><time>2026-04-19T08:05:52.23Z</time></trkpt><trkpt lat="43.2764746" lon="12.0841929"><ele>913.2</ele><time>2026-04-19T08:05:53.229Z</time></trkpt><trkpt lat="43.2764189" lon="12.0843053"><ele>913.8</ele><time>2026-04-19T08:05:54.226Z</time></trkpt><trkpt lat="43.2763716" lon="12.0844129"><ele>914.4</ele><time>2026-04-19T08:05:55.227Z</time></trkpt><trkpt lat="43.2763447" lon="12.084515"><ele>915.0</ele><time>2026-04-19T08:05:56.225Z</time></trkpt><trkpt lat="43.276341" lon="12.0846247"><ele>914.8333333333334</ele><time>2026-04-19T08:05:57.23Z</time></trkpt><trkpt lat="43.2763429" lon="12.084743"><ele>914.6666666666667</ele><time>2026-04-19T08:05:58.226Z</time></trkpt><trkpt lat="43.2763335" lon="12.0848568"><ele>914.5</ele><time>2026-04-19T08:05:59.225Z</time></trkpt><trkpt lat="43.2762967" lon="12.0849681"><ele>914.3333333333334</ele><time>2026-04-19T08:06:00.231Z</time></trkpt><trkpt lat="43.2762377" lon="12.0850638"><ele>914.1666666666667</ele><time>2026-04-19T08:06:01.229Z</time></trkpt><trkpt lat="43.2761756" lon="12.0851501"><ele>914.0</ele><time>2026-04-19T08:06:02.231Z</time></trkpt><trkpt lat="43.2761268" lon="12.0852537"><ele>914.0</ele><time>2026-04-19T08:06:03.221Z</time></trkpt><trkpt lat="43.2761002" lon="12.0853741"><ele>914.0000000000001</ele><time>2026-04-19T08:06:04.226Z</time></trkpt><trkpt lat="43.2760987" lon="12.0855096"><ele>914.0000000000001</ele><time>2026-04-19T08:06:05.227Z</time></trkpt><trkpt lat="43.2761038" lon="12.0856449"><ele>914.0</ele><time>2026-04-19T08:06:06.219Z</time></trkpt><trkpt lat="43.2760916" lon="12.0857696"><ele>914.0</ele><time>2026-04-19T08:06:07.225Z</time></trkpt><trkpt lat="43.2760577" lon="12.0858771"><ele>915.4000000000001</ele><time>2026-04-19T08:06:08.226Z</time></trkpt><trkpt lat="43.2760069" lon="12.0859784"><ele>916.8000000000001</ele><time>2026-04-19T08:06:09.225Z</time></trkpt><trkpt lat="43.2759523" lon="12.0860735"><ele>918.1999999999999</ele><time>2026-04-19T08:06:10.227Z</time></trkpt><trkpt lat="43.2758967" lon="12.0861675"><ele>919.5999999999999</ele><time>2026-04-19T08:06:11.226Z</time></trkpt><trkpt lat="43.2758424" lon="12.0862659"><ele>921.0</ele><time>2026-04-19T08:06:12.223Z</time></trkpt><trkpt lat="43.275783" lon="12.0863655"><ele>921.0</ele><time>2026-04-19T08:06:13.224Z</time></trkpt><trkpt lat="43.2757204" lon="12.0864641"><ele>921.0</ele><time>2026-04-19T08:06:14.223Z</time></trkpt><trkpt lat="43.2756491" lon="12.0865478"><ele>921.0</ele><time>2026-04-19T08:06:15.225Z</time></trkpt><trkpt lat="43.2755772" lon="12.0866198"><ele>921.0</ele><time>2026-04-19T08:06:16.226Z</time></trkpt><trkpt lat="43.2755129" lon="12.0866902"><ele>921.0</ele><time>2026-04-19T08:06:17.222Z</time></trkpt><trkpt lat="43.2754554" lon="12.086776"><ele>921.0</ele><time>2026-04-19T08:06:18.224Z</time></trkpt><trkpt lat="43.2754167" lon="12.0868755"><ele>919.7142857142858</ele><time>2026-04-19T08:06:19.221Z</time></trkpt><trkpt lat="43.2753978" lon="12.0869775"><ele>918.4285714285714</ele><time>2026-04-19T08:06:20.222Z</time></trkpt><trkpt lat="43.275376" lon="12.0870659"><ele>917.1428571428571</ele><time>2026-04-19T08:06:21.223Z</time></trkpt><trkpt lat="43.27534" lon="12.0871389"><ele>915.8571428571429</ele><time>2026-04-19T08:06:22.217Z</time></trkpt><trkpt lat="43.2752965" lon="12.0872061"><ele>914.5714285714284</ele><time>2026-04-19T08:06:23.223Z</time></trkpt><trkpt lat="43.275241" lon="12.0872683"><ele>913.2857142857142</ele><time>2026-04-19T08:06:24.228Z</time></trkpt><trkpt lat="43.2751776" lon="12.0873357"><ele>912.0</ele><time>2026-04-19T08:06:25.221Z</time></trkpt><trkpt lat="43.2751165" lon="12.087412"><ele>912.5</ele><time>2026-04-19T08:06:26.225Z</time></trkpt><trkpt lat="43.2750644" lon="12.0874941"><ele>913.0</ele><time>2026-04-19T08:06:27.22Z</time></trkpt><trkpt lat="43.2750261" lon="12.0875828"><ele>913.5</ele><time>2026-04-19T08:06:28.224Z</time></trkpt><trkpt lat="43.2750054" lon="12.08767"><ele>914.0</ele><time>2026-04-19T08:06:29.224Z</time></trkpt><trkpt lat="43.2749961" lon="12.0878089"><ele>914.5</ele><time>2026-04-19T08:06:31.226Z</time></trkpt><trkpt lat="43.2749761" lon="12.0879001"><ele>915.0</ele><time>2026-04-19T08:06:34.235Z</time></trkpt><trkpt lat="43.2748816" lon="12.0878928"><ele>915.0</ele><time>2026-04-19T08:07:05.231Z</time></trkpt><trkpt lat="43.2747742" lon="12.0878698"><ele>915.0</ele><time>2026-04-19T08:07:07.236Z</time></trkpt><trkpt lat="43.2747031" lon="12.0878394"><ele>915.0</ele><time>2026-04-19T08:07:09.174Z</time></trkpt><trkpt lat="43.2745894" lon="12.087832"><ele>915.0</ele><time>2026-04-19T08:07:11.239Z</time></trkpt><trkpt lat="43.2744829" lon="12.087921"><ele>915.0</ele><time>2026-04-19T08:07:13.226Z</time></trkpt><trkpt lat="43.2744322" lon="12.0879762"><ele>913.5</ele><time>2026-04-19T08:07:14.226Z</time></trkpt><trkpt lat="43.274386" lon="12.088045"><ele>912.0</ele><time>2026-04-19T08:07:15.228Z</time></trkpt><trkpt lat="43.2743364" lon="12.0881084"><ele>910.5</ele><time>2026-04-19T08:07:16.229Z</time></trkpt><trkpt lat="43.2742388" lon="12.0881982"><ele>909.0</ele><time>2026-04-19T08:07:18.229Z</time></trkpt><trkpt lat="43.2741712" lon="12.088282"><ele>907.5</ele><time>2026-04-19T08:07:20.228Z</time></trkpt><trkpt lat="43.2741123" lon="12.0883888"><ele>906.0</ele><time>2026-04-19T08:07:22.226Z</time></trkpt><trkpt lat="43.2740394" lon="12.0884601"><ele>903.6666666666666</ele><time>2026-04-19T08:07:24.237Z</time></trkpt><trkpt lat="43.2739357" lon="12.088502"><ele>901.3333333333333</ele><time>2026-04-19T08:07:26.228Z</time></trkpt><trkpt lat="43.2738269" lon="12.0885721"><ele>899.0</ele><time>2026-04-19T08:07:28.227Z</time></trkpt><trkpt lat="43.2737684" lon="12.0886107"><ele>896.6666666666666</ele><time>2026-04-19T08:07:29.227Z</time></trkpt><trkpt lat="43.2737146" lon="12.0886566"><ele>894.3333333333333</ele><time>2026-04-19T08:07:30.223Z</time></trkpt><trkpt lat="43.2736579" lon="12.0887188"><ele>892.0</ele><time>2026-04-19T08:07:31.229Z</time></trkpt><trkpt lat="43.2735988" lon="12.0887901"><ele>891.9999999999999</ele><time>2026-04-19T08:07:32.226Z</time></trkpt><trkpt lat="43.2735316" lon="12.0888481"><ele>892.0</ele><time>2026-04-19T08:07:33.227Z</time></trkpt><trkpt lat="43.2734589" lon="12.0888987"><ele>892.0</ele><time>2026-04-19T08:07:34.225Z</time></trkpt><trkpt lat="43.2733803" lon="12.0889573"><ele>892.0</ele><time>2026-04-19T08:07:35.23Z</time></trkpt><trkpt lat="43.273307" lon="12.0890186"><ele>891.9999999999999</ele><time>2026-04-19T08:07:36.228Z</time></trkpt><trkpt lat="43.2732414" lon="12.089069"><ele>892.0</ele><time>2026-04-19T08:07:37.227Z</time></trkpt><trkpt lat="43.2731815" lon="12.0891058"><ele>890.0</ele><time>2026-04-19T08:07:38.226Z</time></trkpt><trkpt lat="43.2730596" lon="12.0891588"><ele>888.0</ele><time>2026-04-19T08:07:40.226Z</time></trkpt><trkpt lat="43.2729937" lon="12.0891899"><ele>886.0</ele><time>2026-04-19T08:07:41.223Z</time></trkpt><trkpt lat="43.2728877" lon="12.0892416"><ele>884.0</ele><time>2026-04-19T08:07:43.226Z</time></trkpt><trkpt lat="43.2728165" lon="12.0892891"><ele>882.0</ele><time>2026-04-19T08:07:45.23Z</time></trkpt><trkpt lat="43.2727465" lon="12.0893335"><ele>882.0</ele><time>2026-04-19T08:07:47.236Z</time></trkpt><trkpt lat="43.2726727" lon="12.0893844"><ele>882.0</ele><time>2026-04-19T08:07:49.24Z</time></trkpt><trkpt lat="43.2725976" lon="12.0894821"><ele>882.0</ele><time>2026-04-19T08:07:51.238Z</time></trkpt><trkpt lat="43.2725468" lon="12.0895445"><ele>882.0</ele><time>2026-04-19T08:07:52.222Z</time></trkpt><trkpt lat="43.2724837" lon="12.0896027"><ele>882.0</ele><time>2026-04-19T08:07:53.228Z</time></trkpt><trkpt lat="43.2724251" lon="12.0896573"><ele>882.0</ele><time>2026-04-19T08:07:54.227Z</time></trkpt><trkpt lat="43.2723673" lon="12.0897119"><ele>882.0</ele><time>2026-04-19T08:07:55.229Z</time></trkpt><trkpt lat="43.2723118" lon="12.0897591"><ele>882.0</ele><time>2026-04-19T08:07:56.224Z</time></trkpt><trkpt lat="43.2722534" lon="12.0897968"><ele>882.0</ele><time>2026-04-19T08:07:57.231Z</time></trkpt><trkpt lat="43.2721934" lon="12.0898349"><ele>882.0</ele><time>2026-04-19T08:07:58.229Z</time></trkpt><trkpt lat="43.272132" lon="12.0898737"><ele>882.0</ele><time>2026-04-19T08:07:59.229Z</time></trkpt><trkpt lat="43.2720241" lon="12.0899396"><ele>882.0</ele><time>2026-04-19T08:08:01.227Z</time></trkpt><trkpt lat="43.2719263" lon="12.0900024"><ele>879.3333333333334</ele><time>2026-04-19T08:08:03.23Z</time></trkpt><trkpt lat="43.2718322" lon="12.0900595"><ele>876.6666666666667</ele><time>2026-04-19T08:08:05.229Z</time></trkpt><trkpt lat="43.2717519" lon="12.0901046"><ele>874.0</ele><time>2026-04-19T08:08:07.229Z</time></trkpt><trkpt lat="43.2716879" lon="12.0901558"><ele>871.3333333333334</ele><time>2026-04-19T08:08:09.239Z</time></trkpt><trkpt lat="43.2716196" lon="12.0902124"><ele>868.6666666666667</ele><time>2026-04-19T08:08:11.24Z</time></trkpt><trkpt lat="43.2715506" lon="12.0902665"><ele>866.0</ele><time>2026-04-19T08:08:13.243Z</time></trkpt><trkpt lat="43.271461" lon="12.0902769"><ele>862.5999999999999</ele><time>2026-04-19T08:08:15.24Z</time></trkpt><trkpt lat="43.2713819" lon="12.0903301"><ele>859.1999999999999</ele><time>2026-04-19T08:08:17.221Z</time></trkpt><trkpt lat="43.271363" lon="12.0904737"><ele>855.8</ele><time>2026-04-19T08:08:19.232Z</time></trkpt><trkpt lat="43.2713065" lon="12.0906195"><ele>852.4000000000001</ele><time>2026-04-19T08:08:21.228Z</time></trkpt><trkpt lat="43.2712539" lon="12.0906707"><ele>849.0</ele><time>2026-04-19T08:08:22.228Z</time></trkpt><trkpt lat="43.2711548" lon="12.0907593"><ele>849.0</ele><time>2026-04-19T08:08:24.227Z</time></trkpt><trkpt lat="43.271064" lon="12.0908395"><ele>849.0</ele><time>2026-04-19T08:08:26.228Z</time></trkpt><trkpt lat="43.2709855" lon="12.0909016"><ele>849.0</ele><time>2026-04-19T08:08:28.229Z</time></trkpt><trkpt lat="43.2709134" lon="12.0909396"><ele>849.0</ele><time>2026-04-19T08:08:30.245Z</time></trkpt><trkpt lat="43.2708536" lon="12.091013"><ele>849.0</ele><time>2026-04-19T08:08:32.242Z</time></trkpt><trkpt lat="43.2707777" lon="12.091129"><ele>849.0</ele><time>2026-04-19T08:08:34.228Z</time></trkpt><trkpt lat="43.2707231" lon="12.0911894"><ele>849.0</ele><time>2026-04-19T08:08:35.227Z</time></trkpt><trkpt lat="43.2706713" lon="12.09125"><ele>849.0</ele><time>2026-04-19T08:08:36.228Z</time></trkpt><trkpt lat="43.2705898" lon="12.0913524"><ele>849.0</ele><time>2026-04-19T08:08:38.222Z</time></trkpt><trkpt lat="43.2704729" lon="12.0914283"><ele>849.0</ele><time>2026-04-19T08:08:40.223Z</time></trkpt><trkpt lat="43.2703854" lon="12.0914634"><ele>847.0</ele><time>2026-04-19T08:08:41.225Z</time></trkpt><trkpt lat="43.2702923" lon="12.0914894"><ele>845.0</ele><time>2026-04-19T08:08:42.224Z</time></trkpt><trkpt lat="43.2701998" lon="12.091496"><ele>843.0</ele><time>2026-04-19T08:08:43.218Z</time></trkpt><trkpt lat="43.2701131" lon="12.0914956"><ele>841.0</ele><time>2026-04-19T08:08:44.224Z</time></trkpt><trkpt lat="43.2700276" lon="12.0915087"><ele>839.0</ele><time>2026-04-19T08:08:45.223Z</time></trkpt><trkpt lat="43.2699539" lon="12.0915422"><ele>837.0</ele><time>2026-04-19T08:08:46.227Z</time></trkpt><trkpt lat="43.2698912" lon="12.0915851"><ele>837.0</ele><time>2026-04-19T08:08:47.224Z</time></trkpt><trkpt lat="43.2698313" lon="12.091641"><ele>837.0</ele><time>2026-04-19T08:08:48.229Z</time></trkpt><trkpt lat="43.2697571" lon="12.091704"><ele>837.0</ele><time>2026-04-19T08:08:49.227Z</time></trkpt><trkpt lat="43.269677" lon="12.0917603"><ele>837.0</ele><time>2026-04-19T08:08:50.226Z</time></trkpt><trkpt lat="43.2695974" lon="12.091802"><ele>837.0</ele><time>2026-04-19T08:08:51.224Z</time></trkpt><trkpt lat="43.2695113" lon="12.0918367"><ele>837.0</ele><time>2026-04-19T08:08:52.224Z</time></trkpt><trkpt lat="43.2694277" lon="12.0918572"><ele>837.0</ele><time>2026-04-19T08:08:53.222Z</time></trkpt><trkpt lat="43.2693495" lon="12.0918616"><ele>837.0</ele><time>2026-04-19T08:08:54.218Z</time></trkpt><trkpt lat="43.2692832" lon="12.09186"><ele>837.0</ele><time>2026-04-19T08:08:55.217Z</time></trkpt><trkpt lat="43.2691837" lon="12.0918806"><ele>837.0</ele><time>2026-04-19T08:08:57.224Z</time></trkpt><trkpt lat="43.2691048" lon="12.0919495"><ele>837.0</ele><time>2026-04-19T08:08:59.223Z</time></trkpt><trkpt lat="43.2690225" lon="12.0920555"><ele>837.0</ele><time>2026-04-19T08:09:01.223Z</time></trkpt><trkpt lat="43.2689751" lon="12.0921125"><ele>837.0</ele><time>2026-04-19T08:09:02.223Z</time></trkpt><trkpt lat="43.2688983" lon="12.0922354"><ele>837.0</ele><time>2026-04-19T08:09:04.221Z</time></trkpt><trkpt lat="43.2688632" lon="12.0923874"><ele>837.0</ele><time>2026-04-19T08:09:06.219Z</time></trkpt><trkpt lat="43.2688495" lon="12.092478"><ele>837.0</ele><time>2026-04-19T08:09:07.225Z</time></trkpt><trkpt lat="43.2688318" lon="12.0925869"><ele>837.0</ele><time>2026-04-19T08:09:08.222Z</time></trkpt><trkpt lat="43.2688003" lon="12.0926987"><ele>834.6</ele><time>2026-04-19T08:09:09.223Z</time></trkpt><trkpt lat="43.268763" lon="12.0928128"><ele>832.2</ele><time>2026-04-19T08:09:10.223Z</time></trkpt><trkpt lat="43.2687213" lon="12.0929359"><ele>829.8</ele><time>2026-04-19T08:09:11.224Z</time></trkpt><trkpt lat="43.2686751" lon="12.0930589"><ele>827.4</ele><time>2026-04-19T08:09:12.22Z</time></trkpt><trkpt lat="43.2686286" lon="12.0931683"><ele>825.0</ele><time>2026-04-19T08:09:13.219Z</time></trkpt><trkpt lat="43.2685919" lon="12.0932546"><ele>824.8</ele><time>2026-04-19T08:09:14.224Z</time></trkpt><trkpt lat="43.2685345" lon="12.0933648"><ele>824.6</ele><time>2026-04-19T08:09:16.223Z</time></trkpt><trkpt lat="43.268436" lon="12.0934702"><ele>824.4000000000001</ele><time>2026-04-19T08:09:18.228Z</time></trkpt><trkpt lat="43.2683618" lon="12.0935082"><ele>824.2</ele><time>2026-04-19T08:09:19.225Z</time></trkpt><trkpt lat="43.2682888" lon="12.0935317"><ele>824.0</ele><time>2026-04-19T08:09:20.225Z</time></trkpt><trkpt lat="43.2681914" lon="12.0936218"><ele>823.9999999999999</ele><time>2026-04-19T08:09:22.223Z</time></trkpt><trkpt lat="43.2681597" lon="12.0937095"><ele>824.0</ele><time>2026-04-19T08:09:23.221Z</time></trkpt><trkpt lat="43.2681287" lon="12.0938138"><ele>824.0</ele><time>2026-04-19T08:09:24.224Z</time></trkpt><trkpt lat="43.2680974" lon="12.0939182"><ele>824.0</ele><time>2026-04-19T08:09:25.222Z</time></trkpt><trkpt lat="43.2680581" lon="12.0940006"><ele>824.0</ele><time>2026-04-19T08:09:26.225Z</time></trkpt><trkpt lat="43.2680077" lon="12.0940665"><ele>823.9999999999999</ele><time>2026-04-19T08:09:27.222Z</time></trkpt><trkpt lat="43.2679477" lon="12.094113"><ele>824.0</ele><time>2026-04-19T08:09:28.225Z</time></trkpt><trkpt lat="43.267881" lon="12.0941302"><ele>823.6</ele><time>2026-04-19T08:09:29.218Z</time></trkpt><trkpt lat="43.2678066" lon="12.094111"><ele>823.2</ele><time>2026-04-19T08:09:30.217Z</time></trkpt><trkpt lat="43.2677236" lon="12.094051"><ele>822.8000000000001</ele><time>2026-04-19T08:09:31.216Z</time></trkpt><trkpt lat="43.2676417" lon="12.0939778"><ele>822.4000000000001</ele><time>2026-04-19T08:09:32.218Z</time></trkpt><trkpt lat="43.2675552" lon="12.0939111"><ele>822.0</ele><time>2026-04-19T08:09:33.217Z</time></trkpt><trkpt lat="43.2674686" lon="12.0938603"><ele>820.3333333333334</ele><time>2026-04-19T08:09:34.229Z</time></trkpt><trkpt lat="43.2673913" lon="12.0938293"><ele>818.6666666666667</ele><time>2026-04-19T08:09:35.218Z</time></trkpt><trkpt lat="43.2673156" lon="12.0938203"><ele>817.0</ele><time>2026-04-19T08:09:36.222Z</time></trkpt><trkpt lat="43.2672297" lon="12.0938255"><ele>815.3333333333334</ele><time>2026-04-19T08:09:37.216Z</time></trkpt><trkpt lat="43.2671442" lon="12.0938371"><ele>813.6666666666667</ele><time>2026-04-19T08:09:38.217Z</time></trkpt><trkpt lat="43.2670666" lon="12.0938573"><ele>812.0</ele><time>2026-04-19T08:09:39.217Z</time></trkpt><trkpt lat="43.2669982" lon="12.0938761"><ele>811.8333333333334</ele><time>2026-04-19T08:09:40.217Z</time></trkpt><trkpt lat="43.2669359" lon="12.0938908"><ele>811.6666666666667</ele><time>2026-04-19T08:09:41.218Z</time></trkpt><trkpt lat="43.2668114" lon="12.0939042"><ele>811.5</ele><time>2026-04-19T08:09:43.219Z</time></trkpt><trkpt lat="43.2667466" lon="12.0939172"><ele>811.3333333333333</ele><time>2026-04-19T08:09:44.218Z</time></trkpt><trkpt lat="43.2666837" lon="12.0939475"><ele>811.1666666666666</ele><time>2026-04-19T08:09:45.22Z</time></trkpt><trkpt lat="43.2665949" lon="12.0940511"><ele>811.0</ele><time>2026-04-19T08:09:47.222Z</time></trkpt><trkpt lat="43.2665324" lon="12.0941319"><ele>811.0</ele><time>2026-04-19T08:09:49.219Z</time></trkpt><trkpt lat="43.2664609" lon="12.0941738"><ele>811.0</ele><time>2026-04-19T08:09:52.231Z</time></trkpt><trkpt lat="43.2664001" lon="12.0942068"><ele>811.0</ele><time>2026-04-19T08:09:54.231Z</time></trkpt><trkpt lat="43.2662851" lon="12.09428"><ele>811.0</ele><time>2026-04-19T08:09:58.061Z</time></trkpt><trkpt lat="43.2662076" lon="12.0943365"><ele>811.0</ele><time>2026-04-19T08:09:59.236Z</time></trkpt><trkpt lat="43.2661064" lon="12.0944438"><ele>808.7142857142857</ele><time>2026-04-19T08:10:01.226Z</time></trkpt><trkpt lat="43.2660632" lon="12.0945099"><ele>806.4285714285714</ele><time>2026-04-19T08:10:02.226Z</time></trkpt><trkpt lat="43.2660217" lon="12.094578"><ele>804.1428571428571</ele><time>2026-04-19T08:10:03.222Z</time></trkpt><trkpt lat="43.265979" lon="12.0946484"><ele>801.8571428571429</ele><time>2026-04-19T08:10:04.223Z</time></trkpt><trkpt lat="43.2659379" lon="12.0947315"><ele>799.5714285714287</ele><time>2026-04-19T08:10:05.221Z</time></trkpt><trkpt lat="43.2659006" lon="12.0948332"><ele>797.2857142857143</ele><time>2026-04-19T08:10:06.221Z</time></trkpt><trkpt lat="43.2658709" lon="12.0949288"><ele>795.0</ele><time>2026-04-19T08:10:07.22Z</time></trkpt><trkpt lat="43.2658297" lon="12.0950107"><ele>795.0</ele><time>2026-04-19T08:10:08.216Z</time></trkpt><trkpt lat="43.2657769" lon="12.0950688"><ele>795.0</ele><time>2026-04-19T08:10:09.231Z</time></trkpt><trkpt lat="43.2657095" lon="12.0951057"><ele>795.0</ele><time>2026-04-19T08:10:10.217Z</time></trkpt><trkpt lat="43.2656336" lon="12.0951355"><ele>795.0</ele><time>2026-04-19T08:10:11.218Z</time></trkpt><trkpt lat="43.2655516" lon="12.0951428"><ele>795.0</ele><time>2026-04-19T08:10:12.215Z</time></trkpt><trkpt lat="43.2654633" lon="12.0951347"><ele>795.0</ele><time>2026-04-19T08:10:13.213Z</time></trkpt><trkpt lat="43.2653772" lon="12.0951201"><ele>794.5</ele><time>2026-04-19T08:10:14.216Z</time></trkpt><trkpt lat="43.2652934" lon="12.0951068"><ele>794.0</ele><time>2026-04-19T08:10:15.216Z</time></trkpt><trkpt lat="43.2652171" lon="12.0950919"><ele>793.5</ele><time>2026-04-19T08:10:16.211Z</time></trkpt><trkpt lat="43.2651374" lon="12.0950739"><ele>793.0</ele><time>2026-04-19T08:10:17.214Z</time></trkpt><trkpt lat="43.2650601" lon="12.0950544"><ele>792.5</ele><time>2026-04-19T08:10:18.221Z</time></trkpt><trkpt lat="43.2649822" lon="12.0950336"><ele>792.0</ele><time>2026-04-19T08:10:19.221Z</time></trkpt><trkpt lat="43.2649015" lon="12.095016"><ele>792.0</ele><time>2026-04-19T08:10:20.225Z</time></trkpt><trkpt lat="43.264816" lon="12.0950076"><ele>792.0</ele><time>2026-04-19T08:10:21.223Z</time></trkpt><trkpt lat="43.2647299" lon="12.094991"><ele>792.0</ele><time>2026-04-19T08:10:22.221Z</time></trkpt><trkpt lat="43.2646467" lon="12.0949748"><ele>792.0</ele><time>2026-04-19T08:10:23.22Z</time></trkpt><trkpt lat="43.2645683" lon="12.0949676"><ele>792.0</ele><time>2026-04-19T08:10:24.22Z</time></trkpt><trkpt lat="43.2644923" lon="12.0949688"><ele>792.0</ele><time>2026-04-19T08:10:25.222Z</time></trkpt><trkpt lat="43.2644177" lon="12.0949831"><ele>791.5</ele><time>2026-04-19T08:10:26.22Z</time></trkpt><trkpt lat="43.2643445" lon="12.0950227"><ele>791.0</ele><time>2026-04-19T08:10:27.229Z</time></trkpt><trkpt lat="43.264273" lon="12.0950818"><ele>790.5</ele><time>2026-04-19T08:10:28.222Z</time></trkpt><trkpt lat="43.2642099" lon="12.0951579"><ele>790.0</ele><time>2026-04-19T08:10:29.222Z</time></trkpt><trkpt lat="43.2641535" lon="12.0952468"><ele>789.5</ele><time>2026-04-19T08:10:30.229Z</time></trkpt><trkpt lat="43.2641022" lon="12.0953474"><ele>789.0</ele><time>2026-04-19T08:10:31.226Z</time></trkpt><trkpt lat="43.2640559" lon="12.0954565"><ele>789.0</ele><time>2026-04-19T08:10:32.231Z</time></trkpt><trkpt lat="43.2640062" lon="12.0955569"><ele>789.0</ele><time>2026-04-19T08:10:33.224Z</time></trkpt><trkpt lat="43.2639622" lon="12.0956532"><ele>789.0</ele><time>2026-04-19T08:10:34.224Z</time></trkpt><trkpt lat="43.263917" lon="12.0957483"><ele>789.0</ele><time>2026-04-19T08:10:35.224Z</time></trkpt><trkpt lat="43.2638721" lon="12.0958381"><ele>789.0</ele><time>2026-04-19T08:10:36.227Z</time></trkpt><trkpt lat="43.2638363" lon="12.0959189"><ele>789.0</ele><time>2026-04-19T08:10:37.223Z</time></trkpt><trkpt lat="43.2638174" lon="12.0960046"><ele>788.1666666666666</ele><time>2026-04-19T08:10:38.228Z</time></trkpt><trkpt lat="43.2638247" lon="12.0961002"><ele>787.3333333333333</ele><time>2026-04-19T08:10:39.218Z</time></trkpt><trkpt lat="43.2638413" lon="12.0961916"><ele>786.5</ele><time>2026-04-19T08:10:40.22Z</time></trkpt><trkpt lat="43.2638656" lon="12.096323"><ele>785.6666666666666</ele><time>2026-04-19T08:10:42.217Z</time></trkpt><trkpt lat="43.2638376" lon="12.0964161"><ele>784.8333333333333</ele><time>2026-04-19T08:10:44.236Z</time></trkpt><trkpt lat="43.2637907" lon="12.0965196"><ele>784.0</ele><time>2026-04-19T08:10:46.24Z</time></trkpt><trkpt lat="43.2637755" lon="12.0966073"><ele>783.9999999999999</ele><time>2026-04-19T08:10:47.222Z</time></trkpt><trkpt lat="43.2637669" lon="12.0967119"><ele>784.0</ele><time>2026-04-19T08:10:48.223Z</time></trkpt><trkpt lat="43.2637571" lon="12.096801"><ele>784.0</ele><time>2026-04-19T08:10:49.223Z</time></trkpt><trkpt lat="43.2636738" lon="12.096929"><ele>784.0</ele><time>2026-04-19T08:10:51.224Z</time></trkpt><trkpt lat="43.2635983" lon="12.0969624"><ele>783.9999999999999</ele><time>2026-04-19T08:10:52.217Z</time></trkpt><trkpt lat="43.2635183" lon="12.0969741"><ele>784.0</ele><time>2026-04-19T08:10:53.222Z</time></trkpt><trkpt lat="43.2634354" lon="12.0969644"><ele>783.9999999999999</ele><time>2026-04-19T08:10:54.224Z</time></trkpt><trkpt lat="43.2633483" lon="12.096952"><ele>784.0</ele><time>2026-04-19T08:10:55.223Z</time></trkpt><trkpt lat="43.2632645" lon="12.0969447"><ele>784.0</ele><time>2026-04-19T08:10:56.218Z</time></trkpt><trkpt lat="43.2631804" lon="12.0969212"><ele>784.0</ele><time>2026-04-19T08:10:57.222Z</time></trkpt><trkpt lat="43.2631034" lon="12.0968853"><ele>783.9999999999999</ele><time>2026-04-19T08:10:58.224Z</time></trkpt><trkpt lat="43.2630357" lon="12.0968531"><ele>784.0</ele><time>2026-04-19T08:10:59.227Z</time></trkpt><trkpt lat="43.2629726" lon="12.0968224"><ele>783.4999999999999</ele><time>2026-04-19T08:11:00.226Z</time></trkpt><trkpt lat="43.2629139" lon="12.0967802"><ele>783.0</ele><time>2026-04-19T08:11:01.226Z</time></trkpt><trkpt lat="43.2628116" lon="12.0966929"><ele>782.5</ele><time>2026-04-19T08:11:03.225Z</time></trkpt><trkpt lat="43.2627525" lon="12.096656"><ele>782.0</ele><time>2026-04-19T08:11:04.222Z</time></trkpt><trkpt lat="43.2626765" lon="12.0966142"><ele>781.4999999999999</ele><time>2026-04-19T08:11:05.218Z</time></trkpt><trkpt lat="43.26259" lon="12.0965605"><ele>781.0</ele><time>2026-04-19T08:11:06.215Z</time></trkpt><trkpt lat="43.2625152" lon="12.0964951"><ele>781.0</ele><time>2026-04-19T08:11:07.218Z</time></trkpt><trkpt lat="43.2624536" lon="12.0964301"><ele>781.0</ele><time>2026-04-19T08:11:08.216Z</time></trkpt><trkpt lat="43.2623969" lon="12.096386"><ele>781.0</ele><time>2026-04-19T08:11:09.219Z</time></trkpt><trkpt lat="43.2622844" lon="12.0963691"><ele>781.0</ele><time>2026-04-19T08:11:11.215Z</time></trkpt><trkpt lat="43.2621728" lon="12.0963539"><ele>781.0</ele><time>2026-04-19T08:11:13.22Z</time></trkpt><trkpt lat="43.2620688" lon="12.0963135"><ele>780.8333333333333</ele><time>2026-04-19T08:11:15.216Z</time></trkpt><trkpt lat="43.2619705" lon="12.0963011"><ele>780.6666666666666</ele><time>2026-04-19T08:11:17.214Z</time></trkpt><trkpt lat="43.2618631" lon="12.0963133"><ele>780.5</ele><time>2026-04-19T08:11:19.214Z</time></trkpt><trkpt lat="43.2617734" lon="12.0963017"><ele>780.3333333333333</ele><time>2026-04-19T08:11:21.214Z</time></trkpt><trkpt lat="43.2617119" lon="12.0962577"><ele>780.1666666666666</ele><time>2026-04-19T08:11:23.233Z</time></trkpt><trkpt lat="43.261644" lon="12.0962015"><ele>780.0</ele><time>2026-04-19T08:11:26.23Z</time></trkpt><trkpt lat="43.2615629" lon="12.0961211"><ele>779.2</ele><time>2026-04-19T08:11:29.222Z</time></trkpt><trkpt lat="43.2614277" lon="12.0960448"><ele>778.4</ele><time>2026-04-19T08:11:32.214Z</time></trkpt><trkpt lat="43.2613546" lon="12.0959562"><ele>777.5999999999999</ele><time>2026-04-19T08:11:34.221Z</time></trkpt><trkpt lat="43.2612844" lon="12.0959491"><ele>776.8</ele><time>2026-04-19T08:11:36.224Z</time></trkpt><trkpt lat="43.2611943" lon="12.0959596"><ele>776.0</ele><time>2026-04-19T08:11:38.22Z</time></trkpt><trkpt lat="43.2611281" lon="12.0959643"><ele>776.0</ele><time>2026-04-19T08:11:39.221Z</time></trkpt><trkpt lat="43.2610559" lon="12.0959567"><ele>776.0</ele><time>2026-04-19T08:11:40.213Z</time></trkpt><trkpt lat="43.260992" lon="12.0959305"><ele>776.0</ele><time>2026-04-19T08:11:41.212Z</time></trkpt><trkpt lat="43.2608824" lon="12.09587"><ele>776.0</ele><time>2026-04-19T08:11:43.212Z</time></trkpt><trkpt lat="43.2607839" lon="12.095796"><ele>776.0</ele><time>2026-04-19T08:11:45.212Z</time></trkpt><trkpt lat="43.2607035" lon="12.0957733"><ele>776.0000000000001</ele><time>2026-04-19T08:11:47.211Z</time></trkpt><trkpt lat="43.2606273" lon="12.095779"><ele>776.0</ele><time>2026-04-19T08:11:50.222Z</time></trkpt><trkpt lat="43.260587" lon="12.095862"><ele>776.0</ele><time>2026-04-19T08:11:55.23Z</time></trkpt><trkpt lat="43.2606284" lon="12.0957913"><ele>776.0</ele><time>2026-04-19T08:11:57.219Z</time></trkpt><trkpt lat="43.2605213" lon="12.0958486"><ele>776.0000000000001</ele><time>2026-04-19T08:12:08.208Z</time></trkpt><trkpt lat="43.2604456" lon="12.0958914"><ele>776.0</ele><time>2026-04-19T08:12:09.21Z</time></trkpt><trkpt lat="43.260375" lon="12.0959479"><ele>774.5999999999999</ele><time>2026-04-19T08:12:10.209Z</time></trkpt><trkpt lat="43.2603138" lon="12.0960047"><ele>773.2</ele><time>2026-04-19T08:12:11.21Z</time></trkpt><trkpt lat="43.2602557" lon="12.0960536"><ele>771.8</ele><time>2026-04-19T08:12:12.202Z</time></trkpt><trkpt lat="43.2601965" lon="12.0960938"><ele>770.4000000000001</ele><time>2026-04-19T08:12:13.208Z</time></trkpt><trkpt lat="43.260085" lon="12.0961512"><ele>769.0</ele><time>2026-04-19T08:12:15.211Z</time></trkpt><trkpt lat="43.2599574" lon="12.0961554"><ele>768.9999999999999</ele><time>2026-04-19T08:12:17.211Z</time></trkpt><trkpt lat="43.2598849" lon="12.0961245"><ele>769.0</ele><time>2026-04-19T08:12:18.209Z</time></trkpt><trkpt lat="43.2598065" lon="12.0960684"><ele>769.0</ele><time>2026-04-19T08:12:19.205Z</time></trkpt><trkpt lat="43.2597379" lon="12.096012"><ele>769.0</ele><time>2026-04-19T08:12:20.207Z</time></trkpt><trkpt lat="43.2596693" lon="12.0959662"><ele>768.9999999999999</ele><time>2026-04-19T08:12:21.204Z</time></trkpt><trkpt lat="43.2595935" lon="12.095937"><ele>769.0</ele><time>2026-04-19T08:12:22.207Z</time></trkpt><trkpt lat="43.259517" lon="12.0959115"><ele>768.9999999999999</ele><time>2026-04-19T08:12:23.206Z</time></trkpt><trkpt lat="43.2594402" lon="12.0958779"><ele>769.0</ele><time>2026-04-19T08:12:24.207Z</time></trkpt><trkpt lat="43.2593648" lon="12.0958304"><ele>769.0</ele><time>2026-04-19T08:12:25.21Z</time></trkpt><trkpt lat="43.2592948" lon="12.0957939"><ele>769.0</ele><time>2026-04-19T08:12:26.206Z</time></trkpt><trkpt lat="43.2592281" lon="12.095763"><ele>768.9999999999999</ele><time>2026-04-19T08:12:27.205Z</time></trkpt><trkpt lat="43.259155" lon="12.0957231"><ele>769.0</ele><time>2026-04-19T08:12:28.204Z</time></trkpt><trkpt lat="43.2590743" lon="12.0956779"><ele>765.8333333333333</ele><time>2026-04-19T08:12:29.204Z</time></trkpt><trkpt lat="43.2589919" lon="12.095636"><ele>762.6666666666666</ele><time>2026-04-19T08:12:30.21Z</time></trkpt><trkpt lat="43.2589184" lon="12.0956113"><ele>759.5</ele><time>2026-04-19T08:12:31.209Z</time></trkpt><trkpt lat="43.2588439" lon="12.0956065"><ele>756.3333333333333</ele><time>2026-04-19T08:12:32.213Z</time></trkpt><trkpt lat="43.2587593" lon="12.0956326"><ele>753.1666666666666</ele><time>2026-04-19T08:12:33.21Z</time></trkpt><trkpt lat="43.2586651" lon="12.0956716"><ele>750.0</ele><time>2026-04-19T08:12:34.208Z</time></trkpt><trkpt lat="43.2585774" lon="12.0957121"><ele>750.5</ele><time>2026-04-19T08:12:35.21Z</time></trkpt><trkpt lat="43.2584945" lon="12.0957495"><ele>751.0</ele><time>2026-04-19T08:12:36.209Z</time></trkpt><trkpt lat="43.2584081" lon="12.0957874"><ele>751.5</ele><time>2026-04-19T08:12:37.211Z</time></trkpt><trkpt lat="43.2583207" lon="12.0958199"><ele>752.0</ele><time>2026-04-19T08:12:38.213Z</time></trkpt><trkpt lat="43.2582372" lon="12.0958495"><ele>752.5</ele><time>2026-04-19T08:12:39.212Z</time></trkpt><trkpt lat="43.2581554" lon="12.0958727"><ele>753.0</ele><time>2026-04-19T08:12:40.21Z</time></trkpt><trkpt lat="43.2580685" lon="12.0958873"><ele>753.0</ele><time>2026-04-19T08:12:41.209Z</time></trkpt><trkpt lat="43.2579799" lon="12.0958913"><ele>753.0</ele><time>2026-04-19T08:12:42.217Z</time></trkpt><trkpt lat="43.2578971" lon="12.0958969"><ele>753.0</ele><time>2026-04-19T08:12:43.217Z</time></trkpt><trkpt lat="43.2578256" lon="12.0959026"><ele>753.0</ele><time>2026-04-19T08:12:44.215Z</time></trkpt><trkpt lat="43.2577334" lon="12.0959017"><ele>753.0</ele><time>2026-04-19T08:12:46.219Z</time></trkpt><trkpt lat="43.2576574" lon="12.0958127"><ele>753.0</ele><time>2026-04-19T08:12:49.23Z</time></trkpt><trkpt lat="43.2575727" lon="12.0957436"><ele>753.0</ele><time>2026-04-19T08:12:51.219Z</time></trkpt><trkpt lat="43.2574515" lon="12.0957533"><ele>753.0</ele><time>2026-04-19T08:12:53.216Z</time></trkpt><trkpt lat="43.2573929" lon="12.0957894"><ele>753.0</ele><time>2026-04-19T08:12:54.218Z</time></trkpt><trkpt lat="43.2573342" lon="12.0958285"><ele>753.0</ele><time>2026-04-19T08:12:55.222Z</time></trkpt><trkpt lat="43.2572739" lon="12.095868"><ele>753.0</ele><time>2026-04-19T08:12:56.22Z</time></trkpt><trkpt lat="43.2572094" lon="12.0959068"><ele>753.0</ele><time>2026-04-19T08:12:57.223Z</time></trkpt><trkpt lat="43.257145" lon="12.0959363"><ele>752.5714285714286</ele><time>2026-04-19T08:12:58.219Z</time></trkpt><trkpt lat="43.2570846" lon="12.0959627"><ele>752.1428571428571</ele><time>2026-04-19T08:12:59.221Z</time></trkpt><trkpt lat="43.2570219" lon="12.0959897"><ele>751.7142857142858</ele><time>2026-04-19T08:13:00.223Z</time></trkpt><trkpt lat="43.2569553" lon="12.0960216"><ele>751.2857142857142</ele><time>2026-04-19T08:13:01.221Z</time></trkpt><trkpt lat="43.256892" lon="12.096054"><ele>750.8571428571428</ele><time>2026-04-19T08:13:02.22Z</time></trkpt><trkpt lat="43.2568288" lon="12.0960784"><ele>750.4285714285714</ele><time>2026-04-19T08:13:03.218Z</time></trkpt><trkpt lat="43.2567613" lon="12.0960893"><ele>750.0</ele><time>2026-04-19T08:13:04.218Z</time></trkpt><trkpt lat="43.2566914" lon="12.0960835"><ele>750.0</ele><time>2026-04-19T08:13:05.218Z</time></trkpt><trkpt lat="43.2566135" lon="12.0960734"><ele>750.0</ele><time>2026-04-19T08:13:06.217Z</time></trkpt><trkpt lat="43.2565329" lon="12.0960586"><ele>750.0</ele><time>2026-04-19T08:13:07.22Z</time></trkpt><trkpt lat="43.256453" lon="12.0960436"><ele>750.0</ele><time>2026-04-19T08:13:08.217Z</time></trkpt><trkpt lat="43.2563725" lon="12.0960246"><ele>750.0</ele><time>2026-04-19T08:13:09.221Z</time></trkpt><trkpt lat="43.2562946" lon="12.0959988"><ele>750.0</ele><time>2026-04-19T08:13:10.218Z</time></trkpt><trkpt lat="43.2562245" lon="12.0959724"><ele>748.3333333333334</ele><time>2026-04-19T08:13:11.219Z</time></trkpt><trkpt lat="43.2561152" lon="12.095929"><ele>746.6666666666666</ele><time>2026-04-19T08:13:13.22Z</time></trkpt><trkpt lat="43.2560101" lon="12.095891"><ele>745.0</ele><time>2026-04-19T08:13:15.219Z</time></trkpt><trkpt lat="43.2559478" lon="12.0958594"><ele>743.3333333333333</ele><time>2026-04-19T08:13:16.221Z</time></trkpt><trkpt lat="43.2558846" lon="12.0958312"><ele>741.6666666666666</ele><time>2026-04-19T08:13:17.219Z</time></trkpt><trkpt lat="43.2558236" lon="12.0958033"><ele>740.0</ele><time>2026-04-19T08:13:18.217Z</time></trkpt><trkpt lat="43.2557272" lon="12.0957488"><ele>739.3333333333333</ele><time>2026-04-19T08:13:20.219Z</time></trkpt><trkpt lat="43.2556383" lon="12.095727"><ele>738.6666666666666</ele><time>2026-04-19T08:13:28.229Z</time></trkpt><trkpt lat="43.2555635" lon="12.0956961"><ele>738.0</ele><time>2026-04-19T08:13:30.231Z</time></trkpt><trkpt lat="43.2555087" lon="12.0957763"><ele>737.3333333333334</ele><time>2026-04-19T08:13:33.225Z</time></trkpt><trkpt lat="43.2555269" lon="12.0958896"><ele>736.6666666666667</ele><time>2026-04-19T08:13:35.23Z</time></trkpt><trkpt lat="43.2555465" lon="12.0960286"><ele>736.0</ele><time>2026-04-19T08:13:37.213Z</time></trkpt><trkpt lat="43.2555385" lon="12.0961179"><ele>736.0</ele><time>2026-04-19T08:14:02.245Z</time></trkpt><trkpt lat="43.2555289" lon="12.0958593"><ele>736.0</ele><time>2026-04-19T08:14:17.226Z</time></trkpt><trkpt lat="43.2555227" lon="12.0957651"><ele>736.0</ele><time>2026-04-19T08:14:18.228Z</time></trkpt><trkpt lat="43.2555504" lon="12.0956435"><ele>736.0</ele><time>2026-04-19T08:14:20.24Z</time></trkpt><trkpt lat="43.2556186" lon="12.095638"><ele>736.0</ele><time>2026-04-19T08:14:22.245Z</time></trkpt><trkpt lat="43.2557631" lon="12.0957235"><ele>736.8</ele><time>2026-04-19T08:14:25.246Z</time></trkpt><trkpt lat="43.2558651" lon="12.0957976"><ele>737.5999999999999</ele><time>2026-04-19T08:14:27.233Z</time></trkpt><trkpt lat="43.2559564" lon="12.0959042"><ele>738.4</ele><time>2026-04-19T08:14:29.242Z</time></trkpt><trkpt lat="43.2560063" lon="12.0959617"><ele>739.2</ele><time>2026-04-19T08:14:30.23Z</time></trkpt><trkpt lat="43.2560995" lon="12.0960658"><ele>740.0</ele><time>2026-04-19T08:14:32.23Z</time></trkpt><trkpt lat="43.2561609" lon="12.0961867"><ele>740.0</ele><time>2026-04-19T08:14:34.222Z</time></trkpt><trkpt lat="43.2561707" lon="12.0963177"><ele>740.0</ele><time>2026-04-19T08:14:36.222Z</time></trkpt><trkpt lat="43.2560981" lon="12.0964155"><ele>740.0</ele><time>2026-04-19T08:14:38.237Z</time></trkpt><trkpt lat="43.2559898" lon="12.0964525"><ele>740.0</ele><time>2026-04-19T08:14:40.238Z</time></trkpt><trkpt lat="43.2558849" lon="12.0964464"><ele>740.0</ele><time>2026-04-19T08:14:42.237Z</time></trkpt><trkpt lat="43.2558006" lon="12.0964188"><ele>740.0</ele><time>2026-04-19T08:14:44.237Z</time></trkpt><trkpt lat="43.2557401" lon="12.0963941"><ele>740.0</ele><time>2026-04-19T08:14:45.224Z</time></trkpt><trkpt lat="43.2556374" lon="12.0963857"><ele>740.0</ele><time>2026-04-19T08:14:47.223Z</time></trkpt><trkpt lat="43.2555394" lon="12.0964597"><ele>740.0</ele><time>2026-04-19T08:14:49.226Z</time></trkpt><trkpt lat="43.2554909" lon="12.0965164"><ele>740.0</ele><time>2026-04-19T08:14:50.225Z</time></trkpt><trkpt lat="43.255379" lon="12.0966088"><ele>740.8333333333333</ele><time>2026-04-19T08:14:52.227Z</time></trkpt><trkpt lat="43.2553265" lon="12.096666"><ele>741.6666666666666</ele><time>2026-04-19T08:14:53.223Z</time></trkpt><trkpt lat="43.2552806" lon="12.0967345"><ele>742.5</ele><time>2026-04-19T08:14:54.226Z</time></trkpt><trkpt lat="43.2552387" lon="12.096801"><ele>743.3333333333334</ele><time>2026-04-19T08:14:55.219Z</time></trkpt><trkpt lat="43.2551564" lon="12.0969076"><ele>744.1666666666667</ele><time>2026-04-19T08:14:57.226Z</time></trkpt><trkpt lat="43.2550833" lon="12.0970075"><ele>745.0</ele><time>2026-04-19T08:14:59.213Z</time></trkpt><trkpt lat="43.2550505" lon="12.0971218"><ele>745.0</ele><time>2026-04-19T08:15:01.221Z</time></trkpt><trkpt lat="43.2550169" lon="12.0972548"><ele>745.0</ele><time>2026-04-19T08:15:03.222Z</time></trkpt><trkpt lat="43.254951" lon="12.0974021"><ele>745.0</ele><time>2026-04-19T08:15:05.222Z</time></trkpt><trkpt lat="43.2549135" lon="12.0974744"><ele>745.0</ele><time>2026-04-19T08:15:06.218Z</time></trkpt><trkpt lat="43.2548734" lon="12.0975418"><ele>745.0</ele><time>2026-04-19T08:15:07.217Z</time></trkpt><trkpt lat="43.2547863" lon="12.0976472"><ele>746.2</ele><time>2026-04-19T08:15:09.213Z</time></trkpt><trkpt lat="43.2546771" lon="12.0977241"><ele>747.4</ele><time>2026-04-19T08:15:11.216Z</time></trkpt><trkpt lat="43.2545914" lon="12.097784"><ele>748.5999999999999</ele><time>2026-04-19T08:15:13.222Z</time></trkpt><trkpt lat="43.2545569" lon="12.0978769"><ele>749.8</ele><time>2026-04-19T08:15:16.226Z</time></trkpt><trkpt lat="43.2546437" lon="12.097859"><ele>751.0</ele><time>2026-04-19T08:28:42.234Z</time></trkpt><trkpt lat="43.254709" lon="12.0978281"><ele>743.8</ele><time>2026-04-19T08:28:45.234Z</time></trkpt><trkpt lat="43.2547933" lon="12.0977963"><ele>736.5999999999999</ele><time>2026-04-19T08:28:46.232Z</time></trkpt><trkpt lat="43.2549034" lon="12.0977842"><ele>729.4</ele><time>2026-04-19T08:28:48.24Z</time></trkpt><trkpt lat="43.254987" lon="12.0977504"><ele>722.2</ele><time>2026-04-19T08:28:50.234Z</time></trkpt><trkpt lat="43.2550854" lon="12.0976862"><ele>715.0</ele><time>2026-04-19T08:28:52.223Z</time></trkpt><trkpt lat="43.2551874" lon="12.0976196"><ele>715.0</ele><time>2026-04-19T08:28:54.221Z</time></trkpt><trkpt lat="43.2552786" lon="12.0975293"><ele>715.0</ele><time>2026-04-19T08:28:56.222Z</time></trkpt><trkpt lat="43.2553769" lon="12.0974409"><ele>715.0</ele><time>2026-04-19T08:28:58.216Z</time></trkpt><trkpt lat="43.255456" lon="12.0974005"><ele>715.0</ele><time>2026-04-19T08:29:00.234Z</time></trkpt><trkpt lat="43.2555336" lon="12.0974332"><ele>715.0</ele><time>2026-04-19T08:29:02.233Z</time></trkpt><trkpt lat="43.2556136" lon="12.0975515"><ele>713.0</ele><time>2026-04-19T08:29:04.218Z</time></trkpt><trkpt lat="43.2556495" lon="12.0976279"><ele>711.0</ele><time>2026-04-19T08:29:05.223Z</time></trkpt><trkpt lat="43.2556813" lon="12.0977058"><ele>709.0</ele><time>2026-04-19T08:29:06.218Z</time></trkpt><trkpt lat="43.255716" lon="12.0977878"><ele>707.0</ele><time>2026-04-19T08:29:07.22Z</time></trkpt><trkpt lat="43.2557555" lon="12.0978666"><ele>705.0</ele><time>2026-04-19T08:29:08.224Z</time></trkpt><trkpt lat="43.2558016" lon="12.0979322"><ele>703.0</ele><time>2026-04-19T08:29:09.216Z</time></trkpt><trkpt lat="43.2558578" lon="12.0979815"><ele>701.0</ele><time>2026-04-19T08:29:10.215Z</time></trkpt><trkpt lat="43.2559719" lon="12.0980272"><ele>701.0</ele><time>2026-04-19T08:29:12.216Z</time></trkpt><trkpt lat="43.256071" lon="12.0980311"><ele>701.0</ele><time>2026-04-19T08:29:14.217Z</time></trkpt><trkpt lat="43.2561911" lon="12.0979612"><ele>701.0</ele><time>2026-04-19T08:29:16.221Z</time></trkpt><trkpt lat="43.256251" lon="12.0979251"><ele>701.0</ele><time>2026-04-19T08:29:17.216Z</time></trkpt><trkpt lat="43.2563693" lon="12.0978679"><ele>701.0</ele><time>2026-04-19T08:29:19.216Z</time></trkpt><trkpt lat="43.2564338" lon="12.0978344"><ele>700.3333333333333</ele><time>2026-04-19T08:29:20.219Z</time></trkpt><trkpt lat="43.256508" lon="12.0977997"><ele>699.6666666666666</ele><time>2026-04-19T08:29:21.216Z</time></trkpt><trkpt lat="43.2565917" lon="12.0977741"><ele>699.0</ele><time>2026-04-19T08:29:22.213Z</time></trkpt><trkpt lat="43.2566667" lon="12.0977536"><ele>698.3333333333334</ele><time>2026-04-19T08:29:23.218Z</time></trkpt><trkpt lat="43.2567668" lon="12.0977695"><ele>697.6666666666667</ele><time>2026-04-19T08:29:25.212Z</time></trkpt><trkpt lat="43.2568145" lon="12.0978427"><ele>697.0</ele><time>2026-04-19T08:29:27.222Z</time></trkpt><trkpt lat="43.2568198" lon="12.0979471"><ele>697.0</ele><time>2026-04-19T08:29:29.221Z</time></trkpt><trkpt lat="43.2568157" lon="12.0980745"><ele>697.0</ele><time>2026-04-19T08:29:31.222Z</time></trkpt><trkpt lat="43.2568292" lon="12.0981833"><ele>697.0</ele><time>2026-04-19T08:29:33.218Z</time></trkpt><trkpt lat="43.2568224" lon="12.0983373"><ele>697.0</ele><time>2026-04-19T08:29:35.219Z</time></trkpt><trkpt lat="43.2568016" lon="12.0984778"><ele>697.0</ele><time>2026-04-19T08:29:37.203Z</time></trkpt><trkpt lat="43.2568039" lon="12.098606"><ele>692.0</ele><time>2026-04-19T08:29:39.124Z</time></trkpt><trkpt lat="43.2568244" lon="12.09879"><ele>687.0</ele><time>2026-04-19T08:29:41.205Z</time></trkpt><trkpt lat="43.2568315" lon="12.0989024"><ele>682.0</ele><time>2026-04-19T08:29:42.205Z</time></trkpt><trkpt lat="43.2568387" lon="12.0990136"><ele>677.0</ele><time>2026-04-19T08:29:43.207Z</time></trkpt><trkpt lat="43.2568395" lon="12.0991137"><ele>672.0</ele><time>2026-04-19T08:29:44.206Z</time></trkpt><trkpt lat="43.2567863" lon="12.099251"><ele>668.6666666666666</ele><time>2026-04-19T08:29:46.206Z</time></trkpt><trkpt lat="43.2567269" lon="12.0993968"><ele>665.3333333333334</ele><time>2026-04-19T08:29:48.213Z</time></trkpt><trkpt lat="43.2567038" lon="12.0994951"><ele>662.0</ele><time>2026-04-19T08:29:49.205Z</time></trkpt><trkpt lat="43.2566889" lon="12.0996077"><ele>658.6666666666667</ele><time>2026-04-19T08:29:50.211Z</time></trkpt><trkpt lat="43.2566839" lon="12.0997191"><ele>655.3333333333334</ele><time>2026-04-19T08:29:51.211Z</time></trkpt><trkpt lat="43.2566881" lon="12.0998298"><ele>652.0</ele><time>2026-04-19T08:29:52.208Z</time></trkpt><trkpt lat="43.2566957" lon="12.0999372"><ele>649.8333333333334</ele><time>2026-04-19T08:29:53.211Z</time></trkpt><trkpt lat="43.2567025" lon="12.1000443"><ele>647.6666666666667</ele><time>2026-04-19T08:29:54.212Z</time></trkpt><trkpt lat="43.2567146" lon="12.1001527"><ele>645.5</ele><time>2026-04-19T08:29:55.207Z</time></trkpt><trkpt lat="43.2567309" lon="12.1002572"><ele>643.3333333333334</ele><time>2026-04-19T08:29:56.207Z</time></trkpt><trkpt lat="43.256752" lon="12.1003622"><ele>641.1666666666666</ele><time>2026-04-19T08:29:57.218Z</time></trkpt><trkpt lat="43.2567813" lon="12.1004652"><ele>639.0</ele><time>2026-04-19T08:29:58.209Z</time></trkpt><trkpt lat="43.2568106" lon="12.1005554"><ele>639.0</ele><time>2026-04-19T08:29:59.214Z</time></trkpt><trkpt lat="43.256868" lon="12.100672"><ele>639.0</ele><time>2026-04-19T08:30:01.219Z</time></trkpt><trkpt lat="43.2569336" lon="12.1007472"><ele>639.0</ele><time>2026-04-19T08:30:03.229Z</time></trkpt><trkpt lat="43.2569989" lon="12.1008856"><ele>639.0</ele><time>2026-04-19T08:30:05.216Z</time></trkpt><trkpt lat="43.2570323" lon="12.1009809"><ele>639.0</ele><time>2026-04-19T08:30:06.221Z</time></trkpt><trkpt lat="43.2570515" lon="12.1010824"><ele>636.5</ele><time>2026-04-19T08:30:07.216Z</time></trkpt><trkpt lat="43.2570659" lon="12.1011723"><ele>634.0</ele><time>2026-04-19T08:30:08.218Z</time></trkpt><trkpt lat="43.2570935" lon="12.1012573"><ele>631.5</ele><time>2026-04-19T08:30:09.215Z</time></trkpt><trkpt lat="43.2571237" lon="12.1013426"><ele>629.0</ele><time>2026-04-19T08:30:10.216Z</time></trkpt><trkpt lat="43.257144" lon="12.1014275"><ele>626.5</ele><time>2026-04-19T08:30:11.215Z</time></trkpt><trkpt lat="43.2571242" lon="12.1015821"><ele>624.0</ele><time>2026-04-19T08:30:13.215Z</time></trkpt><trkpt lat="43.2570982" lon="12.101708"><ele>621.2</ele><time>2026-04-19T08:30:15.216Z</time></trkpt><trkpt lat="43.2570653" lon="12.1018445"><ele>618.4</ele><time>2026-04-19T08:30:17.221Z</time></trkpt><trkpt lat="43.2570321" lon="12.1019212"><ele>615.6</ele><time>2026-04-19T08:30:18.224Z</time></trkpt><trkpt lat="43.2569828" lon="12.1020344"><ele>612.8</ele><time>2026-04-19T08:30:20.229Z</time></trkpt><trkpt lat="43.2569888" lon="12.1021347"><ele>610.0</ele><time>2026-04-19T08:30:22.24Z</time></trkpt><trkpt lat="43.2570582" lon="12.1022638"><ele>610.0</ele><time>2026-04-19T08:30:24.215Z</time></trkpt><trkpt lat="43.2571075" lon="12.1023283"><ele>610.0</ele><time>2026-04-19T08:30:25.221Z</time></trkpt><trkpt lat="43.2571594" lon="12.1023883"><ele>610.0</ele><time>2026-04-19T08:30:26.222Z</time></trkpt><trkpt lat="43.2572098" lon="12.102455"><ele>610.0</ele><time>2026-04-19T08:30:27.22Z</time></trkpt><trkpt lat="43.2572626" lon="12.102528"><ele>610.0</ele><time>2026-04-19T08:30:28.219Z</time></trkpt><trkpt lat="43.2573187" lon="12.1026031"><ele>610.0</ele><time>2026-04-19T08:30:29.223Z</time></trkpt><trkpt lat="43.2573717" lon="12.1026823"><ele>610.0</ele><time>2026-04-19T08:30:30.22Z</time></trkpt><trkpt lat="43.2574322" lon="12.1027665"><ele>613.8333333333334</ele><time>2026-04-19T08:30:31.218Z</time></trkpt><trkpt lat="43.2574969" lon="12.1028492"><ele>617.6666666666667</ele><time>2026-04-19T08:30:32.223Z</time></trkpt><trkpt lat="43.257558" lon="12.1029253"><ele>621.5</ele><time>2026-04-19T08:30:33.215Z</time></trkpt><trkpt lat="43.257615" lon="12.1029988"><ele>625.3333333333334</ele><time>2026-04-19T08:30:34.216Z</time></trkpt><trkpt lat="43.2576813" lon="12.1030654"><ele>629.1666666666666</ele><time>2026-04-19T08:30:35.218Z</time></trkpt><trkpt lat="43.2577441" lon="12.1031389"><ele>633.0</ele><time>2026-04-19T08:30:36.215Z</time></trkpt><trkpt lat="43.2578074" lon="12.1032045"><ele>634.8571428571429</ele><time>2026-04-19T08:30:37.224Z</time></trkpt><trkpt lat="43.2578739" lon="12.1032697"><ele>636.7142857142858</ele><time>2026-04-19T08:30:38.216Z</time></trkpt><trkpt lat="43.2579393" lon="12.1033255"><ele>638.5714285714287</ele><time>2026-04-19T08:30:39.219Z</time></trkpt><trkpt lat="43.2579959" lon="12.1033734"><ele>640.4285714285714</ele><time>2026-04-19T08:30:40.225Z</time></trkpt><trkpt lat="43.2580487" lon="12.103427"><ele>642.2857142857143</ele><time>2026-04-19T08:30:41.223Z</time></trkpt><trkpt lat="43.2581023" lon="12.1034859"><ele>644.1428571428572</ele><time>2026-04-19T08:30:42.22Z</time></trkpt><trkpt lat="43.2581598" lon="12.1035467"><ele>646.0</ele><time>2026-04-19T08:30:43.219Z</time></trkpt><trkpt lat="43.2582245" lon="12.1036071"><ele>646.0</ele><time>2026-04-19T08:30:44.224Z</time></trkpt><trkpt lat="43.2582984" lon="12.1036585"><ele>646.0</ele><time>2026-04-19T08:30:45.221Z</time></trkpt><trkpt lat="43.2583735" lon="12.1036986"><ele>646.0</ele><time>2026-04-19T08:30:46.214Z</time></trkpt><trkpt lat="43.2584444" lon="12.1037339"><ele>646.0</ele><time>2026-04-19T08:30:47.214Z</time></trkpt><trkpt lat="43.2585097" lon="12.103771"><ele>646.0</ele><time>2026-04-19T08:30:48.223Z</time></trkpt><trkpt lat="43.2585714" lon="12.1038101"><ele>646.0</ele><time>2026-04-19T08:30:49.219Z</time></trkpt><trkpt lat="43.258674" lon="12.1038932"><ele>646.0</ele><time>2026-04-19T08:30:51.22Z</time></trkpt><trkpt lat="43.2587535" lon="12.1039837"><ele>646.0</ele><time>2026-04-19T08:30:53.219Z</time></trkpt><trkpt lat="43.2588131" lon="12.1040627"><ele>646.0</ele><time>2026-04-19T08:30:55.231Z</time></trkpt><trkpt lat="43.2588797" lon="12.1041401"><ele>646.0</ele><time>2026-04-19T08:30:57.236Z</time></trkpt><trkpt lat="43.2589768" lon="12.1042408"><ele>646.0</ele><time>2026-04-19T08:30:59.219Z</time></trkpt><trkpt lat="43.2590414" lon="12.1042881"><ele>642.1666666666667</ele><time>2026-04-19T08:31:00.22Z</time></trkpt><trkpt lat="43.2591013" lon="12.104315"><ele>638.3333333333334</ele><time>2026-04-19T08:31:01.222Z</time></trkpt><trkpt lat="43.2591713" lon="12.1043251"><ele>634.5</ele><time>2026-04-19T08:31:03.228Z</time></trkpt><trkpt lat="43.2592344" lon="12.1043282"><ele>630.6666666666666</ele><time>2026-04-19T08:31:06.06Z</time></trkpt><trkpt lat="43.259312" lon="12.1043995"><ele>626.8333333333333</ele><time>2026-04-19T08:31:08.23Z</time></trkpt><trkpt lat="43.2593883" lon="12.1044735"><ele>623.0</ele><time>2026-04-19T08:31:10.23Z</time></trkpt><trkpt lat="43.2594594" lon="12.1045575"><ele>623.0</ele><time>2026-04-19T08:31:12.235Z</time></trkpt><trkpt lat="43.2595277" lon="12.1046004"><ele>623.0</ele><time>2026-04-19T08:31:14.232Z</time></trkpt><trkpt lat="43.2595951" lon="12.1046159"><ele>623.0</ele><time>2026-04-19T08:31:16.161Z</time></trkpt><trkpt lat="43.2596716" lon="12.1045841"><ele>623.0</ele><time>2026-04-19T08:31:18.233Z</time></trkpt><trkpt lat="43.259736" lon="12.1045428"><ele>623.0</ele><time>2026-04-19T08:31:20.144Z</time></trkpt><trkpt lat="43.2598135" lon="12.1045019"><ele>623.0</ele><time>2026-04-19T08:31:22.231Z</time></trkpt><trkpt lat="43.2599496" lon="12.1044268"><ele>618.6</ele><time>2026-04-19T08:31:24.218Z</time></trkpt><trkpt lat="43.2600277" lon="12.1043761"><ele>614.1999999999999</ele><time>2026-04-19T08:31:25.216Z</time></trkpt><trkpt lat="43.2600911" lon="12.1043348"><ele>609.8</ele><time>2026-04-19T08:31:26.216Z</time></trkpt><trkpt lat="43.260154" lon="12.104302"><ele>605.4</ele><time>2026-04-19T08:31:27.217Z</time></trkpt><trkpt lat="43.260271" lon="12.1042867"><ele>601.0</ele><time>2026-04-19T08:31:29.217Z</time></trkpt><trkpt lat="43.2603724" lon="12.1043684"><ele>601.0</ele><time>2026-04-19T08:31:31.217Z</time></trkpt><trkpt lat="43.2604089" lon="12.1044407"><ele>601.0</ele><time>2026-04-19T08:31:32.221Z</time></trkpt><trkpt lat="43.2604392" lon="12.1045251"><ele>601.0</ele><time>2026-04-19T08:31:33.212Z</time></trkpt><trkpt lat="43.260456" lon="12.1046181"><ele>601.0</ele><time>2026-04-19T08:31:34.216Z</time></trkpt><trkpt lat="43.2604803" lon="12.1047625"><ele>601.0</ele><time>2026-04-19T08:31:36.217Z</time></trkpt><trkpt lat="43.2604978" lon="12.1048743"><ele>601.0</ele><time>2026-04-19T08:31:38.229Z</time></trkpt><trkpt lat="43.2605283" lon="12.1049704"><ele>598.0</ele><time>2026-04-19T08:31:40.23Z</time></trkpt><trkpt lat="43.2605708" lon="12.1050669"><ele>595.0</ele><time>2026-04-19T08:31:42.23Z</time></trkpt><trkpt lat="43.260624" lon="12.1051326"><ele>592.0</ele><time>2026-04-19T08:31:44.178Z</time></trkpt><trkpt lat="43.2606884" lon="12.1051677"><ele>589.0</ele><time>2026-04-19T08:31:45.226Z</time></trkpt><trkpt lat="43.2607482" lon="12.1052158"><ele>586.0</ele><time>2026-04-19T08:31:46.219Z</time></trkpt><trkpt lat="43.2608134" lon="12.1052763"><ele>583.0</ele><time>2026-04-19T08:31:47.22Z</time></trkpt><trkpt lat="43.2608859" lon="12.1053376"><ele>582.5</ele><time>2026-04-19T08:31:48.218Z</time></trkpt><trkpt lat="43.2609612" lon="12.1053816"><ele>582.0</ele><time>2026-04-19T08:31:49.22Z</time></trkpt><trkpt lat="43.2610369" lon="12.105396"><ele>581.5</ele><time>2026-04-19T08:31:50.22Z</time></trkpt><trkpt lat="43.261104" lon="12.1054061"><ele>581.0</ele><time>2026-04-19T08:31:51.218Z</time></trkpt><trkpt lat="43.261204" lon="12.1054854"><ele>580.5</ele><time>2026-04-19T08:31:53.219Z</time></trkpt><trkpt lat="43.2612419" lon="12.1055582"><ele>580.0</ele><time>2026-04-19T08:31:54.221Z</time></trkpt><trkpt lat="43.2612797" lon="12.1056606"><ele>577.0</ele><time>2026-04-19T08:31:55.22Z</time></trkpt><trkpt lat="43.2613101" lon="12.1057737"><ele>574.0</ele><time>2026-04-19T08:31:56.214Z</time></trkpt><trkpt lat="43.2613213" lon="12.1058808"><ele>571.0</ele><time>2026-04-19T08:31:57.22Z</time></trkpt><trkpt lat="43.26132" lon="12.1059791"><ele>568.0</ele><time>2026-04-19T08:31:58.22Z</time></trkpt><trkpt lat="43.2613123" lon="12.1060692"><ele>565.0</ele><time>2026-04-19T08:31:59.222Z</time></trkpt><trkpt lat="43.2612738" lon="12.1062014"><ele>562.0</ele><time>2026-04-19T08:32:01.223Z</time></trkpt><trkpt lat="43.2612418" lon="12.1063006"><ele>562.0</ele><time>2026-04-19T08:32:04.233Z</time></trkpt><trkpt lat="43.2612564" lon="12.1063978"><ele>562.0</ele><time>2026-04-19T08:32:07.235Z</time></trkpt><trkpt lat="43.2613127" lon="12.1064647"><ele>562.0</ele><time>2026-04-19T08:32:09.234Z</time></trkpt><trkpt lat="43.2613929" lon="12.1064453"><ele>562.0</ele><time>2026-04-19T08:32:11.232Z</time></trkpt><trkpt lat="43.2614882" lon="12.1064455"><ele>562.0</ele><time>2026-04-19T08:32:13.232Z</time></trkpt><trkpt lat="43.2615979" lon="12.1064752"><ele>562.0</ele><time>2026-04-19T08:32:15.23Z</time></trkpt><trkpt lat="43.2616887" lon="12.1063968"><ele>561.1666666666667</ele><time>2026-04-19T08:32:17.236Z</time></trkpt><trkpt lat="43.2617868" lon="12.1063234"><ele>560.3333333333334</ele><time>2026-04-19T08:32:19.223Z</time></trkpt><trkpt lat="43.2618463" lon="12.1062862"><ele>559.5</ele><time>2026-04-19T08:32:20.225Z</time></trkpt><trkpt lat="43.2619088" lon="12.1061894"><ele>558.6666666666666</ele><time>2026-04-19T08:32:22.224Z</time></trkpt><trkpt lat="43.2619236" lon="12.1060649"><ele>557.8333333333333</ele><time>2026-04-19T08:32:24.233Z</time></trkpt><trkpt lat="43.2619466" lon="12.105983"><ele>557.0</ele><time>2026-04-19T08:32:25.224Z</time></trkpt><trkpt lat="43.2619756" lon="12.1059057"><ele>557.0</ele><time>2026-04-19T08:32:26.223Z</time></trkpt><trkpt lat="43.2620546" lon="12.1058372"><ele>557.0</ele><time>2026-04-19T08:32:28.221Z</time></trkpt><trkpt lat="43.2621127" lon="12.1059109"><ele>557.0</ele><time>2026-04-19T08:32:30.235Z</time></trkpt><trkpt lat="43.2621349" lon="12.1060087"><ele>557.0</ele><time>2026-04-19T08:32:31.235Z</time></trkpt><trkpt lat="43.2621394" lon="12.1061379"><ele>557.0</ele><time>2026-04-19T08:32:32.222Z</time></trkpt><trkpt lat="43.2621335" lon="12.1062582"><ele>557.0</ele><time>2026-04-19T08:32:33.219Z</time></trkpt><trkpt lat="43.2621073" lon="12.1063626"><ele>557.0</ele><time>2026-04-19T08:32:34.218Z</time></trkpt><trkpt lat="43.2620539" lon="12.1064443"><ele>557.0</ele><time>2026-04-19T08:32:35.222Z</time></trkpt><trkpt lat="43.2619846" lon="12.1065186"><ele>557.0</ele><time>2026-04-19T08:32:36.217Z</time></trkpt><trkpt lat="43.2619081" lon="12.1065819"><ele>557.0</ele><time>2026-04-19T08:32:37.224Z</time></trkpt><trkpt lat="43.2618323" lon="12.1066528"><ele>557.0</ele><time>2026-04-19T08:32:38.219Z</time></trkpt><trkpt lat="43.2617635" lon="12.1067368"><ele>557.0</ele><time>2026-04-19T08:32:39.22Z</time></trkpt><trkpt lat="43.2616981" lon="12.1068302"><ele>555.0</ele><time>2026-04-19T08:32:40.221Z</time></trkpt><trkpt lat="43.2616388" lon="12.1069225"><ele>553.0</ele><time>2026-04-19T08:32:41.221Z</time></trkpt><trkpt lat="43.2615784" lon="12.1069996"><ele>551.0</ele><time>2026-04-19T08:32:42.223Z</time></trkpt><trkpt lat="43.2615184" lon="12.1070687"><ele>549.0</ele><time>2026-04-19T08:32:43.222Z</time></trkpt><trkpt lat="43.2614538" lon="12.1071282"><ele>547.0</ele><time>2026-04-19T08:32:44.22Z</time></trkpt><trkpt lat="43.261381" lon="12.1071733"><ele>545.0</ele><time>2026-04-19T08:32:45.222Z</time></trkpt><trkpt lat="43.2613065" lon="12.1072064"><ele>545.0</ele><time>2026-04-19T08:32:46.223Z</time></trkpt><trkpt lat="43.2612281" lon="12.1072326"><ele>545.0</ele><time>2026-04-19T08:32:47.222Z</time></trkpt><trkpt lat="43.2611451" lon="12.1072495"><ele>545.0</ele><time>2026-04-19T08:32:48.212Z</time></trkpt><trkpt lat="43.261064" lon="12.107271"><ele>545.0</ele><time>2026-04-19T08:32:49.223Z</time></trkpt><trkpt lat="43.2609794" lon="12.1072929"><ele>545.0</ele><time>2026-04-19T08:32:50.224Z</time></trkpt><trkpt lat="43.260889" lon="12.107313"><ele>545.0</ele><time>2026-04-19T08:32:51.22Z</time></trkpt><trkpt lat="43.2607956" lon="12.107336"><ele>545.0</ele><time>2026-04-19T08:32:52.217Z</time></trkpt><trkpt lat="43.2607066" lon="12.1073609"><ele>545.0</ele><time>2026-04-19T08:32:53.224Z</time></trkpt><trkpt lat="43.2606239" lon="12.107377"><ele>545.0</ele><time>2026-04-19T08:32:54.224Z</time></trkpt><trkpt lat="43.2605501" lon="12.1073879"><ele>545.0</ele><time>2026-04-19T08:32:55.222Z</time></trkpt><trkpt lat="43.2604803" lon="12.1074081"><ele>545.0</ele><time>2026-04-19T08:32:56.223Z</time></trkpt><trkpt lat="43.2604191" lon="12.1074443"><ele>545.0</ele><time>2026-04-19T08:32:57.226Z</time></trkpt><trkpt lat="43.260371" lon="12.1075103"><ele>539.0</ele><time>2026-04-19T08:32:58.223Z</time></trkpt><trkpt lat="43.26034" lon="12.1076073"><ele>533.0</ele><time>2026-04-19T08:32:59.227Z</time></trkpt><trkpt lat="43.260314" lon="12.1077115"><ele>527.0</ele><time>2026-04-19T08:33:00.222Z</time></trkpt><trkpt lat="43.2602811" lon="12.1078098"><ele>521.0</ele><time>2026-04-19T08:33:01.225Z</time></trkpt><trkpt lat="43.2602429" lon="12.1078922"><ele>515.0</ele><time>2026-04-19T08:33:02.225Z</time></trkpt><trkpt lat="43.2602005" lon="12.1079607"><ele>509.0</ele><time>2026-04-19T08:33:03.226Z</time></trkpt><trkpt lat="43.2601582" lon="12.1081005"><ele>507.8333333333333</ele><time>2026-04-19T08:33:05.225Z</time></trkpt><trkpt lat="43.2601708" lon="12.1082716"><ele>506.66666666666663</ele><time>2026-04-19T08:33:07.227Z</time></trkpt><trkpt lat="43.260181" lon="12.1083665"><ele>505.5</ele><time>2026-04-19T08:33:08.225Z</time></trkpt><trkpt lat="43.2601873" lon="12.1084694"><ele>504.33333333333337</ele><time>2026-04-19T08:33:09.227Z</time></trkpt><trkpt lat="43.2601893" lon="12.1085753"><ele>503.1666666666667</ele><time>2026-04-19T08:33:10.227Z</time></trkpt><trkpt lat="43.2601915" lon="12.1086865"><ele>502.0</ele><time>2026-04-19T08:33:11.224Z</time></trkpt><trkpt lat="43.2601928" lon="12.108807"><ele>502.0</ele><time>2026-04-19T08:33:12.226Z</time></trkpt><trkpt lat="43.2601879" lon="12.10894"><ele>502.00000000000006</ele><time>2026-04-19T08:33:13.227Z</time></trkpt><trkpt lat="43.2601804" lon="12.109079"><ele>502.00000000000006</ele><time>2026-04-19T08:33:14.228Z</time></trkpt><trkpt lat="43.2601696" lon="12.1092142"><ele>502.0</ele><time>2026-04-19T08:33:15.227Z</time></trkpt><trkpt lat="43.2601551" lon="12.1093341"><ele>502.0</ele><time>2026-04-19T08:33:16.228Z</time></trkpt><trkpt lat="43.2601363" lon="12.109433"><ele>499.8</ele><time>2026-04-19T08:33:17.225Z</time></trkpt><trkpt lat="43.2600711" lon="12.1095646"><ele>497.6</ele><time>2026-04-19T08:33:19.23Z</time></trkpt><trkpt lat="43.2600013" lon="12.1096347"><ele>495.40000000000003</ele><time>2026-04-19T08:33:21.227Z</time></trkpt><trkpt lat="43.2600382" lon="12.1097125"><ele>493.20000000000005</ele><time>2026-04-19T08:33:23.237Z</time></trkpt><trkpt lat="43.2601398" lon="12.1097943"><ele>491.0</ele><time>2026-04-19T08:33:25.223Z</time></trkpt><trkpt lat="43.2601279" lon="12.1099001"><ele>488.49999999999994</ele><time>2026-04-19T08:33:27.245Z</time></trkpt><trkpt lat="43.2600025" lon="12.1099665"><ele>486.0</ele><time>2026-04-19T08:33:29.224Z</time></trkpt><trkpt lat="43.259934" lon="12.1099869"><ele>483.5</ele><time>2026-04-19T08:33:30.228Z</time></trkpt><trkpt lat="43.2598651" lon="12.110002"><ele>481.0</ele><time>2026-04-19T08:33:31.228Z</time></trkpt><trkpt lat="43.2597937" lon="12.1100098"><ele>478.49999999999994</ele><time>2026-04-19T08:33:32.221Z</time></trkpt><trkpt lat="43.2597218" lon="12.1100066"><ele>476.0</ele><time>2026-04-19T08:33:33.226Z</time></trkpt><trkpt lat="43.2596523" lon="12.1100017"><ele>475.99999999999994</ele><time>2026-04-19T08:33:34.23Z</time></trkpt><trkpt lat="43.2595592" lon="12.1100013"><ele>476.0</ele><time>2026-04-19T08:33:36.23Z</time></trkpt><trkpt lat="43.2596108" lon="12.1101016"><ele>476.0</ele><time>2026-04-19T08:33:39.233Z</time></trkpt><trkpt lat="43.25967" lon="12.110157"><ele>476.0</ele><time>2026-04-19T08:33:40.225Z</time></trkpt><trkpt lat="43.2597337" lon="12.1102143"><ele>475.99999999999994</ele><time>2026-04-19T08:33:41.224Z</time></trkpt><trkpt lat="43.2597989" lon="12.1102664"><ele>476.0</ele><time>2026-04-19T08:33:42.224Z</time></trkpt><trkpt lat="43.259866" lon="12.1103065"><ele>475.99999999999994</ele><time>2026-04-19T08:33:43.224Z</time></trkpt><trkpt lat="43.2599361" lon="12.110336"><ele>476.0</ele><time>2026-04-19T08:33:44.222Z</time></trkpt><trkpt lat="43.2600168" lon="12.1103604"><ele>476.0</ele><time>2026-04-19T08:33:45.222Z</time></trkpt><trkpt lat="43.2601061" lon="12.110386"><ele>476.0</ele><time>2026-04-19T08:33:46.221Z</time></trkpt><trkpt lat="43.2601933" lon="12.1104141"><ele>475.99999999999994</ele><time>2026-04-19T08:33:47.219Z</time></trkpt><trkpt lat="43.2602581" lon="12.1104479"><ele>476.0</ele><time>2026-04-19T08:33:48.226Z</time></trkpt><trkpt lat="43.2603118" lon="12.1105222"><ele>476.0</ele><time>2026-04-19T08:33:51.239Z</time></trkpt><trkpt lat="43.2603763" lon="12.110601"><ele>476.0</ele><time>2026-04-19T08:33:54.187Z</time></trkpt><trkpt lat="43.2604575" lon="12.1106308"><ele>476.0</ele><time>2026-04-19T08:33:57.189Z</time></trkpt><trkpt lat="43.2605328" lon="12.110661"><ele>476.0</ele><time>2026-04-19T08:33:59.232Z</time></trkpt><trkpt lat="43.2606107" lon="12.1107556"><ele>476.0</ele><time>2026-04-19T08:34:01.222Z</time></trkpt><trkpt lat="43.2606826" lon="12.1108645"><ele>472.4</ele><time>2026-04-19T08:34:03.218Z</time></trkpt><trkpt lat="43.2607133" lon="12.1109933"><ele>468.8</ele><time>2026-04-19T08:34:05.236Z</time></trkpt><trkpt lat="43.260683" lon="12.1111329"><ele>465.19999999999993</ele><time>2026-04-19T08:34:07.228Z</time></trkpt><trkpt lat="43.2606399" lon="12.1112873"><ele>461.59999999999997</ele><time>2026-04-19T08:34:09.224Z</time></trkpt><trkpt lat="43.2606126" lon="12.1113693"><ele>458.0</ele><time>2026-04-19T08:34:10.226Z</time></trkpt><trkpt lat="43.2605824" lon="12.1114544"><ele>458.0</ele><time>2026-04-19T08:34:11.223Z</time></trkpt><trkpt lat="43.2605446" lon="12.1115281"><ele>457.99999999999994</ele><time>2026-04-19T08:34:12.226Z</time></trkpt><trkpt lat="43.2604896" lon="12.1115893"><ele>457.99999999999994</ele><time>2026-04-19T08:34:13.222Z</time></trkpt><trkpt lat="43.260398" lon="12.1116827"><ele>458.0</ele><time>2026-04-19T08:34:15.222Z</time></trkpt><trkpt lat="43.2603364" lon="12.1117956"><ele>458.0</ele><time>2026-04-19T08:34:17.222Z</time></trkpt><trkpt lat="43.2602877" lon="12.1119194"><ele>454.79999999999995</ele><time>2026-04-19T08:34:19.228Z</time></trkpt><trkpt lat="43.2602465" lon="12.1120582"><ele>451.59999999999997</ele><time>2026-04-19T08:34:21.226Z</time></trkpt><trkpt lat="43.260203" lon="12.1122222"><ele>448.40000000000003</ele><time>2026-04-19T08:34:23.225Z</time></trkpt><trkpt lat="43.260176" lon="12.112307"><ele>445.20000000000005</ele><time>2026-04-19T08:34:24.224Z</time></trkpt><trkpt lat="43.260142" lon="12.1123803"><ele>442.0</ele><time>2026-04-19T08:34:25.225Z</time></trkpt><trkpt lat="43.2600685" lon="12.1125013"><ele>438.6</ele><time>2026-04-19T08:34:27.227Z</time></trkpt><trkpt lat="43.2599889" lon="12.1125948"><ele>435.20000000000005</ele><time>2026-04-19T08:34:29.224Z</time></trkpt><trkpt lat="43.2599207" lon="12.1126735"><ele>431.8</ele><time>2026-04-19T08:34:31.224Z</time></trkpt><trkpt lat="43.2598513" lon="12.1127473"><ele>428.4</ele><time>2026-04-19T08:34:33.24Z</time></trkpt><trkpt lat="43.2598001" lon="12.1128359"><ele>425.0</ele><time>2026-04-19T08:34:35.238Z</time></trkpt><trkpt lat="43.2598095" lon="12.1129532"><ele>425.0</ele><time>2026-04-19T08:34:38.241Z</time></trkpt><trkpt lat="43.2598804" lon="12.1130108"><ele>425.0</ele><time>2026-04-19T08:34:40.239Z</time></trkpt><trkpt lat="43.2599399" lon="12.1131129"><ele>425.0</ele><time>2026-04-19T08:34:42.233Z</time></trkpt><trkpt lat="43.259897" lon="12.1132208"><ele>425.0</ele><time>2026-04-19T08:34:43.234Z</time></trkpt><trkpt lat="43.2598631" lon="12.1133065"><ele>425.0</ele><time>2026-04-19T08:34:44.227Z</time></trkpt><trkpt lat="43.2598108" lon="12.1134431"><ele>419.4</ele><time>2026-04-19T08:34:46.221Z</time></trkpt><trkpt lat="43.259735" lon="12.1135172"><ele>413.8</ele><time>2026-04-19T08:34:48.238Z</time></trkpt><trkpt lat="43.2596925" lon="12.1135914"><ele>408.20000000000005</ele><time>2026-04-19T08:34:50.243Z</time></trkpt><trkpt lat="43.2596434" lon="12.1136975"><ele>402.6</ele><time>2026-04-19T08:34:52.241Z</time></trkpt><trkpt lat="43.2595598" lon="12.1137876"><ele>397.0</ele><time>2026-04-19T08:34:55.237Z</time></trkpt><trkpt lat="43.259486" lon="12.1138905"><ele>397.0</ele><time>2026-04-19T08:34:57.24Z</time></trkpt><trkpt lat="43.259451" lon="12.1139938"><ele>397.0</ele><time>2026-04-19T08:34:59.162Z</time></trkpt><trkpt lat="43.2593958" lon="12.1141057"><ele>397.0</ele><time>2026-04-19T08:35:01.225Z</time></trkpt><trkpt lat="43.2593861" lon="12.1142131"><ele>397.0</ele><time>2026-04-19T08:35:03.238Z</time></trkpt><trkpt lat="43.2594169" lon="12.1143438"><ele>397.0</ele><time>2026-04-19T08:35:05.238Z</time></trkpt><trkpt lat="43.2594554" lon="12.1144891"><ele>394.0</ele><time>2026-04-19T08:35:07.229Z</time></trkpt><trkpt lat="43.2594818" lon="12.1145845"><ele>391.0</ele><time>2026-04-19T08:35:09.238Z</time></trkpt><trkpt lat="43.259509" lon="12.1146892"><ele>388.0</ele><time>2026-04-19T08:35:11.231Z</time></trkpt><trkpt lat="43.2594653" lon="12.1147936"><ele>385.0</ele><time>2026-04-19T08:35:13.23Z</time></trkpt><trkpt lat="43.2592914" lon="12.1149059"><ele>382.0</ele><time>2026-04-19T08:35:16.223Z</time></trkpt><trkpt lat="43.2592322" lon="12.1149527"><ele>379.8333333333333</ele><time>2026-04-19T08:35:17.22Z</time></trkpt><trkpt lat="43.2591784" lon="12.115008"><ele>377.66666666666663</ele><time>2026-04-19T08:35:18.229Z</time></trkpt><trkpt lat="43.2591305" lon="12.1150687"><ele>375.5</ele><time>2026-04-19T08:35:19.22Z</time></trkpt><trkpt lat="43.2590923" lon="12.1151443"><ele>373.3333333333333</ele><time>2026-04-19T08:35:20.233Z</time></trkpt><trkpt lat="43.2590585" lon="12.1152222"><ele>371.1666666666667</ele><time>2026-04-19T08:35:21.225Z</time></trkpt><trkpt lat="43.2589971" lon="12.1153519"><ele>369.0</ele><time>2026-04-19T08:35:23.227Z</time></trkpt><trkpt lat="43.2590028" lon="12.1154619"><ele>369.0</ele><time>2026-04-19T08:35:26.236Z</time></trkpt><trkpt lat="43.2591287" lon="12.1154802"><ele>369.0</ele><time>2026-04-19T08:35:28.22Z</time></trkpt><trkpt lat="43.2592108" lon="12.1154693"><ele>369.0</ele><time>2026-04-19T08:35:29.228Z</time></trkpt><trkpt lat="43.2592916" lon="12.1154508"><ele>369.0</ele><time>2026-04-19T08:35:30.222Z</time></trkpt><trkpt lat="43.2593647" lon="12.11543"><ele>369.0</ele><time>2026-04-19T08:35:31.219Z</time></trkpt><trkpt lat="43.2594413" lon="12.115406"><ele>369.0</ele><time>2026-04-19T08:35:32.215Z</time></trkpt><trkpt lat="43.2595163" lon="12.1153725"><ele>369.0</ele><time>2026-04-19T08:35:33.217Z</time></trkpt><trkpt lat="43.259592" lon="12.1153333"><ele>369.0</ele><time>2026-04-19T08:35:34.218Z</time></trkpt><trkpt lat="43.2596626" lon="12.1152986"><ele>369.0</ele><time>2026-04-19T08:35:35.218Z</time></trkpt><trkpt lat="43.2597294" lon="12.1152747"><ele>369.0</ele><time>2026-04-19T08:35:36.218Z</time></trkpt><trkpt lat="43.2597931" lon="12.1152524"><ele>369.0</ele><time>2026-04-19T08:35:37.219Z</time></trkpt><trkpt lat="43.2598577" lon="12.1152351"><ele>369.0</ele><time>2026-04-19T08:35:38.219Z</time></trkpt><trkpt lat="43.2599252" lon="12.1152042"><ele>369.0</ele><time>2026-04-19T08:35:39.22Z</time></trkpt><trkpt lat="43.2599954" lon="12.1151561"><ele>367.6666666666667</ele><time>2026-04-19T08:35:40.217Z</time></trkpt><trkpt lat="43.2600598" lon="12.1151139"><ele>366.3333333333333</ele><time>2026-04-19T08:35:41.219Z</time></trkpt><trkpt lat="43.2601452" lon="12.1151749"><ele>365.0</ele><time>2026-04-19T08:35:43.219Z</time></trkpt><trkpt lat="43.2601419" lon="12.1152763"><ele>363.66666666666663</ele><time>2026-04-19T08:35:44.23Z</time></trkpt><trkpt lat="43.2601317" lon="12.1154007"><ele>362.3333333333333</ele><time>2026-04-19T08:35:45.225Z</time></trkpt><trkpt lat="43.2601236" lon="12.1155251"><ele>361.0</ele><time>2026-04-19T08:35:46.216Z</time></trkpt><trkpt lat="43.2601158" lon="12.1156399"><ele>358.5</ele><time>2026-04-19T08:35:47.218Z</time></trkpt><trkpt lat="43.2601084" lon="12.1157479"><ele>356.0</ele><time>2026-04-19T08:35:48.22Z</time></trkpt><trkpt lat="43.2601038" lon="12.115852"><ele>353.5</ele><time>2026-04-19T08:35:49.218Z</time></trkpt><trkpt lat="43.2600985" lon="12.1159602"><ele>351.0</ele><time>2026-04-19T08:35:50.22Z</time></trkpt><trkpt lat="43.2600927" lon="12.1160674"><ele>348.5</ele><time>2026-04-19T08:35:51.218Z</time></trkpt><trkpt lat="43.2600906" lon="12.1161727"><ele>346.0</ele><time>2026-04-19T08:35:52.221Z</time></trkpt><trkpt lat="43.2600904" lon="12.1162732"><ele>346.0</ele><time>2026-04-19T08:35:53.219Z</time></trkpt><trkpt lat="43.2600973" lon="12.1163731"><ele>346.0</ele><time>2026-04-19T08:35:54.227Z</time></trkpt><trkpt lat="43.2601051" lon="12.11646"><ele>346.0</ele><time>2026-04-19T08:35:55.216Z</time></trkpt><trkpt lat="43.260082" lon="12.1165988"><ele>346.0</ele><time>2026-04-19T08:35:57.218Z</time></trkpt><trkpt lat="43.2599701" lon="12.1166666"><ele>346.0</ele><time>2026-04-19T08:35:59.216Z</time></trkpt><trkpt lat="43.2599034" lon="12.1166858"><ele>346.0</ele><time>2026-04-19T08:36:00.214Z</time></trkpt><trkpt lat="43.2598004" lon="12.1167195"><ele>344.5</ele><time>2026-04-19T08:36:02.214Z</time></trkpt><trkpt lat="43.2597097" lon="12.1167914"><ele>343.0</ele><time>2026-04-19T08:36:04.221Z</time></trkpt><trkpt lat="43.2595988" lon="12.1168255"><ele>341.5</ele><time>2026-04-19T08:36:06.208Z</time></trkpt><trkpt lat="43.2594995" lon="12.1167827"><ele>340.0</ele><time>2026-04-19T08:36:08.212Z</time></trkpt><trkpt lat="43.2593471" lon="12.1167673"><ele>340.0</ele><time>2026-04-19T08:36:24.227Z</time></trkpt><trkpt lat="43.2592618" lon="12.1168032"><ele>340.0</ele><time>2026-04-19T08:36:25.215Z</time></trkpt><trkpt lat="43.2591783" lon="12.1168657"><ele>340.0</ele><time>2026-04-19T08:36:26.216Z</time></trkpt><trkpt lat="43.2590986" lon="12.1169386"><ele>340.0</ele><time>2026-04-19T08:36:27.221Z</time></trkpt><trkpt lat="43.2590287" lon="12.1170055"><ele>340.0</ele><time>2026-04-19T08:36:28.215Z</time></trkpt><trkpt lat="43.2589546" lon="12.117079"><ele>340.6</ele><time>2026-04-19T08:36:29.218Z</time></trkpt><trkpt lat="43.2588818" lon="12.1171591"><ele>341.2</ele><time>2026-04-19T08:36:30.22Z</time></trkpt><trkpt lat="43.2588125" lon="12.1172354"><ele>341.79999999999995</ele><time>2026-04-19T08:36:31.219Z</time></trkpt><trkpt lat="43.2587382" lon="12.1173119"><ele>342.4</ele><time>2026-04-19T08:36:32.225Z</time></trkpt><trkpt lat="43.2586619" lon="12.1173892"><ele>343.0</ele><time>2026-04-19T08:36:33.219Z</time></trkpt><trkpt lat="43.2585903" lon="12.1174691"><ele>341.3333333333333</ele><time>2026-04-19T08:36:34.214Z</time></trkpt><trkpt lat="43.2585151" lon="12.1175458"><ele>339.66666666666663</ele><time>2026-04-19T08:36:35.213Z</time></trkpt><trkpt lat="43.2584423" lon="12.1176142"><ele>338.0</ele><time>2026-04-19T08:36:36.216Z</time></trkpt><trkpt lat="43.2583726" lon="12.1176789"><ele>336.3333333333333</ele><time>2026-04-19T08:36:37.214Z</time></trkpt><trkpt lat="43.2583029" lon="12.1177506"><ele>334.6666666666667</ele><time>2026-04-19T08:36:38.213Z</time></trkpt><trkpt lat="43.258237" lon="12.1178277"><ele>333.0</ele><time>2026-04-19T08:36:39.219Z</time></trkpt><trkpt lat="43.258171" lon="12.1179173"><ele>333.4</ele><time>2026-04-19T08:36:40.217Z</time></trkpt><trkpt lat="43.2581053" lon="12.1180084"><ele>333.79999999999995</ele><time>2026-04-19T08:36:41.213Z</time></trkpt><trkpt lat="43.2580389" lon="12.1181093"><ele>334.2</ele><time>2026-04-19T08:36:42.215Z</time></trkpt><trkpt lat="43.2579759" lon="12.1182242"><ele>334.6</ele><time>2026-04-19T08:36:43.217Z</time></trkpt><trkpt lat="43.2579124" lon="12.1183568"><ele>335.0</ele><time>2026-04-19T08:36:44.217Z</time></trkpt><trkpt lat="43.257852" lon="12.1184909"><ele>334.0</ele><time>2026-04-19T08:36:45.22Z</time></trkpt><trkpt lat="43.2578003" lon="12.1186342"><ele>333.0</ele><time>2026-04-19T08:36:46.214Z</time></trkpt><trkpt lat="43.2577513" lon="12.1187744"><ele>332.0</ele><time>2026-04-19T08:36:47.211Z</time></trkpt><trkpt lat="43.2576996" lon="12.1189078"><ele>331.0</ele><time>2026-04-19T08:36:48.217Z</time></trkpt><trkpt lat="43.2576413" lon="12.1190375"><ele>330.75</ele><time>2026-04-19T08:36:49.218Z</time></trkpt><trkpt lat="43.2575766" lon="12.1191661"><ele>330.5</ele><time>2026-04-19T08:36:50.22Z</time></trkpt><trkpt lat="43.2575099" lon="12.1192984"><ele>330.25</ele><time>2026-04-19T08:36:51.217Z</time></trkpt><trkpt lat="43.2574387" lon="12.11944"><ele>330.0</ele><time>2026-04-19T08:36:52.219Z</time></trkpt><trkpt lat="43.2573672" lon="12.1195856"><ele>330.0</ele><time>2026-04-19T08:36:53.215Z</time></trkpt><trkpt lat="43.2573024" lon="12.1197355"><ele>330.0</ele><time>2026-04-19T08:36:54.22Z</time></trkpt><trkpt lat="43.2572517" lon="12.1198903"><ele>330.0</ele><time>2026-04-19T08:36:55.216Z</time></trkpt><trkpt lat="43.2572154" lon="12.1200511"><ele>330.0</ele><time>2026-04-19T08:36:56.219Z</time></trkpt><trkpt lat="43.2571891" lon="12.1202179"><ele>329.0</ele><time>2026-04-19T08:36:57.224Z</time></trkpt><trkpt lat="43.2571713" lon="12.1203767"><ele>328.0</ele><time>2026-04-19T08:36:58.214Z</time></trkpt><trkpt lat="43.2571624" lon="12.1205313"><ele>327.0</ele><time>2026-04-19T08:36:59.218Z</time></trkpt><trkpt lat="43.2571619" lon="12.1206762"><ele>326.0</ele><time>2026-04-19T08:37:00.216Z</time></trkpt><trkpt lat="43.257166" lon="12.1208189"><ele>325.0</ele><time>2026-04-19T08:37:01.217Z</time></trkpt><trkpt lat="43.2571678" lon="12.1209602"><ele>324.6</ele><time>2026-04-19T08:37:02.222Z</time></trkpt><trkpt lat="43.2571707" lon="12.1210968"><ele>324.2</ele><time>2026-04-19T08:37:03.224Z</time></trkpt><trkpt lat="43.2571686" lon="12.1212265"><ele>323.79999999999995</ele><time>2026-04-19T08:37:04.218Z</time></trkpt><trkpt lat="43.2571605" lon="12.1213613"><ele>323.4</ele><time>2026-04-19T08:37:05.221Z</time></trkpt><trkpt lat="43.2571417" lon="12.121497"><ele>323.0</ele><time>2026-04-19T08:37:06.221Z</time></trkpt><trkpt lat="43.2571106" lon="12.1216366"><ele>323.0</ele><time>2026-04-19T08:37:07.217Z</time></trkpt><trkpt lat="43.2570693" lon="12.1217771"><ele>323.0</ele><time>2026-04-19T08:37:08.22Z</time></trkpt><trkpt lat="43.2570159" lon="12.1219224"><ele>323.0</ele><time>2026-04-19T08:37:09.217Z</time></trkpt><trkpt lat="43.256953" lon="12.1220689"><ele>323.0</ele><time>2026-04-19T08:37:10.222Z</time></trkpt><trkpt lat="43.256885" lon="12.122216"><ele>323.0</ele><time>2026-04-19T08:37:11.214Z</time></trkpt><trkpt lat="43.2568189" lon="12.1223557"><ele>323.0</ele><time>2026-04-19T08:37:12.223Z</time></trkpt><trkpt lat="43.2567559" lon="12.122491"><ele>323.0</ele><time>2026-04-19T08:37:13.226Z</time></trkpt><trkpt lat="43.2566942" lon="12.1226315"><ele>323.0</ele><time>2026-04-19T08:37:14.225Z</time></trkpt><trkpt lat="43.2566277" lon="12.1227764"><ele>323.0</ele><time>2026-04-19T08:37:15.228Z</time></trkpt><trkpt lat="43.2565589" lon="12.1229261"><ele>323.0</ele><time>2026-04-19T08:37:16.227Z</time></trkpt><trkpt lat="43.2564883" lon="12.1230683"><ele>323.0</ele><time>2026-04-19T08:37:17.226Z</time></trkpt><trkpt lat="43.2564219" lon="12.1231986"><ele>323.0</ele><time>2026-04-19T08:37:18.23Z</time></trkpt><trkpt lat="43.2563638" lon="12.1233135"><ele>322.1666666666667</ele><time>2026-04-19T08:37:19.233Z</time></trkpt><trkpt lat="43.2563049" lon="12.1234175"><ele>321.33333333333337</ele><time>2026-04-19T08:37:20.23Z</time></trkpt><trkpt lat="43.2562479" lon="12.1235095"><ele>320.5</ele><time>2026-04-19T08:37:21.226Z</time></trkpt><trkpt lat="43.2561955" lon="12.1235859"><ele>319.6666666666667</ele><time>2026-04-19T08:37:22.228Z</time></trkpt><trkpt lat="43.2561495" lon="12.1236473"><ele>318.8333333333333</ele><time>2026-04-19T08:37:23.241Z</time></trkpt><trkpt lat="43.2560679" lon="12.1237236"><ele>318.0</ele><time>2026-04-19T08:37:25.226Z</time></trkpt><trkpt lat="43.2560034" lon="12.1236949"><ele>318.0</ele><time>2026-04-19T08:37:32.247Z</time></trkpt><trkpt lat="43.2558801" lon="12.1237066"><ele>318.0</ele><time>2026-04-19T08:37:35.248Z</time></trkpt><trkpt lat="43.2557758" lon="12.1237521"><ele>318.0</ele><time>2026-04-19T08:37:37.234Z</time></trkpt><trkpt lat="43.2556764" lon="12.1238349"><ele>318.0</ele><time>2026-04-19T08:37:39.234Z</time></trkpt><trkpt lat="43.2556212" lon="12.1238835"><ele>318.0</ele><time>2026-04-19T08:37:40.239Z</time></trkpt><trkpt lat="43.2555684" lon="12.123941"><ele>318.1428571428571</ele><time>2026-04-19T08:37:41.239Z</time></trkpt><trkpt lat="43.2555218" lon="12.1240026"><ele>318.28571428571433</ele><time>2026-04-19T08:37:42.233Z</time></trkpt><trkpt lat="43.255476" lon="12.1240675"><ele>318.42857142857144</ele><time>2026-04-19T08:37:43.237Z</time></trkpt><trkpt lat="43.2554318" lon="12.1241375"><ele>318.57142857142856</ele><time>2026-04-19T08:37:44.234Z</time></trkpt><trkpt lat="43.2553886" lon="12.1242084"><ele>318.71428571428567</ele><time>2026-04-19T08:37:45.235Z</time></trkpt><trkpt lat="43.2553512" lon="12.1242839"><ele>318.8571428571429</ele><time>2026-04-19T08:37:46.235Z</time></trkpt><trkpt lat="43.255319" lon="12.1243649"><ele>319.0</ele><time>2026-04-19T08:37:47.238Z</time></trkpt><trkpt lat="43.255291" lon="12.1244471"><ele>319.0</ele><time>2026-04-19T08:37:48.24Z</time></trkpt><trkpt lat="43.255263" lon="12.1245329"><ele>319.0</ele><time>2026-04-19T08:37:49.244Z</time></trkpt><trkpt lat="43.2552324" lon="12.1246199"><ele>319.0</ele><time>2026-04-19T08:37:50.241Z</time></trkpt><trkpt lat="43.2552055" lon="12.1247087"><ele>319.0</ele><time>2026-04-19T08:37:51.241Z</time></trkpt><trkpt lat="43.2551769" lon="12.1248039"><ele>319.0</ele><time>2026-04-19T08:37:52.249Z</time></trkpt><trkpt lat="43.2551491" lon="12.1248993"><ele>319.0</ele><time>2026-04-19T08:37:53.24Z</time></trkpt><trkpt lat="43.2551201" lon="12.1250016"><ele>319.0</ele><time>2026-04-19T08:37:54.241Z</time></trkpt><trkpt lat="43.2550932" lon="12.125104"><ele>318.42857142857144</ele><time>2026-04-19T08:37:55.239Z</time></trkpt><trkpt lat="43.2550674" lon="12.1252058"><ele>317.85714285714283</ele><time>2026-04-19T08:37:56.243Z</time></trkpt><trkpt lat="43.2550454" lon="12.1253026"><ele>317.2857142857143</ele><time>2026-04-19T08:37:57.237Z</time></trkpt><trkpt lat="43.2550204" lon="12.1253982"><ele>316.7142857142857</ele><time>2026-04-19T08:37:58.238Z</time></trkpt><trkpt lat="43.2549953" lon="12.1254857"><ele>316.1428571428571</ele><time>2026-04-19T08:37:59.24Z</time></trkpt><trkpt lat="43.2549688" lon="12.1255739"><ele>315.57142857142856</ele><time>2026-04-19T08:38:00.241Z</time></trkpt><trkpt lat="43.2549372" lon="12.1256725"><ele>315.0</ele><time>2026-04-19T08:38:01.238Z</time></trkpt><trkpt lat="43.2548987" lon="12.1257777"><ele>314.1666666666667</ele><time>2026-04-19T08:38:02.24Z</time></trkpt><trkpt lat="43.2548578" lon="12.1258836"><ele>313.3333333333333</ele><time>2026-04-19T08:38:03.238Z</time></trkpt><trkpt lat="43.2548174" lon="12.1259889"><ele>312.5</ele><time>2026-04-19T08:38:04.238Z</time></trkpt><trkpt lat="43.2547795" lon="12.1260948"><ele>311.66666666666663</ele><time>2026-04-19T08:38:05.239Z</time></trkpt><trkpt lat="43.2547441" lon="12.1261983"><ele>310.8333333333333</ele><time>2026-04-19T08:38:06.244Z</time></trkpt><trkpt lat="43.2547111" lon="12.126301"><ele>310.0</ele><time>2026-04-19T08:38:07.241Z</time></trkpt><trkpt lat="43.2546795" lon="12.1263986"><ele>311.6</ele><time>2026-04-19T08:38:08.237Z</time></trkpt><trkpt lat="43.2546447" lon="12.1265009"><ele>313.2</ele><time>2026-04-19T08:38:09.242Z</time></trkpt><trkpt lat="43.2546059" lon="12.1266169"><ele>314.8</ele><time>2026-04-19T08:38:10.241Z</time></trkpt><trkpt lat="43.2545641" lon="12.1267401"><ele>316.4</ele><time>2026-04-19T08:38:11.242Z</time></trkpt><trkpt lat="43.2545204" lon="12.1268651"><ele>318.0</ele><time>2026-04-19T08:38:12.244Z</time></trkpt><trkpt lat="43.2544818" lon="12.126977"><ele>318.0</ele><time>2026-04-19T08:38:13.242Z</time></trkpt><trkpt lat="43.2544439" lon="12.127081"><ele>318.0</ele><time>2026-04-19T08:38:14.239Z</time></trkpt><trkpt lat="43.2544154" lon="12.1271733"><ele>318.0</ele><time>2026-04-19T08:38:15.239Z</time></trkpt><trkpt lat="43.2543941" lon="12.1272606"><ele>318.0</ele><time>2026-04-19T08:38:16.242Z</time></trkpt><trkpt lat="43.2543708" lon="12.1273415"><ele>318.0</ele><time>2026-04-19T08:38:17.238Z</time></trkpt><trkpt lat="43.2543468" lon="12.1274243"><ele>318.0</ele><time>2026-04-19T08:38:18.237Z</time></trkpt><trkpt lat="43.2543139" lon="12.1275141"><ele>318.0</ele><time>2026-04-19T08:38:19.241Z</time></trkpt><trkpt lat="43.2542818" lon="12.1276095"><ele>317.6666666666667</ele><time>2026-04-19T08:38:20.24Z</time></trkpt><trkpt lat="43.2542565" lon="12.1277044"><ele>317.3333333333333</ele><time>2026-04-19T08:38:21.239Z</time></trkpt><trkpt lat="43.254237" lon="12.1278036"><ele>317.0</ele><time>2026-04-19T08:38:22.237Z</time></trkpt><trkpt lat="43.2542223" lon="12.1279159"><ele>316.66666666666663</ele><time>2026-04-19T08:38:23.239Z</time></trkpt><trkpt lat="43.2542136" lon="12.1280339"><ele>316.3333333333333</ele><time>2026-04-19T08:38:24.236Z</time></trkpt><trkpt lat="43.2542205" lon="12.1281515"><ele>316.0</ele><time>2026-04-19T08:38:25.238Z</time></trkpt><trkpt lat="43.2542326" lon="12.1282673"><ele>316.0</ele><time>2026-04-19T08:38:26.235Z</time></trkpt><trkpt lat="43.2542475" lon="12.1283848"><ele>316.0</ele><time>2026-04-19T08:38:27.233Z</time></trkpt><trkpt lat="43.2542618" lon="12.1285"><ele>316.0</ele><time>2026-04-19T08:38:28.227Z</time></trkpt><trkpt lat="43.2542751" lon="12.1286055"><ele>316.0</ele><time>2026-04-19T08:38:29.23Z</time></trkpt><trkpt lat="43.2542893" lon="12.1287005"><ele>316.0</ele><time>2026-04-19T08:38:30.233Z</time></trkpt><trkpt lat="43.2542989" lon="12.128796"><ele>316.0</ele><time>2026-04-19T08:38:31.228Z</time></trkpt><trkpt lat="43.2543052" lon="12.1289036"><ele>316.0</ele><time>2026-04-19T08:38:32.234Z</time></trkpt><trkpt lat="43.254315" lon="12.1290233"><ele>316.0</ele><time>2026-04-19T08:38:33.232Z</time></trkpt><trkpt lat="43.2543262" lon="12.1291525"><ele>316.0</ele><time>2026-04-19T08:38:34.232Z</time></trkpt><trkpt lat="43.2543346" lon="12.1292733"><ele>316.0</ele><time>2026-04-19T08:38:35.226Z</time></trkpt><trkpt lat="43.2543416" lon="12.1293789"><ele>316.0</ele><time>2026-04-19T08:38:36.228Z</time></trkpt><trkpt lat="43.2543444" lon="12.1294779"><ele>316.0</ele><time>2026-04-19T08:38:37.224Z</time></trkpt><trkpt lat="43.2543377" lon="12.1295801"><ele>315.66666666666663</ele><time>2026-04-19T08:38:38.228Z</time></trkpt><trkpt lat="43.2543306" lon="12.1296852"><ele>315.3333333333333</ele><time>2026-04-19T08:38:39.226Z</time></trkpt><trkpt lat="43.2543168" lon="12.1297917"><ele>315.0</ele><time>2026-04-19T08:38:40.232Z</time></trkpt><trkpt lat="43.2542983" lon="12.1298976"><ele>314.6666666666667</ele><time>2026-04-19T08:38:41.229Z</time></trkpt><trkpt lat="43.2542769" lon="12.1299933"><ele>314.33333333333337</ele><time>2026-04-19T08:38:42.225Z</time></trkpt><trkpt lat="43.2542385" lon="12.1301409"><ele>314.0</ele><time>2026-04-19T08:38:44.225Z</time></trkpt><trkpt lat="43.2542046" lon="12.1302692"><ele>313.33333333333337</ele><time>2026-04-19T08:38:46.225Z</time></trkpt><trkpt lat="43.2541801" lon="12.130363"><ele>312.6666666666667</ele><time>2026-04-19T08:38:47.223Z</time></trkpt><trkpt lat="43.2541585" lon="12.1304713"><ele>312.0</ele><time>2026-04-19T08:38:48.229Z</time></trkpt><trkpt lat="43.2541362" lon="12.1305831"><ele>311.3333333333333</ele><time>2026-04-19T08:38:49.23Z</time></trkpt><trkpt lat="43.2541143" lon="12.1306915"><ele>310.66666666666663</ele><time>2026-04-19T08:38:50.229Z</time></trkpt><trkpt lat="43.254098" lon="12.1308036"><ele>310.0</ele><time>2026-04-19T08:38:51.23Z</time></trkpt><trkpt lat="43.2540747" lon="12.1309244"><ele>309.8</ele><time>2026-04-19T08:38:52.226Z</time></trkpt><trkpt lat="43.2540506" lon="12.1310454"><ele>309.6</ele><time>2026-04-19T08:38:53.233Z</time></trkpt><trkpt lat="43.2540213" lon="12.1311696"><ele>309.4</ele><time>2026-04-19T08:38:54.229Z</time></trkpt><trkpt lat="43.2539887" lon="12.1312911"><ele>309.2</ele><time>2026-04-19T08:38:55.228Z</time></trkpt><trkpt lat="43.253956" lon="12.1314067"><ele>309.0</ele><time>2026-04-19T08:38:56.233Z</time></trkpt><trkpt lat="43.2539243" lon="12.1315219"><ele>308.6666666666667</ele><time>2026-04-19T08:38:57.227Z</time></trkpt><trkpt lat="43.2538969" lon="12.1316306"><ele>308.3333333333333</ele><time>2026-04-19T08:38:58.232Z</time></trkpt><trkpt lat="43.2538717" lon="12.1317294"><ele>308.0</ele><time>2026-04-19T08:38:59.232Z</time></trkpt><trkpt lat="43.2538439" lon="12.1318215"><ele>307.66666666666663</ele><time>2026-04-19T08:39:00.232Z</time></trkpt><trkpt lat="43.2538157" lon="12.1319143"><ele>307.3333333333333</ele><time>2026-04-19T08:39:01.228Z</time></trkpt><trkpt lat="43.2537896" lon="12.1320183"><ele>307.0</ele><time>2026-04-19T08:39:02.226Z</time></trkpt><trkpt lat="43.2537649" lon="12.1321285"><ele>307.0</ele><time>2026-04-19T08:39:03.227Z</time></trkpt><trkpt lat="43.253737" lon="12.1322507"><ele>307.0</ele><time>2026-04-19T08:39:04.228Z</time></trkpt><trkpt lat="43.2537074" lon="12.1323725"><ele>307.0</ele><time>2026-04-19T08:39:05.227Z</time></trkpt><trkpt lat="43.2536777" lon="12.1324925"><ele>307.0</ele><time>2026-04-19T08:39:06.231Z</time></trkpt><trkpt lat="43.2536522" lon="12.1326038"><ele>307.0</ele><time>2026-04-19T08:39:07.224Z</time></trkpt><trkpt lat="43.2536289" lon="12.132713"><ele>307.0</ele><time>2026-04-19T08:39:08.225Z</time></trkpt><trkpt lat="43.2536074" lon="12.1328181"><ele>306.3333333333333</ele><time>2026-04-19T08:39:09.225Z</time></trkpt><trkpt lat="43.2535892" lon="12.1329194"><ele>305.66666666666663</ele><time>2026-04-19T08:39:10.226Z</time></trkpt><trkpt lat="43.253578" lon="12.1330171"><ele>305.0</ele><time>2026-04-19T08:39:11.229Z</time></trkpt><trkpt lat="43.2535761" lon="12.1331156"><ele>304.3333333333333</ele><time>2026-04-19T08:39:12.227Z</time></trkpt><trkpt lat="43.2535772" lon="12.1332091"><ele>303.6666666666667</ele><time>2026-04-19T08:39:13.231Z</time></trkpt><trkpt lat="43.2535781" lon="12.1333176"><ele>303.0</ele><time>2026-04-19T08:39:14.226Z</time></trkpt><trkpt lat="43.2535753" lon="12.1334496"><ele>303.0</ele><time>2026-04-19T08:39:15.225Z</time></trkpt><trkpt lat="43.2535739" lon="12.1335896"><ele>303.0</ele><time>2026-04-19T08:39:16.233Z</time></trkpt><trkpt lat="43.2535704" lon="12.1337209"><ele>303.0</ele><time>2026-04-19T08:39:17.233Z</time></trkpt><trkpt lat="43.2535676" lon="12.1338237"><ele>303.0</ele><time>2026-04-19T08:39:18.233Z</time></trkpt><trkpt lat="43.2535575" lon="12.1339428"><ele>303.0</ele><time>2026-04-19T08:39:20.231Z</time></trkpt><trkpt lat="43.2535676" lon="12.1340886"><ele>303.0</ele><time>2026-04-19T08:39:24.245Z</time></trkpt><trkpt lat="43.2535675" lon="12.1342183"><ele>303.0</ele><time>2026-04-19T08:39:26.233Z</time></trkpt><trkpt lat="43.2535521" lon="12.1343799"><ele>303.0</ele><time>2026-04-19T08:39:29.245Z</time></trkpt><trkpt lat="43.2535219" lon="12.1345295"><ele>303.0</ele><time>2026-04-19T08:39:31.235Z</time></trkpt><trkpt lat="43.2535098" lon="12.134619"><ele>303.0</ele><time>2026-04-19T08:39:32.237Z</time></trkpt><trkpt lat="43.2535074" lon="12.1347146"><ele>303.0</ele><time>2026-04-19T08:39:33.234Z</time></trkpt><trkpt lat="43.253509" lon="12.1348129"><ele>303.0</ele><time>2026-04-19T08:39:34.233Z</time></trkpt><trkpt lat="43.2535154" lon="12.1349151"><ele>303.0</ele><time>2026-04-19T08:39:35.231Z</time></trkpt><trkpt lat="43.2535184" lon="12.1350088"><ele>303.0</ele><time>2026-04-19T08:39:36.233Z</time></trkpt><trkpt lat="43.2535199" lon="12.1350999"><ele>303.0</ele><time>2026-04-19T08:39:37.231Z</time></trkpt><trkpt lat="43.253524" lon="12.1351896"><ele>303.0</ele><time>2026-04-19T08:39:38.233Z</time></trkpt><trkpt lat="43.253526" lon="12.1352826"><ele>303.0</ele><time>2026-04-19T08:39:39.233Z</time></trkpt><trkpt lat="43.2535274" lon="12.1353724"><ele>302.8571428571429</ele><time>2026-04-19T08:39:40.232Z</time></trkpt><trkpt lat="43.2535278" lon="12.1354708"><ele>302.7142857142857</ele><time>2026-04-19T08:39:41.228Z</time></trkpt><trkpt lat="43.2535268" lon="12.1355721"><ele>302.57142857142856</ele><time>2026-04-19T08:39:42.231Z</time></trkpt><trkpt lat="43.253526" lon="12.135671"><ele>302.42857142857144</ele><time>2026-04-19T08:39:43.231Z</time></trkpt><trkpt lat="43.253527" lon="12.1357721"><ele>302.2857142857143</ele><time>2026-04-19T08:39:44.233Z</time></trkpt><trkpt lat="43.2535256" lon="12.1358731"><ele>302.14285714285717</ele><time>2026-04-19T08:39:45.233Z</time></trkpt><trkpt lat="43.2535226" lon="12.1359706"><ele>302.0</ele><time>2026-04-19T08:39:46.232Z</time></trkpt><trkpt lat="43.25352" lon="12.1360645"><ele>302.0</ele><time>2026-04-19T08:39:47.233Z</time></trkpt><trkpt lat="43.2535146" lon="12.1361586"><ele>302.0</ele><time>2026-04-19T08:39:48.235Z</time></trkpt><trkpt lat="43.2535093" lon="12.1362503"><ele>302.0</ele><time>2026-04-19T08:39:49.233Z</time></trkpt><trkpt lat="43.253508" lon="12.136339"><ele>302.0</ele><time>2026-04-19T08:39:50.237Z</time></trkpt><trkpt lat="43.253513" lon="12.1365069"><ele>302.0</ele><time>2026-04-19T08:39:52.232Z</time></trkpt><trkpt lat="43.2535136" lon="12.1365952"><ele>302.0</ele><time>2026-04-19T08:39:53.233Z</time></trkpt><trkpt lat="43.2535125" lon="12.1366841"><ele>302.0</ele><time>2026-04-19T08:39:54.232Z</time></trkpt><trkpt lat="43.25351" lon="12.1368476"><ele>302.0</ele><time>2026-04-19T08:39:56.229Z</time></trkpt><trkpt lat="43.253503" lon="12.1369656"><ele>302.0</ele><time>2026-04-19T08:39:58.231Z</time></trkpt><trkpt lat="43.2534863" lon="12.1370862"><ele>302.0</ele><time>2026-04-19T08:40:00.23Z</time></trkpt><trkpt lat="43.2534815" lon="12.1371731"><ele>302.0</ele><time>2026-04-19T08:40:01.229Z</time></trkpt><trkpt lat="43.253478" lon="12.1372716"><ele>302.0</ele><time>2026-04-19T08:40:02.232Z</time></trkpt><trkpt lat="43.2534799" lon="12.1373631"><ele>302.0</ele><time>2026-04-19T08:40:03.23Z</time></trkpt><trkpt lat="43.2534827" lon="12.1374522"><ele>302.0</ele><time>2026-04-19T08:40:04.227Z</time></trkpt><trkpt lat="43.2534821" lon="12.1376106"><ele>302.0</ele><time>2026-04-19T08:40:06.226Z</time></trkpt><trkpt lat="43.2534786" lon="12.1377185"><ele>302.0</ele><time>2026-04-19T08:40:08.227Z</time></trkpt><trkpt lat="43.253508" lon="12.1379101"><ele>302.0</ele><time>2026-04-19T08:40:11.23Z</time></trkpt><trkpt lat="43.2535285" lon="12.1380057"><ele>302.00000000000006</ele><time>2026-04-19T08:40:12.229Z</time></trkpt><trkpt lat="43.2535518" lon="12.1381024"><ele>302.0</ele><time>2026-04-19T08:40:13.228Z</time></trkpt><trkpt lat="43.253581" lon="12.1381988"><ele>302.0</ele><time>2026-04-19T08:40:14.232Z</time></trkpt><trkpt lat="43.2536063" lon="12.1382918"><ele>302.0</ele><time>2026-04-19T08:40:15.232Z</time></trkpt><trkpt lat="43.2536261" lon="12.1383787"><ele>302.0</ele><time>2026-04-19T08:40:16.233Z</time></trkpt><trkpt lat="43.2536399" lon="12.1384654"><ele>302.00000000000006</ele><time>2026-04-19T08:40:17.232Z</time></trkpt><trkpt lat="43.2536499" lon="12.1385586"><ele>302.0</ele><time>2026-04-19T08:40:18.235Z</time></trkpt><trkpt lat="43.2536583" lon="12.138659"><ele>302.0</ele><time>2026-04-19T08:40:19.232Z</time></trkpt><trkpt lat="43.2536685" lon="12.1387632"><ele>302.0</ele><time>2026-04-19T08:40:20.23Z</time></trkpt><trkpt lat="43.2536787" lon="12.138865"><ele>302.0</ele><time>2026-04-19T08:40:21.23Z</time></trkpt><trkpt lat="43.2536881" lon="12.1389562"><ele>302.0</ele><time>2026-04-19T08:40:22.23Z</time></trkpt><trkpt lat="43.2536986" lon="12.1391055"><ele>302.0</ele><time>2026-04-19T08:40:24.232Z</time></trkpt><trkpt lat="43.2537023" lon="12.1392318"><ele>302.0</ele><time>2026-04-19T08:40:26.226Z</time></trkpt><trkpt lat="43.2536962" lon="12.139332"><ele>302.0</ele><time>2026-04-19T08:40:28.239Z</time></trkpt><trkpt lat="43.253605" lon="12.1393486"><ele>302.0</ele><time>2026-04-19T08:40:31.237Z</time></trkpt><trkpt lat="43.2534669" lon="12.1393223"><ele>302.0</ele><time>2026-04-19T08:40:33.226Z</time></trkpt><trkpt lat="43.2533741" lon="12.139304"><ele>302.0</ele><time>2026-04-19T08:40:34.23Z</time></trkpt><trkpt lat="43.2532737" lon="12.1392855"><ele>302.0</ele><time>2026-04-19T08:40:35.232Z</time></trkpt><trkpt lat="43.2531658" lon="12.1392709"><ele>301.6666666666667</ele><time>2026-04-19T08:40:36.234Z</time></trkpt><trkpt lat="43.2530692" lon="12.1392592"><ele>301.33333333333337</ele><time>2026-04-19T08:40:37.23Z</time></trkpt><trkpt lat="43.2529858" lon="12.1392506"><ele>301.0</ele><time>2026-04-19T08:40:38.23Z</time></trkpt><trkpt lat="43.2529155" lon="12.1392437"><ele>300.6666666666667</ele><time>2026-04-19T08:40:39.229Z</time></trkpt><trkpt lat="43.252811" lon="12.1392485"><ele>300.3333333333333</ele><time>2026-04-19T08:40:41.226Z</time></trkpt><trkpt lat="43.2527793" lon="12.1393368"><ele>300.0</ele><time>2026-04-19T08:40:44.238Z</time></trkpt><trkpt lat="43.2528276" lon="12.1394816"><ele>300.0</ele><time>2026-04-19T08:40:46.238Z</time></trkpt><trkpt lat="43.2528355" lon="12.1395919"><ele>300.0</ele><time>2026-04-19T08:40:47.227Z</time></trkpt><trkpt lat="43.2528321" lon="12.139713"><ele>300.0</ele><time>2026-04-19T08:40:48.231Z</time></trkpt><trkpt lat="43.2528234" lon="12.139849"><ele>300.0</ele><time>2026-04-19T08:40:49.226Z</time></trkpt><trkpt lat="43.2528126" lon="12.1399967"><ele>300.0</ele><time>2026-04-19T08:40:50.227Z</time></trkpt><trkpt lat="43.2528023" lon="12.1401449"><ele>300.0</ele><time>2026-04-19T08:40:51.227Z</time></trkpt><trkpt lat="43.2527914" lon="12.1402924"><ele>300.0</ele><time>2026-04-19T08:40:52.227Z</time></trkpt><trkpt lat="43.2527821" lon="12.1404358"><ele>300.0</ele><time>2026-04-19T08:40:53.225Z</time></trkpt><trkpt lat="43.2527749" lon="12.1405755"><ele>300.0</ele><time>2026-04-19T08:40:54.224Z</time></trkpt><trkpt lat="43.2527733" lon="12.1407124"><ele>300.0</ele><time>2026-04-19T08:40:55.225Z</time></trkpt><trkpt lat="43.2527712" lon="12.1408477"><ele>300.0</ele><time>2026-04-19T08:40:56.226Z</time></trkpt><trkpt lat="43.2527767" lon="12.1409748"><ele>300.0</ele><time>2026-04-19T08:40:57.229Z</time></trkpt><trkpt lat="43.2527889" lon="12.1410982"><ele>300.0</ele><time>2026-04-19T08:40:58.228Z</time></trkpt><trkpt lat="43.2528038" lon="12.1412276"><ele>300.0</ele><time>2026-04-19T08:40:59.23Z</time></trkpt><trkpt lat="43.2528192" lon="12.1413728"><ele>300.0</ele><time>2026-04-19T08:41:00.232Z</time></trkpt><trkpt lat="43.2528387" lon="12.1415281"><ele>299.6</ele><time>2026-04-19T08:41:01.228Z</time></trkpt><trkpt lat="43.2528606" lon="12.1416707"><ele>299.2</ele><time>2026-04-19T08:41:02.235Z</time></trkpt><trkpt lat="43.2528813" lon="12.1418068"><ele>298.8</ele><time>2026-04-19T08:41:03.231Z</time></trkpt><trkpt lat="43.2528936" lon="12.1419318"><ele>298.4</ele><time>2026-04-19T08:41:04.231Z</time></trkpt><trkpt lat="43.2529044" lon="12.1420499"><ele>298.0</ele><time>2026-04-19T08:41:05.231Z</time></trkpt><trkpt lat="43.2529123" lon="12.1421638"><ele>298.0</ele><time>2026-04-19T08:41:06.232Z</time></trkpt><trkpt lat="43.2529152" lon="12.1422692"><ele>298.0</ele><time>2026-04-19T08:41:07.233Z</time></trkpt><trkpt lat="43.2529075" lon="12.1423687"><ele>298.0</ele><time>2026-04-19T08:41:08.231Z</time></trkpt><trkpt lat="43.2528827" lon="12.1424622"><ele>298.0</ele><time>2026-04-19T08:41:09.227Z</time></trkpt><trkpt lat="43.2528471" lon="12.1425533"><ele>298.0</ele><time>2026-04-19T08:41:10.227Z</time></trkpt><trkpt lat="43.25281" lon="12.1426388"><ele>298.0</ele><time>2026-04-19T08:41:11.229Z</time></trkpt><trkpt lat="43.2527744" lon="12.142732"><ele>298.0</ele><time>2026-04-19T08:41:12.227Z</time></trkpt><trkpt lat="43.2527421" lon="12.1428449"><ele>297.8</ele><time>2026-04-19T08:41:13.224Z</time></trkpt><trkpt lat="43.2527138" lon="12.1429715"><ele>297.6</ele><time>2026-04-19T08:41:14.228Z</time></trkpt><trkpt lat="43.2526932" lon="12.1431002"><ele>297.4</ele><time>2026-04-19T08:41:15.227Z</time></trkpt><trkpt lat="43.2526778" lon="12.1432249"><ele>297.2</ele><time>2026-04-19T08:41:16.227Z</time></trkpt><trkpt lat="43.2526653" lon="12.1433475"><ele>297.0</ele><time>2026-04-19T08:41:17.231Z</time></trkpt><trkpt lat="43.2526548" lon="12.1434704"><ele>296.6</ele><time>2026-04-19T08:41:18.233Z</time></trkpt><trkpt lat="43.2526416" lon="12.1435935"><ele>296.2</ele><time>2026-04-19T08:41:19.236Z</time></trkpt><trkpt lat="43.2526223" lon="12.14372"><ele>295.8</ele><time>2026-04-19T08:41:20.233Z</time></trkpt><trkpt lat="43.2525963" lon="12.1438532"><ele>295.4</ele><time>2026-04-19T08:41:21.229Z</time></trkpt><trkpt lat="43.2525685" lon="12.143987"><ele>295.0</ele><time>2026-04-19T08:41:22.232Z</time></trkpt><trkpt lat="43.2525402" lon="12.1441141"><ele>295.0</ele><time>2026-04-19T08:41:23.231Z</time></trkpt><trkpt lat="43.2525096" lon="12.1442377"><ele>295.0</ele><time>2026-04-19T08:41:24.231Z</time></trkpt><trkpt lat="43.2524787" lon="12.1443554"><ele>295.0</ele><time>2026-04-19T08:41:25.23Z</time></trkpt><trkpt lat="43.2524449" lon="12.1444708"><ele>295.0</ele><time>2026-04-19T08:41:26.229Z</time></trkpt><trkpt lat="43.2524075" lon="12.1445881"><ele>295.0</ele><time>2026-04-19T08:41:27.232Z</time></trkpt><trkpt lat="43.2523674" lon="12.1447091"><ele>295.0</ele><time>2026-04-19T08:41:28.23Z</time></trkpt><trkpt lat="43.2523283" lon="12.1448312"><ele>295.0</ele><time>2026-04-19T08:41:29.231Z</time></trkpt><trkpt lat="43.2522886" lon="12.1449512"><ele>295.0</ele><time>2026-04-19T08:41:30.232Z</time></trkpt><trkpt lat="43.2522521" lon="12.1450762"><ele>295.0</ele><time>2026-04-19T08:41:31.226Z</time></trkpt><trkpt lat="43.2522144" lon="12.1452111"><ele>295.0</ele><time>2026-04-19T08:41:32.232Z</time></trkpt><trkpt lat="43.2521742" lon="12.1453453"><ele>294.8</ele><time>2026-04-19T08:41:33.229Z</time></trkpt><trkpt lat="43.2521328" lon="12.1454747"><ele>294.6</ele><time>2026-04-19T08:41:34.229Z</time></trkpt><trkpt lat="43.2520955" lon="12.1455966"><ele>294.4</ele><time>2026-04-19T08:41:35.227Z</time></trkpt><trkpt lat="43.2520611" lon="12.1457203"><ele>294.2</ele><time>2026-04-19T08:41:36.23Z</time></trkpt><trkpt lat="43.2520307" lon="12.1458407"><ele>294.0</ele><time>2026-04-19T08:41:37.233Z</time></trkpt><trkpt lat="43.2519974" lon="12.1459571"><ele>294.0</ele><time>2026-04-19T08:41:38.233Z</time></trkpt><trkpt lat="43.251961" lon="12.1460668"><ele>294.0</ele><time>2026-04-19T08:41:39.23Z</time></trkpt><trkpt lat="43.2519247" lon="12.1461745"><ele>294.0</ele><time>2026-04-19T08:41:40.229Z</time></trkpt><trkpt lat="43.2518924" lon="12.1462799"><ele>294.0</ele><time>2026-04-19T08:41:41.227Z</time></trkpt><trkpt lat="43.251862" lon="12.1463838"><ele>294.0</ele><time>2026-04-19T08:41:42.231Z</time></trkpt><trkpt lat="43.2518344" lon="12.1464897"><ele>294.0</ele><time>2026-04-19T08:41:43.229Z</time></trkpt><trkpt lat="43.2518073" lon="12.1465949"><ele>294.1666666666667</ele><time>2026-04-19T08:41:44.228Z</time></trkpt><trkpt lat="43.2517796" lon="12.1466957"><ele>294.3333333333333</ele><time>2026-04-19T08:41:45.228Z</time></trkpt><trkpt lat="43.251755" lon="12.1467869"><ele>294.5</ele><time>2026-04-19T08:41:46.226Z</time></trkpt><trkpt lat="43.2517191" lon="12.1469246"><ele>294.66666666666663</ele><time>2026-04-19T08:41:48.223Z</time></trkpt><trkpt lat="43.2517759" lon="12.1470321"><ele>294.8333333333333</ele><time>2026-04-19T08:41:52.238Z</time></trkpt><trkpt lat="43.2518381" lon="12.1470646"><ele>295.0</ele><time>2026-04-19T08:41:53.226Z</time></trkpt><trkpt lat="43.2519205" lon="12.1471095"><ele>295.0</ele><time>2026-04-19T08:41:54.228Z</time></trkpt><trkpt lat="43.2520087" lon="12.1471742"><ele>295.0</ele><time>2026-04-19T08:41:55.225Z</time></trkpt><trkpt lat="43.2520978" lon="12.1472651"><ele>295.0</ele><time>2026-04-19T08:41:56.226Z</time></trkpt><trkpt lat="43.2521871" lon="12.1473754"><ele>295.0</ele><time>2026-04-19T08:41:57.228Z</time></trkpt><trkpt lat="43.2522803" lon="12.1474946"><ele>295.5</ele><time>2026-04-19T08:41:58.228Z</time></trkpt><trkpt lat="43.2523766" lon="12.1476192"><ele>296.0</ele><time>2026-04-19T08:41:59.228Z</time></trkpt><trkpt lat="43.2524743" lon="12.1477458"><ele>296.5</ele><time>2026-04-19T08:42:00.228Z</time></trkpt><trkpt lat="43.2525684" lon="12.1478646"><ele>297.0</ele><time>2026-04-19T08:42:01.228Z</time></trkpt><trkpt lat="43.2526603" lon="12.1479835"><ele>297.0</ele><time>2026-04-19T08:42:02.232Z</time></trkpt><trkpt lat="43.2527534" lon="12.1481086"><ele>297.0</ele><time>2026-04-19T08:42:03.226Z</time></trkpt><trkpt lat="43.2528485" lon="12.1482281"><ele>297.0</ele><time>2026-04-19T08:42:04.224Z</time></trkpt><trkpt lat="43.2529353" lon="12.1483304"><ele>297.0</ele><time>2026-04-19T08:42:05.225Z</time></trkpt><trkpt lat="43.2530087" lon="12.1484097"><ele>299.0</ele><time>2026-04-19T08:42:06.221Z</time></trkpt><trkpt lat="43.2530626" lon="12.1484617"><ele>301.0</ele><time>2026-04-19T08:42:07.223Z</time></trkpt><trkpt lat="43.2529941" lon="12.1484977"><ele>303.0</ele><time>2026-04-19T08:42:11.235Z</time></trkpt><trkpt lat="43.252876" lon="12.1484513"><ele>305.0</ele><time>2026-04-19T08:42:13.238Z</time></trkpt><trkpt lat="43.2528006" lon="12.1484157"><ele>307.0</ele><time>2026-04-19T08:42:14.224Z</time></trkpt><trkpt lat="43.2527246" lon="12.1483912"><ele>309.0</ele><time>2026-04-19T08:42:15.22Z</time></trkpt><trkpt lat="43.2526476" lon="12.1483835"><ele>309.0</ele><time>2026-04-19T08:42:16.227Z</time></trkpt><trkpt lat="43.2525624" lon="12.1483907"><ele>309.0</ele><time>2026-04-19T08:42:17.232Z</time></trkpt><trkpt lat="43.2524835" lon="12.1483983"><ele>309.0</ele><time>2026-04-19T08:42:18.217Z</time></trkpt><trkpt lat="43.2524086" lon="12.1484078"><ele>309.0</ele><time>2026-04-19T08:42:19.232Z</time></trkpt><trkpt lat="43.2523361" lon="12.1484188"><ele>309.0</ele><time>2026-04-19T08:42:20.223Z</time></trkpt><trkpt lat="43.2522654" lon="12.1484287"><ele>309.0</ele><time>2026-04-19T08:42:21.221Z</time></trkpt><trkpt lat="43.2522008" lon="12.1484531"><ele>309.0</ele><time>2026-04-19T08:42:22.221Z</time></trkpt><trkpt lat="43.2521346" lon="12.1485337"><ele>309.0</ele><time>2026-04-19T08:42:24.218Z</time></trkpt><trkpt lat="43.2521533" lon="12.148673"><ele>309.0</ele><time>2026-04-19T08:42:27.071Z</time></trkpt><trkpt lat="43.2522041" lon="12.1487406"><ele>309.0</ele><time>2026-04-19T08:42:28.236Z</time></trkpt><trkpt lat="43.2522505" lon="12.1488158"><ele>309.0</ele><time>2026-04-19T08:42:29.234Z</time></trkpt><trkpt lat="43.2522951" lon="12.1488799"><ele>309.0</ele><time>2026-04-19T08:42:30.222Z</time></trkpt><trkpt lat="43.2523929" lon="12.1489578"><ele>309.0</ele><time>2026-04-19T08:42:32.23Z</time></trkpt><trkpt lat="43.2523165" lon="12.1490345"><ele>309.0</ele><time>2026-04-19T08:42:36.23Z</time></trkpt><trkpt lat="43.2522396" lon="12.1490238"><ele>309.0</ele><time>2026-04-19T08:42:37.216Z</time></trkpt><trkpt lat="43.25215" lon="12.1490541"><ele>309.0</ele><time>2026-04-19T08:42:39.219Z</time></trkpt><trkpt lat="43.2522002" lon="12.1491646"><ele>309.0</ele><time>2026-04-19T08:42:42.232Z</time></trkpt><trkpt lat="43.2523496" lon="12.1492513"><ele>313.1666666666667</ele><time>2026-04-19T08:42:44.22Z</time></trkpt><trkpt lat="43.2524247" lon="12.14933"><ele>317.3333333333333</ele><time>2026-04-19T08:42:45.221Z</time></trkpt><trkpt lat="43.2524983" lon="12.1494031"><ele>321.5</ele><time>2026-04-19T08:42:46.217Z</time></trkpt><trkpt lat="43.2525696" lon="12.1494668"><ele>325.66666666666663</ele><time>2026-04-19T08:42:47.215Z</time></trkpt><trkpt lat="43.25263" lon="12.1495358"><ele>329.8333333333333</ele><time>2026-04-19T08:42:48.213Z</time></trkpt><trkpt lat="43.2526792" lon="12.1496121"><ele>334.0</ele><time>2026-04-19T08:42:49.221Z</time></trkpt><trkpt lat="43.252707" lon="12.1497364"><ele>334.0</ele><time>2026-04-19T08:42:51.227Z</time></trkpt><trkpt lat="43.2526269" lon="12.1497821"><ele>334.0</ele><time>2026-04-19T08:42:53.236Z</time></trkpt><trkpt lat="43.2525593" lon="12.1497774"><ele>334.0</ele><time>2026-04-19T08:42:54.231Z</time></trkpt><trkpt lat="43.252486" lon="12.1497556"><ele>334.0</ele><time>2026-04-19T08:42:55.215Z</time></trkpt><trkpt lat="43.2524083" lon="12.1497312"><ele>334.0</ele><time>2026-04-19T08:42:56.218Z</time></trkpt><trkpt lat="43.2523306" lon="12.1497138"><ele>334.0</ele><time>2026-04-19T08:42:57.217Z</time></trkpt><trkpt lat="43.2522593" lon="12.1497154"><ele>333.2857142857143</ele><time>2026-04-19T08:42:58.217Z</time></trkpt><trkpt lat="43.252187" lon="12.1497263"><ele>332.57142857142856</ele><time>2026-04-19T08:42:59.219Z</time></trkpt><trkpt lat="43.2521133" lon="12.1497348"><ele>331.8571428571429</ele><time>2026-04-19T08:43:00.221Z</time></trkpt><trkpt lat="43.2520474" lon="12.1497458"><ele>331.1428571428571</ele><time>2026-04-19T08:43:01.219Z</time></trkpt><trkpt lat="43.2519936" lon="12.1497942"><ele>330.42857142857144</ele><time>2026-04-19T08:43:03.234Z</time></trkpt><trkpt lat="43.2520138" lon="12.1498793"><ele>329.7142857142857</ele><time>2026-04-19T08:43:05.234Z</time></trkpt><trkpt lat="43.2521066" lon="12.1498945"><ele>329.0</ele><time>2026-04-19T08:43:07.235Z</time></trkpt><trkpt lat="43.2521826" lon="12.1499116"><ele>333.5</ele><time>2026-04-19T08:43:08.215Z</time></trkpt><trkpt lat="43.2522472" lon="12.1499673"><ele>338.0</ele><time>2026-04-19T08:43:09.23Z</time></trkpt><trkpt lat="43.2522984" lon="12.1500427"><ele>342.5</ele><time>2026-04-19T08:43:10.222Z</time></trkpt><trkpt lat="43.2523447" lon="12.150129"><ele>347.0</ele><time>2026-04-19T08:43:11.222Z</time></trkpt><trkpt lat="43.2523873" lon="12.1502179"><ele>351.5</ele><time>2026-04-19T08:43:12.219Z</time></trkpt><trkpt lat="43.2524417" lon="12.1503042"><ele>356.0</ele><time>2026-04-19T08:43:13.217Z</time></trkpt><trkpt lat="43.2525041" lon="12.150385"><ele>356.1666666666667</ele><time>2026-04-19T08:43:14.22Z</time></trkpt><trkpt lat="43.2525657" lon="12.1504655"><ele>356.33333333333337</ele><time>2026-04-19T08:43:15.218Z</time></trkpt><trkpt lat="43.2526199" lon="12.1505421"><ele>356.5</ele><time>2026-04-19T08:43:16.221Z</time></trkpt><trkpt lat="43.2526655" lon="12.1506074"><ele>356.6666666666667</ele><time>2026-04-19T08:43:17.221Z</time></trkpt><trkpt lat="43.2527092" lon="12.1506775"><ele>356.8333333333333</ele><time>2026-04-19T08:43:18.221Z</time></trkpt><trkpt lat="43.2527484" lon="12.1507525"><ele>357.0</ele><time>2026-04-19T08:43:19.221Z</time></trkpt><trkpt lat="43.2527608" lon="12.1508852"><ele>360.8</ele><time>2026-04-19T08:43:21.218Z</time></trkpt><trkpt lat="43.2526753" lon="12.1509177"><ele>364.6</ele><time>2026-04-19T08:43:23.231Z</time></trkpt><trkpt lat="43.2525616" lon="12.1508421"><ele>368.40000000000003</ele><time>2026-04-19T08:43:25.231Z</time></trkpt><trkpt lat="43.2524488" lon="12.1507707"><ele>372.20000000000005</ele><time>2026-04-19T08:43:27.226Z</time></trkpt><trkpt lat="43.2523828" lon="12.1507467"><ele>376.0</ele><time>2026-04-19T08:43:28.225Z</time></trkpt><trkpt lat="43.2523079" lon="12.1507271"><ele>376.66666666666663</ele><time>2026-04-19T08:43:29.225Z</time></trkpt><trkpt lat="43.252243" lon="12.1507216"><ele>377.3333333333333</ele><time>2026-04-19T08:43:30.225Z</time></trkpt><trkpt lat="43.2521462" lon="12.1507803"><ele>378.0</ele><time>2026-04-19T08:43:32.231Z</time></trkpt><trkpt lat="43.2520921" lon="12.1508358"><ele>378.6666666666667</ele><time>2026-04-19T08:43:33.225Z</time></trkpt><trkpt lat="43.2520251" lon="12.1508901"><ele>379.33333333333337</ele><time>2026-04-19T08:43:34.226Z</time></trkpt><trkpt lat="43.2519502" lon="12.1509241"><ele>380.0</ele><time>2026-04-19T08:43:35.226Z</time></trkpt><trkpt lat="43.2518752" lon="12.1509482"><ele>380.0</ele><time>2026-04-19T08:43:36.222Z</time></trkpt><trkpt lat="43.2517917" lon="12.1510125"><ele>380.0</ele><time>2026-04-19T08:43:38.226Z</time></trkpt><trkpt lat="43.2517845" lon="12.1511301"><ele>380.0</ele><time>2026-04-19T08:43:41.234Z</time></trkpt><trkpt lat="43.251756" lon="12.1512142"><ele>380.0</ele><time>2026-04-19T08:43:43.233Z</time></trkpt><trkpt lat="43.2517212" lon="12.1512938"><ele>380.0</ele><time>2026-04-19T08:43:45.232Z</time></trkpt><trkpt lat="43.2516518" lon="12.1514251"><ele>380.0</ele><time>2026-04-19T08:43:47.221Z</time></trkpt><trkpt lat="43.2515793" lon="12.1515442"><ele>380.2</ele><time>2026-04-19T08:43:49.225Z</time></trkpt><trkpt lat="43.2515183" lon="12.1516292"><ele>380.4</ele><time>2026-04-19T08:43:51.229Z</time></trkpt><trkpt lat="43.2514497" lon="12.1517112"><ele>380.6</ele><time>2026-04-19T08:43:53.233Z</time></trkpt><trkpt lat="43.2513787" lon="12.151827"><ele>380.8</ele><time>2026-04-19T08:43:55.221Z</time></trkpt><trkpt lat="43.2513142" lon="12.1519721"><ele>381.0</ele><time>2026-04-19T08:43:57.222Z</time></trkpt><trkpt lat="43.2512677" lon="12.1521152"><ele>381.0</ele><time>2026-04-19T08:43:59.22Z</time></trkpt><trkpt lat="43.2512287" lon="12.1522685"><ele>381.0</ele><time>2026-04-19T08:44:01.22Z</time></trkpt><trkpt lat="43.2511954" lon="12.152421"><ele>381.0</ele><time>2026-04-19T08:44:03.22Z</time></trkpt><trkpt lat="43.2511657" lon="12.1525016"><ele>381.0</ele><time>2026-04-19T08:44:04.22Z</time></trkpt><trkpt lat="43.251128" lon="12.1525815"><ele>381.0</ele><time>2026-04-19T08:44:05.22Z</time></trkpt><trkpt lat="43.2510927" lon="12.152663"><ele>381.0</ele><time>2026-04-19T08:44:06.219Z</time></trkpt><trkpt lat="43.2510394" lon="12.152798"><ele>384.5</ele><time>2026-04-19T08:44:08.221Z</time></trkpt><trkpt lat="43.2509834" lon="12.1528893"><ele>388.0</ele><time>2026-04-19T08:44:10.221Z</time></trkpt><trkpt lat="43.2509082" lon="12.1529805"><ele>391.5</ele><time>2026-04-19T08:44:12.22Z</time></trkpt><trkpt lat="43.2508742" lon="12.1530847"><ele>395.0</ele><time>2026-04-19T08:44:14.227Z</time></trkpt><trkpt lat="43.2508854" lon="12.1531918"><ele>398.5</ele><time>2026-04-19T08:44:16.236Z</time></trkpt><trkpt lat="43.2509458" lon="12.1532591"><ele>402.0</ele><time>2026-04-19T08:44:18.239Z</time></trkpt><trkpt lat="43.2509655" lon="12.1533827"><ele>405.8</ele><time>2026-04-19T08:44:22.239Z</time></trkpt><trkpt lat="43.2509446" lon="12.1534782"><ele>409.6</ele><time>2026-04-19T08:44:24.242Z</time></trkpt><trkpt lat="43.2508948" lon="12.1535317"><ele>413.40000000000003</ele><time>2026-04-19T08:44:28.239Z</time></trkpt><trkpt lat="43.2508507" lon="12.1536997"><ele>417.20000000000005</ele><time>2026-04-19T08:44:40.243Z</time></trkpt><trkpt lat="43.2509044" lon="12.1538051"><ele>421.0</ele><time>2026-04-19T08:44:42.232Z</time></trkpt><trkpt lat="43.2508566" lon="12.1539186"><ele>421.0</ele><time>2026-04-19T08:44:45.239Z</time></trkpt><trkpt lat="43.2508255" lon="12.1539991"><ele>421.0</ele><time>2026-04-19T08:44:47.231Z</time></trkpt><trkpt lat="43.2507962" lon="12.1541247"><ele>421.0</ele><time>2026-04-19T08:44:49.238Z</time></trkpt><trkpt lat="43.2507715" lon="12.1542439"><ele>421.0</ele><time>2026-04-19T08:44:51.238Z</time></trkpt><trkpt lat="43.2507207" lon="12.1543391"><ele>421.0</ele><time>2026-04-19T08:44:53.226Z</time></trkpt><trkpt lat="43.2506253" lon="12.1544297"><ele>422.4</ele><time>2026-04-19T08:44:55.224Z</time></trkpt><trkpt lat="43.2505775" lon="12.1545601"><ele>423.8</ele><time>2026-04-19T08:44:57.227Z</time></trkpt><trkpt lat="43.2505889" lon="12.154713"><ele>425.19999999999993</ele><time>2026-04-19T08:44:59.223Z</time></trkpt><trkpt lat="43.2506301" lon="12.1548636"><ele>426.59999999999997</ele><time>2026-04-19T08:45:01.213Z</time></trkpt><trkpt lat="43.2506426" lon="12.1549942"><ele>428.0</ele><time>2026-04-19T08:45:03.213Z</time></trkpt><trkpt lat="43.2506329" lon="12.1550889"><ele>430.8571428571429</ele><time>2026-04-19T08:45:05.228Z</time></trkpt><trkpt lat="43.2506325" lon="12.155182"><ele>433.7142857142857</ele><time>2026-04-19T08:45:07.23Z</time></trkpt><trkpt lat="43.2505706" lon="12.1552298"><ele>436.57142857142856</ele><time>2026-04-19T08:45:09.228Z</time></trkpt><trkpt lat="43.2505042" lon="12.1552572"><ele>439.42857142857144</ele><time>2026-04-19T08:45:11.231Z</time></trkpt><trkpt lat="43.2504916" lon="12.1553524"><ele>442.2857142857143</ele><time>2026-04-19T08:45:13.229Z</time></trkpt><trkpt lat="43.2504205" lon="12.1553553"><ele>445.14285714285717</ele><time>2026-04-19T08:45:18.231Z</time></trkpt><trkpt lat="43.2503458" lon="12.1553503"><ele>448.0</ele><time>2026-04-19T08:45:20.231Z</time></trkpt><trkpt lat="43.2502571" lon="12.1553445"><ele>448.33333333333337</ele><time>2026-04-19T08:45:22.23Z</time></trkpt><trkpt lat="43.250162" lon="12.1553361"><ele>448.6666666666667</ele><time>2026-04-19T08:45:24.229Z</time></trkpt><trkpt lat="43.2500767" lon="12.1553453"><ele>449.0</ele><time>2026-04-19T08:45:26.231Z</time></trkpt><trkpt lat="43.2499991" lon="12.1553795"><ele>449.33333333333337</ele><time>2026-04-19T08:45:28.232Z</time></trkpt><trkpt lat="43.2499244" lon="12.1554426"><ele>449.6666666666667</ele><time>2026-04-19T08:45:30.232Z</time></trkpt><trkpt lat="43.2498906" lon="12.1555537"><ele>450.0</ele><time>2026-04-19T08:45:32.221Z</time></trkpt><trkpt lat="43.2498514" lon="12.1556405"><ele>450.5</ele><time>2026-04-19T08:45:34.225Z</time></trkpt><trkpt lat="43.2498319" lon="12.155742"><ele>451.0</ele><time>2026-04-19T08:45:37.232Z</time></trkpt><trkpt lat="43.2498523" lon="12.1558447"><ele>451.5</ele><time>2026-04-19T08:45:39.231Z</time></trkpt><trkpt lat="43.2498621" lon="12.1559769"><ele>452.0</ele><time>2026-04-19T08:45:42.144Z</time></trkpt><trkpt lat="43.2498563" lon="12.1560956"><ele>452.5</ele><time>2026-04-19T08:45:44.228Z</time></trkpt><trkpt lat="43.2497873" lon="12.1562093"><ele>453.0</ele><time>2026-04-19T08:45:46.218Z</time></trkpt><trkpt lat="43.2497264" lon="12.1562816"><ele>453.0</ele><time>2026-04-19T08:45:47.218Z</time></trkpt><trkpt lat="43.249667" lon="12.1563661"><ele>452.99999999999994</ele><time>2026-04-19T08:45:48.218Z</time></trkpt><trkpt lat="43.24962" lon="12.1564638"><ele>452.99999999999994</ele><time>2026-04-19T08:45:49.219Z</time></trkpt><trkpt lat="43.2495808" lon="12.1565761"><ele>453.0</ele><time>2026-04-19T08:45:50.223Z</time></trkpt><trkpt lat="43.2495458" lon="12.1566976"><ele>453.0</ele><time>2026-04-19T08:45:51.22Z</time></trkpt><trkpt lat="43.2495186" lon="12.1568225"><ele>454.8333333333333</ele><time>2026-04-19T08:45:52.22Z</time></trkpt><trkpt lat="43.249495" lon="12.1569452"><ele>456.66666666666663</ele><time>2026-04-19T08:45:53.224Z</time></trkpt><trkpt lat="43.2494715" lon="12.1570624"><ele>458.5</ele><time>2026-04-19T08:45:54.223Z</time></trkpt><trkpt lat="43.2494453" lon="12.1571756"><ele>460.3333333333333</ele><time>2026-04-19T08:45:55.218Z</time></trkpt><trkpt lat="43.2494207" lon="12.1572861"><ele>462.16666666666663</ele><time>2026-04-19T08:45:56.22Z</time></trkpt><trkpt lat="43.2493896" lon="12.1573936"><ele>464.0</ele><time>2026-04-19T08:45:57.228Z</time></trkpt><trkpt lat="43.2493523" lon="12.1574896"><ele>467.0</ele><time>2026-04-19T08:45:58.217Z</time></trkpt><trkpt lat="43.2493114" lon="12.1575818"><ele>470.0</ele><time>2026-04-19T08:45:59.235Z</time></trkpt><trkpt lat="43.2492682" lon="12.1576775"><ele>473.0</ele><time>2026-04-19T08:46:00.219Z</time></trkpt><trkpt lat="43.2492156" lon="12.1577829"><ele>476.0</ele><time>2026-04-19T08:46:01.218Z</time></trkpt><trkpt lat="43.2491579" lon="12.1579013"><ele>479.0</ele><time>2026-04-19T08:46:02.222Z</time></trkpt><trkpt lat="43.2490971" lon="12.1580291"><ele>479.0</ele><time>2026-04-19T08:46:03.218Z</time></trkpt><trkpt lat="43.2490274" lon="12.1581504"><ele>479.0</ele><time>2026-04-19T08:46:04.218Z</time></trkpt><trkpt lat="43.2489521" lon="12.1582546"><ele>479.0</ele><time>2026-04-19T08:46:05.219Z</time></trkpt><trkpt lat="43.2488677" lon="12.1583468"><ele>479.0</ele><time>2026-04-19T08:46:06.219Z</time></trkpt><trkpt lat="43.2487782" lon="12.158429"><ele>479.0</ele><time>2026-04-19T08:46:07.216Z</time></trkpt><trkpt lat="43.2486832" lon="12.1585092"><ele>481.79999999999995</ele><time>2026-04-19T08:46:08.215Z</time></trkpt><trkpt lat="43.2485915" lon="12.1585911"><ele>484.59999999999997</ele><time>2026-04-19T08:46:09.215Z</time></trkpt><trkpt lat="43.2485142" lon="12.1586753"><ele>487.4</ele><time>2026-04-19T08:46:10.216Z</time></trkpt><trkpt lat="43.2484537" lon="12.1587638"><ele>490.2</ele><time>2026-04-19T08:46:11.211Z</time></trkpt><trkpt lat="43.2483955" lon="12.1588539"><ele>493.0</ele><time>2026-04-19T08:46:12.208Z</time></trkpt><trkpt lat="43.2483484" lon="12.1589366"><ele>493.00000000000006</ele><time>2026-04-19T08:46:13.209Z</time></trkpt><trkpt lat="43.2483076" lon="12.1590087"><ele>493.0</ele><time>2026-04-19T08:46:14.204Z</time></trkpt><trkpt lat="43.2482512" lon="12.1591221"><ele>493.0</ele><time>2026-04-19T08:46:16.209Z</time></trkpt><trkpt lat="43.2482373" lon="12.1592192"><ele>493.0</ele><time>2026-04-19T08:46:19.228Z</time></trkpt><trkpt lat="43.2482507" lon="12.1593238"><ele>493.00000000000006</ele><time>2026-04-19T08:46:21.237Z</time></trkpt><trkpt lat="43.2482435" lon="12.1594521"><ele>493.0</ele><time>2026-04-19T08:46:23.234Z</time></trkpt><trkpt lat="43.2481616" lon="12.1595799"><ele>493.00000000000006</ele><time>2026-04-19T08:46:25.216Z</time></trkpt><trkpt lat="43.2480647" lon="12.15968"><ele>493.0</ele><time>2026-04-19T08:46:27.217Z</time></trkpt><trkpt lat="43.2479912" lon="12.1597495"><ele>493.0</ele><time>2026-04-19T08:46:29.219Z</time></trkpt><trkpt lat="43.2479606" lon="12.1598347"><ele>493.0</ele><time>2026-04-19T08:47:12.232Z</time></trkpt><trkpt lat="43.2479015" lon="12.1598958"><ele>493.00000000000006</ele><time>2026-04-19T08:48:11.239Z</time></trkpt><trkpt lat="43.2478458" lon="12.159989"><ele>493.0</ele><time>2026-04-19T08:48:12.234Z</time></trkpt><trkpt lat="43.2477953" lon="12.1600868"><ele>495.00000000000006</ele><time>2026-04-19T08:48:13.228Z</time></trkpt><trkpt lat="43.2477587" lon="12.1601646"><ele>497.0</ele><time>2026-04-19T08:48:14.23Z</time></trkpt><trkpt lat="43.2476853" lon="12.1602886"><ele>499.0</ele><time>2026-04-19T08:48:16.223Z</time></trkpt><trkpt lat="43.2475861" lon="12.1603847"><ele>501.0</ele><time>2026-04-19T08:48:18.23Z</time></trkpt><trkpt lat="43.2475288" lon="12.1604336"><ele>503.00000000000006</ele><time>2026-04-19T08:48:19.23Z</time></trkpt><trkpt lat="43.2474674" lon="12.1604883"><ele>505.0</ele><time>2026-04-19T08:48:20.227Z</time></trkpt><trkpt lat="43.2474053" lon="12.1605492"><ele>505.00000000000006</ele><time>2026-04-19T08:48:21.227Z</time></trkpt><trkpt lat="43.2473415" lon="12.1606047"><ele>505.0</ele><time>2026-04-19T08:48:22.229Z</time></trkpt><trkpt lat="43.2472789" lon="12.1606532"><ele>505.0</ele><time>2026-04-19T08:48:23.228Z</time></trkpt><trkpt lat="43.2472137" lon="12.1607057"><ele>505.0</ele><time>2026-04-19T08:48:24.227Z</time></trkpt><trkpt lat="43.2471455" lon="12.1607717"><ele>505.00000000000006</ele><time>2026-04-19T08:48:25.226Z</time></trkpt><trkpt lat="43.247073" lon="12.1608512"><ele>505.0</ele><time>2026-04-19T08:48:26.227Z</time></trkpt><trkpt lat="43.2470011" lon="12.1609303"><ele>505.0</ele><time>2026-04-19T08:48:27.241Z</time></trkpt><trkpt lat="43.2469332" lon="12.1609982"><ele>505.0</ele><time>2026-04-19T08:48:28.237Z</time></trkpt><trkpt lat="43.2468717" lon="12.1610644"><ele>505.0</ele><time>2026-04-19T08:48:29.235Z</time></trkpt><trkpt lat="43.246816" lon="12.1611378"><ele>505.0</ele><time>2026-04-19T08:48:30.239Z</time></trkpt><trkpt lat="43.2467671" lon="12.1612232"><ele>505.0</ele><time>2026-04-19T08:48:31.238Z</time></trkpt><trkpt lat="43.2466553" lon="12.161399"><ele>505.0</ele><time>2026-04-19T08:48:33.241Z</time></trkpt><trkpt lat="43.2465935" lon="12.1614802"><ele>505.0</ele><time>2026-04-19T08:48:34.239Z</time></trkpt><trkpt lat="43.2465298" lon="12.1615658"><ele>505.0</ele><time>2026-04-19T08:48:35.238Z</time></trkpt><trkpt lat="43.2464618" lon="12.1616559"><ele>505.0</ele><time>2026-04-19T08:48:36.235Z</time></trkpt><trkpt lat="43.2463866" lon="12.1617389"><ele>505.0</ele><time>2026-04-19T08:48:37.231Z</time></trkpt><trkpt lat="43.24631" lon="12.1618155"><ele>505.00000000000006</ele><time>2026-04-19T08:48:38.224Z</time></trkpt><trkpt lat="43.2462367" lon="12.1618946"><ele>505.0</ele><time>2026-04-19T08:48:39.227Z</time></trkpt><trkpt lat="43.2461663" lon="12.1619754"><ele>505.0</ele><time>2026-04-19T08:48:40.222Z</time></trkpt><trkpt lat="43.2461059" lon="12.1620536"><ele>505.0</ele><time>2026-04-19T08:48:41.221Z</time></trkpt><trkpt lat="43.2460565" lon="12.1621276"><ele>505.00000000000006</ele><time>2026-04-19T08:48:42.226Z</time></trkpt><trkpt lat="43.2460108" lon="12.1622002"><ele>505.0</ele><time>2026-04-19T08:48:43.224Z</time></trkpt><trkpt lat="43.2459669" lon="12.1622792"><ele>505.00000000000006</ele><time>2026-04-19T08:48:44.227Z</time></trkpt><trkpt lat="43.2459269" lon="12.1623628"><ele>505.0</ele><time>2026-04-19T08:48:45.23Z</time></trkpt><trkpt lat="43.2458866" lon="12.1624377"><ele>505.0</ele><time>2026-04-19T08:48:46.225Z</time></trkpt><trkpt lat="43.2458167" lon="12.1625463"><ele>505.0</ele><time>2026-04-19T08:48:48.225Z</time></trkpt><trkpt lat="43.2458558" lon="12.1626431"><ele>505.00000000000006</ele><time>2026-04-19T08:48:59.242Z</time></trkpt><trkpt lat="43.2458866" lon="12.1627376"><ele>505.0</ele><time>2026-04-19T08:49:02.211Z</time></trkpt><trkpt lat="43.245904" lon="12.1628842"><ele>506.0</ele><time>2026-04-19T08:49:03.227Z</time></trkpt><trkpt lat="43.2459119" lon="12.162976"><ele>507.0</ele><time>2026-04-19T08:49:04.228Z</time></trkpt><trkpt lat="43.2459262" lon="12.1631255"><ele>508.0</ele><time>2026-04-19T08:49:06.229Z</time></trkpt><trkpt lat="43.2459391" lon="12.1632334"><ele>509.0</ele><time>2026-04-19T08:49:08.234Z</time></trkpt><trkpt lat="43.2458979" lon="12.1630569"><ele>510.0</ele><time>2026-04-19T08:49:34.216Z</time></trkpt><trkpt lat="43.2458817" lon="12.162924"><ele>510.0</ele><time>2026-04-19T08:49:35.219Z</time></trkpt><trkpt lat="43.2458635" lon="12.1627999"><ele>510.0</ele><time>2026-04-19T08:49:36.215Z</time></trkpt><trkpt lat="43.2458525" lon="12.1627015"><ele>510.0</ele><time>2026-04-19T08:49:37.214Z</time></trkpt><trkpt lat="43.2458465" lon="12.1625587"><ele>510.0</ele><time>2026-04-19T08:49:40.23Z</time></trkpt><trkpt lat="43.2458169" lon="12.1626801"><ele>510.0</ele><time>2026-04-19T08:49:45.235Z</time></trkpt><trkpt lat="43.2458153" lon="12.1627759"><ele>510.0</ele><time>2026-04-19T08:49:47.233Z</time></trkpt><trkpt lat="43.2457705" lon="12.1628866"><ele>510.0</ele><time>2026-04-19T08:49:49.24Z</time></trkpt><trkpt lat="43.2457493" lon="12.1630124"><ele>510.0</ele><time>2026-04-19T08:49:51.239Z</time></trkpt><trkpt lat="43.2457015" lon="12.1631348"><ele>510.0</ele><time>2026-04-19T08:49:53.225Z</time></trkpt><trkpt lat="43.245614" lon="12.1632163"><ele>510.0</ele><time>2026-04-19T08:49:55.236Z</time></trkpt><trkpt lat="43.2455187" lon="12.1632601"><ele>510.0</ele><time>2026-04-19T08:49:57.242Z</time></trkpt><trkpt lat="43.2454596" lon="12.163335"><ele>511.5</ele><time>2026-04-19T08:49:59.239Z</time></trkpt><trkpt lat="43.2454135" lon="12.1634604"><ele>513.0</ele><time>2026-04-19T08:50:02.242Z</time></trkpt><trkpt lat="43.2454043" lon="12.163596"><ele>514.5</ele><time>2026-04-19T08:50:04.239Z</time></trkpt><trkpt lat="43.2454087" lon="12.1636864"><ele>516.0</ele><time>2026-04-19T08:50:06.241Z</time></trkpt><trkpt lat="43.2453829" lon="12.1638045"><ele>517.5</ele><time>2026-04-19T08:50:09.238Z</time></trkpt><trkpt lat="43.2453435" lon="12.1638859"><ele>519.0</ele><time>2026-04-19T08:50:11.234Z</time></trkpt><trkpt lat="43.2453387" lon="12.1639994"><ele>519.8333333333334</ele><time>2026-04-19T08:50:13.236Z</time></trkpt><trkpt lat="43.2453348" lon="12.1641336"><ele>520.6666666666666</ele><time>2026-04-19T08:50:15.224Z</time></trkpt><trkpt lat="43.2453687" lon="12.1642406"><ele>521.5</ele><time>2026-04-19T08:50:17.239Z</time></trkpt><trkpt lat="43.2453946" lon="12.164343"><ele>522.3333333333333</ele><time>2026-04-19T08:50:19.237Z</time></trkpt><trkpt lat="43.2453814" lon="12.1644294"><ele>523.1666666666666</ele><time>2026-04-19T08:50:22.233Z</time></trkpt><trkpt lat="43.2453478" lon="12.164552"><ele>524.0</ele><time>2026-04-19T08:50:29.235Z</time></trkpt><trkpt lat="43.2453066" lon="12.1646797"><ele>524.0</ele><time>2026-04-19T08:50:31.231Z</time></trkpt><trkpt lat="43.245234" lon="12.164801"><ele>524.0</ele><time>2026-04-19T08:50:33.221Z</time></trkpt><trkpt lat="43.2452164" lon="12.1649053"><ele>524.0</ele><time>2026-04-19T08:50:35.23Z</time></trkpt><trkpt lat="43.2452468" lon="12.1650061"><ele>524.0</ele><time>2026-04-19T08:50:38.235Z</time></trkpt><trkpt lat="43.245326" lon="12.1650996"><ele>524.0</ele><time>2026-04-19T08:50:41.157Z</time></trkpt><trkpt lat="43.2453719" lon="12.1651878"><ele>525.8333333333333</ele><time>2026-04-19T08:50:43.236Z</time></trkpt><trkpt lat="43.2453724" lon="12.1652978"><ele>527.6666666666666</ele><time>2026-04-19T08:50:45.236Z</time></trkpt><trkpt lat="43.2453549" lon="12.1654158"><ele>529.5</ele><time>2026-04-19T08:50:47.215Z</time></trkpt><trkpt lat="43.2453269" lon="12.1654937"><ele>531.3333333333334</ele><time>2026-04-19T08:50:48.228Z</time></trkpt><trkpt lat="43.2453141" lon="12.1656159"><ele>533.1666666666667</ele><time>2026-04-19T08:50:50.235Z</time></trkpt><trkpt lat="43.2452633" lon="12.1657088"><ele>535.0</ele><time>2026-04-19T08:50:52.235Z</time></trkpt><trkpt lat="43.245202" lon="12.1658017"><ele>537.0</ele><time>2026-04-19T08:50:54.234Z</time></trkpt><trkpt lat="43.2451908" lon="12.1659155"><ele>539.0</ele><time>2026-04-19T08:50:57.241Z</time></trkpt><trkpt lat="43.245202" lon="12.1660027"><ele>541.0</ele><time>2026-04-19T08:50:58.238Z</time></trkpt><trkpt lat="43.2452117" lon="12.1661033"><ele>543.0</ele><time>2026-04-19T08:50:59.229Z</time></trkpt><trkpt lat="43.2452106" lon="12.1661955"><ele>545.0</ele><time>2026-04-19T08:51:00.225Z</time></trkpt><trkpt lat="43.2452024" lon="12.1662819"><ele>547.0</ele><time>2026-04-19T08:51:01.225Z</time></trkpt><trkpt lat="43.2451976" lon="12.1664281"><ele>549.3333333333334</ele><time>2026-04-19T08:51:03.219Z</time></trkpt><trkpt lat="43.2452447" lon="12.1665964"><ele>551.6666666666667</ele><time>2026-04-19T08:51:05.21Z</time></trkpt><trkpt lat="43.2452772" lon="12.1667037"><ele>554.0</ele><time>2026-04-19T08:51:06.217Z</time></trkpt><trkpt lat="43.2453057" lon="12.1668088"><ele>556.3333333333334</ele><time>2026-04-19T08:51:07.218Z</time></trkpt><trkpt lat="43.2453301" lon="12.1669037"><ele>558.6666666666666</ele><time>2026-04-19T08:51:08.219Z</time></trkpt><trkpt lat="43.2453509" lon="12.1669889"><ele>561.0</ele><time>2026-04-19T08:51:09.216Z</time></trkpt><trkpt lat="43.2453738" lon="12.1671386"><ele>561.0</ele><time>2026-04-19T08:51:11.217Z</time></trkpt><trkpt lat="43.2453724" lon="12.1672989"><ele>561.0</ele><time>2026-04-19T08:51:13.217Z</time></trkpt><trkpt lat="43.2453646" lon="12.1673879"><ele>561.0</ele><time>2026-04-19T08:51:14.216Z</time></trkpt><trkpt lat="43.2453553" lon="12.167483"><ele>561.0</ele><time>2026-04-19T08:51:15.217Z</time></trkpt><trkpt lat="43.2453458" lon="12.1675928"><ele>561.0</ele><time>2026-04-19T08:51:16.217Z</time></trkpt><trkpt lat="43.2453341" lon="12.1677087"><ele>561.0</ele><time>2026-04-19T08:51:17.217Z</time></trkpt><trkpt lat="43.2453228" lon="12.1678061"><ele>562.6666666666666</ele><time>2026-04-19T08:51:18.218Z</time></trkpt><trkpt lat="43.2452891" lon="12.1679678"><ele>564.3333333333334</ele><time>2026-04-19T08:51:20.223Z</time></trkpt><trkpt lat="43.2452571" lon="12.1680461"><ele>566.0</ele><time>2026-04-19T08:51:21.219Z</time></trkpt><trkpt lat="43.2452192" lon="12.1681254"><ele>567.6666666666667</ele><time>2026-04-19T08:51:22.219Z</time></trkpt><trkpt lat="43.2451866" lon="12.1682063"><ele>569.3333333333334</ele><time>2026-04-19T08:51:23.223Z</time></trkpt><trkpt lat="43.2451596" lon="12.1682944"><ele>571.0</ele><time>2026-04-19T08:51:24.219Z</time></trkpt><trkpt lat="43.2451371" lon="12.1683899"><ele>571.3333333333334</ele><time>2026-04-19T08:51:25.217Z</time></trkpt><trkpt lat="43.245119" lon="12.1684978"><ele>571.6666666666667</ele><time>2026-04-19T08:51:26.217Z</time></trkpt><trkpt lat="43.2451052" lon="12.1686066"><ele>572.0</ele><time>2026-04-19T08:51:27.225Z</time></trkpt><trkpt lat="43.2450929" lon="12.1687004"><ele>572.3333333333334</ele><time>2026-04-19T08:51:28.221Z</time></trkpt><trkpt lat="43.2450827" lon="12.1687864"><ele>572.6666666666666</ele><time>2026-04-19T08:51:29.22Z</time></trkpt><trkpt lat="43.2450648" lon="12.1689573"><ele>573.0</ele><time>2026-04-19T08:51:31.221Z</time></trkpt><trkpt lat="43.2450492" lon="12.1690453"><ele>573.1999999999999</ele><time>2026-04-19T08:51:32.222Z</time></trkpt><trkpt lat="43.2450274" lon="12.1691969"><ele>573.4</ele><time>2026-04-19T08:51:34.221Z</time></trkpt><trkpt lat="43.2450458" lon="12.1692822"><ele>573.5999999999999</ele><time>2026-04-19T08:51:37.23Z</time></trkpt><trkpt lat="43.2450991" lon="12.1693821"><ele>573.8</ele><time>2026-04-19T08:51:51.23Z</time></trkpt><trkpt lat="43.2451302" lon="12.1695124"><ele>574.0</ele><time>2026-04-19T08:51:52.218Z</time></trkpt><trkpt lat="43.2451667" lon="12.1696397"><ele>574.0</ele><time>2026-04-19T08:51:53.219Z</time></trkpt><trkpt lat="43.2452047" lon="12.169748"><ele>574.0</ele><time>2026-04-19T08:51:54.217Z</time></trkpt><trkpt lat="43.2452388" lon="12.1698554"><ele>574.0</ele><time>2026-04-19T08:51:55.216Z</time></trkpt><trkpt lat="43.245269" lon="12.1699666"><ele>574.0</ele><time>2026-04-19T08:51:56.217Z</time></trkpt><trkpt lat="43.2452969" lon="12.1700814"><ele>574.0</ele><time>2026-04-19T08:51:57.217Z</time></trkpt><trkpt lat="43.2453242" lon="12.170185"><ele>574.0</ele><time>2026-04-19T08:51:58.218Z</time></trkpt><trkpt lat="43.2453473" lon="12.1702748"><ele>573.8333333333334</ele><time>2026-04-19T08:51:59.22Z</time></trkpt><trkpt lat="43.2453741" lon="12.1704391"><ele>573.6666666666667</ele><time>2026-04-19T08:52:01.221Z</time></trkpt><trkpt lat="43.2453746" lon="12.1705324"><ele>573.5</ele><time>2026-04-19T08:52:02.218Z</time></trkpt><trkpt lat="43.2453705" lon="12.1706256"><ele>573.3333333333334</ele><time>2026-04-19T08:52:03.22Z</time></trkpt><trkpt lat="43.2453678" lon="12.1707244"><ele>573.1666666666666</ele><time>2026-04-19T08:52:04.221Z</time></trkpt><trkpt lat="43.2453729" lon="12.1708232"><ele>573.0</ele><time>2026-04-19T08:52:05.22Z</time></trkpt><trkpt lat="43.2453725" lon="12.1709114"><ele>573.0</ele><time>2026-04-19T08:52:06.22Z</time></trkpt><trkpt lat="43.2453666" lon="12.1710783"><ele>573.0</ele><time>2026-04-19T08:52:08.219Z</time></trkpt><trkpt lat="43.245353" lon="12.1712361"><ele>573.0</ele><time>2026-04-19T08:52:10.219Z</time></trkpt><trkpt lat="43.245323" lon="12.1714001"><ele>573.0</ele><time>2026-04-19T08:52:12.219Z</time></trkpt><trkpt lat="43.2452995" lon="12.1714924"><ele>573.0</ele><time>2026-04-19T08:52:13.22Z</time></trkpt><trkpt lat="43.2452799" lon="12.1715848"><ele>570.8333333333334</ele><time>2026-04-19T08:52:14.217Z</time></trkpt><trkpt lat="43.245255" lon="12.1716726"><ele>568.6666666666666</ele><time>2026-04-19T08:52:15.218Z</time></trkpt><trkpt lat="43.2452271" lon="12.1717569"><ele>566.5</ele><time>2026-04-19T08:52:16.215Z</time></trkpt><trkpt lat="43.2451947" lon="12.1719001"><ele>564.3333333333333</ele><time>2026-04-19T08:52:18.22Z</time></trkpt><trkpt lat="43.2451969" lon="12.1720466"><ele>562.1666666666666</ele><time>2026-04-19T08:52:20.22Z</time></trkpt><trkpt lat="43.2452156" lon="12.1721655"><ele>560.0</ele><time>2026-04-19T08:52:22.22Z</time></trkpt><trkpt lat="43.2451785" lon="12.1722739"><ele>560.0</ele><time>2026-04-19T08:52:24.236Z</time></trkpt><trkpt lat="43.2451087" lon="12.172334"><ele>560.0</ele><time>2026-04-19T08:52:26.234Z</time></trkpt><trkpt lat="43.2450215" lon="12.1723653"><ele>560.0</ele><time>2026-04-19T08:52:28.234Z</time></trkpt><trkpt lat="43.2449444" lon="12.1723555"><ele>560.0</ele><time>2026-04-19T08:52:31.236Z</time></trkpt><trkpt lat="43.2448788" lon="12.1723666"><ele>560.0</ele><time>2026-04-19T08:52:35.16Z</time></trkpt><trkpt lat="43.2447708" lon="12.1723317"><ele>560.0</ele><time>2026-04-19T08:52:37.235Z</time></trkpt><trkpt lat="43.2446986" lon="12.1723222"><ele>559.8333333333333</ele><time>2026-04-19T08:52:38.218Z</time></trkpt><trkpt lat="43.2446287" lon="12.1723227"><ele>559.6666666666666</ele><time>2026-04-19T08:52:39.225Z</time></trkpt><trkpt lat="43.2445606" lon="12.1723417"><ele>559.5</ele><time>2026-04-19T08:52:40.219Z</time></trkpt><trkpt lat="43.2445032" lon="12.1723849"><ele>559.3333333333334</ele><time>2026-04-19T08:52:41.22Z</time></trkpt><trkpt lat="43.2444362" lon="12.1725261"><ele>559.1666666666667</ele><time>2026-04-19T08:52:43.215Z</time></trkpt><trkpt lat="43.2444012" lon="12.1726089"><ele>559.0</ele><time>2026-04-19T08:52:44.215Z</time></trkpt><trkpt lat="43.2443217" lon="12.1727269"><ele>559.0</ele><time>2026-04-19T08:52:46.217Z</time></trkpt><trkpt lat="43.2442352" lon="12.1727473"><ele>559.0</ele><time>2026-04-19T08:52:48.212Z</time></trkpt><trkpt lat="43.2441729" lon="12.1728469"><ele>559.0</ele><time>2026-04-19T08:52:50.22Z</time></trkpt><trkpt lat="43.2441514" lon="12.1729362"><ele>559.0</ele><time>2026-04-19T08:52:51.216Z</time></trkpt><trkpt lat="43.2441495" lon="12.1730486"><ele>559.0</ele><time>2026-04-19T08:52:52.217Z</time></trkpt><trkpt lat="43.2441552" lon="12.1731472"><ele>559.0</ele><time>2026-04-19T08:52:53.216Z</time></trkpt><trkpt lat="43.2441552" lon="12.173243"><ele>556.8333333333334</ele><time>2026-04-19T08:52:54.215Z</time></trkpt><trkpt lat="43.2441456" lon="12.173341"><ele>554.6666666666667</ele><time>2026-04-19T08:52:55.217Z</time></trkpt><trkpt lat="43.2441316" lon="12.1734463"><ele>552.5</ele><time>2026-04-19T08:52:56.217Z</time></trkpt><trkpt lat="43.2441122" lon="12.1735468"><ele>550.3333333333334</ele><time>2026-04-19T08:52:57.216Z</time></trkpt><trkpt lat="43.2440904" lon="12.1736323"><ele>548.1666666666666</ele><time>2026-04-19T08:52:58.216Z</time></trkpt><trkpt lat="43.2440242" lon="12.1737685"><ele>546.0</ele><time>2026-04-19T08:53:00.217Z</time></trkpt><trkpt lat="43.2439728" lon="12.1738805"><ele>546.8333333333334</ele><time>2026-04-19T08:53:02.217Z</time></trkpt><trkpt lat="43.243893" lon="12.1739644"><ele>547.6666666666666</ele><time>2026-04-19T08:53:07.23Z</time></trkpt><trkpt lat="43.2438183" lon="12.1740936"><ele>548.5</ele><time>2026-04-19T08:53:09.221Z</time></trkpt><trkpt lat="43.2437724" lon="12.1741568"><ele>549.3333333333333</ele><time>2026-04-19T08:53:10.221Z</time></trkpt><trkpt lat="43.2437186" lon="12.1742097"><ele>550.1666666666666</ele><time>2026-04-19T08:53:11.22Z</time></trkpt><trkpt lat="43.2436609" lon="12.1742552"><ele>551.0</ele><time>2026-04-19T08:53:12.224Z</time></trkpt><trkpt lat="43.2435966" lon="12.1742929"><ele>551.0</ele><time>2026-04-19T08:53:13.223Z</time></trkpt><trkpt lat="43.2435342" lon="12.1743121"><ele>551.0</ele><time>2026-04-19T08:53:14.221Z</time></trkpt><trkpt lat="43.2434121" lon="12.1742938"><ele>551.0</ele><time>2026-04-19T08:53:16.222Z</time></trkpt><trkpt lat="43.2433467" lon="12.1742553"><ele>551.0</ele><time>2026-04-19T08:53:17.222Z</time></trkpt><trkpt lat="43.2432745" lon="12.1742011"><ele>551.0</ele><time>2026-04-19T08:53:18.225Z</time></trkpt><trkpt lat="43.243204" lon="12.1741495"><ele>551.0</ele><time>2026-04-19T08:53:19.225Z</time></trkpt><trkpt lat="43.2431432" lon="12.1741044"><ele>552.25</ele><time>2026-04-19T08:53:20.225Z</time></trkpt><trkpt lat="43.2430423" lon="12.1740266"><ele>553.5</ele><time>2026-04-19T08:53:22.226Z</time></trkpt><trkpt lat="43.24294" lon="12.1739232"><ele>554.75</ele><time>2026-04-19T08:53:24.224Z</time></trkpt><trkpt lat="43.2428611" lon="12.1738062"><ele>556.0</ele><time>2026-04-19T08:53:26.229Z</time></trkpt><trkpt lat="43.2427834" lon="12.1736833"><ele>556.0</ele><time>2026-04-19T08:53:28.234Z</time></trkpt><trkpt lat="43.2427166" lon="12.1735383"><ele>556.0</ele><time>2026-04-19T08:53:30.236Z</time></trkpt><trkpt lat="43.2426879" lon="12.1734552"><ele>556.0</ele><time>2026-04-19T08:53:31.226Z</time></trkpt><trkpt lat="43.2426665" lon="12.1733667"><ele>556.0</ele><time>2026-04-19T08:53:32.227Z</time></trkpt><trkpt lat="43.2426525" lon="12.1732726"><ele>556.0</ele><time>2026-04-19T08:53:33.226Z</time></trkpt><trkpt lat="43.2426491" lon="12.1731715"><ele>556.0</ele><time>2026-04-19T08:53:34.226Z</time></trkpt><trkpt lat="43.2426154" lon="12.1730493"><ele>555.4</ele><time>2026-04-19T08:53:36.214Z</time></trkpt><trkpt lat="43.2425067" lon="12.1730012"><ele>554.8</ele><time>2026-04-19T08:53:38.222Z</time></trkpt><trkpt lat="43.2423963" lon="12.172972"><ele>554.1999999999999</ele><time>2026-04-19T08:53:40.219Z</time></trkpt><trkpt lat="43.2423046" lon="12.1729375"><ele>553.6</ele><time>2026-04-19T08:53:42.228Z</time></trkpt><trkpt lat="43.2422013" lon="12.1729364"><ele>553.0</ele><time>2026-04-19T08:53:44.224Z</time></trkpt><trkpt lat="43.2421029" lon="12.1729666"><ele>553.0</ele><time>2026-04-19T08:53:46.222Z</time></trkpt><trkpt lat="43.2420398" lon="12.172978"><ele>553.0</ele><time>2026-04-19T08:53:49.24Z</time></trkpt><trkpt lat="43.2419775" lon="12.1729569"><ele>553.0</ele><time>2026-04-19T08:53:51.233Z</time></trkpt><trkpt lat="43.2418962" lon="12.1729263"><ele>553.0</ele><time>2026-04-19T08:53:53.223Z</time></trkpt><trkpt lat="43.2418296" lon="12.172809"><ele>553.0</ele><time>2026-04-19T08:53:55.234Z</time></trkpt><trkpt lat="43.2417884" lon="12.1726344"><ele>553.0</ele><time>2026-04-19T08:53:57.238Z</time></trkpt><trkpt lat="43.2417648" lon="12.1725233"><ele>553.0</ele><time>2026-04-19T08:53:58.229Z</time></trkpt><trkpt lat="43.2417404" lon="12.1724029"><ele>553.0</ele><time>2026-04-19T08:53:59.218Z</time></trkpt><trkpt lat="43.2417138" lon="12.1722788"><ele>553.0</ele><time>2026-04-19T08:54:00.223Z</time></trkpt><trkpt lat="43.2416827" lon="12.172168"><ele>553.0</ele><time>2026-04-19T08:54:01.224Z</time></trkpt><trkpt lat="43.2416528" lon="12.1720633"><ele>553.0</ele><time>2026-04-19T08:54:02.222Z</time></trkpt><trkpt lat="43.2416249" lon="12.1719685"><ele>553.2857142857143</ele><time>2026-04-19T08:54:03.217Z</time></trkpt><trkpt lat="43.2416065" lon="12.1718749"><ele>553.5714285714286</ele><time>2026-04-19T08:54:04.22Z</time></trkpt><trkpt lat="43.2415904" lon="12.1717701"><ele>553.8571428571429</ele><time>2026-04-19T08:54:05.221Z</time></trkpt><trkpt lat="43.2415723" lon="12.1716646"><ele>554.1428571428571</ele><time>2026-04-19T08:54:06.222Z</time></trkpt><trkpt lat="43.2415521" lon="12.1715594"><ele>554.4285714285714</ele><time>2026-04-19T08:54:07.22Z</time></trkpt><trkpt lat="43.2415327" lon="12.1714654"><ele>554.7142857142858</ele><time>2026-04-19T08:54:08.218Z</time></trkpt><trkpt lat="43.2415065" lon="12.171376"><ele>555.0</ele><time>2026-04-19T08:54:09.217Z</time></trkpt><trkpt lat="43.2414676" lon="12.1712979"><ele>555.0</ele><time>2026-04-19T08:54:10.221Z</time></trkpt><trkpt lat="43.241426" lon="12.1712259"><ele>555.0</ele><time>2026-04-19T08:54:11.215Z</time></trkpt><trkpt lat="43.2413662" lon="12.1710882"><ele>555.0</ele><time>2026-04-19T08:54:13.214Z</time></trkpt><trkpt lat="43.2413771" lon="12.1709415"><ele>555.0</ele><time>2026-04-19T08:54:15.214Z</time></trkpt><trkpt lat="43.2414557" lon="12.1708014"><ele>555.0</ele><time>2026-04-19T08:54:17.215Z</time></trkpt><trkpt lat="43.2415104" lon="12.1707285"><ele>554.3333333333334</ele><time>2026-04-19T08:54:18.218Z</time></trkpt><trkpt lat="43.2415682" lon="12.1706377"><ele>553.6666666666666</ele><time>2026-04-19T08:54:19.219Z</time></trkpt><trkpt lat="43.2416155" lon="12.1705398"><ele>553.0</ele><time>2026-04-19T08:54:20.22Z</time></trkpt><trkpt lat="43.2416473" lon="12.1704599"><ele>552.3333333333333</ele><time>2026-04-19T08:54:21.22Z</time></trkpt><trkpt lat="43.2416587" lon="12.1703518"><ele>551.6666666666666</ele><time>2026-04-19T08:54:23.223Z</time></trkpt><trkpt lat="43.2416475" lon="12.170261"><ele>551.0</ele><time>2026-04-19T08:54:25.234Z</time></trkpt><trkpt lat="43.2416889" lon="12.170161"><ele>551.0</ele><time>2026-04-19T08:54:27.237Z</time></trkpt><trkpt lat="43.2417229" lon="12.1700466"><ele>551.0</ele><time>2026-04-19T08:54:29.236Z</time></trkpt><trkpt lat="43.2416866" lon="12.1699397"><ele>551.0</ele><time>2026-04-19T08:54:31.233Z</time></trkpt><trkpt lat="43.2416392" lon="12.1698476"><ele>551.0</ele><time>2026-04-19T08:54:32.216Z</time></trkpt><trkpt lat="43.2415977" lon="12.1697619"><ele>551.0</ele><time>2026-04-19T08:54:33.215Z</time></trkpt><trkpt lat="43.2415601" lon="12.1696734"><ele>551.0</ele><time>2026-04-19T08:54:34.216Z</time></trkpt><trkpt lat="43.2415131" lon="12.1695452"><ele>550.6666666666666</ele><time>2026-04-19T08:54:36.216Z</time></trkpt><trkpt lat="43.2414787" lon="12.169444"><ele>550.3333333333333</ele><time>2026-04-19T08:54:38.227Z</time></trkpt><trkpt lat="43.2414761" lon="12.1693455"><ele>550.0</ele><time>2026-04-19T08:54:40.227Z</time></trkpt><trkpt lat="43.2414862" lon="12.1692347"><ele>549.6666666666666</ele><time>2026-04-19T08:54:42.227Z</time></trkpt><trkpt lat="43.2415167" lon="12.1691325"><ele>549.3333333333334</ele><time>2026-04-19T08:54:44.226Z</time></trkpt><trkpt lat="43.2415489" lon="12.1690448"><ele>549.0</ele><time>2026-04-19T08:54:45.218Z</time></trkpt><trkpt lat="43.2415603" lon="12.1689119"><ele>547.5</ele><time>2026-04-19T08:54:47.231Z</time></trkpt><trkpt lat="43.2414838" lon="12.1687836"><ele>546.0</ele><time>2026-04-19T08:54:49.216Z</time></trkpt><trkpt lat="43.2414397" lon="12.1686998"><ele>544.5</ele><time>2026-04-19T08:54:50.218Z</time></trkpt><trkpt lat="43.2414013" lon="12.1686221"><ele>543.0</ele><time>2026-04-19T08:54:51.216Z</time></trkpt><trkpt lat="43.2413598" lon="12.1685464"><ele>541.5</ele><time>2026-04-19T08:54:52.22Z</time></trkpt><trkpt lat="43.241314" lon="12.1684729"><ele>540.0</ele><time>2026-04-19T08:54:53.219Z</time></trkpt><trkpt lat="43.2412585" lon="12.1683976"><ele>538.3333333333334</ele><time>2026-04-19T08:54:54.219Z</time></trkpt><trkpt lat="43.2411902" lon="12.1683202"><ele>536.6666666666666</ele><time>2026-04-19T08:54:55.219Z</time></trkpt><trkpt lat="43.2411139" lon="12.1682346"><ele>535.0</ele><time>2026-04-19T08:54:56.221Z</time></trkpt><trkpt lat="43.2410443" lon="12.1681522"><ele>533.3333333333333</ele><time>2026-04-19T08:54:57.221Z</time></trkpt><trkpt lat="43.2409862" lon="12.1680748"><ele>531.6666666666666</ele><time>2026-04-19T08:54:58.218Z</time></trkpt><trkpt lat="43.2409339" lon="12.1680096"><ele>530.0</ele><time>2026-04-19T08:54:59.216Z</time></trkpt><trkpt lat="43.2408794" lon="12.1679532"><ele>529.3333333333333</ele><time>2026-04-19T08:55:00.226Z</time></trkpt><trkpt lat="43.2408231" lon="12.1679124"><ele>528.6666666666666</ele><time>2026-04-19T08:55:01.221Z</time></trkpt><trkpt lat="43.2407008" lon="12.1679084"><ele>528.0</ele><time>2026-04-19T08:55:03.22Z</time></trkpt><trkpt lat="43.2406378" lon="12.1679285"><ele>527.3333333333334</ele><time>2026-04-19T08:55:04.22Z</time></trkpt><trkpt lat="43.2405687" lon="12.1679537"><ele>526.6666666666667</ele><time>2026-04-19T08:55:05.218Z</time></trkpt><trkpt lat="43.2404991" lon="12.1679838"><ele>526.0</ele><time>2026-04-19T08:55:06.22Z</time></trkpt><trkpt lat="43.2404303" lon="12.1680104"><ele>524.3333333333334</ele><time>2026-04-19T08:55:07.224Z</time></trkpt><trkpt lat="43.2403647" lon="12.1680289"><ele>522.6666666666667</ele><time>2026-04-19T08:55:08.219Z</time></trkpt><trkpt lat="43.2402953" lon="12.1680329"><ele>521.0</ele><time>2026-04-19T08:55:09.218Z</time></trkpt><trkpt lat="43.2402189" lon="12.1680241"><ele>519.3333333333334</ele><time>2026-04-19T08:55:10.221Z</time></trkpt><trkpt lat="43.2401312" lon="12.1680157"><ele>517.6666666666666</ele><time>2026-04-19T08:55:11.218Z</time></trkpt><trkpt lat="43.2400375" lon="12.1680031"><ele>516.0</ele><time>2026-04-19T08:55:12.22Z</time></trkpt><trkpt lat="43.2399402" lon="12.16799"><ele>516.0</ele><time>2026-04-19T08:55:13.22Z</time></trkpt><trkpt lat="43.2398425" lon="12.1679801"><ele>516.0</ele><time>2026-04-19T08:55:14.219Z</time></trkpt><trkpt lat="43.2397449" lon="12.1679668"><ele>516.0</ele><time>2026-04-19T08:55:15.218Z</time></trkpt><trkpt lat="43.2396487" lon="12.1679477"><ele>516.0</ele><time>2026-04-19T08:55:16.223Z</time></trkpt><trkpt lat="43.2395548" lon="12.1679286"><ele>516.0</ele><time>2026-04-19T08:55:17.217Z</time></trkpt><trkpt lat="43.2394653" lon="12.1679066"><ele>515.0</ele><time>2026-04-19T08:55:18.221Z</time></trkpt><trkpt lat="43.2393823" lon="12.1678854"><ele>514.0</ele><time>2026-04-19T08:55:19.218Z</time></trkpt><trkpt lat="43.2393078" lon="12.1678581"><ele>513.0</ele><time>2026-04-19T08:55:20.221Z</time></trkpt><trkpt lat="43.2392408" lon="12.167834"><ele>512.0</ele><time>2026-04-19T08:55:21.231Z</time></trkpt><trkpt lat="43.2391298" lon="12.1678087"><ele>511.0</ele><time>2026-04-19T08:55:23.232Z</time></trkpt><trkpt lat="43.2390356" lon="12.1678697"><ele>510.0</ele><time>2026-04-19T08:55:25.223Z</time></trkpt><trkpt lat="43.2389252" lon="12.1679263"><ele>509.8</ele><time>2026-04-19T08:55:27.233Z</time></trkpt><trkpt lat="43.2388551" lon="12.1679149"><ele>509.6</ele><time>2026-04-19T08:55:28.225Z</time></trkpt><trkpt lat="43.2387876" lon="12.1678715"><ele>509.4</ele><time>2026-04-19T08:55:29.226Z</time></trkpt><trkpt lat="43.2387131" lon="12.1677757"><ele>509.2</ele><time>2026-04-19T08:55:31.227Z</time></trkpt><trkpt lat="43.2387499" lon="12.1676889"><ele>509.0</ele><time>2026-04-19T08:55:33.236Z</time></trkpt><trkpt lat="43.2388611" lon="12.1675859"><ele>508.99999999999994</ele><time>2026-04-19T08:55:35.227Z</time></trkpt><trkpt lat="43.2388988" lon="12.1675155"><ele>509.0</ele><time>2026-04-19T08:55:36.239Z</time></trkpt><trkpt lat="43.2388697" lon="12.1673558"><ele>509.0</ele><time>2026-04-19T08:55:38.233Z</time></trkpt><trkpt lat="43.2388092" lon="12.1672701"><ele>509.0</ele><time>2026-04-19T08:55:39.222Z</time></trkpt><trkpt lat="43.238746" lon="12.1671942"><ele>508.99999999999994</ele><time>2026-04-19T08:55:40.222Z</time></trkpt><trkpt lat="43.2386928" lon="12.1671357"><ele>509.0</ele><time>2026-04-19T08:55:41.227Z</time></trkpt><trkpt lat="43.2385859" lon="12.1670946"><ele>512.1666666666666</ele><time>2026-04-19T08:55:43.224Z</time></trkpt><trkpt lat="43.2385135" lon="12.1670744"><ele>515.3333333333333</ele><time>2026-04-19T08:55:44.226Z</time></trkpt><trkpt lat="43.2384286" lon="12.1670475"><ele>518.5</ele><time>2026-04-19T08:55:45.222Z</time></trkpt><trkpt lat="43.2383453" lon="12.167021"><ele>521.6666666666666</ele><time>2026-04-19T08:55:46.231Z</time></trkpt><trkpt lat="43.2382735" lon="12.1670067"><ele>524.8333333333334</ele><time>2026-04-19T08:55:47.217Z</time></trkpt><trkpt lat="43.2382066" lon="12.1670106"><ele>528.0</ele><time>2026-04-19T08:55:48.222Z</time></trkpt><trkpt lat="43.2381371" lon="12.167027"><ele>531.4</ele><time>2026-04-19T08:55:49.235Z</time></trkpt><trkpt lat="43.2380465" lon="12.167036"><ele>534.8</ele><time>2026-04-19T08:55:50.231Z</time></trkpt><trkpt lat="43.2379477" lon="12.16705"><ele>538.2</ele><time>2026-04-19T08:55:51.233Z</time></trkpt><trkpt lat="43.2378491" lon="12.1670523"><ele>541.6</ele><time>2026-04-19T08:55:52.232Z</time></trkpt><trkpt lat="43.2377512" lon="12.1670363"><ele>545.0</ele><time>2026-04-19T08:55:53.236Z</time></trkpt><trkpt lat="43.2376694" lon="12.1670037"><ele>545.0</ele><time>2026-04-19T08:55:54.236Z</time></trkpt><trkpt lat="43.2375949" lon="12.1669788"><ele>545.0</ele><time>2026-04-19T08:55:55.229Z</time></trkpt><trkpt lat="43.2375186" lon="12.1669707"><ele>545.0</ele><time>2026-04-19T08:55:56.235Z</time></trkpt><trkpt lat="43.2374474" lon="12.1669805"><ele>545.0</ele><time>2026-04-19T08:55:57.232Z</time></trkpt><trkpt lat="43.2373826" lon="12.167003"><ele>545.0</ele><time>2026-04-19T08:55:58.234Z</time></trkpt><trkpt lat="43.2373175" lon="12.1670349"><ele>545.0</ele><time>2026-04-19T08:55:59.24Z</time></trkpt><trkpt lat="43.2372464" lon="12.1670666"><ele>545.0</ele><time>2026-04-19T08:56:00.23Z</time></trkpt><trkpt lat="43.2371653" lon="12.1671019"><ele>546.6</ele><time>2026-04-19T08:56:01.229Z</time></trkpt><trkpt lat="43.2370813" lon="12.1671355"><ele>548.2</ele><time>2026-04-19T08:56:02.235Z</time></trkpt><trkpt lat="43.2369994" lon="12.1671614"><ele>549.8</ele><time>2026-04-19T08:56:03.226Z</time></trkpt><trkpt lat="43.2369305" lon="12.1671715"><ele>551.4</ele><time>2026-04-19T08:56:04.231Z</time></trkpt><trkpt lat="43.2368328" lon="12.167144"><ele>553.0</ele><time>2026-04-19T08:56:06.231Z</time></trkpt><trkpt lat="43.2367407" lon="12.1670161"><ele>553.0</ele><time>2026-04-19T08:56:08.231Z</time></trkpt><trkpt lat="43.2366892" lon="12.1669539"><ele>553.0</ele><time>2026-04-19T08:56:09.23Z</time></trkpt><trkpt lat="43.2366284" lon="12.1669032"><ele>553.0</ele><time>2026-04-19T08:56:10.226Z</time></trkpt><trkpt lat="43.2365624" lon="12.1668627"><ele>553.0</ele><time>2026-04-19T08:56:11.226Z</time></trkpt><trkpt lat="43.2364946" lon="12.1668278"><ele>553.0</ele><time>2026-04-19T08:56:12.229Z</time></trkpt><trkpt lat="43.2364235" lon="12.1667876"><ele>553.0</ele><time>2026-04-19T08:56:14.227Z</time></trkpt><trkpt lat="43.2363438" lon="12.1667536"><ele>553.0</ele><time>2026-04-19T08:56:18.246Z</time></trkpt><trkpt lat="43.2362748" lon="12.1667533"><ele>556.0</ele><time>2026-04-19T08:56:20.24Z</time></trkpt><trkpt lat="43.2362119" lon="12.1667256"><ele>559.0</ele><time>2026-04-19T08:56:22.238Z</time></trkpt><trkpt lat="43.236181" lon="12.1668054"><ele>562.0</ele><time>2026-04-19T08:56:23.247Z</time></trkpt><trkpt lat="43.2361613" lon="12.1668992"><ele>565.0</ele><time>2026-04-19T08:56:24.236Z</time></trkpt><trkpt lat="43.2361245" lon="12.1670512"><ele>568.0</ele><time>2026-04-19T08:56:26.221Z</time></trkpt><trkpt lat="43.2360729" lon="12.167215"><ele>568.0</ele><time>2026-04-19T08:56:28.231Z</time></trkpt><trkpt lat="43.2360375" lon="12.1673001"><ele>568.0</ele><time>2026-04-19T08:56:29.228Z</time></trkpt><trkpt lat="43.235995" lon="12.1673777"><ele>568.0</ele><time>2026-04-19T08:56:30.235Z</time></trkpt><trkpt lat="43.2359494" lon="12.1674423"><ele>568.0</ele><time>2026-04-19T08:56:31.231Z</time></trkpt><trkpt lat="43.2358695" lon="12.1675243"><ele>568.0</ele><time>2026-04-19T08:56:33.235Z</time></trkpt><trkpt lat="43.2358179" lon="12.1674264"><ele>568.0</ele><time>2026-04-19T08:56:40.246Z</time></trkpt><trkpt lat="43.2357511" lon="12.1673334"><ele>568.0</ele><time>2026-04-19T08:56:42.244Z</time></trkpt><trkpt lat="43.2357172" lon="12.1672527"><ele>568.0</ele><time>2026-04-19T08:56:43.238Z</time></trkpt><trkpt lat="43.2356737" lon="12.1671722"><ele>568.0</ele><time>2026-04-19T08:56:44.232Z</time></trkpt><trkpt lat="43.2356123" lon="12.1670996"><ele>568.0</ele><time>2026-04-19T08:56:45.228Z</time></trkpt><trkpt lat="43.2355445" lon="12.1670448"><ele>568.0</ele><time>2026-04-19T08:56:46.227Z</time></trkpt><trkpt lat="43.2354749" lon="12.1669979"><ele>568.0</ele><time>2026-04-19T08:56:47.225Z</time></trkpt><trkpt lat="43.2354066" lon="12.1669507"><ele>567.3333333333334</ele><time>2026-04-19T08:56:48.232Z</time></trkpt><trkpt lat="43.2353399" lon="12.1668927"><ele>566.6666666666667</ele><time>2026-04-19T08:56:49.232Z</time></trkpt><trkpt lat="43.2352762" lon="12.1668309"><ele>566.0</ele><time>2026-04-19T08:56:50.225Z</time></trkpt><trkpt lat="43.2352128" lon="12.1667639"><ele>565.3333333333334</ele><time>2026-04-19T08:56:51.227Z</time></trkpt><trkpt lat="43.2351507" lon="12.1666971"><ele>564.6666666666666</ele><time>2026-04-19T08:56:52.224Z</time></trkpt><trkpt lat="43.2350902" lon="12.166632"><ele>564.0</ele><time>2026-04-19T08:56:53.221Z</time></trkpt><trkpt lat="43.2350332" lon="12.1665812"><ele>564.0</ele><time>2026-04-19T08:56:54.227Z</time></trkpt><trkpt lat="43.2349707" lon="12.1665311"><ele>564.0</ele><time>2026-04-19T08:56:55.222Z</time></trkpt><trkpt lat="43.2349073" lon="12.1664919"><ele>564.0</ele><time>2026-04-19T08:56:56.219Z</time></trkpt><trkpt lat="43.2348425" lon="12.1664672"><ele>564.0</ele><time>2026-04-19T08:56:57.231Z</time></trkpt><trkpt lat="43.2347747" lon="12.1664514"><ele>564.0</ele><time>2026-04-19T08:56:58.226Z</time></trkpt><trkpt lat="43.2347002" lon="12.1664395"><ele>564.0</ele><time>2026-04-19T08:56:59.242Z</time></trkpt><trkpt lat="43.2346179" lon="12.1664336"><ele>564.0</ele><time>2026-04-19T08:57:00.229Z</time></trkpt><trkpt lat="43.2345292" lon="12.1664195"><ele>567.2</ele><time>2026-04-19T08:57:01.233Z</time></trkpt><trkpt lat="43.2344549" lon="12.1664006"><ele>570.4</ele><time>2026-04-19T08:57:02.233Z</time></trkpt><trkpt lat="43.2343434" lon="12.1663304"><ele>573.6</ele><time>2026-04-19T08:57:04.231Z</time></trkpt><trkpt lat="43.2342511" lon="12.1662897"><ele>576.8</ele><time>2026-04-19T08:57:06.225Z</time></trkpt><trkpt lat="43.2341194" lon="12.1663689"><ele>580.0</ele><time>2026-04-19T08:57:08.226Z</time></trkpt><trkpt lat="43.2340381" lon="12.1664304"><ele>580.5</ele><time>2026-04-19T08:57:09.23Z</time></trkpt><trkpt lat="43.2339503" lon="12.1664996"><ele>581.0</ele><time>2026-04-19T08:57:10.233Z</time></trkpt><trkpt lat="43.2338616" lon="12.1665711"><ele>581.5</ele><time>2026-04-19T08:57:11.235Z</time></trkpt><trkpt lat="43.2337806" lon="12.1666347"><ele>582.0</ele><time>2026-04-19T08:57:12.231Z</time></trkpt><trkpt lat="43.23371" lon="12.1666842"><ele>582.5</ele><time>2026-04-19T08:57:13.234Z</time></trkpt><trkpt lat="43.2336437" lon="12.1667106"><ele>583.0</ele><time>2026-04-19T08:57:14.231Z</time></trkpt><trkpt lat="43.2335779" lon="12.1667019"><ele>583.0</ele><time>2026-04-19T08:57:15.228Z</time></trkpt><trkpt lat="43.233513" lon="12.1666718"><ele>583.0</ele><time>2026-04-19T08:57:16.23Z</time></trkpt><trkpt lat="43.2334371" lon="12.1666473"><ele>583.0</ele><time>2026-04-19T08:57:17.234Z</time></trkpt><trkpt lat="43.233371" lon="12.1666346"><ele>583.0</ele><time>2026-04-19T08:57:18.226Z</time></trkpt><trkpt lat="43.2332938" lon="12.166668"><ele>583.0</ele><time>2026-04-19T08:57:20.226Z</time></trkpt><trkpt lat="43.2333005" lon="12.1668093"><ele>583.0</ele><time>2026-04-19T08:57:22.236Z</time></trkpt><trkpt lat="43.2333136" lon="12.166916"><ele>583.0</ele><time>2026-04-19T08:57:23.215Z</time></trkpt><trkpt lat="43.2333173" lon="12.1670338"><ele>583.0</ele><time>2026-04-19T08:57:24.216Z</time></trkpt><trkpt lat="43.233315" lon="12.167149"><ele>583.0</ele><time>2026-04-19T08:57:25.223Z</time></trkpt><trkpt lat="43.2333049" lon="12.1672736"><ele>583.0</ele><time>2026-04-19T08:57:26.219Z</time></trkpt><trkpt lat="43.2332959" lon="12.1673919"><ele>583.0</ele><time>2026-04-19T08:57:27.227Z</time></trkpt><trkpt lat="43.2332843" lon="12.167517"><ele>583.0</ele><time>2026-04-19T08:57:28.223Z</time></trkpt><trkpt lat="43.2332892" lon="12.1676513"><ele>582.6666666666667</ele><time>2026-04-19T08:57:29.217Z</time></trkpt><trkpt lat="43.2333097" lon="12.1677718"><ele>582.3333333333334</ele><time>2026-04-19T08:57:30.223Z</time></trkpt><trkpt lat="43.2333367" lon="12.1678793"><ele>582.0</ele><time>2026-04-19T08:57:31.225Z</time></trkpt><trkpt lat="43.2333641" lon="12.1679784"><ele>581.6666666666666</ele><time>2026-04-19T08:57:32.23Z</time></trkpt><trkpt lat="43.233381" lon="12.1680659"><ele>581.3333333333333</ele><time>2026-04-19T08:57:33.226Z</time></trkpt><trkpt lat="43.233392" lon="12.1681559"><ele>581.0</ele><time>2026-04-19T08:57:34.227Z</time></trkpt><trkpt lat="43.2333962" lon="12.1682504"><ele>580.1666666666666</ele><time>2026-04-19T08:57:35.228Z</time></trkpt><trkpt lat="43.2333846" lon="12.1683444"><ele>579.3333333333333</ele><time>2026-04-19T08:57:36.224Z</time></trkpt><trkpt lat="43.2333635" lon="12.1684281"><ele>578.5</ele><time>2026-04-19T08:57:37.229Z</time></trkpt><trkpt lat="43.2333071" lon="12.1685635"><ele>577.6666666666666</ele><time>2026-04-19T08:57:39.228Z</time></trkpt><trkpt lat="43.2333331" lon="12.1686632"><ele>576.8333333333334</ele><time>2026-04-19T08:57:42.235Z</time></trkpt><trkpt lat="43.2334495" lon="12.1686617"><ele>576.0</ele><time>2026-04-19T08:57:44.238Z</time></trkpt><trkpt lat="43.2335268" lon="12.168715"><ele>576.0</ele><time>2026-04-19T08:57:46.243Z</time></trkpt><trkpt lat="43.2334754" lon="12.1687797"><ele>576.0</ele><time>2026-04-19T08:57:48.242Z</time></trkpt><trkpt lat="43.2334001" lon="12.1688107"><ele>576.0</ele><time>2026-04-19T08:57:49.237Z</time></trkpt><trkpt lat="43.2333182" lon="12.1688085"><ele>576.0</ele><time>2026-04-19T08:57:50.228Z</time></trkpt><trkpt lat="43.2332416" lon="12.1687857"><ele>576.0</ele><time>2026-04-19T08:57:51.232Z</time></trkpt><trkpt lat="43.2331727" lon="12.1687723"><ele>576.0</ele><time>2026-04-19T08:57:52.24Z</time></trkpt><trkpt lat="43.2330867" lon="12.1687701"><ele>574.2</ele><time>2026-04-19T08:57:54.235Z</time></trkpt><trkpt lat="43.2330132" lon="12.1688033"><ele>572.4000000000001</ele><time>2026-04-19T08:57:56.242Z</time></trkpt><trkpt lat="43.232889" lon="12.1688871"><ele>570.6</ele><time>2026-04-19T08:57:58.233Z</time></trkpt><trkpt lat="43.2328003" lon="12.1689846"><ele>568.8000000000001</ele><time>2026-04-19T08:57:59.229Z</time></trkpt><trkpt lat="43.2327182" lon="12.1690847"><ele>567.0</ele><time>2026-04-19T08:58:00.228Z</time></trkpt><trkpt lat="43.2326487" lon="12.1691696"><ele>567.0</ele><time>2026-04-19T08:58:01.233Z</time></trkpt><trkpt lat="43.2325959" lon="12.1692328"><ele>567.0</ele><time>2026-04-19T08:58:02.231Z</time></trkpt><trkpt lat="43.2325165" lon="12.1693424"><ele>567.0</ele><time>2026-04-19T08:58:04.233Z</time></trkpt><trkpt lat="43.2324424" lon="12.1694277"><ele>567.0</ele><time>2026-04-19T08:58:06.226Z</time></trkpt><trkpt lat="43.2323746" lon="12.1695261"><ele>567.0</ele><time>2026-04-19T08:58:08.232Z</time></trkpt><trkpt lat="43.2323158" lon="12.1696774"><ele>566.0</ele><time>2026-04-19T08:58:10.229Z</time></trkpt><trkpt lat="43.232285" lon="12.1697668"><ele>565.0</ele><time>2026-04-19T08:58:11.234Z</time></trkpt><trkpt lat="43.2322414" lon="12.1698597"><ele>564.0</ele><time>2026-04-19T08:58:12.233Z</time></trkpt><trkpt lat="43.2321848" lon="12.1699335"><ele>563.0</ele><time>2026-04-19T08:58:13.235Z</time></trkpt><trkpt lat="43.2321167" lon="12.169994"><ele>562.0</ele><time>2026-04-19T08:58:14.236Z</time></trkpt><trkpt lat="43.2320369" lon="12.1700448"><ele>561.0</ele><time>2026-04-19T08:58:15.236Z</time></trkpt><trkpt lat="43.2319549" lon="12.1700891"><ele>561.0</ele><time>2026-04-19T08:58:16.234Z</time></trkpt><trkpt lat="43.231888" lon="12.1701343"><ele>561.0</ele><time>2026-04-19T08:58:17.234Z</time></trkpt><trkpt lat="43.2318228" lon="12.1701806"><ele>561.0</ele><time>2026-04-19T08:58:18.238Z</time></trkpt><trkpt lat="43.2317505" lon="12.1702215"><ele>561.0</ele><time>2026-04-19T08:58:19.235Z</time></trkpt><trkpt lat="43.2316717" lon="12.1702506"><ele>561.0</ele><time>2026-04-19T08:58:20.234Z</time></trkpt><trkpt lat="43.2315929" lon="12.1702738"><ele>561.0</ele><time>2026-04-19T08:58:21.231Z</time></trkpt><trkpt lat="43.2315223" lon="12.1703004"><ele>560.0</ele><time>2026-04-19T08:58:22.234Z</time></trkpt><trkpt lat="43.2314565" lon="12.1703355"><ele>559.0</ele><time>2026-04-19T08:58:23.23Z</time></trkpt><trkpt lat="43.2313649" lon="12.1704159"><ele>558.0</ele><time>2026-04-19T08:58:25.236Z</time></trkpt><trkpt lat="43.2313322" lon="12.1705876"><ele>557.0</ele><time>2026-04-19T08:58:27.234Z</time></trkpt><trkpt lat="43.2313067" lon="12.1706787"><ele>556.0</ele><time>2026-04-19T08:58:28.235Z</time></trkpt><trkpt lat="43.2312642" lon="12.1707557"><ele>556.0</ele><time>2026-04-19T08:58:29.228Z</time></trkpt><trkpt lat="43.2312112" lon="12.1708161"><ele>556.0</ele><time>2026-04-19T08:58:30.231Z</time></trkpt><trkpt lat="43.2311507" lon="12.170856"><ele>556.0</ele><time>2026-04-19T08:58:31.228Z</time></trkpt><trkpt lat="43.2310478" lon="12.1709112"><ele>556.0</ele><time>2026-04-19T08:58:33.234Z</time></trkpt><trkpt lat="43.231005" lon="12.1709796"><ele>556.0</ele><time>2026-04-19T08:58:35.244Z</time></trkpt><trkpt lat="43.230979" lon="12.171113"><ele>556.0</ele><time>2026-04-19T08:58:38.245Z</time></trkpt><trkpt lat="43.2309372" lon="12.1712698"><ele>556.0</ele><time>2026-04-19T08:58:40.24Z</time></trkpt><trkpt lat="43.2308952" lon="12.1713625"><ele>556.0</ele><time>2026-04-19T08:58:41.236Z</time></trkpt><trkpt lat="43.2308523" lon="12.1714616"><ele>556.0</ele><time>2026-04-19T08:58:42.239Z</time></trkpt><trkpt lat="43.2308177" lon="12.1715753"><ele>556.0</ele><time>2026-04-19T08:58:43.237Z</time></trkpt><trkpt lat="43.2307872" lon="12.1716773"><ele>556.0</ele><time>2026-04-19T08:58:44.249Z</time></trkpt><trkpt lat="43.2307419" lon="12.1718166"><ele>556.0</ele><time>2026-04-19T08:58:46.25Z</time></trkpt><trkpt lat="43.2307007" lon="12.1718848"><ele>554.3333333333334</ele><time>2026-04-19T08:58:47.253Z</time></trkpt><trkpt lat="43.2306434" lon="12.1719523"><ele>552.6666666666666</ele><time>2026-04-19T08:58:48.248Z</time></trkpt><trkpt lat="43.2304009" lon="12.1721081"><ele>551.0</ele><time>2026-04-19T08:58:51.243Z</time></trkpt><trkpt lat="43.2284211" lon="12.1711811"><ele>568.0</ele><time>2026-04-19T08:59:18.246Z</time></trkpt><trkpt lat="43.2269988" lon="12.1692032"><ele>600.0</ele><time>2026-04-19T09:00:13.237Z</time></trkpt><trkpt lat="43.2276109" lon="12.1665216"><ele>639.0</ele><time>2026-04-19T09:00:37.231Z</time></trkpt><trkpt lat="43.2289947" lon="12.1643839"><ele>646.0</ele><time>2026-04-19T09:01:00.236Z</time></trkpt><trkpt lat="43.227369" lon="12.1627224"><ele>626.0</ele><time>2026-04-19T09:01:37.237Z</time></trkpt><trkpt lat="43.2259768" lon="12.1625596"><ele>595.0</ele><time>2026-04-19T09:01:54.237Z</time></trkpt><trkpt lat="43.2239022" lon="12.1622453"><ele>585.0</ele><time>2026-04-19T09:02:14.234Z</time></trkpt><trkpt lat="43.2218967" lon="12.1627116"><ele>580.0</ele><time>2026-04-19T09:04:43.236Z</time></trkpt><trkpt lat="43.2206835" lon="12.1635391"><ele>538.0</ele><time>2026-04-19T09:05:03.235Z</time></trkpt><trkpt lat="43.220961" lon="12.1662995"><ele>509.0</ele><time>2026-04-19T09:05:59.231Z</time></trkpt><trkpt lat="43.2207109" lon="12.1681159"><ele>483.0</ele><time>2026-04-19T09:06:39.779Z</time></trkpt><trkpt lat="43.2203289" lon="12.1689346"><ele>455.0</ele><time>2026-04-19T09:07:05.23Z</time></trkpt><trkpt lat="43.21914" lon="12.1699561"><ele>460.0</ele><time>2026-04-19T09:07:41.23Z</time></trkpt><trkpt lat="43.2204912" lon="12.1701644"><ele>427.0</ele><time>2026-04-19T09:08:10.232Z</time></trkpt><trkpt lat="43.2224673" lon="12.170842"><ele>425.0</ele><time>2026-04-19T09:09:36.228Z</time></trkpt><trkpt lat="43.2223646" lon="12.1727593"><ele>418.0</ele><time>2026-04-19T09:09:56.224Z</time></trkpt><trkpt lat="43.2234168" lon="12.1751661"><ele>386.0</ele><time>2026-04-19T09:10:35.229Z</time></trkpt><trkpt lat="43.2222258" lon="12.1762437"><ele>351.0</ele><time>2026-04-19T09:10:49.228Z</time></trkpt><trkpt lat="43.21954" lon="12.1770767"><ele>330.0</ele><time>2026-04-19T09:11:21.231Z</time></trkpt><trkpt lat="43.2171382" lon="12.1787991"><ele>319.0</ele><time>2026-04-19T09:11:46.225Z</time></trkpt><trkpt lat="43.2169345" lon="12.1815878"><ele>325.0</ele><time>2026-04-19T09:12:21.233Z</time></trkpt><trkpt lat="43.2188129" lon="12.1844303"><ele>324.0</ele><time>2026-04-19T09:12:42.225Z</time></trkpt><trkpt lat="43.2209731" lon="12.1867251"><ele>316.0</ele><time>2026-04-19T09:13:04.224Z</time></trkpt><trkpt lat="43.2207732" lon="12.1885512"><ele>316.0</ele><time>2026-04-19T09:13:17.223Z</time></trkpt><trkpt lat="43.2194951" lon="12.1907518"><ele>313.0</ele><time>2026-04-19T09:13:37.225Z</time></trkpt><trkpt lat="43.2168021" lon="12.1918398"><ele>312.0</ele><time>2026-04-19T09:14:00.228Z</time></trkpt><trkpt lat="43.2173551" lon="12.1955197"><ele>310.0</ele><time>2026-04-19T09:14:30.224Z</time></trkpt><trkpt lat="43.2174237" lon="12.198411"><ele>314.0</ele><time>2026-04-19T09:14:44.227Z</time></trkpt><trkpt lat="43.2186807" lon="12.2017291"><ele>320.0</ele><time>2026-04-19T09:15:03.22Z</time></trkpt><trkpt lat="43.2162324" lon="12.2036367"><ele>328.0</ele><time>2026-04-19T09:16:02.232Z</time></trkpt><trkpt lat="43.2146538" lon="12.2055011"><ele>337.0</ele><time>2026-04-19T09:16:27.219Z</time></trkpt><trkpt lat="43.2136534" lon="12.2079536"><ele>347.0</ele><time>2026-04-19T09:17:04.224Z</time></trkpt><trkpt lat="43.2123228" lon="12.2085812"><ele>351.0</ele><time>2026-04-19T09:18:32.214Z</time></trkpt><trkpt lat="43.2119788" lon="12.2104033"><ele>366.0</ele><time>2026-04-19T09:18:55.214Z</time></trkpt><trkpt lat="43.209943" lon="12.2107917"><ele>382.0</ele><time>2026-04-19T09:20:19.216Z</time></trkpt><trkpt lat="43.2094773" lon="12.2125436"><ele>411.0</ele><time>2026-04-19T09:26:10.231Z</time></trkpt><trkpt lat="43.2092315" lon="12.2144354"><ele>426.0</ele><time>2026-04-19T09:30:12.227Z</time></trkpt><trkpt lat="43.2087547" lon="12.2162478"><ele>465.0</ele><time>2026-04-19T09:30:28.223Z</time></trkpt><trkpt lat="43.2106146" lon="12.2174649"><ele>491.0</ele><time>2026-04-19T09:30:55.224Z</time></trkpt><trkpt lat="43.2093022" lon="12.2196108"><ele>514.0</ele><time>2026-04-19T09:31:17.225Z</time></trkpt><trkpt lat="43.2072544" lon="12.2200468"><ele>519.0</ele><time>2026-04-19T09:31:48.215Z</time></trkpt><trkpt lat="43.2059543" lon="12.2205739"><ele>545.0</ele><time>2026-04-19T09:32:05.219Z</time></trkpt><trkpt lat="43.2052781" lon="12.2208486"><ele>579.0</ele><time>2026-04-19T09:32:52.208Z</time></trkpt><trkpt lat="43.2037654" lon="12.2228252"><ele>654.0</ele><time>2026-04-19T09:33:58.218Z</time></trkpt><trkpt lat="43.2014168" lon="12.2248313"><ele>661.0</ele><time>2026-04-19T09:34:34.206Z</time></trkpt><trkpt lat="43.1993378" lon="12.2246017"><ele>626.0</ele><time>2026-04-19T09:36:29.212Z</time></trkpt><trkpt lat="43.198131" lon="12.2222653"><ele>630.0</ele><time>2026-04-19T09:37:02.216Z</time></trkpt><trkpt lat="43.1992607" lon="12.2198903"><ele>598.0</ele><time>2026-04-19T09:37:22.219Z</time></trkpt><trkpt lat="43.1974633" lon="12.2183776"><ele>576.0</ele><time>2026-04-19T09:37:48.218Z</time></trkpt><trkpt lat="43.1966961" lon="12.2147014"><ele>560.0</ele><time>2026-04-19T09:38:07.22Z</time></trkpt><trkpt lat="43.1955418" lon="12.2110373"><ele>536.0</ele><time>2026-04-19T09:38:25.217Z</time></trkpt><trkpt lat="43.1943419" lon="12.2066622"><ele>498.0</ele><time>2026-04-19T09:38:47.216Z</time></trkpt><trkpt lat="43.1930583" lon="12.2034085"><ele>482.0</ele><time>2026-04-19T09:39:09.208Z</time></trkpt><trkpt lat="43.1920757" lon="12.2046814"><ele>467.0</ele><time>2026-04-19T09:39:24.218Z</time></trkpt><trkpt lat="43.1900492" lon="12.2053772"><ele>457.0</ele><time>2026-04-19T09:39:46.217Z</time></trkpt><trkpt lat="43.1895099" lon="12.2090162"><ele>434.0</ele><time>2026-04-19T09:40:16.218Z</time></trkpt><trkpt lat="43.1873206" lon="12.2112742"><ele>409.0</ele><time>2026-04-19T09:41:18.219Z</time></trkpt><trkpt lat="43.1852714" lon="12.2118607"><ele>393.0</ele><time>2026-04-19T09:41:50.217Z</time></trkpt><trkpt lat="43.1836916" lon="12.21375"><ele>376.0</ele><time>2026-04-19T09:42:16.215Z</time></trkpt><trkpt lat="43.1817581" lon="12.2128345"><ele>341.0</ele><time>2026-04-19T09:42:50.222Z</time></trkpt><trkpt lat="43.179675" lon="12.2130453"><ele>323.0</ele><time>2026-04-19T09:43:12.216Z</time></trkpt><trkpt lat="43.1776702" lon="12.2124902"><ele>306.0</ele><time>2026-04-19T09:43:34.22Z</time></trkpt><trkpt lat="43.1760251" lon="12.2143478"><ele>285.0</ele><time>2026-04-19T09:43:55.221Z</time></trkpt><trkpt lat="43.1736497" lon="12.2162889"><ele>269.0</ele><time>2026-04-19T09:44:27.221Z</time></trkpt><trkpt lat="43.1704841" lon="12.2180647"><ele>264.0</ele><time>2026-04-19T09:45:12.219Z</time></trkpt><trkpt lat="43.1685176" lon="12.2190053"><ele>259.0</ele><time>2026-04-19T09:45:33.215Z</time></trkpt><trkpt lat="43.1659747" lon="12.2203873"><ele>255.0</ele><time>2026-04-19T09:45:51.216Z</time></trkpt><trkpt lat="43.1635467" lon="12.2220653"><ele>255.0</ele><time>2026-04-19T09:46:26.215Z</time></trkpt><trkpt lat="43.1615175" lon="12.2224573"><ele>255.0</ele><time>2026-04-19T09:46:43.223Z</time></trkpt><trkpt lat="43.1599783" lon="12.2242823"><ele>254.0</ele><time>2026-04-19T09:47:10.221Z</time></trkpt><trkpt lat="43.1579181" lon="12.2239548"><ele>256.0</ele><time>2026-04-19T09:47:36.214Z</time></trkpt><trkpt lat="43.1558547" lon="12.2235194"><ele>256.0</ele><time>2026-04-19T09:47:56.215Z</time></trkpt><trkpt lat="43.1531741" lon="12.2223522"><ele>247.0</ele><time>2026-04-19T09:48:16.229Z</time></trkpt><trkpt lat="43.1504704" lon="12.2215906"><ele>246.0</ele><time>2026-04-19T09:48:43.223Z</time></trkpt><trkpt lat="43.148465" lon="12.2209884"><ele>244.0</ele><time>2026-04-19T09:49:06.216Z</time></trkpt><trkpt lat="43.1464473" lon="12.2214786"><ele>241.0</ele><time>2026-04-19T09:49:26.219Z</time></trkpt><trkpt lat="43.1435227" lon="12.2239529"><ele>234.0</ele><time>2026-04-19T09:49:48.212Z</time></trkpt><trkpt lat="43.1406747" lon="12.2265482"><ele>234.0</ele><time>2026-04-19T09:50:27.218Z</time></trkpt></trkseg></trk></gpx>